<?xml version="1.0" encoding="utf-8"?>
<gpx xmlns:xsi="http://www.w3.org/2001/XMLSchema-instance" xmlns:xsd="http://www.w3.org/2001/XMLSchema" version="1.1" creator="Shapelink.com" xmlns="http://www.topografix.com/GPX/1/1" xmlns:gpxtpx="http://www.garmin.com/xmlschemas/TrackPointExtension/v1">
  <metadata>
    <name>Cykling 20.36 km, 2013-10-11</name>
    <desc></desc>
    <author><name>Stefan Östlund</name></author> 
    <time>2013-10-11T17:53:37Z</time>
  </metadata>
  <trk>
    <name>Cykling 20.36 km, 2013-10-11</name>
    <trkseg>
      <trkpt lat="59.9846701" lon="15.827857">
        <ele>104.2</ele>
        <time>2013-10-11T17:53:37Z</time>
      </trkpt>
      <trkpt lat="59.984675" lon="15.8278457">
        <ele>104.2</ele>
        <time>2013-10-11T17:53:38Z</time>
      </trkpt>
      <trkpt lat="59.9846828" lon="15.8278384">
        <ele>104.2</ele>
        <time>2013-10-11T17:53:39Z</time>
      </trkpt>
      <trkpt lat="59.9846883" lon="15.8278379">
        <ele>104.2</ele>
        <time>2013-10-11T17:53:40Z</time>
      </trkpt>
      <trkpt lat="59.9846912" lon="15.8278423">
        <ele>104.2</ele>
        <time>2013-10-11T17:53:41Z</time>
      </trkpt>
      <trkpt lat="59.9846881" lon="15.8278436">
        <ele>104.2</ele>
        <time>2013-10-11T17:53:42Z</time>
      </trkpt>
      <trkpt lat="59.9846866" lon="15.8278443">
        <ele>104.2</ele>
        <time>2013-10-11T17:53:43Z</time>
      </trkpt>
      <trkpt lat="59.9846858" lon="15.8278446">
        <ele>104.2</ele>
        <time>2013-10-11T17:53:44Z</time>
      </trkpt>
      <trkpt lat="59.984685" lon="15.8278281">
        <ele>104.2</ele>
        <time>2013-10-11T17:53:45Z</time>
      </trkpt>
      <trkpt lat="59.98469" lon="15.8278286">
        <ele>104.2</ele>
        <time>2013-10-11T17:53:47Z</time>
      </trkpt>
      <trkpt lat="59.9846941" lon="15.827812">
        <ele>104.2</ele>
        <time>2013-10-11T17:53:48Z</time>
      </trkpt>
      <trkpt lat="59.9847" lon="15.8278068">
        <ele>104.2</ele>
        <time>2013-10-11T17:53:49Z</time>
      </trkpt>
      <trkpt lat="59.9847026" lon="15.8278042">
        <ele>104.2</ele>
        <time>2013-10-11T17:53:50Z</time>
      </trkpt>
      <trkpt lat="59.9847049" lon="15.8278005">
        <ele>104.2</ele>
        <time>2013-10-11T17:53:51Z</time>
      </trkpt>
      <trkpt lat="59.9847053" lon="15.8277804">
        <ele>104.2</ele>
        <time>2013-10-11T17:53:53Z</time>
      </trkpt>
      <trkpt lat="59.9847077" lon="15.8277767">
        <ele>104.2</ele>
        <time>2013-10-11T17:53:54Z</time>
      </trkpt>
      <trkpt lat="59.9847109" lon="15.8277686">
        <ele>104.2</ele>
        <time>2013-10-11T17:53:58Z</time>
      </trkpt>
      <trkpt lat="59.9847098" lon="15.8277686">
        <ele>104.2</ele>
        <time>2013-10-11T17:53:59Z</time>
      </trkpt>
      <trkpt lat="59.98471" lon="15.8277667">
        <ele>104.2</ele>
        <time>2013-10-11T17:54:00Z</time>
      </trkpt>
      <trkpt lat="59.9847106" lon="15.8277644">
        <ele>104.2</ele>
        <time>2013-10-11T17:54:01Z</time>
      </trkpt>
      <trkpt lat="59.9847093" lon="15.8277645">
        <ele>104.2</ele>
        <time>2013-10-11T17:54:02Z</time>
      </trkpt>
      <trkpt lat="59.9847093" lon="15.8277638">
        <ele>104.2</ele>
        <time>2013-10-11T17:54:03Z</time>
      </trkpt>
      <trkpt lat="59.9847091" lon="15.8277633">
        <ele>104.2</ele>
        <time>2013-10-11T17:54:04Z</time>
      </trkpt>
      <trkpt lat="59.9847087" lon="15.8277627">
        <ele>104.2</ele>
        <time>2013-10-11T17:54:05Z</time>
      </trkpt>
      <trkpt lat="59.9847057" lon="15.8277648">
        <ele>104.2</ele>
        <time>2013-10-11T17:54:06Z</time>
      </trkpt>
      <trkpt lat="59.9847034" lon="15.8277661">
        <ele>104.2</ele>
        <time>2013-10-11T17:54:07Z</time>
      </trkpt>
      <trkpt lat="59.9846989" lon="15.8277737">
        <ele>104.2</ele>
        <time>2013-10-11T17:54:09Z</time>
      </trkpt>
      <trkpt lat="59.9846965" lon="15.8277786">
        <ele>104.2</ele>
        <time>2013-10-11T17:54:10Z</time>
      </trkpt>
      <trkpt lat="59.9846744" lon="15.8277487">
        <ele>104.2</ele>
        <time>2013-10-11T17:54:11Z</time>
      </trkpt>
      <trkpt lat="59.984672" lon="15.8277532">
        <ele>104.2</ele>
        <time>2013-10-11T17:54:12Z</time>
      </trkpt>
      <trkpt lat="59.9846701" lon="15.8277592">
        <ele>104.2</ele>
        <time>2013-10-11T17:54:13Z</time>
      </trkpt>
      <trkpt lat="59.9846682" lon="15.8277643">
        <ele>104.2</ele>
        <time>2013-10-11T17:54:14Z</time>
      </trkpt>
      <trkpt lat="59.9846615" lon="15.8277749">
        <ele>104.2</ele>
        <time>2013-10-11T17:54:15Z</time>
      </trkpt>
      <trkpt lat="59.9846565" lon="15.8277815">
        <ele>104.2</ele>
        <time>2013-10-11T17:54:16Z</time>
      </trkpt>
      <trkpt lat="59.9846515" lon="15.8277915">
        <ele>104.2</ele>
        <time>2013-10-11T17:54:17Z</time>
      </trkpt>
      <trkpt lat="59.9846495" lon="15.8277963">
        <ele>104.2</ele>
        <time>2013-10-11T17:54:18Z</time>
      </trkpt>
      <trkpt lat="59.9846502" lon="15.8277971">
        <ele>104.2</ele>
        <time>2013-10-11T17:54:19Z</time>
      </trkpt>
      <trkpt lat="59.9846461" lon="15.8278027">
        <ele>104.2</ele>
        <time>2013-10-11T17:54:20Z</time>
      </trkpt>
      <trkpt lat="59.9846432" lon="15.8278089">
        <ele>104.2</ele>
        <time>2013-10-11T17:54:21Z</time>
      </trkpt>
      <trkpt lat="59.9846432" lon="15.8278093">
        <ele>104.2</ele>
        <time>2013-10-11T17:54:22Z</time>
      </trkpt>
      <trkpt lat="59.9846427" lon="15.8278098">
        <ele>104.2</ele>
        <time>2013-10-11T17:54:23Z</time>
      </trkpt>
      <trkpt lat="59.9846423" lon="15.8278094">
        <ele>104.2</ele>
        <time>2013-10-11T17:54:24Z</time>
      </trkpt>
      <trkpt lat="59.9846432" lon="15.8278071">
        <ele>104.2</ele>
        <time>2013-10-11T17:54:25Z</time>
      </trkpt>
      <trkpt lat="59.9846439" lon="15.8278048">
        <ele>104.2</ele>
        <time>2013-10-11T17:54:26Z</time>
      </trkpt>
      <trkpt lat="59.9846444" lon="15.8278042">
        <ele>104.2</ele>
        <time>2013-10-11T17:54:27Z</time>
      </trkpt>
      <trkpt lat="59.9846456" lon="15.8278048">
        <ele>104.2</ele>
        <time>2013-10-11T17:54:28Z</time>
      </trkpt>
      <trkpt lat="59.9846466" lon="15.8278057">
        <ele>104.2</ele>
        <time>2013-10-11T17:54:29Z</time>
      </trkpt>
      <trkpt lat="59.9846459" lon="15.8278065">
        <ele>104.2</ele>
        <time>2013-10-11T17:54:30Z</time>
      </trkpt>
      <trkpt lat="59.9846441" lon="15.8278104">
        <ele>104.2</ele>
        <time>2013-10-11T17:54:31Z</time>
      </trkpt>
      <trkpt lat="59.9846424" lon="15.8278133">
        <ele>104.2</ele>
        <time>2013-10-11T17:54:32Z</time>
      </trkpt>
      <trkpt lat="59.9846402" lon="15.8278163">
        <ele>104.2</ele>
        <time>2013-10-11T17:54:33Z</time>
      </trkpt>
      <trkpt lat="59.9846325" lon="15.8278224">
        <ele>104.2</ele>
        <time>2013-10-11T17:54:34Z</time>
      </trkpt>
      <trkpt lat="59.9846337" lon="15.8278225">
        <ele>104.2</ele>
        <time>2013-10-11T17:54:36Z</time>
      </trkpt>
      <trkpt lat="59.9846368" lon="15.8278234">
        <ele>104.2</ele>
        <time>2013-10-11T17:54:37Z</time>
      </trkpt>
      <trkpt lat="59.9846372" lon="15.8278248">
        <ele>104.2</ele>
        <time>2013-10-11T17:54:38Z</time>
      </trkpt>
      <trkpt lat="59.9846345" lon="15.8278291">
        <ele>104.2</ele>
        <time>2013-10-11T17:54:39Z</time>
      </trkpt>
      <trkpt lat="59.9846334" lon="15.8278313">
        <ele>104.2</ele>
        <time>2013-10-11T17:54:40Z</time>
      </trkpt>
      <trkpt lat="59.9846331" lon="15.8278298">
        <ele>104.2</ele>
        <time>2013-10-11T17:54:41Z</time>
      </trkpt>
      <trkpt lat="59.9846361" lon="15.8278066">
        <ele>104.2</ele>
        <time>2013-10-11T17:54:42Z</time>
      </trkpt>
      <trkpt lat="59.9846409" lon="15.8277912">
        <ele>104.2</ele>
        <time>2013-10-11T17:54:45Z</time>
      </trkpt>
      <trkpt lat="59.984648" lon="15.8277918">
        <ele>104.2</ele>
        <time>2013-10-11T17:54:47Z</time>
      </trkpt>
      <trkpt lat="59.9846553" lon="15.8277893">
        <ele>104.2</ele>
        <time>2013-10-11T17:54:49Z</time>
      </trkpt>
      <trkpt lat="59.9846484" lon="15.8278105">
        <ele>104.2</ele>
        <time>2013-10-11T17:54:50Z</time>
      </trkpt>
      <trkpt lat="59.9846498" lon="15.8278292">
        <ele>104.2</ele>
        <time>2013-10-11T17:54:52Z</time>
      </trkpt>
      <trkpt lat="59.9846503" lon="15.827844">
        <ele>104.2</ele>
        <time>2013-10-11T17:54:54Z</time>
      </trkpt>
      <trkpt lat="59.9846517" lon="15.8278452">
        <ele>104.2</ele>
        <time>2013-10-11T17:54:55Z</time>
      </trkpt>
      <trkpt lat="59.9846514" lon="15.8278496">
        <ele>104.2</ele>
        <time>2013-10-11T17:54:56Z</time>
      </trkpt>
      <trkpt lat="59.9846504" lon="15.8278525">
        <ele>104.2</ele>
        <time>2013-10-11T17:54:57Z</time>
      </trkpt>
      <trkpt lat="59.9846485" lon="15.8278519">
        <ele>104.2</ele>
        <time>2013-10-11T17:54:58Z</time>
      </trkpt>
      <trkpt lat="59.9846435" lon="15.8278789">
        <ele>104.2</ele>
        <time>2013-10-11T17:54:59Z</time>
      </trkpt>
      <trkpt lat="59.9846384" lon="15.827873">
        <ele>104.2</ele>
        <time>2013-10-11T17:55:00Z</time>
      </trkpt>
      <trkpt lat="59.9846375" lon="15.8278671">
        <ele>104.2</ele>
        <time>2013-10-11T17:55:01Z</time>
      </trkpt>
      <trkpt lat="59.9846269" lon="15.8278812">
        <ele>104.2</ele>
        <time>2013-10-11T17:55:02Z</time>
      </trkpt>
      <trkpt lat="59.9846186" lon="15.8278977">
        <ele>104.2</ele>
        <time>2013-10-11T17:55:03Z</time>
      </trkpt>
      <trkpt lat="59.984613" lon="15.8279031">
        <ele>104.2</ele>
        <time>2013-10-11T17:55:04Z</time>
      </trkpt>
      <trkpt lat="59.9846061" lon="15.8279154">
        <ele>104.2</ele>
        <time>2013-10-11T17:55:05Z</time>
      </trkpt>
      <trkpt lat="59.9846021" lon="15.8279244">
        <ele>104.2</ele>
        <time>2013-10-11T17:55:06Z</time>
      </trkpt>
      <trkpt lat="59.9845991" lon="15.8279338">
        <ele>104.2</ele>
        <time>2013-10-11T17:55:07Z</time>
      </trkpt>
      <trkpt lat="59.9845922" lon="15.8279356">
        <ele>104.2</ele>
        <time>2013-10-11T17:55:10Z</time>
      </trkpt>
      <trkpt lat="59.9845839" lon="15.8279276">
        <ele>104.2</ele>
        <time>2013-10-11T17:55:12Z</time>
      </trkpt>
      <trkpt lat="59.9845787" lon="15.8279177">
        <ele>104.2</ele>
        <time>2013-10-11T17:55:14Z</time>
      </trkpt>
      <trkpt lat="59.9845782" lon="15.827913">
        <ele>104.2</ele>
        <time>2013-10-11T17:55:15Z</time>
      </trkpt>
      <trkpt lat="59.9845796" lon="15.8279151">
        <ele>104.2</ele>
        <time>2013-10-11T17:55:16Z</time>
      </trkpt>
      <trkpt lat="59.9845777" lon="15.8279196">
        <ele>104.2</ele>
        <time>2013-10-11T17:55:17Z</time>
      </trkpt>
      <trkpt lat="59.9845752" lon="15.827913">
        <ele>104.2</ele>
        <time>2013-10-11T17:55:18Z</time>
      </trkpt>
      <trkpt lat="59.9845759" lon="15.827913">
        <ele>104.2</ele>
        <time>2013-10-11T17:55:19Z</time>
      </trkpt>
      <trkpt lat="59.9845779" lon="15.8279111">
        <ele>104.2</ele>
        <time>2013-10-11T17:55:20Z</time>
      </trkpt>
      <trkpt lat="59.9845798" lon="15.8279098">
        <ele>104.2</ele>
        <time>2013-10-11T17:55:21Z</time>
      </trkpt>
      <trkpt lat="59.984582" lon="15.8279171">
        <ele>104.2</ele>
        <time>2013-10-11T17:55:22Z</time>
      </trkpt>
      <trkpt lat="59.9845902" lon="15.8279245">
        <ele>104.2</ele>
        <time>2013-10-11T17:55:23Z</time>
      </trkpt>
      <trkpt lat="59.984589" lon="15.8279312">
        <ele>104.2</ele>
        <time>2013-10-11T17:55:24Z</time>
      </trkpt>
      <trkpt lat="59.9845907" lon="15.8279482">
        <ele>104.2</ele>
        <time>2013-10-11T17:55:27Z</time>
      </trkpt>
      <trkpt lat="59.9845908" lon="15.8279491">
        <ele>104.2</ele>
        <time>2013-10-11T17:55:28Z</time>
      </trkpt>
      <trkpt lat="59.9845907" lon="15.8279519">
        <ele>104.2</ele>
        <time>2013-10-11T17:55:29Z</time>
      </trkpt>
      <trkpt lat="59.9845907" lon="15.8279519">
        <ele>104.2</ele>
        <time>2013-10-11T17:55:30Z</time>
      </trkpt>
      <trkpt lat="59.9845881" lon="15.8279567">
        <ele>104.2</ele>
        <time>2013-10-11T17:55:31Z</time>
      </trkpt>
      <trkpt lat="59.9845885" lon="15.8279613">
        <ele>104.2</ele>
        <time>2013-10-11T17:55:32Z</time>
      </trkpt>
      <trkpt lat="59.9845876" lon="15.8279611">
        <ele>104.2</ele>
        <time>2013-10-11T17:55:33Z</time>
      </trkpt>
      <trkpt lat="59.9846134" lon="15.8279196">
        <ele>104.2</ele>
        <time>2013-10-11T17:55:34Z</time>
      </trkpt>
      <trkpt lat="59.9846134" lon="15.8279234">
        <ele>104.2</ele>
        <time>2013-10-11T17:55:35Z</time>
      </trkpt>
      <trkpt lat="59.9846149" lon="15.8279291">
        <ele>104.2</ele>
        <time>2013-10-11T17:55:36Z</time>
      </trkpt>
      <trkpt lat="59.9846175" lon="15.8279263">
        <ele>104.2</ele>
        <time>2013-10-11T17:55:37Z</time>
      </trkpt>
      <trkpt lat="59.9846163" lon="15.8279256">
        <ele>104.2</ele>
        <time>2013-10-11T17:55:38Z</time>
      </trkpt>
      <trkpt lat="59.9846143" lon="15.8279232">
        <ele>104.2</ele>
        <time>2013-10-11T17:55:39Z</time>
      </trkpt>
      <trkpt lat="59.9846157" lon="15.8279184">
        <ele>104.2</ele>
        <time>2013-10-11T17:55:40Z</time>
      </trkpt>
      <trkpt lat="59.984612" lon="15.827915">
        <ele>104.2</ele>
        <time>2013-10-11T17:55:41Z</time>
      </trkpt>
      <trkpt lat="59.9846094" lon="15.8279122">
        <ele>104.2</ele>
        <time>2013-10-11T17:55:42Z</time>
      </trkpt>
      <trkpt lat="59.9846085" lon="15.8279146">
        <ele>104.2</ele>
        <time>2013-10-11T17:55:43Z</time>
      </trkpt>
      <trkpt lat="59.9846081" lon="15.8279158">
        <ele>104.2</ele>
        <time>2013-10-11T17:55:44Z</time>
      </trkpt>
      <trkpt lat="59.98461" lon="15.8279155">
        <ele>104.2</ele>
        <time>2013-10-11T17:55:45Z</time>
      </trkpt>
      <trkpt lat="59.984643" lon="15.827863">
        <ele>104.2</ele>
        <time>2013-10-11T17:55:46Z</time>
      </trkpt>
      <trkpt lat="59.9846439" lon="15.8278607">
        <ele>104.2</ele>
        <time>2013-10-11T17:55:47Z</time>
      </trkpt>
      <trkpt lat="59.9846423" lon="15.8278579">
        <ele>104.2</ele>
        <time>2013-10-11T17:55:49Z</time>
      </trkpt>
      <trkpt lat="59.9846421" lon="15.8278634">
        <ele>104.2</ele>
        <time>2013-10-11T17:55:51Z</time>
      </trkpt>
      <trkpt lat="59.9846414" lon="15.8278621">
        <ele>104.2</ele>
        <time>2013-10-11T17:55:52Z</time>
      </trkpt>
      <trkpt lat="59.984641" lon="15.8278673">
        <ele>104.2</ele>
        <time>2013-10-11T17:55:53Z</time>
      </trkpt>
      <trkpt lat="59.9846432" lon="15.8278767">
        <ele>104.2</ele>
        <time>2013-10-11T17:55:55Z</time>
      </trkpt>
      <trkpt lat="59.984642" lon="15.8278788">
        <ele>104.2</ele>
        <time>2013-10-11T17:55:56Z</time>
      </trkpt>
      <trkpt lat="59.9846448" lon="15.8278828">
        <ele>104.2</ele>
        <time>2013-10-11T17:55:57Z</time>
      </trkpt>
      <trkpt lat="59.9846458" lon="15.8278846">
        <ele>104.2</ele>
        <time>2013-10-11T17:55:58Z</time>
      </trkpt>
      <trkpt lat="59.984646" lon="15.8278876">
        <ele>104.2</ele>
        <time>2013-10-11T17:55:59Z</time>
      </trkpt>
      <trkpt lat="59.9846442" lon="15.8278948">
        <ele>104.2</ele>
        <time>2013-10-11T17:56:01Z</time>
      </trkpt>
      <trkpt lat="59.984642" lon="15.8278909">
        <ele>104.2</ele>
        <time>2013-10-11T17:56:02Z</time>
      </trkpt>
      <trkpt lat="59.9846422" lon="15.8278904">
        <ele>104.2</ele>
        <time>2013-10-11T17:56:03Z</time>
      </trkpt>
      <trkpt lat="59.9846434" lon="15.827893">
        <ele>104.2</ele>
        <time>2013-10-11T17:56:04Z</time>
      </trkpt>
      <trkpt lat="59.9846463" lon="15.8278974">
        <ele>104.2</ele>
        <time>2013-10-11T17:56:05Z</time>
      </trkpt>
      <trkpt lat="59.9846558" lon="15.8278801">
        <ele>104.2</ele>
        <time>2013-10-11T17:56:06Z</time>
      </trkpt>
      <trkpt lat="59.9846552" lon="15.8278748">
        <ele>104.2</ele>
        <time>2013-10-11T17:56:07Z</time>
      </trkpt>
      <trkpt lat="59.9846542" lon="15.827856">
        <ele>104.2</ele>
        <time>2013-10-11T17:56:08Z</time>
      </trkpt>
      <trkpt lat="59.9846566" lon="15.827853">
        <ele>104.2</ele>
        <time>2013-10-11T17:56:09Z</time>
      </trkpt>
      <trkpt lat="59.9846545" lon="15.8278503">
        <ele>104.2</ele>
        <time>2013-10-11T17:56:10Z</time>
      </trkpt>
      <trkpt lat="59.984653" lon="15.8278529">
        <ele>104.2</ele>
        <time>2013-10-11T17:56:14Z</time>
      </trkpt>
      <trkpt lat="59.9846413" lon="15.827877">
        <ele>104.2</ele>
        <time>2013-10-11T17:56:16Z</time>
      </trkpt>
      <trkpt lat="59.984643" lon="15.827879">
        <ele>104.2</ele>
        <time>2013-10-11T17:56:19Z</time>
      </trkpt>
      <trkpt lat="59.9846413" lon="15.8278831">
        <ele>104.2</ele>
        <time>2013-10-11T17:56:20Z</time>
      </trkpt>
      <trkpt lat="59.984636" lon="15.827871">
        <ele>104.2</ele>
        <time>2013-10-11T17:56:21Z</time>
      </trkpt>
      <trkpt lat="59.9846314" lon="15.8278566">
        <ele>104.2</ele>
        <time>2013-10-11T17:56:23Z</time>
      </trkpt>
      <trkpt lat="59.98463" lon="15.8278576">
        <ele>104.2</ele>
        <time>2013-10-11T17:56:24Z</time>
      </trkpt>
      <trkpt lat="59.9846233" lon="15.8278488">
        <ele>104.2</ele>
        <time>2013-10-11T17:56:25Z</time>
      </trkpt>
      <trkpt lat="59.9846204" lon="15.8278465">
        <ele>104.2</ele>
        <time>2013-10-11T17:56:26Z</time>
      </trkpt>
      <trkpt lat="59.9846195" lon="15.8278443">
        <ele>104.2</ele>
        <time>2013-10-11T17:56:27Z</time>
      </trkpt>
      <trkpt lat="59.9846187" lon="15.8278441">
        <ele>104.2</ele>
        <time>2013-10-11T17:56:28Z</time>
      </trkpt>
      <trkpt lat="59.9846195" lon="15.8278513">
        <ele>104.2</ele>
        <time>2013-10-11T17:56:29Z</time>
      </trkpt>
      <trkpt lat="59.9846263" lon="15.8278674">
        <ele>104.2</ele>
        <time>2013-10-11T17:56:30Z</time>
      </trkpt>
      <trkpt lat="59.9846272" lon="15.82788">
        <ele>104.2</ele>
        <time>2013-10-11T17:56:31Z</time>
      </trkpt>
      <trkpt lat="59.9846281" lon="15.8278844">
        <ele>104.2</ele>
        <time>2013-10-11T17:56:32Z</time>
      </trkpt>
      <trkpt lat="59.9846285" lon="15.8278905">
        <ele>104.2</ele>
        <time>2013-10-11T17:56:33Z</time>
      </trkpt>
      <trkpt lat="59.9846281" lon="15.8278955">
        <ele>104.2</ele>
        <time>2013-10-11T17:56:34Z</time>
      </trkpt>
      <trkpt lat="59.9846355" lon="15.827901">
        <ele>104.2</ele>
        <time>2013-10-11T17:56:41Z</time>
      </trkpt>
      <trkpt lat="59.9846346" lon="15.8279016">
        <ele>104.2</ele>
        <time>2013-10-11T17:56:42Z</time>
      </trkpt>
      <trkpt lat="59.9846347" lon="15.8279016">
        <ele>104.2</ele>
        <time>2013-10-11T17:56:43Z</time>
      </trkpt>
      <trkpt lat="59.9846355" lon="15.8278993">
        <ele>104.2</ele>
        <time>2013-10-11T17:56:44Z</time>
      </trkpt>
      <trkpt lat="59.9846372" lon="15.8279057">
        <ele>104.2</ele>
        <time>2013-10-11T17:56:45Z</time>
      </trkpt>
      <trkpt lat="59.9846378" lon="15.8279083">
        <ele>104.2</ele>
        <time>2013-10-11T17:56:46Z</time>
      </trkpt>
      <trkpt lat="59.9846394" lon="15.827909">
        <ele>104.2</ele>
        <time>2013-10-11T17:56:47Z</time>
      </trkpt>
      <trkpt lat="59.9846404" lon="15.827912">
        <ele>104.2</ele>
        <time>2013-10-11T17:56:48Z</time>
      </trkpt>
      <trkpt lat="59.9848145" lon="15.8278696">
        <ele>104.2</ele>
        <time>2013-10-11T18:01:18Z</time>
        <extensions><gpxtpx:TrackPointExtension><gpxtpx:hr>104</gpxtpx:hr></gpxtpx:TrackPointExtension></extensions>
      </trkpt>
      <trkpt lat="59.9848212" lon="15.8278834">
        <ele>104.2</ele>
        <time>2013-10-11T18:01:19Z</time>
        <extensions><gpxtpx:TrackPointExtension><gpxtpx:hr>103</gpxtpx:hr></gpxtpx:TrackPointExtension></extensions>
      </trkpt>
      <trkpt lat="59.9848217" lon="15.8279231">
        <ele>104.2</ele>
        <time>2013-10-11T18:01:21Z</time>
        <extensions><gpxtpx:TrackPointExtension><gpxtpx:hr>103</gpxtpx:hr></gpxtpx:TrackPointExtension></extensions>
      </trkpt>
      <trkpt lat="59.9848147" lon="15.8279363">
        <ele>104.2</ele>
        <time>2013-10-11T18:01:22Z</time>
        <extensions><gpxtpx:TrackPointExtension><gpxtpx:hr>102</gpxtpx:hr></gpxtpx:TrackPointExtension></extensions>
      </trkpt>
      <trkpt lat="59.9848157" lon="15.8279513">
        <ele>104.2</ele>
        <time>2013-10-11T18:01:23Z</time>
        <extensions><gpxtpx:TrackPointExtension><gpxtpx:hr>102</gpxtpx:hr></gpxtpx:TrackPointExtension></extensions>
      </trkpt>
      <trkpt lat="59.9848264" lon="15.8279742">
        <ele>104.2</ele>
        <time>2013-10-11T18:01:24Z</time>
        <extensions><gpxtpx:TrackPointExtension><gpxtpx:hr>103</gpxtpx:hr></gpxtpx:TrackPointExtension></extensions>
      </trkpt>
      <trkpt lat="59.9848426" lon="15.8280031">
        <ele>104.2</ele>
        <time>2013-10-11T18:01:25Z</time>
        <extensions><gpxtpx:TrackPointExtension><gpxtpx:hr>103</gpxtpx:hr></gpxtpx:TrackPointExtension></extensions>
      </trkpt>
      <trkpt lat="59.9848652" lon="15.8280233">
        <ele>104.2</ele>
        <time>2013-10-11T18:01:26Z</time>
        <extensions><gpxtpx:TrackPointExtension><gpxtpx:hr>103</gpxtpx:hr></gpxtpx:TrackPointExtension></extensions>
      </trkpt>
      <trkpt lat="59.9848919" lon="15.8280473">
        <ele>104.2</ele>
        <time>2013-10-11T18:01:27Z</time>
        <extensions><gpxtpx:TrackPointExtension><gpxtpx:hr>103</gpxtpx:hr></gpxtpx:TrackPointExtension></extensions>
      </trkpt>
      <trkpt lat="59.9849134" lon="15.8280745">
        <ele>104.2</ele>
        <time>2013-10-11T18:01:28Z</time>
        <extensions><gpxtpx:TrackPointExtension><gpxtpx:hr>103</gpxtpx:hr></gpxtpx:TrackPointExtension></extensions>
      </trkpt>
      <trkpt lat="59.9849309" lon="15.8280913">
        <ele>104.2</ele>
        <time>2013-10-11T18:01:29Z</time>
        <extensions><gpxtpx:TrackPointExtension><gpxtpx:hr>103</gpxtpx:hr></gpxtpx:TrackPointExtension></extensions>
      </trkpt>
      <trkpt lat="59.9849491" lon="15.8281079">
        <ele>104.2</ele>
        <time>2013-10-11T18:01:30Z</time>
        <extensions><gpxtpx:TrackPointExtension><gpxtpx:hr>104</gpxtpx:hr></gpxtpx:TrackPointExtension></extensions>
      </trkpt>
      <trkpt lat="59.9849724" lon="15.8281272">
        <ele>104.2</ele>
        <time>2013-10-11T18:01:31Z</time>
        <extensions><gpxtpx:TrackPointExtension><gpxtpx:hr>104</gpxtpx:hr></gpxtpx:TrackPointExtension></extensions>
      </trkpt>
      <trkpt lat="59.9849921" lon="15.8281426">
        <ele>104.2</ele>
        <time>2013-10-11T18:01:32Z</time>
        <extensions><gpxtpx:TrackPointExtension><gpxtpx:hr>104</gpxtpx:hr></gpxtpx:TrackPointExtension></extensions>
      </trkpt>
      <trkpt lat="59.9850113" lon="15.8281482">
        <ele>104.2</ele>
        <time>2013-10-11T18:01:33Z</time>
        <extensions><gpxtpx:TrackPointExtension><gpxtpx:hr>104</gpxtpx:hr></gpxtpx:TrackPointExtension></extensions>
      </trkpt>
      <trkpt lat="59.9850048" lon="15.8281257">
        <ele>104.2</ele>
        <time>2013-10-11T18:01:35Z</time>
        <extensions><gpxtpx:TrackPointExtension><gpxtpx:hr>104</gpxtpx:hr></gpxtpx:TrackPointExtension></extensions>
      </trkpt>
      <trkpt lat="59.9850069" lon="15.8281155">
        <ele>104.2</ele>
        <time>2013-10-11T18:01:36Z</time>
        <extensions><gpxtpx:TrackPointExtension><gpxtpx:hr>105</gpxtpx:hr></gpxtpx:TrackPointExtension></extensions>
      </trkpt>
      <trkpt lat="59.9850029" lon="15.8281031">
        <ele>104.2</ele>
        <time>2013-10-11T18:01:37Z</time>
        <extensions><gpxtpx:TrackPointExtension><gpxtpx:hr>106</gpxtpx:hr></gpxtpx:TrackPointExtension></extensions>
      </trkpt>
      <trkpt lat="59.9849559" lon="15.828062">
        <ele>104.2</ele>
        <time>2013-10-11T18:01:38Z</time>
        <extensions><gpxtpx:TrackPointExtension><gpxtpx:hr>106</gpxtpx:hr></gpxtpx:TrackPointExtension></extensions>
      </trkpt>
      <trkpt lat="59.9849418" lon="15.8280441">
        <ele>104.2</ele>
        <time>2013-10-11T18:01:39Z</time>
        <extensions><gpxtpx:TrackPointExtension><gpxtpx:hr>107</gpxtpx:hr></gpxtpx:TrackPointExtension></extensions>
      </trkpt>
      <trkpt lat="59.9849036" lon="15.8279928">
        <ele>104.2</ele>
        <time>2013-10-11T18:01:41Z</time>
        <extensions><gpxtpx:TrackPointExtension><gpxtpx:hr>107</gpxtpx:hr></gpxtpx:TrackPointExtension></extensions>
      </trkpt>
      <trkpt lat="59.98488" lon="15.8279653">
        <ele>104.2</ele>
        <time>2013-10-11T18:01:42Z</time>
        <extensions><gpxtpx:TrackPointExtension><gpxtpx:hr>108</gpxtpx:hr></gpxtpx:TrackPointExtension></extensions>
      </trkpt>
      <trkpt lat="59.9848518" lon="15.8279376">
        <ele>104.2</ele>
        <time>2013-10-11T18:01:43Z</time>
        <extensions><gpxtpx:TrackPointExtension><gpxtpx:hr>108</gpxtpx:hr></gpxtpx:TrackPointExtension></extensions>
      </trkpt>
      <trkpt lat="59.9848077" lon="15.8278769">
        <ele>104.2</ele>
        <time>2013-10-11T18:01:45Z</time>
        <extensions><gpxtpx:TrackPointExtension><gpxtpx:hr>109</gpxtpx:hr></gpxtpx:TrackPointExtension></extensions>
      </trkpt>
      <trkpt lat="59.9847984" lon="15.827702">
        <ele>104.2</ele>
        <time>2013-10-11T18:01:58Z</time>
        <extensions><gpxtpx:TrackPointExtension><gpxtpx:hr>111</gpxtpx:hr></gpxtpx:TrackPointExtension></extensions>
      </trkpt>
      <trkpt lat="59.9847889" lon="15.8276902">
        <ele>104.2</ele>
        <time>2013-10-11T18:01:59Z</time>
        <extensions><gpxtpx:TrackPointExtension><gpxtpx:hr>112</gpxtpx:hr></gpxtpx:TrackPointExtension></extensions>
      </trkpt>
      <trkpt lat="59.9847881" lon="15.8276821">
        <ele>104.2</ele>
        <time>2013-10-11T18:02:00Z</time>
        <extensions><gpxtpx:TrackPointExtension><gpxtpx:hr>111</gpxtpx:hr></gpxtpx:TrackPointExtension></extensions>
      </trkpt>
      <trkpt lat="59.9847317" lon="15.8276949">
        <ele>104.2</ele>
        <time>2013-10-11T18:02:04Z</time>
        <extensions><gpxtpx:TrackPointExtension><gpxtpx:hr>112</gpxtpx:hr></gpxtpx:TrackPointExtension></extensions>
      </trkpt>
      <trkpt lat="59.9847313" lon="15.8277027">
        <ele>104.2</ele>
        <time>2013-10-11T18:02:06Z</time>
        <extensions><gpxtpx:TrackPointExtension><gpxtpx:hr>113</gpxtpx:hr></gpxtpx:TrackPointExtension></extensions>
      </trkpt>
      <trkpt lat="59.9847554" lon="15.8277201">
        <ele>104.2</ele>
        <time>2013-10-11T18:02:07Z</time>
        <extensions><gpxtpx:TrackPointExtension><gpxtpx:hr>114</gpxtpx:hr></gpxtpx:TrackPointExtension></extensions>
      </trkpt>
      <trkpt lat="59.9847587" lon="15.8277379">
        <ele>104.2</ele>
        <time>2013-10-11T18:02:08Z</time>
        <extensions><gpxtpx:TrackPointExtension><gpxtpx:hr>114</gpxtpx:hr></gpxtpx:TrackPointExtension></extensions>
      </trkpt>
      <trkpt lat="59.9847583" lon="15.8277502">
        <ele>104.2</ele>
        <time>2013-10-11T18:02:09Z</time>
        <extensions><gpxtpx:TrackPointExtension><gpxtpx:hr>115</gpxtpx:hr></gpxtpx:TrackPointExtension></extensions>
      </trkpt>
      <trkpt lat="59.9847497" lon="15.8277538">
        <ele>104.2</ele>
        <time>2013-10-11T18:02:10Z</time>
        <extensions><gpxtpx:TrackPointExtension><gpxtpx:hr>116</gpxtpx:hr></gpxtpx:TrackPointExtension></extensions>
      </trkpt>
      <trkpt lat="59.98474" lon="15.8277711">
        <ele>104.2</ele>
        <time>2013-10-11T18:02:11Z</time>
        <extensions><gpxtpx:TrackPointExtension><gpxtpx:hr>117</gpxtpx:hr></gpxtpx:TrackPointExtension></extensions>
      </trkpt>
      <trkpt lat="59.9847409" lon="15.8277876">
        <ele>104.2</ele>
        <time>2013-10-11T18:02:12Z</time>
        <extensions><gpxtpx:TrackPointExtension><gpxtpx:hr>118</gpxtpx:hr></gpxtpx:TrackPointExtension></extensions>
      </trkpt>
      <trkpt lat="59.9847457" lon="15.8277939">
        <ele>104.2</ele>
        <time>2013-10-11T18:02:13Z</time>
        <extensions><gpxtpx:TrackPointExtension><gpxtpx:hr>118</gpxtpx:hr></gpxtpx:TrackPointExtension></extensions>
      </trkpt>
      <trkpt lat="59.9847466" lon="15.8277996">
        <ele>104.2</ele>
        <time>2013-10-11T18:02:14Z</time>
        <extensions><gpxtpx:TrackPointExtension><gpxtpx:hr>118</gpxtpx:hr></gpxtpx:TrackPointExtension></extensions>
      </trkpt>
      <trkpt lat="59.9847472" lon="15.827809">
        <ele>104.2</ele>
        <time>2013-10-11T18:02:15Z</time>
        <extensions><gpxtpx:TrackPointExtension><gpxtpx:hr>119</gpxtpx:hr></gpxtpx:TrackPointExtension></extensions>
      </trkpt>
      <trkpt lat="59.9847484" lon="15.8278208">
        <ele>104.2</ele>
        <time>2013-10-11T18:02:16Z</time>
        <extensions><gpxtpx:TrackPointExtension><gpxtpx:hr>119</gpxtpx:hr></gpxtpx:TrackPointExtension></extensions>
      </trkpt>
      <trkpt lat="59.9847479" lon="15.8278242">
        <ele>104.2</ele>
        <time>2013-10-11T18:02:17Z</time>
        <extensions><gpxtpx:TrackPointExtension><gpxtpx:hr>120</gpxtpx:hr></gpxtpx:TrackPointExtension></extensions>
      </trkpt>
      <trkpt lat="59.9847495" lon="15.8278251">
        <ele>104.2</ele>
        <time>2013-10-11T18:02:18Z</time>
        <extensions><gpxtpx:TrackPointExtension><gpxtpx:hr>120</gpxtpx:hr></gpxtpx:TrackPointExtension></extensions>
      </trkpt>
      <trkpt lat="59.9847533" lon="15.8278259">
        <ele>104.2</ele>
        <time>2013-10-11T18:02:19Z</time>
        <extensions><gpxtpx:TrackPointExtension><gpxtpx:hr>121</gpxtpx:hr></gpxtpx:TrackPointExtension></extensions>
      </trkpt>
      <trkpt lat="59.9847535" lon="15.8278309">
        <ele>104.2</ele>
        <time>2013-10-11T18:02:20Z</time>
        <extensions><gpxtpx:TrackPointExtension><gpxtpx:hr>121</gpxtpx:hr></gpxtpx:TrackPointExtension></extensions>
      </trkpt>
      <trkpt lat="59.9847487" lon="15.8278255">
        <ele>104.2</ele>
        <time>2013-10-11T18:02:21Z</time>
        <extensions><gpxtpx:TrackPointExtension><gpxtpx:hr>122</gpxtpx:hr></gpxtpx:TrackPointExtension></extensions>
      </trkpt>
      <trkpt lat="59.9847462" lon="15.8278204">
        <ele>104.2</ele>
        <time>2013-10-11T18:02:22Z</time>
        <extensions><gpxtpx:TrackPointExtension><gpxtpx:hr>122</gpxtpx:hr></gpxtpx:TrackPointExtension></extensions>
      </trkpt>
      <trkpt lat="59.9847445" lon="15.8278183">
        <ele>104.2</ele>
        <time>2013-10-11T18:02:23Z</time>
        <extensions><gpxtpx:TrackPointExtension><gpxtpx:hr>123</gpxtpx:hr></gpxtpx:TrackPointExtension></extensions>
      </trkpt>
      <trkpt lat="59.9847444" lon="15.8278094">
        <ele>104.2</ele>
        <time>2013-10-11T18:02:24Z</time>
        <extensions><gpxtpx:TrackPointExtension><gpxtpx:hr>123</gpxtpx:hr></gpxtpx:TrackPointExtension></extensions>
      </trkpt>
      <trkpt lat="59.9846694" lon="15.8278005">
        <ele>104.2</ele>
        <time>2013-10-11T18:02:25Z</time>
        <extensions><gpxtpx:TrackPointExtension><gpxtpx:hr>124</gpxtpx:hr></gpxtpx:TrackPointExtension></extensions>
      </trkpt>
      <trkpt lat="59.9846638" lon="15.8277965">
        <ele>104.2</ele>
        <time>2013-10-11T18:02:27Z</time>
        <extensions><gpxtpx:TrackPointExtension><gpxtpx:hr>124</gpxtpx:hr></gpxtpx:TrackPointExtension></extensions>
      </trkpt>
      <trkpt lat="59.9846629" lon="15.8278105">
        <ele>104.2</ele>
        <time>2013-10-11T18:02:28Z</time>
        <extensions><gpxtpx:TrackPointExtension><gpxtpx:hr>125</gpxtpx:hr></gpxtpx:TrackPointExtension></extensions>
      </trkpt>
      <trkpt lat="59.9846707" lon="15.8278051">
        <ele>104.2</ele>
        <time>2013-10-11T18:02:32Z</time>
        <extensions><gpxtpx:TrackPointExtension><gpxtpx:hr>125</gpxtpx:hr></gpxtpx:TrackPointExtension></extensions>
      </trkpt>
      <trkpt lat="59.9846698" lon="15.8278089">
        <ele>104.2</ele>
        <time>2013-10-11T18:02:33Z</time>
        <extensions><gpxtpx:TrackPointExtension><gpxtpx:hr>125</gpxtpx:hr></gpxtpx:TrackPointExtension></extensions>
      </trkpt>
      <trkpt lat="59.9846644" lon="15.8278177">
        <ele>104.2</ele>
        <time>2013-10-11T18:02:35Z</time>
        <extensions><gpxtpx:TrackPointExtension><gpxtpx:hr>126</gpxtpx:hr></gpxtpx:TrackPointExtension></extensions>
      </trkpt>
      <trkpt lat="59.9846085" lon="15.8278172">
        <ele>104.2</ele>
        <time>2013-10-11T18:02:36Z</time>
        <extensions><gpxtpx:TrackPointExtension><gpxtpx:hr>126</gpxtpx:hr></gpxtpx:TrackPointExtension></extensions>
      </trkpt>
      <trkpt lat="59.9845969" lon="15.8278134">
        <ele>104.2</ele>
        <time>2013-10-11T18:02:37Z</time>
        <extensions><gpxtpx:TrackPointExtension><gpxtpx:hr>127</gpxtpx:hr></gpxtpx:TrackPointExtension></extensions>
      </trkpt>
      <trkpt lat="59.9845899" lon="15.8278141">
        <ele>104.2</ele>
        <time>2013-10-11T18:02:38Z</time>
        <extensions><gpxtpx:TrackPointExtension><gpxtpx:hr>127</gpxtpx:hr></gpxtpx:TrackPointExtension></extensions>
      </trkpt>
      <trkpt lat="59.9845866" lon="15.8278143">
        <ele>104.2</ele>
        <time>2013-10-11T18:02:39Z</time>
        <extensions><gpxtpx:TrackPointExtension><gpxtpx:hr>127</gpxtpx:hr></gpxtpx:TrackPointExtension></extensions>
      </trkpt>
      <trkpt lat="59.9845878" lon="15.8278169">
        <ele>104.2</ele>
        <time>2013-10-11T18:02:40Z</time>
        <extensions><gpxtpx:TrackPointExtension><gpxtpx:hr>127</gpxtpx:hr></gpxtpx:TrackPointExtension></extensions>
      </trkpt>
      <trkpt lat="59.9845876" lon="15.8278213">
        <ele>104.2</ele>
        <time>2013-10-11T18:02:41Z</time>
        <extensions><gpxtpx:TrackPointExtension><gpxtpx:hr>127</gpxtpx:hr></gpxtpx:TrackPointExtension></extensions>
      </trkpt>
      <trkpt lat="59.9845858" lon="15.8278217">
        <ele>104.2</ele>
        <time>2013-10-11T18:02:42Z</time>
        <extensions><gpxtpx:TrackPointExtension><gpxtpx:hr>127</gpxtpx:hr></gpxtpx:TrackPointExtension></extensions>
      </trkpt>
      <trkpt lat="59.9845812" lon="15.8278208">
        <ele>104.2</ele>
        <time>2013-10-11T18:02:43Z</time>
        <extensions><gpxtpx:TrackPointExtension><gpxtpx:hr>127</gpxtpx:hr></gpxtpx:TrackPointExtension></extensions>
      </trkpt>
      <trkpt lat="59.9845671" lon="15.8278209">
        <ele>104.2</ele>
        <time>2013-10-11T18:02:44Z</time>
        <extensions><gpxtpx:TrackPointExtension><gpxtpx:hr>127</gpxtpx:hr></gpxtpx:TrackPointExtension></extensions>
      </trkpt>
      <trkpt lat="59.9845608" lon="15.8278156">
        <ele>104.2</ele>
        <time>2013-10-11T18:02:45Z</time>
        <extensions><gpxtpx:TrackPointExtension><gpxtpx:hr>127</gpxtpx:hr></gpxtpx:TrackPointExtension></extensions>
      </trkpt>
      <trkpt lat="59.9845489" lon="15.8278169">
        <ele>104.2</ele>
        <time>2013-10-11T18:02:46Z</time>
        <extensions><gpxtpx:TrackPointExtension><gpxtpx:hr>127</gpxtpx:hr></gpxtpx:TrackPointExtension></extensions>
      </trkpt>
      <trkpt lat="59.9845416" lon="15.8278154">
        <ele>104.2</ele>
        <time>2013-10-11T18:02:47Z</time>
        <extensions><gpxtpx:TrackPointExtension><gpxtpx:hr>128</gpxtpx:hr></gpxtpx:TrackPointExtension></extensions>
      </trkpt>
      <trkpt lat="59.9845401" lon="15.8278183">
        <ele>104.2</ele>
        <time>2013-10-11T18:02:48Z</time>
        <extensions><gpxtpx:TrackPointExtension><gpxtpx:hr>128</gpxtpx:hr></gpxtpx:TrackPointExtension></extensions>
      </trkpt>
      <trkpt lat="59.9845404" lon="15.8278208">
        <ele>104.2</ele>
        <time>2013-10-11T18:02:49Z</time>
        <extensions><gpxtpx:TrackPointExtension><gpxtpx:hr>128</gpxtpx:hr></gpxtpx:TrackPointExtension></extensions>
      </trkpt>
      <trkpt lat="59.984546" lon="15.8278236">
        <ele>104.2</ele>
        <time>2013-10-11T18:02:50Z</time>
        <extensions><gpxtpx:TrackPointExtension><gpxtpx:hr>128</gpxtpx:hr></gpxtpx:TrackPointExtension></extensions>
      </trkpt>
      <trkpt lat="59.9845469" lon="15.8278349">
        <ele>104.2</ele>
        <time>2013-10-11T18:02:53Z</time>
        <extensions><gpxtpx:TrackPointExtension><gpxtpx:hr>128</gpxtpx:hr></gpxtpx:TrackPointExtension></extensions>
      </trkpt>
      <trkpt lat="59.9845467" lon="15.8278325">
        <ele>104.2</ele>
        <time>2013-10-11T18:02:54Z</time>
        <extensions><gpxtpx:TrackPointExtension><gpxtpx:hr>128</gpxtpx:hr></gpxtpx:TrackPointExtension></extensions>
      </trkpt>
      <trkpt lat="59.9845487" lon="15.8278332">
        <ele>104.2</ele>
        <time>2013-10-11T18:02:55Z</time>
        <extensions><gpxtpx:TrackPointExtension><gpxtpx:hr>128</gpxtpx:hr></gpxtpx:TrackPointExtension></extensions>
      </trkpt>
      <trkpt lat="59.9845464" lon="15.827836">
        <ele>104.2</ele>
        <time>2013-10-11T18:03:00Z</time>
        <extensions><gpxtpx:TrackPointExtension><gpxtpx:hr>128</gpxtpx:hr></gpxtpx:TrackPointExtension></extensions>
      </trkpt>
      <trkpt lat="59.9845603" lon="15.8278508">
        <ele>104.2</ele>
        <time>2013-10-11T18:03:02Z</time>
        <extensions><gpxtpx:TrackPointExtension><gpxtpx:hr>128</gpxtpx:hr></gpxtpx:TrackPointExtension></extensions>
      </trkpt>
      <trkpt lat="59.9845499" lon="15.8278375">
        <ele>104.2</ele>
        <time>2013-10-11T18:03:04Z</time>
        <extensions><gpxtpx:TrackPointExtension><gpxtpx:hr>129</gpxtpx:hr></gpxtpx:TrackPointExtension></extensions>
      </trkpt>
      <trkpt lat="59.9845467" lon="15.8278336">
        <ele>104.2</ele>
        <time>2013-10-11T18:03:05Z</time>
        <extensions><gpxtpx:TrackPointExtension><gpxtpx:hr>129</gpxtpx:hr></gpxtpx:TrackPointExtension></extensions>
      </trkpt>
      <trkpt lat="59.9845442" lon="15.8278373">
        <ele>104.2</ele>
        <time>2013-10-11T18:03:06Z</time>
        <extensions><gpxtpx:TrackPointExtension><gpxtpx:hr>129</gpxtpx:hr></gpxtpx:TrackPointExtension></extensions>
      </trkpt>
      <trkpt lat="59.9845456" lon="15.8278411">
        <ele>104.2</ele>
        <time>2013-10-11T18:03:07Z</time>
        <extensions><gpxtpx:TrackPointExtension><gpxtpx:hr>130</gpxtpx:hr></gpxtpx:TrackPointExtension></extensions>
      </trkpt>
      <trkpt lat="59.9845447" lon="15.8278384">
        <ele>104.2</ele>
        <time>2013-10-11T18:03:08Z</time>
        <extensions><gpxtpx:TrackPointExtension><gpxtpx:hr>130</gpxtpx:hr></gpxtpx:TrackPointExtension></extensions>
      </trkpt>
      <trkpt lat="59.9845477" lon="15.8278379">
        <ele>104.2</ele>
        <time>2013-10-11T18:03:09Z</time>
        <extensions><gpxtpx:TrackPointExtension><gpxtpx:hr>130</gpxtpx:hr></gpxtpx:TrackPointExtension></extensions>
      </trkpt>
      <trkpt lat="59.9845488" lon="15.8278421">
        <ele>104.2</ele>
        <time>2013-10-11T18:03:10Z</time>
        <extensions><gpxtpx:TrackPointExtension><gpxtpx:hr>130</gpxtpx:hr></gpxtpx:TrackPointExtension></extensions>
      </trkpt>
      <trkpt lat="59.9845513" lon="15.8278462">
        <ele>104.2</ele>
        <time>2013-10-11T18:03:11Z</time>
        <extensions><gpxtpx:TrackPointExtension><gpxtpx:hr>131</gpxtpx:hr></gpxtpx:TrackPointExtension></extensions>
      </trkpt>
      <trkpt lat="59.9845495" lon="15.827845">
        <ele>104.2</ele>
        <time>2013-10-11T18:03:12Z</time>
        <extensions><gpxtpx:TrackPointExtension><gpxtpx:hr>130</gpxtpx:hr></gpxtpx:TrackPointExtension></extensions>
      </trkpt>
      <trkpt lat="59.9845487" lon="15.827846">
        <ele>104.2</ele>
        <time>2013-10-11T18:03:13Z</time>
        <extensions><gpxtpx:TrackPointExtension><gpxtpx:hr>131</gpxtpx:hr></gpxtpx:TrackPointExtension></extensions>
      </trkpt>
      <trkpt lat="59.9845505" lon="15.8278531">
        <ele>104.2</ele>
        <time>2013-10-11T18:03:14Z</time>
        <extensions><gpxtpx:TrackPointExtension><gpxtpx:hr>131</gpxtpx:hr></gpxtpx:TrackPointExtension></extensions>
      </trkpt>
      <trkpt lat="59.9845715" lon="15.8278524">
        <ele>104.2</ele>
        <time>2013-10-11T18:03:15Z</time>
        <extensions><gpxtpx:TrackPointExtension><gpxtpx:hr>131</gpxtpx:hr></gpxtpx:TrackPointExtension></extensions>
      </trkpt>
      <trkpt lat="59.9845747" lon="15.8278522">
        <ele>104.2</ele>
        <time>2013-10-11T18:03:16Z</time>
        <extensions><gpxtpx:TrackPointExtension><gpxtpx:hr>131</gpxtpx:hr></gpxtpx:TrackPointExtension></extensions>
      </trkpt>
      <trkpt lat="59.9845814" lon="15.8278512">
        <ele>104.2</ele>
        <time>2013-10-11T18:03:17Z</time>
        <extensions><gpxtpx:TrackPointExtension><gpxtpx:hr>131</gpxtpx:hr></gpxtpx:TrackPointExtension></extensions>
      </trkpt>
      <trkpt lat="59.984585" lon="15.8278569">
        <ele>104.2</ele>
        <time>2013-10-11T18:03:18Z</time>
        <extensions><gpxtpx:TrackPointExtension><gpxtpx:hr>131</gpxtpx:hr></gpxtpx:TrackPointExtension></extensions>
      </trkpt>
      <trkpt lat="59.9845871" lon="15.8278602">
        <ele>104.2</ele>
        <time>2013-10-11T18:03:19Z</time>
        <extensions><gpxtpx:TrackPointExtension><gpxtpx:hr>131</gpxtpx:hr></gpxtpx:TrackPointExtension></extensions>
      </trkpt>
      <trkpt lat="59.9845926" lon="15.8278619">
        <ele>104.2</ele>
        <time>2013-10-11T18:03:20Z</time>
        <extensions><gpxtpx:TrackPointExtension><gpxtpx:hr>131</gpxtpx:hr></gpxtpx:TrackPointExtension></extensions>
      </trkpt>
      <trkpt lat="59.9845979" lon="15.8278671">
        <ele>104.2</ele>
        <time>2013-10-11T18:03:21Z</time>
        <extensions><gpxtpx:TrackPointExtension><gpxtpx:hr>131</gpxtpx:hr></gpxtpx:TrackPointExtension></extensions>
      </trkpt>
      <trkpt lat="59.9846042" lon="15.8278697">
        <ele>104.2</ele>
        <time>2013-10-11T18:03:22Z</time>
        <extensions><gpxtpx:TrackPointExtension><gpxtpx:hr>131</gpxtpx:hr></gpxtpx:TrackPointExtension></extensions>
      </trkpt>
      <trkpt lat="59.9846064" lon="15.8278703">
        <ele>104.2</ele>
        <time>2013-10-11T18:03:23Z</time>
        <extensions><gpxtpx:TrackPointExtension><gpxtpx:hr>131</gpxtpx:hr></gpxtpx:TrackPointExtension></extensions>
      </trkpt>
      <trkpt lat="59.9846052" lon="15.8278762">
        <ele>104.2</ele>
        <time>2013-10-11T18:03:24Z</time>
        <extensions><gpxtpx:TrackPointExtension><gpxtpx:hr>132</gpxtpx:hr></gpxtpx:TrackPointExtension></extensions>
      </trkpt>
      <trkpt lat="59.9846021" lon="15.8278798">
        <ele>104.2</ele>
        <time>2013-10-11T18:03:25Z</time>
        <extensions><gpxtpx:TrackPointExtension><gpxtpx:hr>132</gpxtpx:hr></gpxtpx:TrackPointExtension></extensions>
      </trkpt>
      <trkpt lat="59.9846048" lon="15.8278724">
        <ele>104.2</ele>
        <time>2013-10-11T18:03:27Z</time>
        <extensions><gpxtpx:TrackPointExtension><gpxtpx:hr>132</gpxtpx:hr></gpxtpx:TrackPointExtension></extensions>
      </trkpt>
      <trkpt lat="59.984587" lon="15.8278368">
        <ele>104.2</ele>
        <time>2013-10-11T18:03:28Z</time>
        <extensions><gpxtpx:TrackPointExtension><gpxtpx:hr>132</gpxtpx:hr></gpxtpx:TrackPointExtension></extensions>
      </trkpt>
      <trkpt lat="59.9845942" lon="15.827837">
        <ele>104.2</ele>
        <time>2013-10-11T18:03:29Z</time>
        <extensions><gpxtpx:TrackPointExtension><gpxtpx:hr>132</gpxtpx:hr></gpxtpx:TrackPointExtension></extensions>
      </trkpt>
      <trkpt lat="59.9846014" lon="15.8278345">
        <ele>104.2</ele>
        <time>2013-10-11T18:03:30Z</time>
        <extensions><gpxtpx:TrackPointExtension><gpxtpx:hr>132</gpxtpx:hr></gpxtpx:TrackPointExtension></extensions>
      </trkpt>
      <trkpt lat="59.9846062" lon="15.8278411">
        <ele>104.2</ele>
        <time>2013-10-11T18:03:32Z</time>
        <extensions><gpxtpx:TrackPointExtension><gpxtpx:hr>132</gpxtpx:hr></gpxtpx:TrackPointExtension></extensions>
      </trkpt>
      <trkpt lat="59.9846108" lon="15.8278312">
        <ele>104.2</ele>
        <time>2013-10-11T18:03:33Z</time>
        <extensions><gpxtpx:TrackPointExtension><gpxtpx:hr>133</gpxtpx:hr></gpxtpx:TrackPointExtension></extensions>
      </trkpt>
      <trkpt lat="59.984614" lon="15.827836">
        <ele>104.2</ele>
        <time>2013-10-11T18:03:34Z</time>
        <extensions><gpxtpx:TrackPointExtension><gpxtpx:hr>133</gpxtpx:hr></gpxtpx:TrackPointExtension></extensions>
      </trkpt>
      <trkpt lat="59.984615" lon="15.8278412">
        <ele>104.2</ele>
        <time>2013-10-11T18:03:35Z</time>
        <extensions><gpxtpx:TrackPointExtension><gpxtpx:hr>132</gpxtpx:hr></gpxtpx:TrackPointExtension></extensions>
      </trkpt>
      <trkpt lat="59.9846142" lon="15.8278457">
        <ele>104.2</ele>
        <time>2013-10-11T18:03:36Z</time>
        <extensions><gpxtpx:TrackPointExtension><gpxtpx:hr>133</gpxtpx:hr></gpxtpx:TrackPointExtension></extensions>
      </trkpt>
      <trkpt lat="59.984619" lon="15.8278476">
        <ele>104.2</ele>
        <time>2013-10-11T18:03:37Z</time>
        <extensions><gpxtpx:TrackPointExtension><gpxtpx:hr>133</gpxtpx:hr></gpxtpx:TrackPointExtension></extensions>
      </trkpt>
      <trkpt lat="59.9846223" lon="15.8278378">
        <ele>104.2</ele>
        <time>2013-10-11T18:03:38Z</time>
        <extensions><gpxtpx:TrackPointExtension><gpxtpx:hr>133</gpxtpx:hr></gpxtpx:TrackPointExtension></extensions>
      </trkpt>
      <trkpt lat="59.9846254" lon="15.8278335">
        <ele>104.2</ele>
        <time>2013-10-11T18:03:39Z</time>
        <extensions><gpxtpx:TrackPointExtension><gpxtpx:hr>133</gpxtpx:hr></gpxtpx:TrackPointExtension></extensions>
      </trkpt>
      <trkpt lat="59.9846261" lon="15.8278366">
        <ele>104.2</ele>
        <time>2013-10-11T18:03:40Z</time>
        <extensions><gpxtpx:TrackPointExtension><gpxtpx:hr>134</gpxtpx:hr></gpxtpx:TrackPointExtension></extensions>
      </trkpt>
      <trkpt lat="59.9846284" lon="15.8278355">
        <ele>104.2</ele>
        <time>2013-10-11T18:03:41Z</time>
        <extensions><gpxtpx:TrackPointExtension><gpxtpx:hr>134</gpxtpx:hr></gpxtpx:TrackPointExtension></extensions>
      </trkpt>
      <trkpt lat="59.9846257" lon="15.8278348">
        <ele>104.2</ele>
        <time>2013-10-11T18:03:43Z</time>
        <extensions><gpxtpx:TrackPointExtension><gpxtpx:hr>134</gpxtpx:hr></gpxtpx:TrackPointExtension></extensions>
      </trkpt>
      <trkpt lat="59.9846247" lon="15.8278395">
        <ele>104.2</ele>
        <time>2013-10-11T18:03:44Z</time>
        <extensions><gpxtpx:TrackPointExtension><gpxtpx:hr>135</gpxtpx:hr></gpxtpx:TrackPointExtension></extensions>
      </trkpt>
      <trkpt lat="59.9846235" lon="15.8278506">
        <ele>104.2</ele>
        <time>2013-10-11T18:03:45Z</time>
        <extensions><gpxtpx:TrackPointExtension><gpxtpx:hr>135</gpxtpx:hr></gpxtpx:TrackPointExtension></extensions>
      </trkpt>
      <trkpt lat="59.9846186" lon="15.827855">
        <ele>104.2</ele>
        <time>2013-10-11T18:03:46Z</time>
        <extensions><gpxtpx:TrackPointExtension><gpxtpx:hr>135</gpxtpx:hr></gpxtpx:TrackPointExtension></extensions>
      </trkpt>
      <trkpt lat="59.9846192" lon="15.8278557">
        <ele>104.2</ele>
        <time>2013-10-11T18:03:47Z</time>
        <extensions><gpxtpx:TrackPointExtension><gpxtpx:hr>135</gpxtpx:hr></gpxtpx:TrackPointExtension></extensions>
      </trkpt>
      <trkpt lat="59.984619" lon="15.8278552">
        <ele>104.2</ele>
        <time>2013-10-11T18:03:48Z</time>
        <extensions><gpxtpx:TrackPointExtension><gpxtpx:hr>135</gpxtpx:hr></gpxtpx:TrackPointExtension></extensions>
      </trkpt>
      <trkpt lat="59.9846212" lon="15.8278513">
        <ele>104.2</ele>
        <time>2013-10-11T18:03:49Z</time>
        <extensions><gpxtpx:TrackPointExtension><gpxtpx:hr>136</gpxtpx:hr></gpxtpx:TrackPointExtension></extensions>
      </trkpt>
      <trkpt lat="59.9846202" lon="15.8278521">
        <ele>104.2</ele>
        <time>2013-10-11T18:03:50Z</time>
        <extensions><gpxtpx:TrackPointExtension><gpxtpx:hr>136</gpxtpx:hr></gpxtpx:TrackPointExtension></extensions>
      </trkpt>
      <trkpt lat="59.9846145" lon="15.8278603">
        <ele>104.2</ele>
        <time>2013-10-11T18:03:53Z</time>
        <extensions><gpxtpx:TrackPointExtension><gpxtpx:hr>136</gpxtpx:hr></gpxtpx:TrackPointExtension></extensions>
      </trkpt>
      <trkpt lat="59.9846224" lon="15.8278503">
        <ele>104.2</ele>
        <time>2013-10-11T18:03:56Z</time>
        <extensions><gpxtpx:TrackPointExtension><gpxtpx:hr>136</gpxtpx:hr></gpxtpx:TrackPointExtension></extensions>
      </trkpt>
      <trkpt lat="59.984628" lon="15.8278437">
        <ele>104.2</ele>
        <time>2013-10-11T18:03:57Z</time>
        <extensions><gpxtpx:TrackPointExtension><gpxtpx:hr>136</gpxtpx:hr></gpxtpx:TrackPointExtension></extensions>
      </trkpt>
      <trkpt lat="59.9846296" lon="15.8278419">
        <ele>104.2</ele>
        <time>2013-10-11T18:03:58Z</time>
        <extensions><gpxtpx:TrackPointExtension><gpxtpx:hr>136</gpxtpx:hr></gpxtpx:TrackPointExtension></extensions>
      </trkpt>
      <trkpt lat="59.9846307" lon="15.827842">
        <ele>104.2</ele>
        <time>2013-10-11T18:03:59Z</time>
        <extensions><gpxtpx:TrackPointExtension><gpxtpx:hr>136</gpxtpx:hr></gpxtpx:TrackPointExtension></extensions>
      </trkpt>
      <trkpt lat="59.9846311" lon="15.8278452">
        <ele>104.2</ele>
        <time>2013-10-11T18:04:01Z</time>
        <extensions><gpxtpx:TrackPointExtension><gpxtpx:hr>136</gpxtpx:hr></gpxtpx:TrackPointExtension></extensions>
      </trkpt>
      <trkpt lat="59.9846323" lon="15.8278477">
        <ele>104.2</ele>
        <time>2013-10-11T18:04:02Z</time>
        <extensions><gpxtpx:TrackPointExtension><gpxtpx:hr>136</gpxtpx:hr></gpxtpx:TrackPointExtension></extensions>
      </trkpt>
      <trkpt lat="59.9846349" lon="15.8278463">
        <ele>104.2</ele>
        <time>2013-10-11T18:04:03Z</time>
        <extensions><gpxtpx:TrackPointExtension><gpxtpx:hr>135</gpxtpx:hr></gpxtpx:TrackPointExtension></extensions>
      </trkpt>
      <trkpt lat="59.9846344" lon="15.8278475">
        <ele>104.2</ele>
        <time>2013-10-11T18:04:04Z</time>
        <extensions><gpxtpx:TrackPointExtension><gpxtpx:hr>135</gpxtpx:hr></gpxtpx:TrackPointExtension></extensions>
      </trkpt>
      <trkpt lat="59.9846341" lon="15.8278473">
        <ele>104.2</ele>
        <time>2013-10-11T18:04:05Z</time>
        <extensions><gpxtpx:TrackPointExtension><gpxtpx:hr>135</gpxtpx:hr></gpxtpx:TrackPointExtension></extensions>
      </trkpt>
      <trkpt lat="59.9846375" lon="15.8278426">
        <ele>104.2</ele>
        <time>2013-10-11T18:04:06Z</time>
        <extensions><gpxtpx:TrackPointExtension><gpxtpx:hr>135</gpxtpx:hr></gpxtpx:TrackPointExtension></extensions>
      </trkpt>
      <trkpt lat="59.9846428" lon="15.8278363">
        <ele>104.2</ele>
        <time>2013-10-11T18:04:07Z</time>
        <extensions><gpxtpx:TrackPointExtension><gpxtpx:hr>135</gpxtpx:hr></gpxtpx:TrackPointExtension></extensions>
      </trkpt>
      <trkpt lat="59.9846444" lon="15.8278369">
        <ele>104.2</ele>
        <time>2013-10-11T18:04:08Z</time>
        <extensions><gpxtpx:TrackPointExtension><gpxtpx:hr>135</gpxtpx:hr></gpxtpx:TrackPointExtension></extensions>
      </trkpt>
      <trkpt lat="59.984647" lon="15.8278349">
        <ele>104.2</ele>
        <time>2013-10-11T18:04:09Z</time>
        <extensions><gpxtpx:TrackPointExtension><gpxtpx:hr>135</gpxtpx:hr></gpxtpx:TrackPointExtension></extensions>
      </trkpt>
      <trkpt lat="59.9846466" lon="15.8278353">
        <ele>104.2</ele>
        <time>2013-10-11T18:04:10Z</time>
        <extensions><gpxtpx:TrackPointExtension><gpxtpx:hr>135</gpxtpx:hr></gpxtpx:TrackPointExtension></extensions>
      </trkpt>
      <trkpt lat="59.9846463" lon="15.8278381">
        <ele>104.2</ele>
        <time>2013-10-11T18:04:11Z</time>
        <extensions><gpxtpx:TrackPointExtension><gpxtpx:hr>135</gpxtpx:hr></gpxtpx:TrackPointExtension></extensions>
      </trkpt>
      <trkpt lat="59.9846439" lon="15.827842">
        <ele>104.2</ele>
        <time>2013-10-11T18:04:12Z</time>
        <extensions><gpxtpx:TrackPointExtension><gpxtpx:hr>136</gpxtpx:hr></gpxtpx:TrackPointExtension></extensions>
      </trkpt>
      <trkpt lat="59.9846427" lon="15.8278444">
        <ele>104.2</ele>
        <time>2013-10-11T18:04:13Z</time>
        <extensions><gpxtpx:TrackPointExtension><gpxtpx:hr>136</gpxtpx:hr></gpxtpx:TrackPointExtension></extensions>
      </trkpt>
      <trkpt lat="59.9846428" lon="15.8278459">
        <ele>104.2</ele>
        <time>2013-10-11T18:04:14Z</time>
        <extensions><gpxtpx:TrackPointExtension><gpxtpx:hr>136</gpxtpx:hr></gpxtpx:TrackPointExtension></extensions>
      </trkpt>
      <trkpt lat="59.9846573" lon="15.8278239">
        <ele>104.2</ele>
        <time>2013-10-11T18:04:20Z</time>
        <extensions><gpxtpx:TrackPointExtension><gpxtpx:hr>138</gpxtpx:hr></gpxtpx:TrackPointExtension></extensions>
      </trkpt>
      <trkpt lat="59.9846662" lon="15.8278121">
        <ele>104.2</ele>
        <time>2013-10-11T18:04:22Z</time>
        <extensions><gpxtpx:TrackPointExtension><gpxtpx:hr>139</gpxtpx:hr></gpxtpx:TrackPointExtension></extensions>
      </trkpt>
      <trkpt lat="59.9846666" lon="15.8278117">
        <ele>104.2</ele>
        <time>2013-10-11T18:04:23Z</time>
        <extensions><gpxtpx:TrackPointExtension><gpxtpx:hr>139</gpxtpx:hr></gpxtpx:TrackPointExtension></extensions>
      </trkpt>
      <trkpt lat="59.9846649" lon="15.8278145">
        <ele>104.2</ele>
        <time>2013-10-11T18:04:24Z</time>
        <extensions><gpxtpx:TrackPointExtension><gpxtpx:hr>139</gpxtpx:hr></gpxtpx:TrackPointExtension></extensions>
      </trkpt>
      <trkpt lat="59.9846664" lon="15.827814">
        <ele>104.2</ele>
        <time>2013-10-11T18:04:25Z</time>
        <extensions><gpxtpx:TrackPointExtension><gpxtpx:hr>140</gpxtpx:hr></gpxtpx:TrackPointExtension></extensions>
      </trkpt>
      <trkpt lat="59.9846687" lon="15.8278121">
        <ele>104.2</ele>
        <time>2013-10-11T18:04:26Z</time>
        <extensions><gpxtpx:TrackPointExtension><gpxtpx:hr>140</gpxtpx:hr></gpxtpx:TrackPointExtension></extensions>
      </trkpt>
      <trkpt lat="59.9846713" lon="15.8278088">
        <ele>104.2</ele>
        <time>2013-10-11T18:04:27Z</time>
        <extensions><gpxtpx:TrackPointExtension><gpxtpx:hr>140</gpxtpx:hr></gpxtpx:TrackPointExtension></extensions>
      </trkpt>
      <trkpt lat="59.9846671" lon="15.827814">
        <ele>104.2</ele>
        <time>2013-10-11T18:04:28Z</time>
        <extensions><gpxtpx:TrackPointExtension><gpxtpx:hr>140</gpxtpx:hr></gpxtpx:TrackPointExtension></extensions>
      </trkpt>
      <trkpt lat="59.9846642" lon="15.8278183">
        <ele>104.2</ele>
        <time>2013-10-11T18:04:29Z</time>
        <extensions><gpxtpx:TrackPointExtension><gpxtpx:hr>140</gpxtpx:hr></gpxtpx:TrackPointExtension></extensions>
      </trkpt>
      <trkpt lat="59.9846615" lon="15.8278223">
        <ele>104.2</ele>
        <time>2013-10-11T18:04:30Z</time>
        <extensions><gpxtpx:TrackPointExtension><gpxtpx:hr>141</gpxtpx:hr></gpxtpx:TrackPointExtension></extensions>
      </trkpt>
      <trkpt lat="59.9846592" lon="15.8278239">
        <ele>104.2</ele>
        <time>2013-10-11T18:04:32Z</time>
        <extensions><gpxtpx:TrackPointExtension><gpxtpx:hr>141</gpxtpx:hr></gpxtpx:TrackPointExtension></extensions>
      </trkpt>
      <trkpt lat="59.9846608" lon="15.8278239">
        <ele>104.2</ele>
        <time>2013-10-11T18:04:33Z</time>
        <extensions><gpxtpx:TrackPointExtension><gpxtpx:hr>141</gpxtpx:hr></gpxtpx:TrackPointExtension></extensions>
      </trkpt>
      <trkpt lat="59.9846587" lon="15.8278263">
        <ele>104.2</ele>
        <time>2013-10-11T18:04:34Z</time>
        <extensions><gpxtpx:TrackPointExtension><gpxtpx:hr>142</gpxtpx:hr></gpxtpx:TrackPointExtension></extensions>
      </trkpt>
      <trkpt lat="59.9846563" lon="15.8278301">
        <ele>104.2</ele>
        <time>2013-10-11T18:04:35Z</time>
        <extensions><gpxtpx:TrackPointExtension><gpxtpx:hr>142</gpxtpx:hr></gpxtpx:TrackPointExtension></extensions>
      </trkpt>
      <trkpt lat="59.9846539" lon="15.8278325">
        <ele>104.2</ele>
        <time>2013-10-11T18:04:36Z</time>
        <extensions><gpxtpx:TrackPointExtension><gpxtpx:hr>142</gpxtpx:hr></gpxtpx:TrackPointExtension></extensions>
      </trkpt>
      <trkpt lat="59.9846511" lon="15.8278349">
        <ele>104.2</ele>
        <time>2013-10-11T18:04:37Z</time>
        <extensions><gpxtpx:TrackPointExtension><gpxtpx:hr>142</gpxtpx:hr></gpxtpx:TrackPointExtension></extensions>
      </trkpt>
      <trkpt lat="59.9845869" lon="15.8278247">
        <ele>104.2</ele>
        <time>2013-10-11T18:04:38Z</time>
        <extensions><gpxtpx:TrackPointExtension><gpxtpx:hr>142</gpxtpx:hr></gpxtpx:TrackPointExtension></extensions>
      </trkpt>
      <trkpt lat="59.9845819" lon="15.8278312">
        <ele>104.2</ele>
        <time>2013-10-11T18:04:39Z</time>
        <extensions><gpxtpx:TrackPointExtension><gpxtpx:hr>142</gpxtpx:hr></gpxtpx:TrackPointExtension></extensions>
      </trkpt>
      <trkpt lat="59.9845545" lon="15.8278611">
        <ele>104.2</ele>
        <time>2013-10-11T18:04:43Z</time>
        <extensions><gpxtpx:TrackPointExtension><gpxtpx:hr>142</gpxtpx:hr></gpxtpx:TrackPointExtension></extensions>
      </trkpt>
      <trkpt lat="59.9845519" lon="15.8278647">
        <ele>104.2</ele>
        <time>2013-10-11T18:04:44Z</time>
        <extensions><gpxtpx:TrackPointExtension><gpxtpx:hr>141</gpxtpx:hr></gpxtpx:TrackPointExtension></extensions>
      </trkpt>
      <trkpt lat="59.9845535" lon="15.8278623">
        <ele>104.2</ele>
        <time>2013-10-11T18:04:45Z</time>
        <extensions><gpxtpx:TrackPointExtension><gpxtpx:hr>142</gpxtpx:hr></gpxtpx:TrackPointExtension></extensions>
      </trkpt>
      <trkpt lat="59.9845546" lon="15.8278622">
        <ele>104.2</ele>
        <time>2013-10-11T18:04:46Z</time>
        <extensions><gpxtpx:TrackPointExtension><gpxtpx:hr>141</gpxtpx:hr></gpxtpx:TrackPointExtension></extensions>
      </trkpt>
      <trkpt lat="59.9845568" lon="15.827861">
        <ele>104.2</ele>
        <time>2013-10-11T18:04:47Z</time>
        <extensions><gpxtpx:TrackPointExtension><gpxtpx:hr>142</gpxtpx:hr></gpxtpx:TrackPointExtension></extensions>
      </trkpt>
      <trkpt lat="59.9845606" lon="15.8278578">
        <ele>104.2</ele>
        <time>2013-10-11T18:04:50Z</time>
        <extensions><gpxtpx:TrackPointExtension><gpxtpx:hr>142</gpxtpx:hr></gpxtpx:TrackPointExtension></extensions>
      </trkpt>
      <trkpt lat="59.9845652" lon="15.8278522">
        <ele>104.2</ele>
        <time>2013-10-11T18:04:51Z</time>
        <extensions><gpxtpx:TrackPointExtension><gpxtpx:hr>142</gpxtpx:hr></gpxtpx:TrackPointExtension></extensions>
      </trkpt>
      <trkpt lat="59.9845943" lon="15.8278172">
        <ele>104.2</ele>
        <time>2013-10-11T18:04:52Z</time>
        <extensions><gpxtpx:TrackPointExtension><gpxtpx:hr>142</gpxtpx:hr></gpxtpx:TrackPointExtension></extensions>
      </trkpt>
      <trkpt lat="59.9846018" lon="15.8278073">
        <ele>104.2</ele>
        <time>2013-10-11T18:04:53Z</time>
        <extensions><gpxtpx:TrackPointExtension><gpxtpx:hr>142</gpxtpx:hr></gpxtpx:TrackPointExtension></extensions>
      </trkpt>
      <trkpt lat="59.9846077" lon="15.8278009">
        <ele>104.2</ele>
        <time>2013-10-11T18:04:54Z</time>
        <extensions><gpxtpx:TrackPointExtension><gpxtpx:hr>142</gpxtpx:hr></gpxtpx:TrackPointExtension></extensions>
      </trkpt>
      <trkpt lat="59.9846165" lon="15.8277928">
        <ele>104.2</ele>
        <time>2013-10-11T18:04:56Z</time>
        <extensions><gpxtpx:TrackPointExtension><gpxtpx:hr>143</gpxtpx:hr></gpxtpx:TrackPointExtension></extensions>
      </trkpt>
      <trkpt lat="59.984619" lon="15.8277917">
        <ele>104.2</ele>
        <time>2013-10-11T18:04:57Z</time>
        <extensions><gpxtpx:TrackPointExtension><gpxtpx:hr>143</gpxtpx:hr></gpxtpx:TrackPointExtension></extensions>
      </trkpt>
      <trkpt lat="59.9846166" lon="15.8277953">
        <ele>104.2</ele>
        <time>2013-10-11T18:04:58Z</time>
        <extensions><gpxtpx:TrackPointExtension><gpxtpx:hr>143</gpxtpx:hr></gpxtpx:TrackPointExtension></extensions>
      </trkpt>
      <trkpt lat="59.9846149" lon="15.827798">
        <ele>104.2</ele>
        <time>2013-10-11T18:05:00Z</time>
        <extensions><gpxtpx:TrackPointExtension><gpxtpx:hr>143</gpxtpx:hr></gpxtpx:TrackPointExtension></extensions>
      </trkpt>
      <trkpt lat="59.9846132" lon="15.8278016">
        <ele>104.2</ele>
        <time>2013-10-11T18:05:01Z</time>
        <extensions><gpxtpx:TrackPointExtension><gpxtpx:hr>143</gpxtpx:hr></gpxtpx:TrackPointExtension></extensions>
      </trkpt>
      <trkpt lat="59.9846098" lon="15.8278068">
        <ele>104.2</ele>
        <time>2013-10-11T18:05:02Z</time>
        <extensions><gpxtpx:TrackPointExtension><gpxtpx:hr>143</gpxtpx:hr></gpxtpx:TrackPointExtension></extensions>
      </trkpt>
      <trkpt lat="59.9846064" lon="15.827811">
        <ele>104.2</ele>
        <time>2013-10-11T18:05:03Z</time>
        <extensions><gpxtpx:TrackPointExtension><gpxtpx:hr>143</gpxtpx:hr></gpxtpx:TrackPointExtension></extensions>
      </trkpt>
      <trkpt lat="59.9846049" lon="15.8278131">
        <ele>104.2</ele>
        <time>2013-10-11T18:05:04Z</time>
        <extensions><gpxtpx:TrackPointExtension><gpxtpx:hr>144</gpxtpx:hr></gpxtpx:TrackPointExtension></extensions>
      </trkpt>
      <trkpt lat="59.9846053" lon="15.827813">
        <ele>104.2</ele>
        <time>2013-10-11T18:05:05Z</time>
        <extensions><gpxtpx:TrackPointExtension><gpxtpx:hr>143</gpxtpx:hr></gpxtpx:TrackPointExtension></extensions>
      </trkpt>
      <trkpt lat="59.9846049" lon="15.8278146">
        <ele>104.2</ele>
        <time>2013-10-11T18:05:06Z</time>
        <extensions><gpxtpx:TrackPointExtension><gpxtpx:hr>144</gpxtpx:hr></gpxtpx:TrackPointExtension></extensions>
      </trkpt>
      <trkpt lat="59.9846059" lon="15.827814">
        <ele>104.2</ele>
        <time>2013-10-11T18:05:07Z</time>
        <extensions><gpxtpx:TrackPointExtension><gpxtpx:hr>143</gpxtpx:hr></gpxtpx:TrackPointExtension></extensions>
      </trkpt>
      <trkpt lat="59.9846043" lon="15.8278154">
        <ele>104.2</ele>
        <time>2013-10-11T18:05:11Z</time>
        <extensions><gpxtpx:TrackPointExtension><gpxtpx:hr>144</gpxtpx:hr></gpxtpx:TrackPointExtension></extensions>
      </trkpt>
      <trkpt lat="59.9846031" lon="15.8278177">
        <ele>104.2</ele>
        <time>2013-10-11T18:05:12Z</time>
        <extensions><gpxtpx:TrackPointExtension><gpxtpx:hr>144</gpxtpx:hr></gpxtpx:TrackPointExtension></extensions>
      </trkpt>
      <trkpt lat="59.9845984" lon="15.8278243">
        <ele>104.2</ele>
        <time>2013-10-11T18:05:13Z</time>
        <extensions><gpxtpx:TrackPointExtension><gpxtpx:hr>144</gpxtpx:hr></gpxtpx:TrackPointExtension></extensions>
      </trkpt>
      <trkpt lat="59.9845803" lon="15.8278489">
        <ele>104.2</ele>
        <time>2013-10-11T18:05:17Z</time>
        <extensions><gpxtpx:TrackPointExtension><gpxtpx:hr>145</gpxtpx:hr></gpxtpx:TrackPointExtension></extensions>
      </trkpt>
      <trkpt lat="59.9845802" lon="15.8278486">
        <ele>104.2</ele>
        <time>2013-10-11T18:05:18Z</time>
        <extensions><gpxtpx:TrackPointExtension><gpxtpx:hr>145</gpxtpx:hr></gpxtpx:TrackPointExtension></extensions>
      </trkpt>
      <trkpt lat="59.9845818" lon="15.8278472">
        <ele>104.2</ele>
        <time>2013-10-11T18:05:19Z</time>
        <extensions><gpxtpx:TrackPointExtension><gpxtpx:hr>145</gpxtpx:hr></gpxtpx:TrackPointExtension></extensions>
      </trkpt>
      <trkpt lat="59.984583" lon="15.8278464">
        <ele>104.2</ele>
        <time>2013-10-11T18:05:20Z</time>
        <extensions><gpxtpx:TrackPointExtension><gpxtpx:hr>146</gpxtpx:hr></gpxtpx:TrackPointExtension></extensions>
      </trkpt>
      <trkpt lat="59.9845855" lon="15.8278443">
        <ele>104.2</ele>
        <time>2013-10-11T18:05:21Z</time>
        <extensions><gpxtpx:TrackPointExtension><gpxtpx:hr>146</gpxtpx:hr></gpxtpx:TrackPointExtension></extensions>
      </trkpt>
      <trkpt lat="59.984586" lon="15.8278443">
        <ele>104.2</ele>
        <time>2013-10-11T18:05:22Z</time>
        <extensions><gpxtpx:TrackPointExtension><gpxtpx:hr>146</gpxtpx:hr></gpxtpx:TrackPointExtension></extensions>
      </trkpt>
      <trkpt lat="59.984578" lon="15.8278569">
        <ele>104.2</ele>
        <time>2013-10-11T18:05:24Z</time>
        <extensions><gpxtpx:TrackPointExtension><gpxtpx:hr>146</gpxtpx:hr></gpxtpx:TrackPointExtension></extensions>
      </trkpt>
      <trkpt lat="59.9845778" lon="15.827857">
        <ele>104.2</ele>
        <time>2013-10-11T18:05:25Z</time>
        <extensions><gpxtpx:TrackPointExtension><gpxtpx:hr>146</gpxtpx:hr></gpxtpx:TrackPointExtension></extensions>
      </trkpt>
      <trkpt lat="59.9845767" lon="15.8278586">
        <ele>104.2</ele>
        <time>2013-10-11T18:05:26Z</time>
        <extensions><gpxtpx:TrackPointExtension><gpxtpx:hr>147</gpxtpx:hr></gpxtpx:TrackPointExtension></extensions>
      </trkpt>
      <trkpt lat="59.9845762" lon="15.8278599">
        <ele>104.2</ele>
        <time>2013-10-11T18:05:27Z</time>
        <extensions><gpxtpx:TrackPointExtension><gpxtpx:hr>147</gpxtpx:hr></gpxtpx:TrackPointExtension></extensions>
      </trkpt>
      <trkpt lat="59.9845795" lon="15.8278505">
        <ele>104.2</ele>
        <time>2013-10-11T18:05:29Z</time>
        <extensions><gpxtpx:TrackPointExtension><gpxtpx:hr>147</gpxtpx:hr></gpxtpx:TrackPointExtension></extensions>
      </trkpt>
      <trkpt lat="59.9845828" lon="15.8278453">
        <ele>104.2</ele>
        <time>2013-10-11T18:05:30Z</time>
        <extensions><gpxtpx:TrackPointExtension><gpxtpx:hr>147</gpxtpx:hr></gpxtpx:TrackPointExtension></extensions>
      </trkpt>
      <trkpt lat="59.9845813" lon="15.8278413">
        <ele>104.2</ele>
        <time>2013-10-11T18:05:31Z</time>
        <extensions><gpxtpx:TrackPointExtension><gpxtpx:hr>147</gpxtpx:hr></gpxtpx:TrackPointExtension></extensions>
      </trkpt>
      <trkpt lat="59.98458" lon="15.8278423">
        <ele>104.2</ele>
        <time>2013-10-11T18:05:32Z</time>
        <extensions><gpxtpx:TrackPointExtension><gpxtpx:hr>147</gpxtpx:hr></gpxtpx:TrackPointExtension></extensions>
      </trkpt>
      <trkpt lat="59.9845765" lon="15.8278405">
        <ele>104.2</ele>
        <time>2013-10-11T18:05:33Z</time>
        <extensions><gpxtpx:TrackPointExtension><gpxtpx:hr>147</gpxtpx:hr></gpxtpx:TrackPointExtension></extensions>
      </trkpt>
      <trkpt lat="59.984488" lon="15.8278571">
        <ele>104.2</ele>
        <time>2013-10-11T18:05:35Z</time>
        <extensions><gpxtpx:TrackPointExtension><gpxtpx:hr>147</gpxtpx:hr></gpxtpx:TrackPointExtension></extensions>
      </trkpt>
      <trkpt lat="59.9844702" lon="15.8278766">
        <ele>104.2</ele>
        <time>2013-10-11T18:05:36Z</time>
        <extensions><gpxtpx:TrackPointExtension><gpxtpx:hr>147</gpxtpx:hr></gpxtpx:TrackPointExtension></extensions>
      </trkpt>
      <trkpt lat="59.9844584" lon="15.8278848">
        <ele>104.2</ele>
        <time>2013-10-11T18:05:37Z</time>
        <extensions><gpxtpx:TrackPointExtension><gpxtpx:hr>147</gpxtpx:hr></gpxtpx:TrackPointExtension></extensions>
      </trkpt>
      <trkpt lat="59.9844423" lon="15.8278941">
        <ele>104.2</ele>
        <time>2013-10-11T18:05:38Z</time>
        <extensions><gpxtpx:TrackPointExtension><gpxtpx:hr>146</gpxtpx:hr></gpxtpx:TrackPointExtension></extensions>
      </trkpt>
      <trkpt lat="59.9844434" lon="15.827898">
        <ele>104.2</ele>
        <time>2013-10-11T18:05:39Z</time>
        <extensions><gpxtpx:TrackPointExtension><gpxtpx:hr>146</gpxtpx:hr></gpxtpx:TrackPointExtension></extensions>
      </trkpt>
      <trkpt lat="59.9844439" lon="15.8278977">
        <ele>104.2</ele>
        <time>2013-10-11T18:05:40Z</time>
        <extensions><gpxtpx:TrackPointExtension><gpxtpx:hr>147</gpxtpx:hr></gpxtpx:TrackPointExtension></extensions>
      </trkpt>
      <trkpt lat="59.9844501" lon="15.8278974">
        <ele>104.2</ele>
        <time>2013-10-11T18:05:41Z</time>
        <extensions><gpxtpx:TrackPointExtension><gpxtpx:hr>147</gpxtpx:hr></gpxtpx:TrackPointExtension></extensions>
      </trkpt>
      <trkpt lat="59.984455" lon="15.8278949">
        <ele>104.2</ele>
        <time>2013-10-11T18:05:42Z</time>
        <extensions><gpxtpx:TrackPointExtension><gpxtpx:hr>147</gpxtpx:hr></gpxtpx:TrackPointExtension></extensions>
      </trkpt>
      <trkpt lat="59.9844537" lon="15.8278914">
        <ele>104.2</ele>
        <time>2013-10-11T18:05:44Z</time>
        <extensions><gpxtpx:TrackPointExtension><gpxtpx:hr>147</gpxtpx:hr></gpxtpx:TrackPointExtension></extensions>
      </trkpt>
      <trkpt lat="59.9844503" lon="15.8278932">
        <ele>104.2</ele>
        <time>2013-10-11T18:05:45Z</time>
        <extensions><gpxtpx:TrackPointExtension><gpxtpx:hr>147</gpxtpx:hr></gpxtpx:TrackPointExtension></extensions>
      </trkpt>
      <trkpt lat="59.9844472" lon="15.8278933">
        <ele>104.2</ele>
        <time>2013-10-11T18:05:46Z</time>
        <extensions><gpxtpx:TrackPointExtension><gpxtpx:hr>147</gpxtpx:hr></gpxtpx:TrackPointExtension></extensions>
      </trkpt>
      <trkpt lat="59.9844467" lon="15.8278936">
        <ele>104.2</ele>
        <time>2013-10-11T18:05:47Z</time>
        <extensions><gpxtpx:TrackPointExtension><gpxtpx:hr>148</gpxtpx:hr></gpxtpx:TrackPointExtension></extensions>
      </trkpt>
      <trkpt lat="59.9844451" lon="15.8278908">
        <ele>104.2</ele>
        <time>2013-10-11T18:05:48Z</time>
        <extensions><gpxtpx:TrackPointExtension><gpxtpx:hr>148</gpxtpx:hr></gpxtpx:TrackPointExtension></extensions>
      </trkpt>
      <trkpt lat="59.9844463" lon="15.8278936">
        <ele>104.2</ele>
        <time>2013-10-11T18:05:49Z</time>
        <extensions><gpxtpx:TrackPointExtension><gpxtpx:hr>148</gpxtpx:hr></gpxtpx:TrackPointExtension></extensions>
      </trkpt>
      <trkpt lat="59.9844496" lon="15.8278968">
        <ele>104.2</ele>
        <time>2013-10-11T18:05:50Z</time>
        <extensions><gpxtpx:TrackPointExtension><gpxtpx:hr>148</gpxtpx:hr></gpxtpx:TrackPointExtension></extensions>
      </trkpt>
      <trkpt lat="59.9844555" lon="15.8278952">
        <ele>104.2</ele>
        <time>2013-10-11T18:05:51Z</time>
        <extensions><gpxtpx:TrackPointExtension><gpxtpx:hr>148</gpxtpx:hr></gpxtpx:TrackPointExtension></extensions>
      </trkpt>
      <trkpt lat="59.9844608" lon="15.8278862">
        <ele>104.2</ele>
        <time>2013-10-11T18:05:52Z</time>
        <extensions><gpxtpx:TrackPointExtension><gpxtpx:hr>148</gpxtpx:hr></gpxtpx:TrackPointExtension></extensions>
      </trkpt>
      <trkpt lat="59.9844666" lon="15.8278762">
        <ele>104.2</ele>
        <time>2013-10-11T18:05:53Z</time>
        <extensions><gpxtpx:TrackPointExtension><gpxtpx:hr>148</gpxtpx:hr></gpxtpx:TrackPointExtension></extensions>
      </trkpt>
      <trkpt lat="59.9845182" lon="15.8278698">
        <ele>104.2</ele>
        <time>2013-10-11T18:05:54Z</time>
        <extensions><gpxtpx:TrackPointExtension><gpxtpx:hr>148</gpxtpx:hr></gpxtpx:TrackPointExtension></extensions>
      </trkpt>
      <trkpt lat="59.9845199" lon="15.8278684">
        <ele>104.2</ele>
        <time>2013-10-11T18:05:55Z</time>
        <extensions><gpxtpx:TrackPointExtension><gpxtpx:hr>148</gpxtpx:hr></gpxtpx:TrackPointExtension></extensions>
      </trkpt>
      <trkpt lat="59.9845169" lon="15.8278751">
        <ele>104.2</ele>
        <time>2013-10-11T18:05:56Z</time>
        <extensions><gpxtpx:TrackPointExtension><gpxtpx:hr>148</gpxtpx:hr></gpxtpx:TrackPointExtension></extensions>
      </trkpt>
      <trkpt lat="59.984515" lon="15.8278773">
        <ele>104.2</ele>
        <time>2013-10-11T18:05:57Z</time>
        <extensions><gpxtpx:TrackPointExtension><gpxtpx:hr>148</gpxtpx:hr></gpxtpx:TrackPointExtension></extensions>
      </trkpt>
      <trkpt lat="59.9845161" lon="15.8278718">
        <ele>104.2</ele>
        <time>2013-10-11T18:05:59Z</time>
        <extensions><gpxtpx:TrackPointExtension><gpxtpx:hr>148</gpxtpx:hr></gpxtpx:TrackPointExtension></extensions>
      </trkpt>
      <trkpt lat="59.9845191" lon="15.8278687">
        <ele>104.2</ele>
        <time>2013-10-11T18:06:00Z</time>
        <extensions><gpxtpx:TrackPointExtension><gpxtpx:hr>149</gpxtpx:hr></gpxtpx:TrackPointExtension></extensions>
      </trkpt>
      <trkpt lat="59.9845218" lon="15.8278704">
        <ele>104.2</ele>
        <time>2013-10-11T18:06:01Z</time>
        <extensions><gpxtpx:TrackPointExtension><gpxtpx:hr>149</gpxtpx:hr></gpxtpx:TrackPointExtension></extensions>
      </trkpt>
      <trkpt lat="59.9845215" lon="15.8278699">
        <ele>104.2</ele>
        <time>2013-10-11T18:06:02Z</time>
        <extensions><gpxtpx:TrackPointExtension><gpxtpx:hr>149</gpxtpx:hr></gpxtpx:TrackPointExtension></extensions>
      </trkpt>
      <trkpt lat="59.9845245" lon="15.8278581">
        <ele>104.2</ele>
        <time>2013-10-11T18:06:04Z</time>
        <extensions><gpxtpx:TrackPointExtension><gpxtpx:hr>149</gpxtpx:hr></gpxtpx:TrackPointExtension></extensions>
      </trkpt>
      <trkpt lat="59.984531" lon="15.8278496">
        <ele>104.2</ele>
        <time>2013-10-11T18:06:05Z</time>
        <extensions><gpxtpx:TrackPointExtension><gpxtpx:hr>149</gpxtpx:hr></gpxtpx:TrackPointExtension></extensions>
      </trkpt>
      <trkpt lat="59.9845316" lon="15.8278353">
        <ele>104.2</ele>
        <time>2013-10-11T18:06:06Z</time>
        <extensions><gpxtpx:TrackPointExtension><gpxtpx:hr>149</gpxtpx:hr></gpxtpx:TrackPointExtension></extensions>
      </trkpt>
      <trkpt lat="59.9845363" lon="15.8278255">
        <ele>104.2</ele>
        <time>2013-10-11T18:06:07Z</time>
        <extensions><gpxtpx:TrackPointExtension><gpxtpx:hr>149</gpxtpx:hr></gpxtpx:TrackPointExtension></extensions>
      </trkpt>
      <trkpt lat="59.9845356" lon="15.8278244">
        <ele>104.2</ele>
        <time>2013-10-11T18:06:08Z</time>
        <extensions><gpxtpx:TrackPointExtension><gpxtpx:hr>149</gpxtpx:hr></gpxtpx:TrackPointExtension></extensions>
      </trkpt>
      <trkpt lat="59.9845399" lon="15.8278195">
        <ele>104.2</ele>
        <time>2013-10-11T18:06:09Z</time>
        <extensions><gpxtpx:TrackPointExtension><gpxtpx:hr>150</gpxtpx:hr></gpxtpx:TrackPointExtension></extensions>
      </trkpt>
      <trkpt lat="59.9845434" lon="15.827821">
        <ele>104.2</ele>
        <time>2013-10-11T18:06:10Z</time>
        <extensions><gpxtpx:TrackPointExtension><gpxtpx:hr>150</gpxtpx:hr></gpxtpx:TrackPointExtension></extensions>
      </trkpt>
      <trkpt lat="59.9845424" lon="15.8278265">
        <ele>104.2</ele>
        <time>2013-10-11T18:06:11Z</time>
        <extensions><gpxtpx:TrackPointExtension><gpxtpx:hr>150</gpxtpx:hr></gpxtpx:TrackPointExtension></extensions>
      </trkpt>
      <trkpt lat="59.9845161" lon="15.8278531">
        <ele>104.2</ele>
        <time>2013-10-11T18:06:12Z</time>
        <extensions><gpxtpx:TrackPointExtension><gpxtpx:hr>150</gpxtpx:hr></gpxtpx:TrackPointExtension></extensions>
      </trkpt>
      <trkpt lat="59.9844969" lon="15.8278722">
        <ele>104.2</ele>
        <time>2013-10-11T18:06:13Z</time>
        <extensions><gpxtpx:TrackPointExtension><gpxtpx:hr>150</gpxtpx:hr></gpxtpx:TrackPointExtension></extensions>
      </trkpt>
      <trkpt lat="59.9844762" lon="15.827898">
        <ele>104.2</ele>
        <time>2013-10-11T18:06:14Z</time>
        <extensions><gpxtpx:TrackPointExtension><gpxtpx:hr>150</gpxtpx:hr></gpxtpx:TrackPointExtension></extensions>
      </trkpt>
      <trkpt lat="59.9844552" lon="15.8279125">
        <ele>104.2</ele>
        <time>2013-10-11T18:06:15Z</time>
        <extensions><gpxtpx:TrackPointExtension><gpxtpx:hr>151</gpxtpx:hr></gpxtpx:TrackPointExtension></extensions>
      </trkpt>
      <trkpt lat="59.9844307" lon="15.8279324">
        <ele>104.2</ele>
        <time>2013-10-11T18:06:16Z</time>
        <extensions><gpxtpx:TrackPointExtension><gpxtpx:hr>151</gpxtpx:hr></gpxtpx:TrackPointExtension></extensions>
      </trkpt>
      <trkpt lat="59.9844131" lon="15.8279503">
        <ele>104.2</ele>
        <time>2013-10-11T18:06:17Z</time>
        <extensions><gpxtpx:TrackPointExtension><gpxtpx:hr>151</gpxtpx:hr></gpxtpx:TrackPointExtension></extensions>
      </trkpt>
      <trkpt lat="59.9844064" lon="15.8279692">
        <ele>104.2</ele>
        <time>2013-10-11T18:06:18Z</time>
        <extensions><gpxtpx:TrackPointExtension><gpxtpx:hr>151</gpxtpx:hr></gpxtpx:TrackPointExtension></extensions>
      </trkpt>
      <trkpt lat="59.9844029" lon="15.8279755">
        <ele>104.2</ele>
        <time>2013-10-11T18:06:19Z</time>
        <extensions><gpxtpx:TrackPointExtension><gpxtpx:hr>151</gpxtpx:hr></gpxtpx:TrackPointExtension></extensions>
      </trkpt>
      <trkpt lat="59.9843984" lon="15.827997">
        <ele>104.2</ele>
        <time>2013-10-11T18:06:20Z</time>
        <extensions><gpxtpx:TrackPointExtension><gpxtpx:hr>151</gpxtpx:hr></gpxtpx:TrackPointExtension></extensions>
      </trkpt>
      <trkpt lat="59.9843933" lon="15.8280107">
        <ele>104.2</ele>
        <time>2013-10-11T18:06:21Z</time>
        <extensions><gpxtpx:TrackPointExtension><gpxtpx:hr>151</gpxtpx:hr></gpxtpx:TrackPointExtension></extensions>
      </trkpt>
      <trkpt lat="59.9843686" lon="15.8280202">
        <ele>104.2</ele>
        <time>2013-10-11T18:06:23Z</time>
        <extensions><gpxtpx:TrackPointExtension><gpxtpx:hr>151</gpxtpx:hr></gpxtpx:TrackPointExtension></extensions>
      </trkpt>
      <trkpt lat="59.9843679" lon="15.8280262">
        <ele>104.2</ele>
        <time>2013-10-11T18:06:24Z</time>
        <extensions><gpxtpx:TrackPointExtension><gpxtpx:hr>151</gpxtpx:hr></gpxtpx:TrackPointExtension></extensions>
      </trkpt>
      <trkpt lat="59.9843674" lon="15.8280093">
        <ele>104.2</ele>
        <time>2013-10-11T18:06:26Z</time>
        <extensions><gpxtpx:TrackPointExtension><gpxtpx:hr>151</gpxtpx:hr></gpxtpx:TrackPointExtension></extensions>
      </trkpt>
      <trkpt lat="59.9843774" lon="15.827999">
        <ele>104.2</ele>
        <time>2013-10-11T18:06:27Z</time>
        <extensions><gpxtpx:TrackPointExtension><gpxtpx:hr>151</gpxtpx:hr></gpxtpx:TrackPointExtension></extensions>
      </trkpt>
      <trkpt lat="59.9844154" lon="15.8279557">
        <ele>104.2</ele>
        <time>2013-10-11T18:06:31Z</time>
        <extensions><gpxtpx:TrackPointExtension><gpxtpx:hr>151</gpxtpx:hr></gpxtpx:TrackPointExtension></extensions>
      </trkpt>
      <trkpt lat="59.984704" lon="15.8276227">
        <ele>104.2</ele>
        <time>2013-10-11T18:07:05Z</time>
        <extensions><gpxtpx:TrackPointExtension><gpxtpx:hr>150</gpxtpx:hr></gpxtpx:TrackPointExtension></extensions>
      </trkpt>
      <trkpt lat="59.9846977" lon="15.8276362">
        <ele>104.2</ele>
        <time>2013-10-11T18:07:06Z</time>
        <extensions><gpxtpx:TrackPointExtension><gpxtpx:hr>150</gpxtpx:hr></gpxtpx:TrackPointExtension></extensions>
      </trkpt>
      <trkpt lat="59.9846962" lon="15.8276415">
        <ele>104.2</ele>
        <time>2013-10-11T18:07:07Z</time>
        <extensions><gpxtpx:TrackPointExtension><gpxtpx:hr>150</gpxtpx:hr></gpxtpx:TrackPointExtension></extensions>
      </trkpt>
      <trkpt lat="59.9846958" lon="15.8276403">
        <ele>104.2</ele>
        <time>2013-10-11T18:07:08Z</time>
        <extensions><gpxtpx:TrackPointExtension><gpxtpx:hr>149</gpxtpx:hr></gpxtpx:TrackPointExtension></extensions>
      </trkpt>
      <trkpt lat="59.9846963" lon="15.827639">
        <ele>104.2</ele>
        <time>2013-10-11T18:07:09Z</time>
        <extensions><gpxtpx:TrackPointExtension><gpxtpx:hr>150</gpxtpx:hr></gpxtpx:TrackPointExtension></extensions>
      </trkpt>
      <trkpt lat="59.9846963" lon="15.8276382">
        <ele>104.2</ele>
        <time>2013-10-11T18:07:10Z</time>
        <extensions><gpxtpx:TrackPointExtension><gpxtpx:hr>149</gpxtpx:hr></gpxtpx:TrackPointExtension></extensions>
      </trkpt>
      <trkpt lat="59.9846977" lon="15.8276353">
        <ele>104.2</ele>
        <time>2013-10-11T18:07:11Z</time>
        <extensions><gpxtpx:TrackPointExtension><gpxtpx:hr>149</gpxtpx:hr></gpxtpx:TrackPointExtension></extensions>
      </trkpt>
      <trkpt lat="59.9846958" lon="15.8276404">
        <ele>104.2</ele>
        <time>2013-10-11T18:07:12Z</time>
        <extensions><gpxtpx:TrackPointExtension><gpxtpx:hr>149</gpxtpx:hr></gpxtpx:TrackPointExtension></extensions>
      </trkpt>
      <trkpt lat="59.9846973" lon="15.8276359">
        <ele>104.2</ele>
        <time>2013-10-11T18:07:13Z</time>
        <extensions><gpxtpx:TrackPointExtension><gpxtpx:hr>149</gpxtpx:hr></gpxtpx:TrackPointExtension></extensions>
      </trkpt>
      <trkpt lat="59.9846972" lon="15.8276355">
        <ele>104.2</ele>
        <time>2013-10-11T18:07:14Z</time>
        <extensions><gpxtpx:TrackPointExtension><gpxtpx:hr>149</gpxtpx:hr></gpxtpx:TrackPointExtension></extensions>
      </trkpt>
      <trkpt lat="59.9846966" lon="15.827638">
        <ele>104.2</ele>
        <time>2013-10-11T18:07:15Z</time>
        <extensions><gpxtpx:TrackPointExtension><gpxtpx:hr>149</gpxtpx:hr></gpxtpx:TrackPointExtension></extensions>
      </trkpt>
      <trkpt lat="59.9846942" lon="15.8276432">
        <ele>104.2</ele>
        <time>2013-10-11T18:07:16Z</time>
        <extensions><gpxtpx:TrackPointExtension><gpxtpx:hr>150</gpxtpx:hr></gpxtpx:TrackPointExtension></extensions>
      </trkpt>
      <trkpt lat="59.9846925" lon="15.8276473">
        <ele>104.2</ele>
        <time>2013-10-11T18:07:17Z</time>
        <extensions><gpxtpx:TrackPointExtension><gpxtpx:hr>149</gpxtpx:hr></gpxtpx:TrackPointExtension></extensions>
      </trkpt>
      <trkpt lat="59.9846921" lon="15.8276475">
        <ele>104.2</ele>
        <time>2013-10-11T18:07:18Z</time>
        <extensions><gpxtpx:TrackPointExtension><gpxtpx:hr>149</gpxtpx:hr></gpxtpx:TrackPointExtension></extensions>
      </trkpt>
      <trkpt lat="59.984692" lon="15.8276473">
        <ele>104.2</ele>
        <time>2013-10-11T18:07:19Z</time>
        <extensions><gpxtpx:TrackPointExtension><gpxtpx:hr>149</gpxtpx:hr></gpxtpx:TrackPointExtension></extensions>
      </trkpt>
      <trkpt lat="59.9846898" lon="15.8276523">
        <ele>104.2</ele>
        <time>2013-10-11T18:07:20Z</time>
        <extensions><gpxtpx:TrackPointExtension><gpxtpx:hr>149</gpxtpx:hr></gpxtpx:TrackPointExtension></extensions>
      </trkpt>
      <trkpt lat="59.984688" lon="15.8276541">
        <ele>104.2</ele>
        <time>2013-10-11T18:07:21Z</time>
        <extensions><gpxtpx:TrackPointExtension><gpxtpx:hr>149</gpxtpx:hr></gpxtpx:TrackPointExtension></extensions>
      </trkpt>
      <trkpt lat="59.9846886" lon="15.8276518">
        <ele>104.2</ele>
        <time>2013-10-11T18:07:22Z</time>
        <extensions><gpxtpx:TrackPointExtension><gpxtpx:hr>149</gpxtpx:hr></gpxtpx:TrackPointExtension></extensions>
      </trkpt>
      <trkpt lat="59.9846877" lon="15.8276537">
        <ele>104.2</ele>
        <time>2013-10-11T18:07:23Z</time>
        <extensions><gpxtpx:TrackPointExtension><gpxtpx:hr>150</gpxtpx:hr></gpxtpx:TrackPointExtension></extensions>
      </trkpt>
      <trkpt lat="59.9846899" lon="15.8276495">
        <ele>104.2</ele>
        <time>2013-10-11T18:07:24Z</time>
        <extensions><gpxtpx:TrackPointExtension><gpxtpx:hr>149</gpxtpx:hr></gpxtpx:TrackPointExtension></extensions>
      </trkpt>
      <trkpt lat="59.9846886" lon="15.827653">
        <ele>104.2</ele>
        <time>2013-10-11T18:07:25Z</time>
        <extensions><gpxtpx:TrackPointExtension><gpxtpx:hr>149</gpxtpx:hr></gpxtpx:TrackPointExtension></extensions>
      </trkpt>
      <trkpt lat="59.9846859" lon="15.8276589">
        <ele>104.2</ele>
        <time>2013-10-11T18:07:26Z</time>
        <extensions><gpxtpx:TrackPointExtension><gpxtpx:hr>150</gpxtpx:hr></gpxtpx:TrackPointExtension></extensions>
      </trkpt>
      <trkpt lat="59.9846871" lon="15.8276546">
        <ele>104.2</ele>
        <time>2013-10-11T18:07:27Z</time>
        <extensions><gpxtpx:TrackPointExtension><gpxtpx:hr>149</gpxtpx:hr></gpxtpx:TrackPointExtension></extensions>
      </trkpt>
      <trkpt lat="59.984687" lon="15.8276564">
        <ele>104.2</ele>
        <time>2013-10-11T18:07:28Z</time>
        <extensions><gpxtpx:TrackPointExtension><gpxtpx:hr>150</gpxtpx:hr></gpxtpx:TrackPointExtension></extensions>
      </trkpt>
      <trkpt lat="59.9846828" lon="15.8276648">
        <ele>104.2</ele>
        <time>2013-10-11T18:07:29Z</time>
        <extensions><gpxtpx:TrackPointExtension><gpxtpx:hr>150</gpxtpx:hr></gpxtpx:TrackPointExtension></extensions>
      </trkpt>
      <trkpt lat="59.9846808" lon="15.8276681">
        <ele>104.2</ele>
        <time>2013-10-11T18:07:30Z</time>
        <extensions><gpxtpx:TrackPointExtension><gpxtpx:hr>150</gpxtpx:hr></gpxtpx:TrackPointExtension></extensions>
      </trkpt>
      <trkpt lat="59.9846824" lon="15.8276644">
        <ele>104.2</ele>
        <time>2013-10-11T18:07:31Z</time>
        <extensions><gpxtpx:TrackPointExtension><gpxtpx:hr>149</gpxtpx:hr></gpxtpx:TrackPointExtension></extensions>
      </trkpt>
      <trkpt lat="59.9846858" lon="15.8276572">
        <ele>104.2</ele>
        <time>2013-10-11T18:07:32Z</time>
        <extensions><gpxtpx:TrackPointExtension><gpxtpx:hr>149</gpxtpx:hr></gpxtpx:TrackPointExtension></extensions>
      </trkpt>
      <trkpt lat="59.9846876" lon="15.8276546">
        <ele>104.2</ele>
        <time>2013-10-11T18:07:33Z</time>
        <extensions><gpxtpx:TrackPointExtension><gpxtpx:hr>149</gpxtpx:hr></gpxtpx:TrackPointExtension></extensions>
      </trkpt>
      <trkpt lat="59.9846908" lon="15.8276485">
        <ele>104.2</ele>
        <time>2013-10-11T18:07:34Z</time>
        <extensions><gpxtpx:TrackPointExtension><gpxtpx:hr>149</gpxtpx:hr></gpxtpx:TrackPointExtension></extensions>
      </trkpt>
      <trkpt lat="59.9846959" lon="15.8276387">
        <ele>104.2</ele>
        <time>2013-10-11T18:07:35Z</time>
        <extensions><gpxtpx:TrackPointExtension><gpxtpx:hr>149</gpxtpx:hr></gpxtpx:TrackPointExtension></extensions>
      </trkpt>
      <trkpt lat="59.9847" lon="15.8276305">
        <ele>104.2</ele>
        <time>2013-10-11T18:07:36Z</time>
        <extensions><gpxtpx:TrackPointExtension><gpxtpx:hr>149</gpxtpx:hr></gpxtpx:TrackPointExtension></extensions>
      </trkpt>
      <trkpt lat="59.9847083" lon="15.8276177">
        <ele>104.2</ele>
        <time>2013-10-11T18:07:38Z</time>
        <extensions><gpxtpx:TrackPointExtension><gpxtpx:hr>149</gpxtpx:hr></gpxtpx:TrackPointExtension></extensions>
      </trkpt>
      <trkpt lat="59.9847125" lon="15.8276073">
        <ele>104.2</ele>
        <time>2013-10-11T18:07:39Z</time>
        <extensions><gpxtpx:TrackPointExtension><gpxtpx:hr>149</gpxtpx:hr></gpxtpx:TrackPointExtension></extensions>
      </trkpt>
      <trkpt lat="59.9847175" lon="15.827597">
        <ele>104.2</ele>
        <time>2013-10-11T18:07:41Z</time>
        <extensions><gpxtpx:TrackPointExtension><gpxtpx:hr>149</gpxtpx:hr></gpxtpx:TrackPointExtension></extensions>
      </trkpt>
      <trkpt lat="59.9847189" lon="15.8275974">
        <ele>104.2</ele>
        <time>2013-10-11T18:07:42Z</time>
        <extensions><gpxtpx:TrackPointExtension><gpxtpx:hr>149</gpxtpx:hr></gpxtpx:TrackPointExtension></extensions>
      </trkpt>
      <trkpt lat="59.9847177" lon="15.8275996">
        <ele>104.2</ele>
        <time>2013-10-11T18:07:43Z</time>
        <extensions><gpxtpx:TrackPointExtension><gpxtpx:hr>149</gpxtpx:hr></gpxtpx:TrackPointExtension></extensions>
      </trkpt>
      <trkpt lat="59.9847108" lon="15.8276143">
        <ele>104.2</ele>
        <time>2013-10-11T18:07:45Z</time>
        <extensions><gpxtpx:TrackPointExtension><gpxtpx:hr>149</gpxtpx:hr></gpxtpx:TrackPointExtension></extensions>
      </trkpt>
      <trkpt lat="59.9847083" lon="15.8276194">
        <ele>104.2</ele>
        <time>2013-10-11T18:07:46Z</time>
        <extensions><gpxtpx:TrackPointExtension><gpxtpx:hr>149</gpxtpx:hr></gpxtpx:TrackPointExtension></extensions>
      </trkpt>
      <trkpt lat="59.9847042" lon="15.8276324">
        <ele>104.2</ele>
        <time>2013-10-11T18:07:50Z</time>
        <extensions><gpxtpx:TrackPointExtension><gpxtpx:hr>149</gpxtpx:hr></gpxtpx:TrackPointExtension></extensions>
      </trkpt>
      <trkpt lat="59.9847009" lon="15.8276417">
        <ele>104.2</ele>
        <time>2013-10-11T18:07:51Z</time>
        <extensions><gpxtpx:TrackPointExtension><gpxtpx:hr>149</gpxtpx:hr></gpxtpx:TrackPointExtension></extensions>
      </trkpt>
      <trkpt lat="59.9846984" lon="15.8276453">
        <ele>104.2</ele>
        <time>2013-10-11T18:07:52Z</time>
        <extensions><gpxtpx:TrackPointExtension><gpxtpx:hr>149</gpxtpx:hr></gpxtpx:TrackPointExtension></extensions>
      </trkpt>
      <trkpt lat="59.9846974" lon="15.8276452">
        <ele>104.2</ele>
        <time>2013-10-11T18:07:53Z</time>
        <extensions><gpxtpx:TrackPointExtension><gpxtpx:hr>149</gpxtpx:hr></gpxtpx:TrackPointExtension></extensions>
      </trkpt>
      <trkpt lat="59.984695" lon="15.8276493">
        <ele>104.2</ele>
        <time>2013-10-11T18:07:57Z</time>
        <extensions><gpxtpx:TrackPointExtension><gpxtpx:hr>148</gpxtpx:hr></gpxtpx:TrackPointExtension></extensions>
      </trkpt>
      <trkpt lat="59.9846938" lon="15.8276518">
        <ele>104.2</ele>
        <time>2013-10-11T18:07:58Z</time>
        <extensions><gpxtpx:TrackPointExtension><gpxtpx:hr>148</gpxtpx:hr></gpxtpx:TrackPointExtension></extensions>
      </trkpt>
      <trkpt lat="59.9846937" lon="15.8276496">
        <ele>104.2</ele>
        <time>2013-10-11T18:07:59Z</time>
        <extensions><gpxtpx:TrackPointExtension><gpxtpx:hr>148</gpxtpx:hr></gpxtpx:TrackPointExtension></extensions>
      </trkpt>
      <trkpt lat="59.9846971" lon="15.8276393">
        <ele>104.2</ele>
        <time>2013-10-11T18:08:00Z</time>
        <extensions><gpxtpx:TrackPointExtension><gpxtpx:hr>147</gpxtpx:hr></gpxtpx:TrackPointExtension></extensions>
      </trkpt>
      <trkpt lat="59.9847019" lon="15.8276341">
        <ele>104.2</ele>
        <time>2013-10-11T18:08:01Z</time>
        <extensions><gpxtpx:TrackPointExtension><gpxtpx:hr>147</gpxtpx:hr></gpxtpx:TrackPointExtension></extensions>
      </trkpt>
      <trkpt lat="59.9847068" lon="15.8276244">
        <ele>104.2</ele>
        <time>2013-10-11T18:08:02Z</time>
        <extensions><gpxtpx:TrackPointExtension><gpxtpx:hr>147</gpxtpx:hr></gpxtpx:TrackPointExtension></extensions>
      </trkpt>
      <trkpt lat="59.9847121" lon="15.8276145">
        <ele>104.2</ele>
        <time>2013-10-11T18:08:03Z</time>
        <extensions><gpxtpx:TrackPointExtension><gpxtpx:hr>146</gpxtpx:hr></gpxtpx:TrackPointExtension></extensions>
      </trkpt>
      <trkpt lat="59.9847173" lon="15.8276022">
        <ele>104.2</ele>
        <time>2013-10-11T18:08:04Z</time>
        <extensions><gpxtpx:TrackPointExtension><gpxtpx:hr>147</gpxtpx:hr></gpxtpx:TrackPointExtension></extensions>
      </trkpt>
      <trkpt lat="59.9847215" lon="15.8275922">
        <ele>104.2</ele>
        <time>2013-10-11T18:08:05Z</time>
        <extensions><gpxtpx:TrackPointExtension><gpxtpx:hr>146</gpxtpx:hr></gpxtpx:TrackPointExtension></extensions>
      </trkpt>
      <trkpt lat="59.984725" lon="15.8275841">
        <ele>104.2</ele>
        <time>2013-10-11T18:08:06Z</time>
        <extensions><gpxtpx:TrackPointExtension><gpxtpx:hr>146</gpxtpx:hr></gpxtpx:TrackPointExtension></extensions>
      </trkpt>
      <trkpt lat="59.9847292" lon="15.8275796">
        <ele>104.2</ele>
        <time>2013-10-11T18:08:09Z</time>
        <extensions><gpxtpx:TrackPointExtension><gpxtpx:hr>146</gpxtpx:hr></gpxtpx:TrackPointExtension></extensions>
      </trkpt>
      <trkpt lat="59.9847325" lon="15.8275747">
        <ele>104.2</ele>
        <time>2013-10-11T18:08:10Z</time>
        <extensions><gpxtpx:TrackPointExtension><gpxtpx:hr>146</gpxtpx:hr></gpxtpx:TrackPointExtension></extensions>
      </trkpt>
      <trkpt lat="59.9847377" lon="15.8275664">
        <ele>104.2</ele>
        <time>2013-10-11T18:08:11Z</time>
        <extensions><gpxtpx:TrackPointExtension><gpxtpx:hr>147</gpxtpx:hr></gpxtpx:TrackPointExtension></extensions>
      </trkpt>
      <trkpt lat="59.9847414" lon="15.8275593">
        <ele>102.2</ele>
        <time>2013-10-11T18:08:12Z</time>
        <extensions><gpxtpx:TrackPointExtension><gpxtpx:hr>146</gpxtpx:hr></gpxtpx:TrackPointExtension></extensions>
      </trkpt>
      <trkpt lat="59.9847492" lon="15.8275431">
        <ele>102.2</ele>
        <time>2013-10-11T18:08:14Z</time>
        <extensions><gpxtpx:TrackPointExtension><gpxtpx:hr>146</gpxtpx:hr></gpxtpx:TrackPointExtension></extensions>
      </trkpt>
      <trkpt lat="59.9847532" lon="15.827535">
        <ele>102.2</ele>
        <time>2013-10-11T18:08:15Z</time>
        <extensions><gpxtpx:TrackPointExtension><gpxtpx:hr>147</gpxtpx:hr></gpxtpx:TrackPointExtension></extensions>
      </trkpt>
      <trkpt lat="59.9847539" lon="15.8275337">
        <ele>102.2</ele>
        <time>2013-10-11T18:08:16Z</time>
        <extensions><gpxtpx:TrackPointExtension><gpxtpx:hr>146</gpxtpx:hr></gpxtpx:TrackPointExtension></extensions>
      </trkpt>
      <trkpt lat="59.9847564" lon="15.827527">
        <ele>102.2</ele>
        <time>2013-10-11T18:08:17Z</time>
        <extensions><gpxtpx:TrackPointExtension><gpxtpx:hr>147</gpxtpx:hr></gpxtpx:TrackPointExtension></extensions>
      </trkpt>
      <trkpt lat="59.9847568" lon="15.8275266">
        <ele>102.2</ele>
        <time>2013-10-11T18:08:18Z</time>
        <extensions><gpxtpx:TrackPointExtension><gpxtpx:hr>146</gpxtpx:hr></gpxtpx:TrackPointExtension></extensions>
      </trkpt>
      <trkpt lat="59.9847528" lon="15.827538">
        <ele>102.2</ele>
        <time>2013-10-11T18:08:19Z</time>
        <extensions><gpxtpx:TrackPointExtension><gpxtpx:hr>146</gpxtpx:hr></gpxtpx:TrackPointExtension></extensions>
      </trkpt>
      <trkpt lat="59.9847477" lon="15.8275497">
        <ele>102.2</ele>
        <time>2013-10-11T18:08:20Z</time>
        <extensions><gpxtpx:TrackPointExtension><gpxtpx:hr>146</gpxtpx:hr></gpxtpx:TrackPointExtension></extensions>
      </trkpt>
      <trkpt lat="59.9847435" lon="15.8275589">
        <ele>102.2</ele>
        <time>2013-10-11T18:08:21Z</time>
        <extensions><gpxtpx:TrackPointExtension><gpxtpx:hr>147</gpxtpx:hr></gpxtpx:TrackPointExtension></extensions>
      </trkpt>
      <trkpt lat="59.984739" lon="15.8275672">
        <ele>102.2</ele>
        <time>2013-10-11T18:08:23Z</time>
        <extensions><gpxtpx:TrackPointExtension><gpxtpx:hr>146</gpxtpx:hr></gpxtpx:TrackPointExtension></extensions>
      </trkpt>
      <trkpt lat="59.9847387" lon="15.8275685">
        <ele>102.2</ele>
        <time>2013-10-11T18:08:24Z</time>
        <extensions><gpxtpx:TrackPointExtension><gpxtpx:hr>146</gpxtpx:hr></gpxtpx:TrackPointExtension></extensions>
      </trkpt>
      <trkpt lat="59.984736" lon="15.827579">
        <ele>102.2</ele>
        <time>2013-10-11T18:08:25Z</time>
        <extensions><gpxtpx:TrackPointExtension><gpxtpx:hr>146</gpxtpx:hr></gpxtpx:TrackPointExtension></extensions>
      </trkpt>
      <trkpt lat="59.9847313" lon="15.8275898">
        <ele>102.2</ele>
        <time>2013-10-11T18:08:26Z</time>
        <extensions><gpxtpx:TrackPointExtension><gpxtpx:hr>146</gpxtpx:hr></gpxtpx:TrackPointExtension></extensions>
      </trkpt>
      <trkpt lat="59.9847303" lon="15.8275915">
        <ele>102.2</ele>
        <time>2013-10-11T18:08:27Z</time>
        <extensions><gpxtpx:TrackPointExtension><gpxtpx:hr>146</gpxtpx:hr></gpxtpx:TrackPointExtension></extensions>
      </trkpt>
      <trkpt lat="59.9847352" lon="15.8275791">
        <ele>102.2</ele>
        <time>2013-10-11T18:08:28Z</time>
        <extensions><gpxtpx:TrackPointExtension><gpxtpx:hr>146</gpxtpx:hr></gpxtpx:TrackPointExtension></extensions>
      </trkpt>
      <trkpt lat="59.9846602" lon="15.8277358">
        <ele>102.2</ele>
        <time>2013-10-11T18:08:29Z</time>
        <extensions><gpxtpx:TrackPointExtension><gpxtpx:hr>146</gpxtpx:hr></gpxtpx:TrackPointExtension></extensions>
      </trkpt>
      <trkpt lat="59.9846694" lon="15.8277164">
        <ele>102.2</ele>
        <time>2013-10-11T18:08:30Z</time>
        <extensions><gpxtpx:TrackPointExtension><gpxtpx:hr>146</gpxtpx:hr></gpxtpx:TrackPointExtension></extensions>
      </trkpt>
      <trkpt lat="59.9846756" lon="15.8277043">
        <ele>102.2</ele>
        <time>2013-10-11T18:08:31Z</time>
        <extensions><gpxtpx:TrackPointExtension><gpxtpx:hr>146</gpxtpx:hr></gpxtpx:TrackPointExtension></extensions>
      </trkpt>
      <trkpt lat="59.9846939" lon="15.827668">
        <ele>102.2</ele>
        <time>2013-10-11T18:08:34Z</time>
        <extensions><gpxtpx:TrackPointExtension><gpxtpx:hr>145</gpxtpx:hr></gpxtpx:TrackPointExtension></extensions>
      </trkpt>
      <trkpt lat="59.9846982" lon="15.8276592">
        <ele>102.2</ele>
        <time>2013-10-11T18:08:35Z</time>
        <extensions><gpxtpx:TrackPointExtension><gpxtpx:hr>146</gpxtpx:hr></gpxtpx:TrackPointExtension></extensions>
      </trkpt>
      <trkpt lat="59.9847004" lon="15.827657">
        <ele>102.2</ele>
        <time>2013-10-11T18:08:36Z</time>
        <extensions><gpxtpx:TrackPointExtension><gpxtpx:hr>145</gpxtpx:hr></gpxtpx:TrackPointExtension></extensions>
      </trkpt>
      <trkpt lat="59.9847096" lon="15.827636">
        <ele>102.2</ele>
        <time>2013-10-11T18:08:37Z</time>
        <extensions><gpxtpx:TrackPointExtension><gpxtpx:hr>145</gpxtpx:hr></gpxtpx:TrackPointExtension></extensions>
      </trkpt>
      <trkpt lat="59.9847149" lon="15.8276269">
        <ele>102.2</ele>
        <time>2013-10-11T18:08:38Z</time>
        <extensions><gpxtpx:TrackPointExtension><gpxtpx:hr>145</gpxtpx:hr></gpxtpx:TrackPointExtension></extensions>
      </trkpt>
      <trkpt lat="59.984718" lon="15.8276185">
        <ele>102.2</ele>
        <time>2013-10-11T18:08:39Z</time>
        <extensions><gpxtpx:TrackPointExtension><gpxtpx:hr>145</gpxtpx:hr></gpxtpx:TrackPointExtension></extensions>
      </trkpt>
      <trkpt lat="59.9847274" lon="15.827598">
        <ele>102.2</ele>
        <time>2013-10-11T18:08:40Z</time>
        <extensions><gpxtpx:TrackPointExtension><gpxtpx:hr>145</gpxtpx:hr></gpxtpx:TrackPointExtension></extensions>
      </trkpt>
      <trkpt lat="59.984737" lon="15.827578">
        <ele>102.2</ele>
        <time>2013-10-11T18:08:41Z</time>
        <extensions><gpxtpx:TrackPointExtension><gpxtpx:hr>145</gpxtpx:hr></gpxtpx:TrackPointExtension></extensions>
      </trkpt>
      <trkpt lat="59.9847416" lon="15.82757">
        <ele>102.2</ele>
        <time>2013-10-11T18:08:42Z</time>
        <extensions><gpxtpx:TrackPointExtension><gpxtpx:hr>145</gpxtpx:hr></gpxtpx:TrackPointExtension></extensions>
      </trkpt>
      <trkpt lat="59.9847404" lon="15.8275788">
        <ele>102.2</ele>
        <time>2013-10-11T18:08:43Z</time>
        <extensions><gpxtpx:TrackPointExtension><gpxtpx:hr>145</gpxtpx:hr></gpxtpx:TrackPointExtension></extensions>
      </trkpt>
      <trkpt lat="59.9847399" lon="15.8275832">
        <ele>102.2</ele>
        <time>2013-10-11T18:08:46Z</time>
        <extensions><gpxtpx:TrackPointExtension><gpxtpx:hr>146</gpxtpx:hr></gpxtpx:TrackPointExtension></extensions>
      </trkpt>
      <trkpt lat="59.9847378" lon="15.8275892">
        <ele>102.2</ele>
        <time>2013-10-11T18:08:47Z</time>
        <extensions><gpxtpx:TrackPointExtension><gpxtpx:hr>146</gpxtpx:hr></gpxtpx:TrackPointExtension></extensions>
      </trkpt>
      <trkpt lat="59.9847367" lon="15.8275918">
        <ele>102.2</ele>
        <time>2013-10-11T18:08:48Z</time>
        <extensions><gpxtpx:TrackPointExtension><gpxtpx:hr>145</gpxtpx:hr></gpxtpx:TrackPointExtension></extensions>
      </trkpt>
      <trkpt lat="59.9847367" lon="15.8275925">
        <ele>102.2</ele>
        <time>2013-10-11T18:08:49Z</time>
        <extensions><gpxtpx:TrackPointExtension><gpxtpx:hr>146</gpxtpx:hr></gpxtpx:TrackPointExtension></extensions>
      </trkpt>
      <trkpt lat="59.9847381" lon="15.8275895">
        <ele>102.2</ele>
        <time>2013-10-11T18:08:50Z</time>
        <extensions><gpxtpx:TrackPointExtension><gpxtpx:hr>145</gpxtpx:hr></gpxtpx:TrackPointExtension></extensions>
      </trkpt>
      <trkpt lat="59.9847426" lon="15.827578">
        <ele>102.2</ele>
        <time>2013-10-11T18:08:51Z</time>
        <extensions><gpxtpx:TrackPointExtension><gpxtpx:hr>145</gpxtpx:hr></gpxtpx:TrackPointExtension></extensions>
      </trkpt>
      <trkpt lat="59.9847441" lon="15.8275766">
        <ele>102.2</ele>
        <time>2013-10-11T18:08:52Z</time>
        <extensions><gpxtpx:TrackPointExtension><gpxtpx:hr>145</gpxtpx:hr></gpxtpx:TrackPointExtension></extensions>
      </trkpt>
      <trkpt lat="59.9847456" lon="15.8275724">
        <ele>102.2</ele>
        <time>2013-10-11T18:08:53Z</time>
        <extensions><gpxtpx:TrackPointExtension><gpxtpx:hr>146</gpxtpx:hr></gpxtpx:TrackPointExtension></extensions>
      </trkpt>
      <trkpt lat="59.9847316" lon="15.8275994">
        <ele>102.2</ele>
        <time>2013-10-11T18:08:54Z</time>
        <extensions><gpxtpx:TrackPointExtension><gpxtpx:hr>145</gpxtpx:hr></gpxtpx:TrackPointExtension></extensions>
      </trkpt>
      <trkpt lat="59.9847442" lon="15.8275701">
        <ele>102.2</ele>
        <time>2013-10-11T18:08:55Z</time>
        <extensions><gpxtpx:TrackPointExtension><gpxtpx:hr>146</gpxtpx:hr></gpxtpx:TrackPointExtension></extensions>
      </trkpt>
      <trkpt lat="59.9847444" lon="15.8275733">
        <ele>102.2</ele>
        <time>2013-10-11T18:08:56Z</time>
        <extensions><gpxtpx:TrackPointExtension><gpxtpx:hr>145</gpxtpx:hr></gpxtpx:TrackPointExtension></extensions>
      </trkpt>
      <trkpt lat="59.9847463" lon="15.8275699">
        <ele>102.2</ele>
        <time>2013-10-11T18:08:57Z</time>
        <extensions><gpxtpx:TrackPointExtension><gpxtpx:hr>146</gpxtpx:hr></gpxtpx:TrackPointExtension></extensions>
      </trkpt>
      <trkpt lat="59.9847406" lon="15.8275835">
        <ele>102.2</ele>
        <time>2013-10-11T18:09:00Z</time>
        <extensions><gpxtpx:TrackPointExtension><gpxtpx:hr>145</gpxtpx:hr></gpxtpx:TrackPointExtension></extensions>
      </trkpt>
      <trkpt lat="59.9847373" lon="15.8275898">
        <ele>102.2</ele>
        <time>2013-10-11T18:09:01Z</time>
        <extensions><gpxtpx:TrackPointExtension><gpxtpx:hr>144</gpxtpx:hr></gpxtpx:TrackPointExtension></extensions>
      </trkpt>
      <trkpt lat="59.9847364" lon="15.8275887">
        <ele>102.2</ele>
        <time>2013-10-11T18:09:02Z</time>
        <extensions><gpxtpx:TrackPointExtension><gpxtpx:hr>144</gpxtpx:hr></gpxtpx:TrackPointExtension></extensions>
      </trkpt>
      <trkpt lat="59.9847374" lon="15.8275864">
        <ele>102.2</ele>
        <time>2013-10-11T18:09:03Z</time>
        <extensions><gpxtpx:TrackPointExtension><gpxtpx:hr>144</gpxtpx:hr></gpxtpx:TrackPointExtension></extensions>
      </trkpt>
      <trkpt lat="59.9847404" lon="15.8275788">
        <ele>102.2</ele>
        <time>2013-10-11T18:09:04Z</time>
        <extensions><gpxtpx:TrackPointExtension><gpxtpx:hr>144</gpxtpx:hr></gpxtpx:TrackPointExtension></extensions>
      </trkpt>
      <trkpt lat="59.9847417" lon="15.8275766">
        <ele>102.2</ele>
        <time>2013-10-11T18:09:05Z</time>
        <extensions><gpxtpx:TrackPointExtension><gpxtpx:hr>144</gpxtpx:hr></gpxtpx:TrackPointExtension></extensions>
      </trkpt>
      <trkpt lat="59.9847441" lon="15.82757">
        <ele>102.2</ele>
        <time>2013-10-11T18:09:07Z</time>
        <extensions><gpxtpx:TrackPointExtension><gpxtpx:hr>143</gpxtpx:hr></gpxtpx:TrackPointExtension></extensions>
      </trkpt>
      <trkpt lat="59.9847462" lon="15.8275629">
        <ele>102.2</ele>
        <time>2013-10-11T18:09:08Z</time>
        <extensions><gpxtpx:TrackPointExtension><gpxtpx:hr>144</gpxtpx:hr></gpxtpx:TrackPointExtension></extensions>
      </trkpt>
      <trkpt lat="59.9847522" lon="15.82755">
        <ele>102.2</ele>
        <time>2013-10-11T18:09:10Z</time>
        <extensions><gpxtpx:TrackPointExtension><gpxtpx:hr>144</gpxtpx:hr></gpxtpx:TrackPointExtension></extensions>
      </trkpt>
      <trkpt lat="59.9847502" lon="15.8275555">
        <ele>102.2</ele>
        <time>2013-10-11T18:09:11Z</time>
        <extensions><gpxtpx:TrackPointExtension><gpxtpx:hr>143</gpxtpx:hr></gpxtpx:TrackPointExtension></extensions>
      </trkpt>
      <trkpt lat="59.9847488" lon="15.8275574">
        <ele>102.2</ele>
        <time>2013-10-11T18:09:12Z</time>
        <extensions><gpxtpx:TrackPointExtension><gpxtpx:hr>143</gpxtpx:hr></gpxtpx:TrackPointExtension></extensions>
      </trkpt>
      <trkpt lat="59.9847513" lon="15.8275511">
        <ele>102.2</ele>
        <time>2013-10-11T18:09:13Z</time>
        <extensions><gpxtpx:TrackPointExtension><gpxtpx:hr>143</gpxtpx:hr></gpxtpx:TrackPointExtension></extensions>
      </trkpt>
      <trkpt lat="59.9847542" lon="15.8275437">
        <ele>102.2</ele>
        <time>2013-10-11T18:09:14Z</time>
        <extensions><gpxtpx:TrackPointExtension><gpxtpx:hr>144</gpxtpx:hr></gpxtpx:TrackPointExtension></extensions>
      </trkpt>
      <trkpt lat="59.9847408" lon="15.8275662">
        <ele>102.2</ele>
        <time>2013-10-11T18:09:15Z</time>
        <extensions><gpxtpx:TrackPointExtension><gpxtpx:hr>143</gpxtpx:hr></gpxtpx:TrackPointExtension></extensions>
      </trkpt>
      <trkpt lat="59.9847417" lon="15.8275669">
        <ele>102.2</ele>
        <time>2013-10-11T18:09:16Z</time>
        <extensions><gpxtpx:TrackPointExtension><gpxtpx:hr>143</gpxtpx:hr></gpxtpx:TrackPointExtension></extensions>
      </trkpt>
      <trkpt lat="59.9847415" lon="15.8275684">
        <ele>102.2</ele>
        <time>2013-10-11T18:09:17Z</time>
        <extensions><gpxtpx:TrackPointExtension><gpxtpx:hr>143</gpxtpx:hr></gpxtpx:TrackPointExtension></extensions>
      </trkpt>
      <trkpt lat="59.9847405" lon="15.8275717">
        <ele>102.2</ele>
        <time>2013-10-11T18:09:18Z</time>
        <extensions><gpxtpx:TrackPointExtension><gpxtpx:hr>142</gpxtpx:hr></gpxtpx:TrackPointExtension></extensions>
      </trkpt>
      <trkpt lat="59.9847407" lon="15.8275673">
        <ele>102.2</ele>
        <time>2013-10-11T18:09:19Z</time>
        <extensions><gpxtpx:TrackPointExtension><gpxtpx:hr>142</gpxtpx:hr></gpxtpx:TrackPointExtension></extensions>
      </trkpt>
      <trkpt lat="59.9847422" lon="15.8275606">
        <ele>102.2</ele>
        <time>2013-10-11T18:09:20Z</time>
        <extensions><gpxtpx:TrackPointExtension><gpxtpx:hr>142</gpxtpx:hr></gpxtpx:TrackPointExtension></extensions>
      </trkpt>
      <trkpt lat="59.9847421" lon="15.8275623">
        <ele>102.2</ele>
        <time>2013-10-11T18:09:21Z</time>
        <extensions><gpxtpx:TrackPointExtension><gpxtpx:hr>142</gpxtpx:hr></gpxtpx:TrackPointExtension></extensions>
      </trkpt>
      <trkpt lat="59.9847404" lon="15.827567">
        <ele>102.2</ele>
        <time>2013-10-11T18:09:22Z</time>
        <extensions><gpxtpx:TrackPointExtension><gpxtpx:hr>143</gpxtpx:hr></gpxtpx:TrackPointExtension></extensions>
      </trkpt>
      <trkpt lat="59.9847366" lon="15.8275736">
        <ele>102.2</ele>
        <time>2013-10-11T18:09:23Z</time>
        <extensions><gpxtpx:TrackPointExtension><gpxtpx:hr>142</gpxtpx:hr></gpxtpx:TrackPointExtension></extensions>
      </trkpt>
      <trkpt lat="59.9847359" lon="15.8275752">
        <ele>102.2</ele>
        <time>2013-10-11T18:09:24Z</time>
        <extensions><gpxtpx:TrackPointExtension><gpxtpx:hr>143</gpxtpx:hr></gpxtpx:TrackPointExtension></extensions>
      </trkpt>
      <trkpt lat="59.9847359" lon="15.8275726">
        <ele>102.2</ele>
        <time>2013-10-11T18:09:25Z</time>
        <extensions><gpxtpx:TrackPointExtension><gpxtpx:hr>143</gpxtpx:hr></gpxtpx:TrackPointExtension></extensions>
      </trkpt>
      <trkpt lat="59.9847359" lon="15.8275727">
        <ele>102.2</ele>
        <time>2013-10-11T18:09:26Z</time>
        <extensions><gpxtpx:TrackPointExtension><gpxtpx:hr>143</gpxtpx:hr></gpxtpx:TrackPointExtension></extensions>
      </trkpt>
      <trkpt lat="59.9847388" lon="15.8275635">
        <ele>102.2</ele>
        <time>2013-10-11T18:09:27Z</time>
        <extensions><gpxtpx:TrackPointExtension><gpxtpx:hr>143</gpxtpx:hr></gpxtpx:TrackPointExtension></extensions>
      </trkpt>
      <trkpt lat="59.9847438" lon="15.8275531">
        <ele>102.2</ele>
        <time>2013-10-11T18:09:28Z</time>
        <extensions><gpxtpx:TrackPointExtension><gpxtpx:hr>143</gpxtpx:hr></gpxtpx:TrackPointExtension></extensions>
      </trkpt>
      <trkpt lat="59.98475" lon="15.8275377">
        <ele>102.2</ele>
        <time>2013-10-11T18:09:30Z</time>
        <extensions><gpxtpx:TrackPointExtension><gpxtpx:hr>143</gpxtpx:hr></gpxtpx:TrackPointExtension></extensions>
      </trkpt>
      <trkpt lat="59.9847523" lon="15.8275341">
        <ele>102.2</ele>
        <time>2013-10-11T18:09:31Z</time>
        <extensions><gpxtpx:TrackPointExtension><gpxtpx:hr>143</gpxtpx:hr></gpxtpx:TrackPointExtension></extensions>
      </trkpt>
      <trkpt lat="59.9847547" lon="15.8275321">
        <ele>102.2</ele>
        <time>2013-10-11T18:09:32Z</time>
        <extensions><gpxtpx:TrackPointExtension><gpxtpx:hr>143</gpxtpx:hr></gpxtpx:TrackPointExtension></extensions>
      </trkpt>
      <trkpt lat="59.9847533" lon="15.8275349">
        <ele>102.2</ele>
        <time>2013-10-11T18:09:33Z</time>
        <extensions><gpxtpx:TrackPointExtension><gpxtpx:hr>143</gpxtpx:hr></gpxtpx:TrackPointExtension></extensions>
      </trkpt>
      <trkpt lat="59.9847511" lon="15.8275411">
        <ele>102.2</ele>
        <time>2013-10-11T18:09:34Z</time>
        <extensions><gpxtpx:TrackPointExtension><gpxtpx:hr>143</gpxtpx:hr></gpxtpx:TrackPointExtension></extensions>
      </trkpt>
      <trkpt lat="59.9847491" lon="15.827545">
        <ele>102.2</ele>
        <time>2013-10-11T18:09:35Z</time>
        <extensions><gpxtpx:TrackPointExtension><gpxtpx:hr>143</gpxtpx:hr></gpxtpx:TrackPointExtension></extensions>
      </trkpt>
      <trkpt lat="59.9847471" lon="15.8275495">
        <ele>102.2</ele>
        <time>2013-10-11T18:09:36Z</time>
        <extensions><gpxtpx:TrackPointExtension><gpxtpx:hr>143</gpxtpx:hr></gpxtpx:TrackPointExtension></extensions>
      </trkpt>
      <trkpt lat="59.9847448" lon="15.8275544">
        <ele>102.2</ele>
        <time>2013-10-11T18:09:37Z</time>
        <extensions><gpxtpx:TrackPointExtension><gpxtpx:hr>143</gpxtpx:hr></gpxtpx:TrackPointExtension></extensions>
      </trkpt>
      <trkpt lat="59.9847405" lon="15.8275632">
        <ele>102.2</ele>
        <time>2013-10-11T18:09:38Z</time>
        <extensions><gpxtpx:TrackPointExtension><gpxtpx:hr>143</gpxtpx:hr></gpxtpx:TrackPointExtension></extensions>
      </trkpt>
      <trkpt lat="59.9847373" lon="15.8275695">
        <ele>102.2</ele>
        <time>2013-10-11T18:09:39Z</time>
        <extensions><gpxtpx:TrackPointExtension><gpxtpx:hr>143</gpxtpx:hr></gpxtpx:TrackPointExtension></extensions>
      </trkpt>
      <trkpt lat="59.9847353" lon="15.8275725">
        <ele>102.2</ele>
        <time>2013-10-11T18:09:40Z</time>
        <extensions><gpxtpx:TrackPointExtension><gpxtpx:hr>143</gpxtpx:hr></gpxtpx:TrackPointExtension></extensions>
      </trkpt>
      <trkpt lat="59.9847346" lon="15.8275742">
        <ele>102.2</ele>
        <time>2013-10-11T18:09:41Z</time>
        <extensions><gpxtpx:TrackPointExtension><gpxtpx:hr>143</gpxtpx:hr></gpxtpx:TrackPointExtension></extensions>
      </trkpt>
      <trkpt lat="59.984735" lon="15.827572">
        <ele>102.2</ele>
        <time>2013-10-11T18:09:42Z</time>
        <extensions><gpxtpx:TrackPointExtension><gpxtpx:hr>143</gpxtpx:hr></gpxtpx:TrackPointExtension></extensions>
      </trkpt>
      <trkpt lat="59.9847373" lon="15.827568">
        <ele>102.2</ele>
        <time>2013-10-11T18:09:43Z</time>
        <extensions><gpxtpx:TrackPointExtension><gpxtpx:hr>143</gpxtpx:hr></gpxtpx:TrackPointExtension></extensions>
      </trkpt>
      <trkpt lat="59.9847377" lon="15.8275677">
        <ele>102.2</ele>
        <time>2013-10-11T18:09:44Z</time>
        <extensions><gpxtpx:TrackPointExtension><gpxtpx:hr>143</gpxtpx:hr></gpxtpx:TrackPointExtension></extensions>
      </trkpt>
      <trkpt lat="59.9847367" lon="15.8275705">
        <ele>102.2</ele>
        <time>2013-10-11T18:09:45Z</time>
        <extensions><gpxtpx:TrackPointExtension><gpxtpx:hr>143</gpxtpx:hr></gpxtpx:TrackPointExtension></extensions>
      </trkpt>
      <trkpt lat="59.9847378" lon="15.8275675">
        <ele>102.2</ele>
        <time>2013-10-11T18:09:46Z</time>
        <extensions><gpxtpx:TrackPointExtension><gpxtpx:hr>143</gpxtpx:hr></gpxtpx:TrackPointExtension></extensions>
      </trkpt>
      <trkpt lat="59.9847408" lon="15.82756">
        <ele>102.2</ele>
        <time>2013-10-11T18:09:47Z</time>
        <extensions><gpxtpx:TrackPointExtension><gpxtpx:hr>143</gpxtpx:hr></gpxtpx:TrackPointExtension></extensions>
      </trkpt>
      <trkpt lat="59.9847447" lon="15.8275489">
        <ele>102.2</ele>
        <time>2013-10-11T18:09:48Z</time>
        <extensions><gpxtpx:TrackPointExtension><gpxtpx:hr>143</gpxtpx:hr></gpxtpx:TrackPointExtension></extensions>
      </trkpt>
      <trkpt lat="59.9847468" lon="15.8275447">
        <ele>102.2</ele>
        <time>2013-10-11T18:09:49Z</time>
        <extensions><gpxtpx:TrackPointExtension><gpxtpx:hr>143</gpxtpx:hr></gpxtpx:TrackPointExtension></extensions>
      </trkpt>
      <trkpt lat="59.9847479" lon="15.8275426">
        <ele>102.2</ele>
        <time>2013-10-11T18:09:50Z</time>
        <extensions><gpxtpx:TrackPointExtension><gpxtpx:hr>143</gpxtpx:hr></gpxtpx:TrackPointExtension></extensions>
      </trkpt>
      <trkpt lat="59.9847425" lon="15.8275439">
        <ele>102.2</ele>
        <time>2013-10-11T18:09:51Z</time>
        <extensions><gpxtpx:TrackPointExtension><gpxtpx:hr>143</gpxtpx:hr></gpxtpx:TrackPointExtension></extensions>
      </trkpt>
      <trkpt lat="59.9847403" lon="15.827546">
        <ele>102.2</ele>
        <time>2013-10-11T18:09:52Z</time>
        <extensions><gpxtpx:TrackPointExtension><gpxtpx:hr>142</gpxtpx:hr></gpxtpx:TrackPointExtension></extensions>
      </trkpt>
      <trkpt lat="59.9847414" lon="15.8275413">
        <ele>102.2</ele>
        <time>2013-10-11T18:09:53Z</time>
        <extensions><gpxtpx:TrackPointExtension><gpxtpx:hr>143</gpxtpx:hr></gpxtpx:TrackPointExtension></extensions>
      </trkpt>
      <trkpt lat="59.9847441" lon="15.8275351">
        <ele>102.2</ele>
        <time>2013-10-11T18:09:54Z</time>
        <extensions><gpxtpx:TrackPointExtension><gpxtpx:hr>142</gpxtpx:hr></gpxtpx:TrackPointExtension></extensions>
      </trkpt>
      <trkpt lat="59.9847469" lon="15.8275298">
        <ele>102.2</ele>
        <time>2013-10-11T18:09:55Z</time>
        <extensions><gpxtpx:TrackPointExtension><gpxtpx:hr>143</gpxtpx:hr></gpxtpx:TrackPointExtension></extensions>
      </trkpt>
      <trkpt lat="59.9847501" lon="15.8275262">
        <ele>102.2</ele>
        <time>2013-10-11T18:09:56Z</time>
        <extensions><gpxtpx:TrackPointExtension><gpxtpx:hr>142</gpxtpx:hr></gpxtpx:TrackPointExtension></extensions>
      </trkpt>
      <trkpt lat="59.9847478" lon="15.8275263">
        <ele>102.2</ele>
        <time>2013-10-11T18:09:57Z</time>
        <extensions><gpxtpx:TrackPointExtension><gpxtpx:hr>143</gpxtpx:hr></gpxtpx:TrackPointExtension></extensions>
      </trkpt>
      <trkpt lat="59.9847466" lon="15.8275324">
        <ele>102.2</ele>
        <time>2013-10-11T18:09:58Z</time>
        <extensions><gpxtpx:TrackPointExtension><gpxtpx:hr>142</gpxtpx:hr></gpxtpx:TrackPointExtension></extensions>
      </trkpt>
      <trkpt lat="59.9847436" lon="15.8275361">
        <ele>102.2</ele>
        <time>2013-10-11T18:09:59Z</time>
        <extensions><gpxtpx:TrackPointExtension><gpxtpx:hr>143</gpxtpx:hr></gpxtpx:TrackPointExtension></extensions>
      </trkpt>
      <trkpt lat="59.9847523" lon="15.8275482">
        <ele>102.2</ele>
        <time>2013-10-11T18:10:02Z</time>
        <extensions><gpxtpx:TrackPointExtension><gpxtpx:hr>142</gpxtpx:hr></gpxtpx:TrackPointExtension></extensions>
      </trkpt>
      <trkpt lat="59.9847534" lon="15.827545">
        <ele>102.2</ele>
        <time>2013-10-11T18:10:03Z</time>
        <extensions><gpxtpx:TrackPointExtension><gpxtpx:hr>143</gpxtpx:hr></gpxtpx:TrackPointExtension></extensions>
      </trkpt>
      <trkpt lat="59.9847512" lon="15.8275446">
        <ele>102.2</ele>
        <time>2013-10-11T18:10:04Z</time>
        <extensions><gpxtpx:TrackPointExtension><gpxtpx:hr>142</gpxtpx:hr></gpxtpx:TrackPointExtension></extensions>
      </trkpt>
      <trkpt lat="59.9847462" lon="15.8275514">
        <ele>102.2</ele>
        <time>2013-10-11T18:10:05Z</time>
        <extensions><gpxtpx:TrackPointExtension><gpxtpx:hr>143</gpxtpx:hr></gpxtpx:TrackPointExtension></extensions>
      </trkpt>
      <trkpt lat="59.9846889" lon="15.8276941">
        <ele>102.2</ele>
        <time>2013-10-11T18:10:06Z</time>
        <extensions><gpxtpx:TrackPointExtension><gpxtpx:hr>142</gpxtpx:hr></gpxtpx:TrackPointExtension></extensions>
      </trkpt>
      <trkpt lat="59.9846689" lon="15.8276979">
        <ele>102.2</ele>
        <time>2013-10-11T18:10:07Z</time>
        <extensions><gpxtpx:TrackPointExtension><gpxtpx:hr>143</gpxtpx:hr></gpxtpx:TrackPointExtension></extensions>
      </trkpt>
      <trkpt lat="59.9846547" lon="15.8277139">
        <ele>102.2</ele>
        <time>2013-10-11T18:10:08Z</time>
        <extensions><gpxtpx:TrackPointExtension><gpxtpx:hr>143</gpxtpx:hr></gpxtpx:TrackPointExtension></extensions>
      </trkpt>
      <trkpt lat="59.9846429" lon="15.8277246">
        <ele>102.2</ele>
        <time>2013-10-11T18:10:09Z</time>
        <extensions><gpxtpx:TrackPointExtension><gpxtpx:hr>143</gpxtpx:hr></gpxtpx:TrackPointExtension></extensions>
      </trkpt>
      <trkpt lat="59.9846321" lon="15.8277362">
        <ele>102.2</ele>
        <time>2013-10-11T18:10:10Z</time>
        <extensions><gpxtpx:TrackPointExtension><gpxtpx:hr>142</gpxtpx:hr></gpxtpx:TrackPointExtension></extensions>
      </trkpt>
      <trkpt lat="59.9846259" lon="15.8277466">
        <ele>102.2</ele>
        <time>2013-10-11T18:10:11Z</time>
        <extensions><gpxtpx:TrackPointExtension><gpxtpx:hr>143</gpxtpx:hr></gpxtpx:TrackPointExtension></extensions>
      </trkpt>
      <trkpt lat="59.9846219" lon="15.8277576">
        <ele>102.2</ele>
        <time>2013-10-11T18:10:12Z</time>
        <extensions><gpxtpx:TrackPointExtension><gpxtpx:hr>143</gpxtpx:hr></gpxtpx:TrackPointExtension></extensions>
      </trkpt>
      <trkpt lat="59.9846156" lon="15.8277657">
        <ele>102.2</ele>
        <time>2013-10-11T18:10:13Z</time>
        <extensions><gpxtpx:TrackPointExtension><gpxtpx:hr>143</gpxtpx:hr></gpxtpx:TrackPointExtension></extensions>
      </trkpt>
      <trkpt lat="59.9846104" lon="15.8277734">
        <ele>102.2</ele>
        <time>2013-10-11T18:10:14Z</time>
        <extensions><gpxtpx:TrackPointExtension><gpxtpx:hr>142</gpxtpx:hr></gpxtpx:TrackPointExtension></extensions>
      </trkpt>
      <trkpt lat="59.9846047" lon="15.8277851">
        <ele>102.2</ele>
        <time>2013-10-11T18:10:15Z</time>
        <extensions><gpxtpx:TrackPointExtension><gpxtpx:hr>143</gpxtpx:hr></gpxtpx:TrackPointExtension></extensions>
      </trkpt>
      <trkpt lat="59.9846046" lon="15.8277931">
        <ele>102.2</ele>
        <time>2013-10-11T18:10:16Z</time>
        <extensions><gpxtpx:TrackPointExtension><gpxtpx:hr>142</gpxtpx:hr></gpxtpx:TrackPointExtension></extensions>
      </trkpt>
      <trkpt lat="59.9846067" lon="15.8278011">
        <ele>102.2</ele>
        <time>2013-10-11T18:10:17Z</time>
        <extensions><gpxtpx:TrackPointExtension><gpxtpx:hr>142</gpxtpx:hr></gpxtpx:TrackPointExtension></extensions>
      </trkpt>
      <trkpt lat="59.9846058" lon="15.827811">
        <ele>102.2</ele>
        <time>2013-10-11T18:10:18Z</time>
        <extensions><gpxtpx:TrackPointExtension><gpxtpx:hr>142</gpxtpx:hr></gpxtpx:TrackPointExtension></extensions>
      </trkpt>
      <trkpt lat="59.9846062" lon="15.8278099">
        <ele>102.2</ele>
        <time>2013-10-11T18:10:19Z</time>
        <extensions><gpxtpx:TrackPointExtension><gpxtpx:hr>142</gpxtpx:hr></gpxtpx:TrackPointExtension></extensions>
      </trkpt>
      <trkpt lat="59.9846097" lon="15.8278055">
        <ele>102.2</ele>
        <time>2013-10-11T18:10:20Z</time>
        <extensions><gpxtpx:TrackPointExtension><gpxtpx:hr>141</gpxtpx:hr></gpxtpx:TrackPointExtension></extensions>
      </trkpt>
      <trkpt lat="59.9846577" lon="15.8277382">
        <ele>102.2</ele>
        <time>2013-10-11T18:10:21Z</time>
        <extensions><gpxtpx:TrackPointExtension><gpxtpx:hr>141</gpxtpx:hr></gpxtpx:TrackPointExtension></extensions>
      </trkpt>
      <trkpt lat="59.9846648" lon="15.8277353">
        <ele>102.2</ele>
        <time>2013-10-11T18:10:22Z</time>
        <extensions><gpxtpx:TrackPointExtension><gpxtpx:hr>141</gpxtpx:hr></gpxtpx:TrackPointExtension></extensions>
      </trkpt>
      <trkpt lat="59.9846721" lon="15.8277326">
        <ele>102.2</ele>
        <time>2013-10-11T18:10:23Z</time>
        <extensions><gpxtpx:TrackPointExtension><gpxtpx:hr>140</gpxtpx:hr></gpxtpx:TrackPointExtension></extensions>
      </trkpt>
      <trkpt lat="59.9846746" lon="15.827719">
        <ele>102.2</ele>
        <time>2013-10-11T18:10:25Z</time>
        <extensions><gpxtpx:TrackPointExtension><gpxtpx:hr>140</gpxtpx:hr></gpxtpx:TrackPointExtension></extensions>
      </trkpt>
      <trkpt lat="59.9846771" lon="15.8277208">
        <ele>102.2</ele>
        <time>2013-10-11T18:10:26Z</time>
        <extensions><gpxtpx:TrackPointExtension><gpxtpx:hr>141</gpxtpx:hr></gpxtpx:TrackPointExtension></extensions>
      </trkpt>
      <trkpt lat="59.984676" lon="15.8276948">
        <ele>102.2</ele>
        <time>2013-10-11T18:10:30Z</time>
        <extensions><gpxtpx:TrackPointExtension><gpxtpx:hr>142</gpxtpx:hr></gpxtpx:TrackPointExtension></extensions>
      </trkpt>
      <trkpt lat="59.9846783" lon="15.8276826">
        <ele>102.2</ele>
        <time>2013-10-11T18:10:31Z</time>
        <extensions><gpxtpx:TrackPointExtension><gpxtpx:hr>142</gpxtpx:hr></gpxtpx:TrackPointExtension></extensions>
      </trkpt>
      <trkpt lat="59.9846814" lon="15.8276747">
        <ele>102.2</ele>
        <time>2013-10-11T18:10:32Z</time>
        <extensions><gpxtpx:TrackPointExtension><gpxtpx:hr>142</gpxtpx:hr></gpxtpx:TrackPointExtension></extensions>
      </trkpt>
      <trkpt lat="59.9846875" lon="15.8276684">
        <ele>102.2</ele>
        <time>2013-10-11T18:10:33Z</time>
        <extensions><gpxtpx:TrackPointExtension><gpxtpx:hr>142</gpxtpx:hr></gpxtpx:TrackPointExtension></extensions>
      </trkpt>
      <trkpt lat="59.984672" lon="15.8277156">
        <ele>102.2</ele>
        <time>2013-10-11T18:10:34Z</time>
        <extensions><gpxtpx:TrackPointExtension><gpxtpx:hr>143</gpxtpx:hr></gpxtpx:TrackPointExtension></extensions>
      </trkpt>
      <trkpt lat="59.9846733" lon="15.8277077">
        <ele>102.2</ele>
        <time>2013-10-11T18:10:35Z</time>
        <extensions><gpxtpx:TrackPointExtension><gpxtpx:hr>143</gpxtpx:hr></gpxtpx:TrackPointExtension></extensions>
      </trkpt>
      <trkpt lat="59.9846852" lon="15.8276929">
        <ele>102.2</ele>
        <time>2013-10-11T18:10:36Z</time>
        <extensions><gpxtpx:TrackPointExtension><gpxtpx:hr>143</gpxtpx:hr></gpxtpx:TrackPointExtension></extensions>
      </trkpt>
      <trkpt lat="59.9846937" lon="15.8276819">
        <ele>102.2</ele>
        <time>2013-10-11T18:10:37Z</time>
        <extensions><gpxtpx:TrackPointExtension><gpxtpx:hr>143</gpxtpx:hr></gpxtpx:TrackPointExtension></extensions>
      </trkpt>
      <trkpt lat="59.9847057" lon="15.8276707">
        <ele>102.2</ele>
        <time>2013-10-11T18:10:38Z</time>
        <extensions><gpxtpx:TrackPointExtension><gpxtpx:hr>143</gpxtpx:hr></gpxtpx:TrackPointExtension></extensions>
      </trkpt>
      <trkpt lat="59.9847072" lon="15.8276721">
        <ele>102.2</ele>
        <time>2013-10-11T18:10:39Z</time>
        <extensions><gpxtpx:TrackPointExtension><gpxtpx:hr>143</gpxtpx:hr></gpxtpx:TrackPointExtension></extensions>
      </trkpt>
      <trkpt lat="59.984712" lon="15.8276864">
        <ele>102.2</ele>
        <time>2013-10-11T18:10:40Z</time>
        <extensions><gpxtpx:TrackPointExtension><gpxtpx:hr>144</gpxtpx:hr></gpxtpx:TrackPointExtension></extensions>
      </trkpt>
      <trkpt lat="59.9847179" lon="15.8276811">
        <ele>102.2</ele>
        <time>2013-10-11T18:10:41Z</time>
        <extensions><gpxtpx:TrackPointExtension><gpxtpx:hr>144</gpxtpx:hr></gpxtpx:TrackPointExtension></extensions>
      </trkpt>
      <trkpt lat="59.9847188" lon="15.8276778">
        <ele>102.2</ele>
        <time>2013-10-11T18:10:42Z</time>
        <extensions><gpxtpx:TrackPointExtension><gpxtpx:hr>144</gpxtpx:hr></gpxtpx:TrackPointExtension></extensions>
      </trkpt>
      <trkpt lat="59.9847212" lon="15.8276706">
        <ele>102.2</ele>
        <time>2013-10-11T18:10:43Z</time>
        <extensions><gpxtpx:TrackPointExtension><gpxtpx:hr>144</gpxtpx:hr></gpxtpx:TrackPointExtension></extensions>
      </trkpt>
      <trkpt lat="59.9847624" lon="15.8276259">
        <ele>102.2</ele>
        <time>2013-10-11T18:10:46Z</time>
        <extensions><gpxtpx:TrackPointExtension><gpxtpx:hr>145</gpxtpx:hr></gpxtpx:TrackPointExtension></extensions>
      </trkpt>
      <trkpt lat="59.9847711" lon="15.8276207">
        <ele>102.2</ele>
        <time>2013-10-11T18:10:47Z</time>
        <extensions><gpxtpx:TrackPointExtension><gpxtpx:hr>145</gpxtpx:hr></gpxtpx:TrackPointExtension></extensions>
      </trkpt>
      <trkpt lat="59.9847785" lon="15.827617">
        <ele>102.2</ele>
        <time>2013-10-11T18:10:48Z</time>
        <extensions><gpxtpx:TrackPointExtension><gpxtpx:hr>144</gpxtpx:hr></gpxtpx:TrackPointExtension></extensions>
      </trkpt>
      <trkpt lat="59.9847884" lon="15.8276043">
        <ele>102.2</ele>
        <time>2013-10-11T18:10:51Z</time>
        <extensions><gpxtpx:TrackPointExtension><gpxtpx:hr>144</gpxtpx:hr></gpxtpx:TrackPointExtension></extensions>
      </trkpt>
      <trkpt lat="59.9847885" lon="15.8275964">
        <ele>102.2</ele>
        <time>2013-10-11T18:10:52Z</time>
        <extensions><gpxtpx:TrackPointExtension><gpxtpx:hr>144</gpxtpx:hr></gpxtpx:TrackPointExtension></extensions>
      </trkpt>
      <trkpt lat="59.9847858" lon="15.8275918">
        <ele>102.2</ele>
        <time>2013-10-11T18:10:53Z</time>
        <extensions><gpxtpx:TrackPointExtension><gpxtpx:hr>144</gpxtpx:hr></gpxtpx:TrackPointExtension></extensions>
      </trkpt>
      <trkpt lat="59.9847813" lon="15.8275926">
        <ele>102.2</ele>
        <time>2013-10-11T18:10:54Z</time>
        <extensions><gpxtpx:TrackPointExtension><gpxtpx:hr>144</gpxtpx:hr></gpxtpx:TrackPointExtension></extensions>
      </trkpt>
      <trkpt lat="59.9847455" lon="15.8276011">
        <ele>102.2</ele>
        <time>2013-10-11T18:10:55Z</time>
        <extensions><gpxtpx:TrackPointExtension><gpxtpx:hr>144</gpxtpx:hr></gpxtpx:TrackPointExtension></extensions>
      </trkpt>
      <trkpt lat="59.9847389" lon="15.8276219">
        <ele>102.2</ele>
        <time>2013-10-11T18:10:56Z</time>
        <extensions><gpxtpx:TrackPointExtension><gpxtpx:hr>145</gpxtpx:hr></gpxtpx:TrackPointExtension></extensions>
      </trkpt>
      <trkpt lat="59.9847191" lon="15.8276314">
        <ele>102.2</ele>
        <time>2013-10-11T18:10:57Z</time>
        <extensions><gpxtpx:TrackPointExtension><gpxtpx:hr>145</gpxtpx:hr></gpxtpx:TrackPointExtension></extensions>
      </trkpt>
      <trkpt lat="59.9847051" lon="15.8276385">
        <ele>102.2</ele>
        <time>2013-10-11T18:10:58Z</time>
        <extensions><gpxtpx:TrackPointExtension><gpxtpx:hr>145</gpxtpx:hr></gpxtpx:TrackPointExtension></extensions>
      </trkpt>
      <trkpt lat="59.9846917" lon="15.8276519">
        <ele>102.2</ele>
        <time>2013-10-11T18:10:59Z</time>
        <extensions><gpxtpx:TrackPointExtension><gpxtpx:hr>145</gpxtpx:hr></gpxtpx:TrackPointExtension></extensions>
      </trkpt>
      <trkpt lat="59.9846704" lon="15.8276696">
        <ele>102.2</ele>
        <time>2013-10-11T18:11:00Z</time>
        <extensions><gpxtpx:TrackPointExtension><gpxtpx:hr>145</gpxtpx:hr></gpxtpx:TrackPointExtension></extensions>
      </trkpt>
      <trkpt lat="59.9846619" lon="15.8276859">
        <ele>102.2</ele>
        <time>2013-10-11T18:11:01Z</time>
        <extensions><gpxtpx:TrackPointExtension><gpxtpx:hr>145</gpxtpx:hr></gpxtpx:TrackPointExtension></extensions>
      </trkpt>
      <trkpt lat="59.9846509" lon="15.8277021">
        <ele>102.2</ele>
        <time>2013-10-11T18:11:03Z</time>
        <extensions><gpxtpx:TrackPointExtension><gpxtpx:hr>145</gpxtpx:hr></gpxtpx:TrackPointExtension></extensions>
      </trkpt>
      <trkpt lat="59.9846428" lon="15.8277075">
        <ele>102.2</ele>
        <time>2013-10-11T18:11:04Z</time>
        <extensions><gpxtpx:TrackPointExtension><gpxtpx:hr>145</gpxtpx:hr></gpxtpx:TrackPointExtension></extensions>
      </trkpt>
      <trkpt lat="59.9846021" lon="15.8277559">
        <ele>102.2</ele>
        <time>2013-10-11T18:11:11Z</time>
        <extensions><gpxtpx:TrackPointExtension><gpxtpx:hr>144</gpxtpx:hr></gpxtpx:TrackPointExtension></extensions>
      </trkpt>
      <trkpt lat="59.9845898" lon="15.8277819">
        <ele>102.2</ele>
        <time>2013-10-11T18:11:15Z</time>
        <extensions><gpxtpx:TrackPointExtension><gpxtpx:hr>143</gpxtpx:hr></gpxtpx:TrackPointExtension></extensions>
      </trkpt>
      <trkpt lat="59.9845643" lon="15.8277962">
        <ele>102.2</ele>
        <time>2013-10-11T18:11:17Z</time>
        <extensions><gpxtpx:TrackPointExtension><gpxtpx:hr>143</gpxtpx:hr></gpxtpx:TrackPointExtension></extensions>
      </trkpt>
      <trkpt lat="59.9845785" lon="15.8277519">
        <ele>102.2</ele>
        <time>2013-10-11T18:11:18Z</time>
        <extensions><gpxtpx:TrackPointExtension><gpxtpx:hr>143</gpxtpx:hr></gpxtpx:TrackPointExtension></extensions>
      </trkpt>
      <trkpt lat="59.9845714" lon="15.8277499">
        <ele>102.2</ele>
        <time>2013-10-11T18:11:19Z</time>
        <extensions><gpxtpx:TrackPointExtension><gpxtpx:hr>142</gpxtpx:hr></gpxtpx:TrackPointExtension></extensions>
      </trkpt>
      <trkpt lat="59.9845688" lon="15.8277455">
        <ele>102.2</ele>
        <time>2013-10-11T18:11:20Z</time>
        <extensions><gpxtpx:TrackPointExtension><gpxtpx:hr>142</gpxtpx:hr></gpxtpx:TrackPointExtension></extensions>
      </trkpt>
      <trkpt lat="59.9845682" lon="15.827742">
        <ele>102.2</ele>
        <time>2013-10-11T18:11:21Z</time>
        <extensions><gpxtpx:TrackPointExtension><gpxtpx:hr>142</gpxtpx:hr></gpxtpx:TrackPointExtension></extensions>
      </trkpt>
      <trkpt lat="59.9845724" lon="15.8277345">
        <ele>102.2</ele>
        <time>2013-10-11T18:11:22Z</time>
        <extensions><gpxtpx:TrackPointExtension><gpxtpx:hr>142</gpxtpx:hr></gpxtpx:TrackPointExtension></extensions>
      </trkpt>
      <trkpt lat="59.9845773" lon="15.8277261">
        <ele>102.2</ele>
        <time>2013-10-11T18:11:23Z</time>
        <extensions><gpxtpx:TrackPointExtension><gpxtpx:hr>142</gpxtpx:hr></gpxtpx:TrackPointExtension></extensions>
      </trkpt>
      <trkpt lat="59.9845845" lon="15.8277219">
        <ele>102.2</ele>
        <time>2013-10-11T18:11:24Z</time>
        <extensions><gpxtpx:TrackPointExtension><gpxtpx:hr>142</gpxtpx:hr></gpxtpx:TrackPointExtension></extensions>
      </trkpt>
      <trkpt lat="59.9846511" lon="15.8276359">
        <ele>102.2</ele>
        <time>2013-10-11T18:11:25Z</time>
        <extensions><gpxtpx:TrackPointExtension><gpxtpx:hr>142</gpxtpx:hr></gpxtpx:TrackPointExtension></extensions>
      </trkpt>
      <trkpt lat="59.9846616" lon="15.8276255">
        <ele>102.2</ele>
        <time>2013-10-11T18:11:26Z</time>
        <extensions><gpxtpx:TrackPointExtension><gpxtpx:hr>141</gpxtpx:hr></gpxtpx:TrackPointExtension></extensions>
      </trkpt>
      <trkpt lat="59.984662" lon="15.8276185">
        <ele>102.2</ele>
        <time>2013-10-11T18:11:27Z</time>
        <extensions><gpxtpx:TrackPointExtension><gpxtpx:hr>141</gpxtpx:hr></gpxtpx:TrackPointExtension></extensions>
      </trkpt>
      <trkpt lat="59.9846596" lon="15.8276119">
        <ele>102.2</ele>
        <time>2013-10-11T18:11:28Z</time>
        <extensions><gpxtpx:TrackPointExtension><gpxtpx:hr>140</gpxtpx:hr></gpxtpx:TrackPointExtension></extensions>
      </trkpt>
      <trkpt lat="59.9846596" lon="15.8277174">
        <ele>102.2</ele>
        <time>2013-10-11T18:11:32Z</time>
        <extensions><gpxtpx:TrackPointExtension><gpxtpx:hr>139</gpxtpx:hr></gpxtpx:TrackPointExtension></extensions>
      </trkpt>
      <trkpt lat="59.9846765" lon="15.8277252">
        <ele>102.2</ele>
        <time>2013-10-11T18:11:33Z</time>
        <extensions><gpxtpx:TrackPointExtension><gpxtpx:hr>140</gpxtpx:hr></gpxtpx:TrackPointExtension></extensions>
      </trkpt>
      <trkpt lat="59.9846917" lon="15.8277187">
        <ele>102.2</ele>
        <time>2013-10-11T18:11:34Z</time>
        <extensions><gpxtpx:TrackPointExtension><gpxtpx:hr>140</gpxtpx:hr></gpxtpx:TrackPointExtension></extensions>
      </trkpt>
      <trkpt lat="59.9846943" lon="15.827731">
        <ele>102.2</ele>
        <time>2013-10-11T18:11:35Z</time>
        <extensions><gpxtpx:TrackPointExtension><gpxtpx:hr>139</gpxtpx:hr></gpxtpx:TrackPointExtension></extensions>
      </trkpt>
      <trkpt lat="59.9846547" lon="15.8277668">
        <ele>102.2</ele>
        <time>2013-10-11T18:11:36Z</time>
        <extensions><gpxtpx:TrackPointExtension><gpxtpx:hr>139</gpxtpx:hr></gpxtpx:TrackPointExtension></extensions>
      </trkpt>
      <trkpt lat="59.9846222" lon="15.8277845">
        <ele>102.2</ele>
        <time>2013-10-11T18:11:38Z</time>
        <extensions><gpxtpx:TrackPointExtension><gpxtpx:hr>139</gpxtpx:hr></gpxtpx:TrackPointExtension></extensions>
      </trkpt>
      <trkpt lat="59.984622" lon="15.8277838">
        <ele>102.2</ele>
        <time>2013-10-11T18:11:39Z</time>
        <extensions><gpxtpx:TrackPointExtension><gpxtpx:hr>139</gpxtpx:hr></gpxtpx:TrackPointExtension></extensions>
      </trkpt>
      <trkpt lat="59.984617" lon="15.8277965">
        <ele>102.2</ele>
        <time>2013-10-11T18:11:42Z</time>
        <extensions><gpxtpx:TrackPointExtension><gpxtpx:hr>139</gpxtpx:hr></gpxtpx:TrackPointExtension></extensions>
      </trkpt>
      <trkpt lat="59.9846139" lon="15.8277923">
        <ele>102.2</ele>
        <time>2013-10-11T18:11:43Z</time>
        <extensions><gpxtpx:TrackPointExtension><gpxtpx:hr>140</gpxtpx:hr></gpxtpx:TrackPointExtension></extensions>
      </trkpt>
      <trkpt lat="59.9846218" lon="15.8277934">
        <ele>102.2</ele>
        <time>2013-10-11T18:11:47Z</time>
        <extensions><gpxtpx:TrackPointExtension><gpxtpx:hr>140</gpxtpx:hr></gpxtpx:TrackPointExtension></extensions>
      </trkpt>
      <trkpt lat="59.9847158" lon="15.8276587">
        <ele>102.2</ele>
        <time>2013-10-11T18:11:48Z</time>
        <extensions><gpxtpx:TrackPointExtension><gpxtpx:hr>141</gpxtpx:hr></gpxtpx:TrackPointExtension></extensions>
      </trkpt>
      <trkpt lat="59.9847219" lon="15.8276709">
        <ele>102.2</ele>
        <time>2013-10-11T18:11:49Z</time>
        <extensions><gpxtpx:TrackPointExtension><gpxtpx:hr>141</gpxtpx:hr></gpxtpx:TrackPointExtension></extensions>
      </trkpt>
      <trkpt lat="59.9847296" lon="15.8276691">
        <ele>102.2</ele>
        <time>2013-10-11T18:11:50Z</time>
        <extensions><gpxtpx:TrackPointExtension><gpxtpx:hr>141</gpxtpx:hr></gpxtpx:TrackPointExtension></extensions>
      </trkpt>
      <trkpt lat="59.9847341" lon="15.827671">
        <ele>102.2</ele>
        <time>2013-10-11T18:11:51Z</time>
        <extensions><gpxtpx:TrackPointExtension><gpxtpx:hr>141</gpxtpx:hr></gpxtpx:TrackPointExtension></extensions>
      </trkpt>
      <trkpt lat="59.9847343" lon="15.827669">
        <ele>102.2</ele>
        <time>2013-10-11T18:11:52Z</time>
        <extensions><gpxtpx:TrackPointExtension><gpxtpx:hr>142</gpxtpx:hr></gpxtpx:TrackPointExtension></extensions>
      </trkpt>
      <trkpt lat="59.9847372" lon="15.8276675">
        <ele>102.2</ele>
        <time>2013-10-11T18:11:53Z</time>
        <extensions><gpxtpx:TrackPointExtension><gpxtpx:hr>142</gpxtpx:hr></gpxtpx:TrackPointExtension></extensions>
      </trkpt>
      <trkpt lat="59.9847385" lon="15.8276606">
        <ele>102.2</ele>
        <time>2013-10-11T18:11:54Z</time>
        <extensions><gpxtpx:TrackPointExtension><gpxtpx:hr>142</gpxtpx:hr></gpxtpx:TrackPointExtension></extensions>
      </trkpt>
      <trkpt lat="59.9847383" lon="15.8276555">
        <ele>102.2</ele>
        <time>2013-10-11T18:11:55Z</time>
        <extensions><gpxtpx:TrackPointExtension><gpxtpx:hr>142</gpxtpx:hr></gpxtpx:TrackPointExtension></extensions>
      </trkpt>
      <trkpt lat="59.9847345" lon="15.8276561">
        <ele>102.2</ele>
        <time>2013-10-11T18:11:56Z</time>
        <extensions><gpxtpx:TrackPointExtension><gpxtpx:hr>142</gpxtpx:hr></gpxtpx:TrackPointExtension></extensions>
      </trkpt>
      <trkpt lat="59.9847276" lon="15.8276525">
        <ele>102.2</ele>
        <time>2013-10-11T18:11:57Z</time>
        <extensions><gpxtpx:TrackPointExtension><gpxtpx:hr>143</gpxtpx:hr></gpxtpx:TrackPointExtension></extensions>
      </trkpt>
      <trkpt lat="59.9847206" lon="15.8276477">
        <ele>102.2</ele>
        <time>2013-10-11T18:11:58Z</time>
        <extensions><gpxtpx:TrackPointExtension><gpxtpx:hr>142</gpxtpx:hr></gpxtpx:TrackPointExtension></extensions>
      </trkpt>
      <trkpt lat="59.9847756" lon="15.8275209">
        <ele>102.2</ele>
        <time>2013-10-11T18:11:59Z</time>
        <extensions><gpxtpx:TrackPointExtension><gpxtpx:hr>143</gpxtpx:hr></gpxtpx:TrackPointExtension></extensions>
      </trkpt>
      <trkpt lat="59.984759" lon="15.8275075">
        <ele>102.2</ele>
        <time>2013-10-11T18:12:00Z</time>
        <extensions><gpxtpx:TrackPointExtension><gpxtpx:hr>143</gpxtpx:hr></gpxtpx:TrackPointExtension></extensions>
      </trkpt>
      <trkpt lat="59.9847466" lon="15.8275118">
        <ele>102.2</ele>
        <time>2013-10-11T18:12:01Z</time>
        <extensions><gpxtpx:TrackPointExtension><gpxtpx:hr>143</gpxtpx:hr></gpxtpx:TrackPointExtension></extensions>
      </trkpt>
      <trkpt lat="59.9847391" lon="15.827517">
        <ele>102.2</ele>
        <time>2013-10-11T18:12:02Z</time>
        <extensions><gpxtpx:TrackPointExtension><gpxtpx:hr>143</gpxtpx:hr></gpxtpx:TrackPointExtension></extensions>
      </trkpt>
      <trkpt lat="59.984736" lon="15.8275245">
        <ele>102.2</ele>
        <time>2013-10-11T18:12:03Z</time>
        <extensions><gpxtpx:TrackPointExtension><gpxtpx:hr>143</gpxtpx:hr></gpxtpx:TrackPointExtension></extensions>
      </trkpt>
      <trkpt lat="59.9846885" lon="15.8277681">
        <ele>102.2</ele>
        <time>2013-10-11T18:12:35Z</time>
        <extensions><gpxtpx:TrackPointExtension><gpxtpx:hr>144</gpxtpx:hr></gpxtpx:TrackPointExtension></extensions>
      </trkpt>
      <trkpt lat="59.9847847" lon="15.8275185">
        <ele>102.2</ele>
        <time>2013-10-11T18:12:38Z</time>
        <extensions><gpxtpx:TrackPointExtension><gpxtpx:hr>144</gpxtpx:hr></gpxtpx:TrackPointExtension></extensions>
      </trkpt>
      <trkpt lat="59.9847832" lon="15.8275188">
        <ele>102.2</ele>
        <time>2013-10-11T18:12:39Z</time>
        <extensions><gpxtpx:TrackPointExtension><gpxtpx:hr>145</gpxtpx:hr></gpxtpx:TrackPointExtension></extensions>
      </trkpt>
      <trkpt lat="59.9847838" lon="15.8275188">
        <ele>102.2</ele>
        <time>2013-10-11T18:12:40Z</time>
        <extensions><gpxtpx:TrackPointExtension><gpxtpx:hr>145</gpxtpx:hr></gpxtpx:TrackPointExtension></extensions>
      </trkpt>
      <trkpt lat="59.984783" lon="15.8275277">
        <ele>102.2</ele>
        <time>2013-10-11T18:12:43Z</time>
        <extensions><gpxtpx:TrackPointExtension><gpxtpx:hr>147</gpxtpx:hr></gpxtpx:TrackPointExtension></extensions>
      </trkpt>
      <trkpt lat="59.9847769" lon="15.8275313">
        <ele>102.2</ele>
        <time>2013-10-11T18:12:44Z</time>
        <extensions><gpxtpx:TrackPointExtension><gpxtpx:hr>147</gpxtpx:hr></gpxtpx:TrackPointExtension></extensions>
      </trkpt>
      <trkpt lat="59.9847783" lon="15.8275388">
        <ele>102.2</ele>
        <time>2013-10-11T18:12:45Z</time>
        <extensions><gpxtpx:TrackPointExtension><gpxtpx:hr>147</gpxtpx:hr></gpxtpx:TrackPointExtension></extensions>
      </trkpt>
      <trkpt lat="59.9847846" lon="15.8275379">
        <ele>102.2</ele>
        <time>2013-10-11T18:12:46Z</time>
        <extensions><gpxtpx:TrackPointExtension><gpxtpx:hr>147</gpxtpx:hr></gpxtpx:TrackPointExtension></extensions>
      </trkpt>
      <trkpt lat="59.984788" lon="15.827536">
        <ele>102.2</ele>
        <time>2013-10-11T18:12:47Z</time>
        <extensions><gpxtpx:TrackPointExtension><gpxtpx:hr>147</gpxtpx:hr></gpxtpx:TrackPointExtension></extensions>
      </trkpt>
      <trkpt lat="59.9847914" lon="15.8275325">
        <ele>102.2</ele>
        <time>2013-10-11T18:12:48Z</time>
        <extensions><gpxtpx:TrackPointExtension><gpxtpx:hr>147</gpxtpx:hr></gpxtpx:TrackPointExtension></extensions>
      </trkpt>
      <trkpt lat="59.9847958" lon="15.8275306">
        <ele>102.2</ele>
        <time>2013-10-11T18:12:49Z</time>
        <extensions><gpxtpx:TrackPointExtension><gpxtpx:hr>147</gpxtpx:hr></gpxtpx:TrackPointExtension></extensions>
      </trkpt>
      <trkpt lat="59.9847959" lon="15.8275327">
        <ele>102.2</ele>
        <time>2013-10-11T18:12:50Z</time>
        <extensions><gpxtpx:TrackPointExtension><gpxtpx:hr>147</gpxtpx:hr></gpxtpx:TrackPointExtension></extensions>
      </trkpt>
      <trkpt lat="59.9847927" lon="15.8275334">
        <ele>102.2</ele>
        <time>2013-10-11T18:12:51Z</time>
        <extensions><gpxtpx:TrackPointExtension><gpxtpx:hr>147</gpxtpx:hr></gpxtpx:TrackPointExtension></extensions>
      </trkpt>
      <trkpt lat="59.9847927" lon="15.8275363">
        <ele>102.2</ele>
        <time>2013-10-11T18:12:52Z</time>
        <extensions><gpxtpx:TrackPointExtension><gpxtpx:hr>147</gpxtpx:hr></gpxtpx:TrackPointExtension></extensions>
      </trkpt>
      <trkpt lat="59.9847915" lon="15.8275408">
        <ele>102.2</ele>
        <time>2013-10-11T18:12:53Z</time>
        <extensions><gpxtpx:TrackPointExtension><gpxtpx:hr>147</gpxtpx:hr></gpxtpx:TrackPointExtension></extensions>
      </trkpt>
      <trkpt lat="59.9847891" lon="15.8275452">
        <ele>102.2</ele>
        <time>2013-10-11T18:12:54Z</time>
        <extensions><gpxtpx:TrackPointExtension><gpxtpx:hr>146</gpxtpx:hr></gpxtpx:TrackPointExtension></extensions>
      </trkpt>
      <trkpt lat="59.984787" lon="15.827549">
        <ele>102.2</ele>
        <time>2013-10-11T18:12:55Z</time>
        <extensions><gpxtpx:TrackPointExtension><gpxtpx:hr>146</gpxtpx:hr></gpxtpx:TrackPointExtension></extensions>
      </trkpt>
      <trkpt lat="59.9847948" lon="15.8275581">
        <ele>102.2</ele>
        <time>2013-10-11T18:12:57Z</time>
        <extensions><gpxtpx:TrackPointExtension><gpxtpx:hr>146</gpxtpx:hr></gpxtpx:TrackPointExtension></extensions>
      </trkpt>
      <trkpt lat="59.9847873" lon="15.8275636">
        <ele>102.2</ele>
        <time>2013-10-11T18:12:58Z</time>
        <extensions><gpxtpx:TrackPointExtension><gpxtpx:hr>146</gpxtpx:hr></gpxtpx:TrackPointExtension></extensions>
      </trkpt>
      <trkpt lat="59.9847797" lon="15.8275716">
        <ele>102.2</ele>
        <time>2013-10-11T18:12:59Z</time>
        <extensions><gpxtpx:TrackPointExtension><gpxtpx:hr>147</gpxtpx:hr></gpxtpx:TrackPointExtension></extensions>
      </trkpt>
      <trkpt lat="59.9847796" lon="15.827569">
        <ele>102.2</ele>
        <time>2013-10-11T18:13:00Z</time>
        <extensions><gpxtpx:TrackPointExtension><gpxtpx:hr>146</gpxtpx:hr></gpxtpx:TrackPointExtension></extensions>
      </trkpt>
      <trkpt lat="59.9847899" lon="15.8275669">
        <ele>101.2</ele>
        <time>2013-10-11T18:13:02Z</time>
        <extensions><gpxtpx:TrackPointExtension><gpxtpx:hr>146</gpxtpx:hr></gpxtpx:TrackPointExtension></extensions>
      </trkpt>
      <trkpt lat="59.9848046" lon="15.8275483">
        <ele>101.2</ele>
        <time>2013-10-11T18:13:03Z</time>
        <extensions><gpxtpx:TrackPointExtension><gpxtpx:hr>146</gpxtpx:hr></gpxtpx:TrackPointExtension></extensions>
      </trkpt>
      <trkpt lat="59.9848073" lon="15.8275408">
        <ele>101.2</ele>
        <time>2013-10-11T18:13:04Z</time>
        <extensions><gpxtpx:TrackPointExtension><gpxtpx:hr>146</gpxtpx:hr></gpxtpx:TrackPointExtension></extensions>
      </trkpt>
      <trkpt lat="59.9848029" lon="15.8275414">
        <ele>101.2</ele>
        <time>2013-10-11T18:13:05Z</time>
        <extensions><gpxtpx:TrackPointExtension><gpxtpx:hr>146</gpxtpx:hr></gpxtpx:TrackPointExtension></extensions>
      </trkpt>
      <trkpt lat="59.9848067" lon="15.8275412">
        <ele>101.2</ele>
        <time>2013-10-11T18:13:06Z</time>
        <extensions><gpxtpx:TrackPointExtension><gpxtpx:hr>146</gpxtpx:hr></gpxtpx:TrackPointExtension></extensions>
      </trkpt>
      <trkpt lat="59.9848026" lon="15.8275473">
        <ele>101.2</ele>
        <time>2013-10-11T18:13:07Z</time>
        <extensions><gpxtpx:TrackPointExtension><gpxtpx:hr>146</gpxtpx:hr></gpxtpx:TrackPointExtension></extensions>
      </trkpt>
      <trkpt lat="59.9847999" lon="15.8275572">
        <ele>101.2</ele>
        <time>2013-10-11T18:13:08Z</time>
        <extensions><gpxtpx:TrackPointExtension><gpxtpx:hr>146</gpxtpx:hr></gpxtpx:TrackPointExtension></extensions>
      </trkpt>
      <trkpt lat="59.9848016" lon="15.8275582">
        <ele>101.2</ele>
        <time>2013-10-11T18:13:09Z</time>
        <extensions><gpxtpx:TrackPointExtension><gpxtpx:hr>146</gpxtpx:hr></gpxtpx:TrackPointExtension></extensions>
      </trkpt>
      <trkpt lat="59.9848062" lon="15.827553">
        <ele>101.2</ele>
        <time>2013-10-11T18:13:10Z</time>
        <extensions><gpxtpx:TrackPointExtension><gpxtpx:hr>146</gpxtpx:hr></gpxtpx:TrackPointExtension></extensions>
      </trkpt>
      <trkpt lat="59.9848103" lon="15.8275508">
        <ele>101.2</ele>
        <time>2013-10-11T18:13:11Z</time>
        <extensions><gpxtpx:TrackPointExtension><gpxtpx:hr>146</gpxtpx:hr></gpxtpx:TrackPointExtension></extensions>
      </trkpt>
      <trkpt lat="59.9848142" lon="15.8275487">
        <ele>101.2</ele>
        <time>2013-10-11T18:13:12Z</time>
        <extensions><gpxtpx:TrackPointExtension><gpxtpx:hr>146</gpxtpx:hr></gpxtpx:TrackPointExtension></extensions>
      </trkpt>
      <trkpt lat="59.984816" lon="15.8275443">
        <ele>101.2</ele>
        <time>2013-10-11T18:13:13Z</time>
        <extensions><gpxtpx:TrackPointExtension><gpxtpx:hr>146</gpxtpx:hr></gpxtpx:TrackPointExtension></extensions>
      </trkpt>
      <trkpt lat="59.9848182" lon="15.8275412">
        <ele>101.2</ele>
        <time>2013-10-11T18:13:14Z</time>
        <extensions><gpxtpx:TrackPointExtension><gpxtpx:hr>146</gpxtpx:hr></gpxtpx:TrackPointExtension></extensions>
      </trkpt>
      <trkpt lat="59.9848217" lon="15.8275377">
        <ele>101.2</ele>
        <time>2013-10-11T18:13:15Z</time>
        <extensions><gpxtpx:TrackPointExtension><gpxtpx:hr>146</gpxtpx:hr></gpxtpx:TrackPointExtension></extensions>
      </trkpt>
      <trkpt lat="59.9848254" lon="15.8275326">
        <ele>101.2</ele>
        <time>2013-10-11T18:13:16Z</time>
        <extensions><gpxtpx:TrackPointExtension><gpxtpx:hr>146</gpxtpx:hr></gpxtpx:TrackPointExtension></extensions>
      </trkpt>
      <trkpt lat="59.9848074" lon="15.8275833">
        <ele>101.2</ele>
        <time>2013-10-11T18:13:17Z</time>
        <extensions><gpxtpx:TrackPointExtension><gpxtpx:hr>146</gpxtpx:hr></gpxtpx:TrackPointExtension></extensions>
      </trkpt>
      <trkpt lat="59.9848105" lon="15.827583">
        <ele>101.2</ele>
        <time>2013-10-11T18:13:18Z</time>
        <extensions><gpxtpx:TrackPointExtension><gpxtpx:hr>145</gpxtpx:hr></gpxtpx:TrackPointExtension></extensions>
      </trkpt>
      <trkpt lat="59.9848116" lon="15.8275787">
        <ele>101.2</ele>
        <time>2013-10-11T18:13:19Z</time>
        <extensions><gpxtpx:TrackPointExtension><gpxtpx:hr>146</gpxtpx:hr></gpxtpx:TrackPointExtension></extensions>
      </trkpt>
      <trkpt lat="59.9848085" lon="15.8275818">
        <ele>101.2</ele>
        <time>2013-10-11T18:13:20Z</time>
        <extensions><gpxtpx:TrackPointExtension><gpxtpx:hr>145</gpxtpx:hr></gpxtpx:TrackPointExtension></extensions>
      </trkpt>
      <trkpt lat="59.9847866" lon="15.8275948">
        <ele>101.2</ele>
        <time>2013-10-11T18:13:21Z</time>
        <extensions><gpxtpx:TrackPointExtension><gpxtpx:hr>145</gpxtpx:hr></gpxtpx:TrackPointExtension></extensions>
      </trkpt>
      <trkpt lat="59.9847764" lon="15.8276069">
        <ele>101.2</ele>
        <time>2013-10-11T18:13:22Z</time>
        <extensions><gpxtpx:TrackPointExtension><gpxtpx:hr>146</gpxtpx:hr></gpxtpx:TrackPointExtension></extensions>
      </trkpt>
      <trkpt lat="59.9847704" lon="15.8276102">
        <ele>101.2</ele>
        <time>2013-10-11T18:13:23Z</time>
        <extensions><gpxtpx:TrackPointExtension><gpxtpx:hr>146</gpxtpx:hr></gpxtpx:TrackPointExtension></extensions>
      </trkpt>
      <trkpt lat="59.9847549" lon="15.8276238">
        <ele>101.2</ele>
        <time>2013-10-11T18:13:26Z</time>
        <extensions><gpxtpx:TrackPointExtension><gpxtpx:hr>146</gpxtpx:hr></gpxtpx:TrackPointExtension></extensions>
      </trkpt>
      <trkpt lat="59.9847546" lon="15.827625">
        <ele>101.2</ele>
        <time>2013-10-11T18:13:27Z</time>
        <extensions><gpxtpx:TrackPointExtension><gpxtpx:hr>146</gpxtpx:hr></gpxtpx:TrackPointExtension></extensions>
      </trkpt>
      <trkpt lat="59.9847569" lon="15.8276256">
        <ele>101.2</ele>
        <time>2013-10-11T18:13:28Z</time>
        <extensions><gpxtpx:TrackPointExtension><gpxtpx:hr>146</gpxtpx:hr></gpxtpx:TrackPointExtension></extensions>
      </trkpt>
      <trkpt lat="59.9847589" lon="15.8276203">
        <ele>101.2</ele>
        <time>2013-10-11T18:13:29Z</time>
        <extensions><gpxtpx:TrackPointExtension><gpxtpx:hr>146</gpxtpx:hr></gpxtpx:TrackPointExtension></extensions>
      </trkpt>
      <trkpt lat="59.9847931" lon="15.827562">
        <ele>101.2</ele>
        <time>2013-10-11T18:13:30Z</time>
        <extensions><gpxtpx:TrackPointExtension><gpxtpx:hr>146</gpxtpx:hr></gpxtpx:TrackPointExtension></extensions>
      </trkpt>
      <trkpt lat="59.9848085" lon="15.8275394">
        <ele>101.2</ele>
        <time>2013-10-11T18:13:31Z</time>
        <extensions><gpxtpx:TrackPointExtension><gpxtpx:hr>146</gpxtpx:hr></gpxtpx:TrackPointExtension></extensions>
      </trkpt>
      <trkpt lat="59.9848214" lon="15.8275183">
        <ele>101.2</ele>
        <time>2013-10-11T18:13:32Z</time>
        <extensions><gpxtpx:TrackPointExtension><gpxtpx:hr>146</gpxtpx:hr></gpxtpx:TrackPointExtension></extensions>
      </trkpt>
      <trkpt lat="59.9848207" lon="15.8275047">
        <ele>101.2</ele>
        <time>2013-10-11T18:13:33Z</time>
        <extensions><gpxtpx:TrackPointExtension><gpxtpx:hr>146</gpxtpx:hr></gpxtpx:TrackPointExtension></extensions>
      </trkpt>
      <trkpt lat="59.9848229" lon="15.8274965">
        <ele>101.2</ele>
        <time>2013-10-11T18:13:34Z</time>
        <extensions><gpxtpx:TrackPointExtension><gpxtpx:hr>147</gpxtpx:hr></gpxtpx:TrackPointExtension></extensions>
      </trkpt>
      <trkpt lat="59.9848269" lon="15.8274913">
        <ele>101.2</ele>
        <time>2013-10-11T18:13:35Z</time>
        <extensions><gpxtpx:TrackPointExtension><gpxtpx:hr>147</gpxtpx:hr></gpxtpx:TrackPointExtension></extensions>
      </trkpt>
      <trkpt lat="59.9848257" lon="15.8274926">
        <ele>101.2</ele>
        <time>2013-10-11T18:13:36Z</time>
        <extensions><gpxtpx:TrackPointExtension><gpxtpx:hr>146</gpxtpx:hr></gpxtpx:TrackPointExtension></extensions>
      </trkpt>
      <trkpt lat="59.9848281" lon="15.8274937">
        <ele>101.2</ele>
        <time>2013-10-11T18:13:37Z</time>
        <extensions><gpxtpx:TrackPointExtension><gpxtpx:hr>146</gpxtpx:hr></gpxtpx:TrackPointExtension></extensions>
      </trkpt>
      <trkpt lat="59.9848426" lon="15.8274794">
        <ele>101.2</ele>
        <time>2013-10-11T18:13:38Z</time>
        <extensions><gpxtpx:TrackPointExtension><gpxtpx:hr>146</gpxtpx:hr></gpxtpx:TrackPointExtension></extensions>
      </trkpt>
      <trkpt lat="59.9848564" lon="15.8274614">
        <ele>101.2</ele>
        <time>2013-10-11T18:13:39Z</time>
        <extensions><gpxtpx:TrackPointExtension><gpxtpx:hr>147</gpxtpx:hr></gpxtpx:TrackPointExtension></extensions>
      </trkpt>
      <trkpt lat="59.9848688" lon="15.8274383">
        <ele>101.2</ele>
        <time>2013-10-11T18:13:40Z</time>
        <extensions><gpxtpx:TrackPointExtension><gpxtpx:hr>147</gpxtpx:hr></gpxtpx:TrackPointExtension></extensions>
      </trkpt>
      <trkpt lat="59.9848719" lon="15.8274272">
        <ele>101.2</ele>
        <time>2013-10-11T18:13:41Z</time>
        <extensions><gpxtpx:TrackPointExtension><gpxtpx:hr>147</gpxtpx:hr></gpxtpx:TrackPointExtension></extensions>
      </trkpt>
      <trkpt lat="59.984874" lon="15.8274205">
        <ele>101.2</ele>
        <time>2013-10-11T18:13:42Z</time>
        <extensions><gpxtpx:TrackPointExtension><gpxtpx:hr>146</gpxtpx:hr></gpxtpx:TrackPointExtension></extensions>
      </trkpt>
      <trkpt lat="59.9848714" lon="15.8274215">
        <ele>101.2</ele>
        <time>2013-10-11T18:13:43Z</time>
        <extensions><gpxtpx:TrackPointExtension><gpxtpx:hr>147</gpxtpx:hr></gpxtpx:TrackPointExtension></extensions>
      </trkpt>
      <trkpt lat="59.9848679" lon="15.8274294">
        <ele>101.2</ele>
        <time>2013-10-11T18:13:44Z</time>
        <extensions><gpxtpx:TrackPointExtension><gpxtpx:hr>146</gpxtpx:hr></gpxtpx:TrackPointExtension></extensions>
      </trkpt>
      <trkpt lat="59.9848632" lon="15.8274394">
        <ele>101.2</ele>
        <time>2013-10-11T18:13:45Z</time>
        <extensions><gpxtpx:TrackPointExtension><gpxtpx:hr>147</gpxtpx:hr></gpxtpx:TrackPointExtension></extensions>
      </trkpt>
      <trkpt lat="59.9848292" lon="15.8274748">
        <ele>101.2</ele>
        <time>2013-10-11T18:13:46Z</time>
        <extensions><gpxtpx:TrackPointExtension><gpxtpx:hr>146</gpxtpx:hr></gpxtpx:TrackPointExtension></extensions>
      </trkpt>
      <trkpt lat="59.9848071" lon="15.8275081">
        <ele>101.2</ele>
        <time>2013-10-11T18:13:47Z</time>
        <extensions><gpxtpx:TrackPointExtension><gpxtpx:hr>146</gpxtpx:hr></gpxtpx:TrackPointExtension></extensions>
      </trkpt>
      <trkpt lat="59.9847918" lon="15.8275416">
        <ele>101.2</ele>
        <time>2013-10-11T18:13:48Z</time>
        <extensions><gpxtpx:TrackPointExtension><gpxtpx:hr>146</gpxtpx:hr></gpxtpx:TrackPointExtension></extensions>
      </trkpt>
      <trkpt lat="59.9847821" lon="15.8275608">
        <ele>101.2</ele>
        <time>2013-10-11T18:13:49Z</time>
        <extensions><gpxtpx:TrackPointExtension><gpxtpx:hr>146</gpxtpx:hr></gpxtpx:TrackPointExtension></extensions>
      </trkpt>
      <trkpt lat="59.9847691" lon="15.8275765">
        <ele>101.2</ele>
        <time>2013-10-11T18:13:50Z</time>
        <extensions><gpxtpx:TrackPointExtension><gpxtpx:hr>146</gpxtpx:hr></gpxtpx:TrackPointExtension></extensions>
      </trkpt>
      <trkpt lat="59.9847632" lon="15.8275864">
        <ele>101.2</ele>
        <time>2013-10-11T18:13:51Z</time>
        <extensions><gpxtpx:TrackPointExtension><gpxtpx:hr>146</gpxtpx:hr></gpxtpx:TrackPointExtension></extensions>
      </trkpt>
      <trkpt lat="59.984766" lon="15.8275958">
        <ele>101.2</ele>
        <time>2013-10-11T18:13:52Z</time>
        <extensions><gpxtpx:TrackPointExtension><gpxtpx:hr>146</gpxtpx:hr></gpxtpx:TrackPointExtension></extensions>
      </trkpt>
      <trkpt lat="59.98476" lon="15.8275981">
        <ele>101.2</ele>
        <time>2013-10-11T18:13:54Z</time>
        <extensions><gpxtpx:TrackPointExtension><gpxtpx:hr>146</gpxtpx:hr></gpxtpx:TrackPointExtension></extensions>
      </trkpt>
      <trkpt lat="59.9847577" lon="15.827606">
        <ele>101.2</ele>
        <time>2013-10-11T18:13:55Z</time>
        <extensions><gpxtpx:TrackPointExtension><gpxtpx:hr>147</gpxtpx:hr></gpxtpx:TrackPointExtension></extensions>
      </trkpt>
      <trkpt lat="59.9847543" lon="15.8276191">
        <ele>101.2</ele>
        <time>2013-10-11T18:13:56Z</time>
        <extensions><gpxtpx:TrackPointExtension><gpxtpx:hr>146</gpxtpx:hr></gpxtpx:TrackPointExtension></extensions>
      </trkpt>
      <trkpt lat="59.9847336" lon="15.8276335">
        <ele>101.2</ele>
        <time>2013-10-11T18:13:58Z</time>
        <extensions><gpxtpx:TrackPointExtension><gpxtpx:hr>146</gpxtpx:hr></gpxtpx:TrackPointExtension></extensions>
      </trkpt>
      <trkpt lat="59.9847217" lon="15.827655">
        <ele>101.2</ele>
        <time>2013-10-11T18:13:59Z</time>
        <extensions><gpxtpx:TrackPointExtension><gpxtpx:hr>145</gpxtpx:hr></gpxtpx:TrackPointExtension></extensions>
      </trkpt>
      <trkpt lat="59.984719" lon="15.8276646">
        <ele>101.2</ele>
        <time>2013-10-11T18:14:00Z</time>
        <extensions><gpxtpx:TrackPointExtension><gpxtpx:hr>145</gpxtpx:hr></gpxtpx:TrackPointExtension></extensions>
      </trkpt>
      <trkpt lat="59.9847173" lon="15.8276724">
        <ele>101.2</ele>
        <time>2013-10-11T18:14:01Z</time>
        <extensions><gpxtpx:TrackPointExtension><gpxtpx:hr>145</gpxtpx:hr></gpxtpx:TrackPointExtension></extensions>
      </trkpt>
      <trkpt lat="59.9847203" lon="15.8276561">
        <ele>101.2</ele>
        <time>2013-10-11T18:14:03Z</time>
        <extensions><gpxtpx:TrackPointExtension><gpxtpx:hr>145</gpxtpx:hr></gpxtpx:TrackPointExtension></extensions>
      </trkpt>
      <trkpt lat="59.9847221" lon="15.8276452">
        <ele>101.2</ele>
        <time>2013-10-11T18:14:04Z</time>
        <extensions><gpxtpx:TrackPointExtension><gpxtpx:hr>145</gpxtpx:hr></gpxtpx:TrackPointExtension></extensions>
      </trkpt>
      <trkpt lat="59.9847241" lon="15.8276377">
        <ele>101.2</ele>
        <time>2013-10-11T18:14:05Z</time>
        <extensions><gpxtpx:TrackPointExtension><gpxtpx:hr>146</gpxtpx:hr></gpxtpx:TrackPointExtension></extensions>
      </trkpt>
      <trkpt lat="59.9847266" lon="15.8276323">
        <ele>101.2</ele>
        <time>2013-10-11T18:14:06Z</time>
        <extensions><gpxtpx:TrackPointExtension><gpxtpx:hr>146</gpxtpx:hr></gpxtpx:TrackPointExtension></extensions>
      </trkpt>
      <trkpt lat="59.9847251" lon="15.8276302">
        <ele>101.2</ele>
        <time>2013-10-11T18:14:07Z</time>
        <extensions><gpxtpx:TrackPointExtension><gpxtpx:hr>146</gpxtpx:hr></gpxtpx:TrackPointExtension></extensions>
      </trkpt>
      <trkpt lat="59.9847204" lon="15.8276315">
        <ele>101.2</ele>
        <time>2013-10-11T18:14:08Z</time>
        <extensions><gpxtpx:TrackPointExtension><gpxtpx:hr>146</gpxtpx:hr></gpxtpx:TrackPointExtension></extensions>
      </trkpt>
      <trkpt lat="59.9847165" lon="15.8276344">
        <ele>101.2</ele>
        <time>2013-10-11T18:14:09Z</time>
        <extensions><gpxtpx:TrackPointExtension><gpxtpx:hr>146</gpxtpx:hr></gpxtpx:TrackPointExtension></extensions>
      </trkpt>
      <trkpt lat="59.9847131" lon="15.827637">
        <ele>101.2</ele>
        <time>2013-10-11T18:14:10Z</time>
        <extensions><gpxtpx:TrackPointExtension><gpxtpx:hr>146</gpxtpx:hr></gpxtpx:TrackPointExtension></extensions>
      </trkpt>
      <trkpt lat="59.9847107" lon="15.8276409">
        <ele>101.2</ele>
        <time>2013-10-11T18:14:11Z</time>
        <extensions><gpxtpx:TrackPointExtension><gpxtpx:hr>146</gpxtpx:hr></gpxtpx:TrackPointExtension></extensions>
      </trkpt>
      <trkpt lat="59.9847085" lon="15.82765">
        <ele>101.2</ele>
        <time>2013-10-11T18:14:12Z</time>
        <extensions><gpxtpx:TrackPointExtension><gpxtpx:hr>146</gpxtpx:hr></gpxtpx:TrackPointExtension></extensions>
      </trkpt>
      <trkpt lat="59.9846535" lon="15.8277732">
        <ele>101.2</ele>
        <time>2013-10-11T18:14:13Z</time>
        <extensions><gpxtpx:TrackPointExtension><gpxtpx:hr>146</gpxtpx:hr></gpxtpx:TrackPointExtension></extensions>
      </trkpt>
      <trkpt lat="59.9846509" lon="15.8277861">
        <ele>101.2</ele>
        <time>2013-10-11T18:14:14Z</time>
        <extensions><gpxtpx:TrackPointExtension><gpxtpx:hr>147</gpxtpx:hr></gpxtpx:TrackPointExtension></extensions>
      </trkpt>
      <trkpt lat="59.9846485" lon="15.8277901">
        <ele>101.2</ele>
        <time>2013-10-11T18:14:15Z</time>
        <extensions><gpxtpx:TrackPointExtension><gpxtpx:hr>146</gpxtpx:hr></gpxtpx:TrackPointExtension></extensions>
      </trkpt>
      <trkpt lat="59.9846503" lon="15.827784">
        <ele>101.2</ele>
        <time>2013-10-11T18:14:17Z</time>
        <extensions><gpxtpx:TrackPointExtension><gpxtpx:hr>146</gpxtpx:hr></gpxtpx:TrackPointExtension></extensions>
      </trkpt>
      <trkpt lat="59.9846538" lon="15.8277616">
        <ele>101.2</ele>
        <time>2013-10-11T18:14:19Z</time>
        <extensions><gpxtpx:TrackPointExtension><gpxtpx:hr>147</gpxtpx:hr></gpxtpx:TrackPointExtension></extensions>
      </trkpt>
      <trkpt lat="59.9846575" lon="15.8277521">
        <ele>101.2</ele>
        <time>2013-10-11T18:14:20Z</time>
        <extensions><gpxtpx:TrackPointExtension><gpxtpx:hr>147</gpxtpx:hr></gpxtpx:TrackPointExtension></extensions>
      </trkpt>
      <trkpt lat="59.9846501" lon="15.8277488">
        <ele>101.2</ele>
        <time>2013-10-11T18:14:21Z</time>
        <extensions><gpxtpx:TrackPointExtension><gpxtpx:hr>146</gpxtpx:hr></gpxtpx:TrackPointExtension></extensions>
      </trkpt>
      <trkpt lat="59.9846563" lon="15.827742">
        <ele>101.2</ele>
        <time>2013-10-11T18:14:22Z</time>
        <extensions><gpxtpx:TrackPointExtension><gpxtpx:hr>147</gpxtpx:hr></gpxtpx:TrackPointExtension></extensions>
      </trkpt>
      <trkpt lat="59.9846616" lon="15.8277352">
        <ele>101.2</ele>
        <time>2013-10-11T18:14:23Z</time>
        <extensions><gpxtpx:TrackPointExtension><gpxtpx:hr>147</gpxtpx:hr></gpxtpx:TrackPointExtension></extensions>
      </trkpt>
      <trkpt lat="59.9846647" lon="15.8277322">
        <ele>101.2</ele>
        <time>2013-10-11T18:14:24Z</time>
        <extensions><gpxtpx:TrackPointExtension><gpxtpx:hr>147</gpxtpx:hr></gpxtpx:TrackPointExtension></extensions>
      </trkpt>
      <trkpt lat="59.9846668" lon="15.8277338">
        <ele>101.2</ele>
        <time>2013-10-11T18:14:25Z</time>
        <extensions><gpxtpx:TrackPointExtension><gpxtpx:hr>147</gpxtpx:hr></gpxtpx:TrackPointExtension></extensions>
      </trkpt>
      <trkpt lat="59.9846688" lon="15.8277344">
        <ele>101.2</ele>
        <time>2013-10-11T18:14:26Z</time>
        <extensions><gpxtpx:TrackPointExtension><gpxtpx:hr>147</gpxtpx:hr></gpxtpx:TrackPointExtension></extensions>
      </trkpt>
      <trkpt lat="59.9846702" lon="15.8277328">
        <ele>101.2</ele>
        <time>2013-10-11T18:14:27Z</time>
        <extensions><gpxtpx:TrackPointExtension><gpxtpx:hr>147</gpxtpx:hr></gpxtpx:TrackPointExtension></extensions>
      </trkpt>
      <trkpt lat="59.9846731" lon="15.8277325">
        <ele>101.2</ele>
        <time>2013-10-11T18:14:28Z</time>
        <extensions><gpxtpx:TrackPointExtension><gpxtpx:hr>147</gpxtpx:hr></gpxtpx:TrackPointExtension></extensions>
      </trkpt>
      <trkpt lat="59.9846752" lon="15.8277313">
        <ele>101.2</ele>
        <time>2013-10-11T18:14:29Z</time>
        <extensions><gpxtpx:TrackPointExtension><gpxtpx:hr>147</gpxtpx:hr></gpxtpx:TrackPointExtension></extensions>
      </trkpt>
      <trkpt lat="59.9846779" lon="15.8277255">
        <ele>101.2</ele>
        <time>2013-10-11T18:14:30Z</time>
        <extensions><gpxtpx:TrackPointExtension><gpxtpx:hr>147</gpxtpx:hr></gpxtpx:TrackPointExtension></extensions>
      </trkpt>
      <trkpt lat="59.9846813" lon="15.8277196">
        <ele>101.2</ele>
        <time>2013-10-11T18:14:31Z</time>
        <extensions><gpxtpx:TrackPointExtension><gpxtpx:hr>147</gpxtpx:hr></gpxtpx:TrackPointExtension></extensions>
      </trkpt>
      <trkpt lat="59.9846838" lon="15.8277141">
        <ele>101.2</ele>
        <time>2013-10-11T18:14:32Z</time>
        <extensions><gpxtpx:TrackPointExtension><gpxtpx:hr>147</gpxtpx:hr></gpxtpx:TrackPointExtension></extensions>
      </trkpt>
      <trkpt lat="59.9846845" lon="15.8277052">
        <ele>101.2</ele>
        <time>2013-10-11T18:14:33Z</time>
        <extensions><gpxtpx:TrackPointExtension><gpxtpx:hr>147</gpxtpx:hr></gpxtpx:TrackPointExtension></extensions>
      </trkpt>
      <trkpt lat="59.984687" lon="15.8276973">
        <ele>101.2</ele>
        <time>2013-10-11T18:14:34Z</time>
        <extensions><gpxtpx:TrackPointExtension><gpxtpx:hr>147</gpxtpx:hr></gpxtpx:TrackPointExtension></extensions>
      </trkpt>
      <trkpt lat="59.9846912" lon="15.8276911">
        <ele>101.2</ele>
        <time>2013-10-11T18:14:35Z</time>
        <extensions><gpxtpx:TrackPointExtension><gpxtpx:hr>147</gpxtpx:hr></gpxtpx:TrackPointExtension></extensions>
      </trkpt>
      <trkpt lat="59.984694" lon="15.8276866">
        <ele>101.2</ele>
        <time>2013-10-11T18:14:36Z</time>
        <extensions><gpxtpx:TrackPointExtension><gpxtpx:hr>148</gpxtpx:hr></gpxtpx:TrackPointExtension></extensions>
      </trkpt>
      <trkpt lat="59.9846964" lon="15.8276835">
        <ele>101.2</ele>
        <time>2013-10-11T18:14:37Z</time>
        <extensions><gpxtpx:TrackPointExtension><gpxtpx:hr>147</gpxtpx:hr></gpxtpx:TrackPointExtension></extensions>
      </trkpt>
      <trkpt lat="59.9846971" lon="15.827684">
        <ele>101.2</ele>
        <time>2013-10-11T18:14:38Z</time>
        <extensions><gpxtpx:TrackPointExtension><gpxtpx:hr>148</gpxtpx:hr></gpxtpx:TrackPointExtension></extensions>
      </trkpt>
      <trkpt lat="59.984696" lon="15.8276877">
        <ele>101.2</ele>
        <time>2013-10-11T18:14:39Z</time>
        <extensions><gpxtpx:TrackPointExtension><gpxtpx:hr>147</gpxtpx:hr></gpxtpx:TrackPointExtension></extensions>
      </trkpt>
      <trkpt lat="59.9846295" lon="15.8277853">
        <ele>101.2</ele>
        <time>2013-10-11T18:14:42Z</time>
        <extensions><gpxtpx:TrackPointExtension><gpxtpx:hr>148</gpxtpx:hr></gpxtpx:TrackPointExtension></extensions>
      </trkpt>
      <trkpt lat="59.9846187" lon="15.8278049">
        <ele>101.2</ele>
        <time>2013-10-11T18:14:43Z</time>
        <extensions><gpxtpx:TrackPointExtension><gpxtpx:hr>148</gpxtpx:hr></gpxtpx:TrackPointExtension></extensions>
      </trkpt>
      <trkpt lat="59.9846103" lon="15.8278182">
        <ele>101.2</ele>
        <time>2013-10-11T18:14:44Z</time>
        <extensions><gpxtpx:TrackPointExtension><gpxtpx:hr>148</gpxtpx:hr></gpxtpx:TrackPointExtension></extensions>
      </trkpt>
      <trkpt lat="59.9846041" lon="15.8278301">
        <ele>101.2</ele>
        <time>2013-10-11T18:14:45Z</time>
        <extensions><gpxtpx:TrackPointExtension><gpxtpx:hr>147</gpxtpx:hr></gpxtpx:TrackPointExtension></extensions>
      </trkpt>
      <trkpt lat="59.9845974" lon="15.8278296">
        <ele>101.2</ele>
        <time>2013-10-11T18:14:46Z</time>
        <extensions><gpxtpx:TrackPointExtension><gpxtpx:hr>148</gpxtpx:hr></gpxtpx:TrackPointExtension></extensions>
      </trkpt>
      <trkpt lat="59.9845962" lon="15.8278187">
        <ele>101.2</ele>
        <time>2013-10-11T18:14:48Z</time>
        <extensions><gpxtpx:TrackPointExtension><gpxtpx:hr>148</gpxtpx:hr></gpxtpx:TrackPointExtension></extensions>
      </trkpt>
      <trkpt lat="59.9845975" lon="15.8278118">
        <ele>101.2</ele>
        <time>2013-10-11T18:14:49Z</time>
        <extensions><gpxtpx:TrackPointExtension><gpxtpx:hr>148</gpxtpx:hr></gpxtpx:TrackPointExtension></extensions>
      </trkpt>
      <trkpt lat="59.9845971" lon="15.8278078">
        <ele>101.2</ele>
        <time>2013-10-11T18:14:50Z</time>
        <extensions><gpxtpx:TrackPointExtension><gpxtpx:hr>148</gpxtpx:hr></gpxtpx:TrackPointExtension></extensions>
      </trkpt>
      <trkpt lat="59.9845959" lon="15.8278028">
        <ele>101.2</ele>
        <time>2013-10-11T18:14:51Z</time>
        <extensions><gpxtpx:TrackPointExtension><gpxtpx:hr>148</gpxtpx:hr></gpxtpx:TrackPointExtension></extensions>
      </trkpt>
      <trkpt lat="59.9845953" lon="15.8278012">
        <ele>101.2</ele>
        <time>2013-10-11T18:14:52Z</time>
        <extensions><gpxtpx:TrackPointExtension><gpxtpx:hr>148</gpxtpx:hr></gpxtpx:TrackPointExtension></extensions>
      </trkpt>
      <trkpt lat="59.9845958" lon="15.8278041">
        <ele>101.2</ele>
        <time>2013-10-11T18:14:53Z</time>
        <extensions><gpxtpx:TrackPointExtension><gpxtpx:hr>149</gpxtpx:hr></gpxtpx:TrackPointExtension></extensions>
      </trkpt>
      <trkpt lat="59.9845932" lon="15.8278089">
        <ele>101.2</ele>
        <time>2013-10-11T18:14:54Z</time>
        <extensions><gpxtpx:TrackPointExtension><gpxtpx:hr>149</gpxtpx:hr></gpxtpx:TrackPointExtension></extensions>
      </trkpt>
      <trkpt lat="59.9845888" lon="15.82781">
        <ele>101.2</ele>
        <time>2013-10-11T18:14:55Z</time>
        <extensions><gpxtpx:TrackPointExtension><gpxtpx:hr>148</gpxtpx:hr></gpxtpx:TrackPointExtension></extensions>
      </trkpt>
      <trkpt lat="59.9845878" lon="15.8278089">
        <ele>101.2</ele>
        <time>2013-10-11T18:14:56Z</time>
        <extensions><gpxtpx:TrackPointExtension><gpxtpx:hr>149</gpxtpx:hr></gpxtpx:TrackPointExtension></extensions>
      </trkpt>
      <trkpt lat="59.984589" lon="15.8278021">
        <ele>101.2</ele>
        <time>2013-10-11T18:14:57Z</time>
        <extensions><gpxtpx:TrackPointExtension><gpxtpx:hr>148</gpxtpx:hr></gpxtpx:TrackPointExtension></extensions>
      </trkpt>
      <trkpt lat="59.9845962" lon="15.8277893">
        <ele>101.2</ele>
        <time>2013-10-11T18:14:58Z</time>
        <extensions><gpxtpx:TrackPointExtension><gpxtpx:hr>148</gpxtpx:hr></gpxtpx:TrackPointExtension></extensions>
      </trkpt>
      <trkpt lat="59.9846028" lon="15.827777">
        <ele>101.2</ele>
        <time>2013-10-11T18:14:59Z</time>
        <extensions><gpxtpx:TrackPointExtension><gpxtpx:hr>148</gpxtpx:hr></gpxtpx:TrackPointExtension></extensions>
      </trkpt>
      <trkpt lat="59.9846" lon="15.8277608">
        <ele>101.2</ele>
        <time>2013-10-11T18:15:00Z</time>
        <extensions><gpxtpx:TrackPointExtension><gpxtpx:hr>148</gpxtpx:hr></gpxtpx:TrackPointExtension></extensions>
      </trkpt>
      <trkpt lat="59.9846122" lon="15.8277476">
        <ele>101.2</ele>
        <time>2013-10-11T18:15:01Z</time>
        <extensions><gpxtpx:TrackPointExtension><gpxtpx:hr>147</gpxtpx:hr></gpxtpx:TrackPointExtension></extensions>
      </trkpt>
      <trkpt lat="59.9846192" lon="15.8277412">
        <ele>101.2</ele>
        <time>2013-10-11T18:15:02Z</time>
        <extensions><gpxtpx:TrackPointExtension><gpxtpx:hr>148</gpxtpx:hr></gpxtpx:TrackPointExtension></extensions>
      </trkpt>
      <trkpt lat="59.9846254" lon="15.8277447">
        <ele>101.2</ele>
        <time>2013-10-11T18:15:03Z</time>
        <extensions><gpxtpx:TrackPointExtension><gpxtpx:hr>147</gpxtpx:hr></gpxtpx:TrackPointExtension></extensions>
      </trkpt>
      <trkpt lat="59.9846263" lon="15.8277449">
        <ele>101.2</ele>
        <time>2013-10-11T18:15:04Z</time>
        <extensions><gpxtpx:TrackPointExtension><gpxtpx:hr>147</gpxtpx:hr></gpxtpx:TrackPointExtension></extensions>
      </trkpt>
      <trkpt lat="59.984609" lon="15.8277715">
        <ele>101.2</ele>
        <time>2013-10-11T18:15:05Z</time>
        <extensions><gpxtpx:TrackPointExtension><gpxtpx:hr>147</gpxtpx:hr></gpxtpx:TrackPointExtension></extensions>
      </trkpt>
      <trkpt lat="59.9846001" lon="15.8277948">
        <ele>101.2</ele>
        <time>2013-10-11T18:15:06Z</time>
        <extensions><gpxtpx:TrackPointExtension><gpxtpx:hr>147</gpxtpx:hr></gpxtpx:TrackPointExtension></extensions>
      </trkpt>
      <trkpt lat="59.9845954" lon="15.8278089">
        <ele>101.2</ele>
        <time>2013-10-11T18:15:07Z</time>
        <extensions><gpxtpx:TrackPointExtension><gpxtpx:hr>147</gpxtpx:hr></gpxtpx:TrackPointExtension></extensions>
      </trkpt>
      <trkpt lat="59.9845861" lon="15.827832">
        <ele>101.2</ele>
        <time>2013-10-11T18:15:11Z</time>
        <extensions><gpxtpx:TrackPointExtension><gpxtpx:hr>147</gpxtpx:hr></gpxtpx:TrackPointExtension></extensions>
      </trkpt>
      <trkpt lat="59.9845837" lon="15.8278619">
        <ele>101.2</ele>
        <time>2013-10-11T18:15:12Z</time>
        <extensions><gpxtpx:TrackPointExtension><gpxtpx:hr>147</gpxtpx:hr></gpxtpx:TrackPointExtension></extensions>
      </trkpt>
      <trkpt lat="59.9845606" lon="15.8279153">
        <ele>101.2</ele>
        <time>2013-10-11T18:15:16Z</time>
        <extensions><gpxtpx:TrackPointExtension><gpxtpx:hr>147</gpxtpx:hr></gpxtpx:TrackPointExtension></extensions>
      </trkpt>
      <trkpt lat="59.9845615" lon="15.827914">
        <ele>101.2</ele>
        <time>2013-10-11T18:15:17Z</time>
        <extensions><gpxtpx:TrackPointExtension><gpxtpx:hr>147</gpxtpx:hr></gpxtpx:TrackPointExtension></extensions>
      </trkpt>
      <trkpt lat="59.9845653" lon="15.8279085">
        <ele>101.2</ele>
        <time>2013-10-11T18:15:18Z</time>
        <extensions><gpxtpx:TrackPointExtension><gpxtpx:hr>147</gpxtpx:hr></gpxtpx:TrackPointExtension></extensions>
      </trkpt>
      <trkpt lat="59.98459" lon="15.8278866">
        <ele>101.2</ele>
        <time>2013-10-11T18:15:19Z</time>
        <extensions><gpxtpx:TrackPointExtension><gpxtpx:hr>147</gpxtpx:hr></gpxtpx:TrackPointExtension></extensions>
      </trkpt>
      <trkpt lat="59.9845953" lon="15.8278788">
        <ele>101.2</ele>
        <time>2013-10-11T18:15:20Z</time>
        <extensions><gpxtpx:TrackPointExtension><gpxtpx:hr>147</gpxtpx:hr></gpxtpx:TrackPointExtension></extensions>
      </trkpt>
      <trkpt lat="59.9845965" lon="15.8278765">
        <ele>101.2</ele>
        <time>2013-10-11T18:15:21Z</time>
        <extensions><gpxtpx:TrackPointExtension><gpxtpx:hr>147</gpxtpx:hr></gpxtpx:TrackPointExtension></extensions>
      </trkpt>
      <trkpt lat="59.9845942" lon="15.8278782">
        <ele>101.2</ele>
        <time>2013-10-11T18:15:22Z</time>
        <extensions><gpxtpx:TrackPointExtension><gpxtpx:hr>147</gpxtpx:hr></gpxtpx:TrackPointExtension></extensions>
      </trkpt>
      <trkpt lat="59.9845892" lon="15.8278811">
        <ele>101.2</ele>
        <time>2013-10-11T18:15:23Z</time>
        <extensions><gpxtpx:TrackPointExtension><gpxtpx:hr>147</gpxtpx:hr></gpxtpx:TrackPointExtension></extensions>
      </trkpt>
      <trkpt lat="59.9845834" lon="15.8278871">
        <ele>101.2</ele>
        <time>2013-10-11T18:15:24Z</time>
        <extensions><gpxtpx:TrackPointExtension><gpxtpx:hr>147</gpxtpx:hr></gpxtpx:TrackPointExtension></extensions>
      </trkpt>
      <trkpt lat="59.9845798" lon="15.8278944">
        <ele>101.2</ele>
        <time>2013-10-11T18:15:25Z</time>
        <extensions><gpxtpx:TrackPointExtension><gpxtpx:hr>147</gpxtpx:hr></gpxtpx:TrackPointExtension></extensions>
      </trkpt>
      <trkpt lat="59.9845751" lon="15.8279045">
        <ele>101.2</ele>
        <time>2013-10-11T18:15:26Z</time>
        <extensions><gpxtpx:TrackPointExtension><gpxtpx:hr>147</gpxtpx:hr></gpxtpx:TrackPointExtension></extensions>
      </trkpt>
      <trkpt lat="59.9845709" lon="15.8279143">
        <ele>101.2</ele>
        <time>2013-10-11T18:15:27Z</time>
        <extensions><gpxtpx:TrackPointExtension><gpxtpx:hr>147</gpxtpx:hr></gpxtpx:TrackPointExtension></extensions>
      </trkpt>
      <trkpt lat="59.984568" lon="15.8279215">
        <ele>101.2</ele>
        <time>2013-10-11T18:15:28Z</time>
        <extensions><gpxtpx:TrackPointExtension><gpxtpx:hr>148</gpxtpx:hr></gpxtpx:TrackPointExtension></extensions>
      </trkpt>
      <trkpt lat="59.9845661" lon="15.8279271">
        <ele>101.2</ele>
        <time>2013-10-11T18:15:29Z</time>
        <extensions><gpxtpx:TrackPointExtension><gpxtpx:hr>148</gpxtpx:hr></gpxtpx:TrackPointExtension></extensions>
      </trkpt>
      <trkpt lat="59.9845642" lon="15.8279322">
        <ele>101.2</ele>
        <time>2013-10-11T18:15:30Z</time>
        <extensions><gpxtpx:TrackPointExtension><gpxtpx:hr>148</gpxtpx:hr></gpxtpx:TrackPointExtension></extensions>
      </trkpt>
      <trkpt lat="59.9845633" lon="15.8279342">
        <ele>101.2</ele>
        <time>2013-10-11T18:15:31Z</time>
        <extensions><gpxtpx:TrackPointExtension><gpxtpx:hr>148</gpxtpx:hr></gpxtpx:TrackPointExtension></extensions>
      </trkpt>
      <trkpt lat="59.9845655" lon="15.827934">
        <ele>101.2</ele>
        <time>2013-10-11T18:15:35Z</time>
        <extensions><gpxtpx:TrackPointExtension><gpxtpx:hr>148</gpxtpx:hr></gpxtpx:TrackPointExtension></extensions>
      </trkpt>
      <trkpt lat="59.9845683" lon="15.8279237">
        <ele>101.2</ele>
        <time>2013-10-11T18:15:36Z</time>
        <extensions><gpxtpx:TrackPointExtension><gpxtpx:hr>149</gpxtpx:hr></gpxtpx:TrackPointExtension></extensions>
      </trkpt>
      <trkpt lat="59.9845722" lon="15.8279139">
        <ele>101.2</ele>
        <time>2013-10-11T18:15:37Z</time>
        <extensions><gpxtpx:TrackPointExtension><gpxtpx:hr>149</gpxtpx:hr></gpxtpx:TrackPointExtension></extensions>
      </trkpt>
      <trkpt lat="59.9845757" lon="15.8279056">
        <ele>101.2</ele>
        <time>2013-10-11T18:15:38Z</time>
        <extensions><gpxtpx:TrackPointExtension><gpxtpx:hr>149</gpxtpx:hr></gpxtpx:TrackPointExtension></extensions>
      </trkpt>
      <trkpt lat="59.9845782" lon="15.8278983">
        <ele>101.2</ele>
        <time>2013-10-11T18:15:39Z</time>
        <extensions><gpxtpx:TrackPointExtension><gpxtpx:hr>149</gpxtpx:hr></gpxtpx:TrackPointExtension></extensions>
      </trkpt>
      <trkpt lat="59.9845784" lon="15.8278943">
        <ele>101.2</ele>
        <time>2013-10-11T18:15:40Z</time>
        <extensions><gpxtpx:TrackPointExtension><gpxtpx:hr>149</gpxtpx:hr></gpxtpx:TrackPointExtension></extensions>
      </trkpt>
      <trkpt lat="59.9845788" lon="15.8278945">
        <ele>101.2</ele>
        <time>2013-10-11T18:15:41Z</time>
        <extensions><gpxtpx:TrackPointExtension><gpxtpx:hr>150</gpxtpx:hr></gpxtpx:TrackPointExtension></extensions>
      </trkpt>
      <trkpt lat="59.9845818" lon="15.8278981">
        <ele>101.2</ele>
        <time>2013-10-11T18:15:42Z</time>
        <extensions><gpxtpx:TrackPointExtension><gpxtpx:hr>150</gpxtpx:hr></gpxtpx:TrackPointExtension></extensions>
      </trkpt>
      <trkpt lat="59.9845842" lon="15.8279059">
        <ele>101.2</ele>
        <time>2013-10-11T18:15:43Z</time>
        <extensions><gpxtpx:TrackPointExtension><gpxtpx:hr>150</gpxtpx:hr></gpxtpx:TrackPointExtension></extensions>
      </trkpt>
      <trkpt lat="59.9846096" lon="15.8278881">
        <ele>101.2</ele>
        <time>2013-10-11T18:15:44Z</time>
        <extensions><gpxtpx:TrackPointExtension><gpxtpx:hr>150</gpxtpx:hr></gpxtpx:TrackPointExtension></extensions>
      </trkpt>
      <trkpt lat="59.9846067" lon="15.8279013">
        <ele>101.2</ele>
        <time>2013-10-11T18:15:45Z</time>
        <extensions><gpxtpx:TrackPointExtension><gpxtpx:hr>150</gpxtpx:hr></gpxtpx:TrackPointExtension></extensions>
      </trkpt>
      <trkpt lat="59.9845998" lon="15.8279177">
        <ele>101.2</ele>
        <time>2013-10-11T18:15:46Z</time>
        <extensions><gpxtpx:TrackPointExtension><gpxtpx:hr>150</gpxtpx:hr></gpxtpx:TrackPointExtension></extensions>
      </trkpt>
      <trkpt lat="59.9845882" lon="15.8279437">
        <ele>101.2</ele>
        <time>2013-10-11T18:15:47Z</time>
        <extensions><gpxtpx:TrackPointExtension><gpxtpx:hr>149</gpxtpx:hr></gpxtpx:TrackPointExtension></extensions>
      </trkpt>
      <trkpt lat="59.9845788" lon="15.8279685">
        <ele>101.2</ele>
        <time>2013-10-11T18:15:48Z</time>
        <extensions><gpxtpx:TrackPointExtension><gpxtpx:hr>150</gpxtpx:hr></gpxtpx:TrackPointExtension></extensions>
      </trkpt>
      <trkpt lat="59.9845604" lon="15.827981">
        <ele>101.2</ele>
        <time>2013-10-11T18:15:50Z</time>
        <extensions><gpxtpx:TrackPointExtension><gpxtpx:hr>149</gpxtpx:hr></gpxtpx:TrackPointExtension></extensions>
      </trkpt>
      <trkpt lat="59.984499" lon="15.8280814">
        <ele>101.2</ele>
        <time>2013-10-11T18:16:00Z</time>
        <extensions><gpxtpx:TrackPointExtension><gpxtpx:hr>149</gpxtpx:hr></gpxtpx:TrackPointExtension></extensions>
      </trkpt>
      <trkpt lat="59.984505" lon="15.8280839">
        <ele>101.2</ele>
        <time>2013-10-11T18:16:01Z</time>
        <extensions><gpxtpx:TrackPointExtension><gpxtpx:hr>149</gpxtpx:hr></gpxtpx:TrackPointExtension></extensions>
      </trkpt>
      <trkpt lat="59.984508" lon="15.8280844">
        <ele>101.2</ele>
        <time>2013-10-11T18:16:02Z</time>
        <extensions><gpxtpx:TrackPointExtension><gpxtpx:hr>148</gpxtpx:hr></gpxtpx:TrackPointExtension></extensions>
      </trkpt>
      <trkpt lat="59.9845098" lon="15.828082">
        <ele>101.2</ele>
        <time>2013-10-11T18:16:03Z</time>
        <extensions><gpxtpx:TrackPointExtension><gpxtpx:hr>148</gpxtpx:hr></gpxtpx:TrackPointExtension></extensions>
      </trkpt>
      <trkpt lat="59.9845077" lon="15.8280777">
        <ele>101.2</ele>
        <time>2013-10-11T18:16:04Z</time>
        <extensions><gpxtpx:TrackPointExtension><gpxtpx:hr>148</gpxtpx:hr></gpxtpx:TrackPointExtension></extensions>
      </trkpt>
      <trkpt lat="59.9845092" lon="15.8280761">
        <ele>101.2</ele>
        <time>2013-10-11T18:16:05Z</time>
        <extensions><gpxtpx:TrackPointExtension><gpxtpx:hr>148</gpxtpx:hr></gpxtpx:TrackPointExtension></extensions>
      </trkpt>
      <trkpt lat="59.9845114" lon="15.8280739">
        <ele>101.2</ele>
        <time>2013-10-11T18:16:06Z</time>
        <extensions><gpxtpx:TrackPointExtension><gpxtpx:hr>148</gpxtpx:hr></gpxtpx:TrackPointExtension></extensions>
      </trkpt>
      <trkpt lat="59.9845061" lon="15.8280644">
        <ele>101.2</ele>
        <time>2013-10-11T18:16:07Z</time>
        <extensions><gpxtpx:TrackPointExtension><gpxtpx:hr>148</gpxtpx:hr></gpxtpx:TrackPointExtension></extensions>
      </trkpt>
      <trkpt lat="59.984502" lon="15.8280585">
        <ele>101.2</ele>
        <time>2013-10-11T18:16:08Z</time>
        <extensions><gpxtpx:TrackPointExtension><gpxtpx:hr>148</gpxtpx:hr></gpxtpx:TrackPointExtension></extensions>
      </trkpt>
      <trkpt lat="59.9844994" lon="15.8280525">
        <ele>101.2</ele>
        <time>2013-10-11T18:16:09Z</time>
        <extensions><gpxtpx:TrackPointExtension><gpxtpx:hr>148</gpxtpx:hr></gpxtpx:TrackPointExtension></extensions>
      </trkpt>
      <trkpt lat="59.9844985" lon="15.8280533">
        <ele>101.2</ele>
        <time>2013-10-11T18:16:10Z</time>
        <extensions><gpxtpx:TrackPointExtension><gpxtpx:hr>148</gpxtpx:hr></gpxtpx:TrackPointExtension></extensions>
      </trkpt>
      <trkpt lat="59.984499" lon="15.8280553">
        <ele>101.2</ele>
        <time>2013-10-11T18:16:11Z</time>
        <extensions><gpxtpx:TrackPointExtension><gpxtpx:hr>147</gpxtpx:hr></gpxtpx:TrackPointExtension></extensions>
      </trkpt>
      <trkpt lat="59.9845035" lon="15.8280605">
        <ele>101.2</ele>
        <time>2013-10-11T18:16:12Z</time>
        <extensions><gpxtpx:TrackPointExtension><gpxtpx:hr>147</gpxtpx:hr></gpxtpx:TrackPointExtension></extensions>
      </trkpt>
      <trkpt lat="59.9847341" lon="15.8277031">
        <ele>101.2</ele>
        <time>2013-10-11T18:16:13Z</time>
        <extensions><gpxtpx:TrackPointExtension><gpxtpx:hr>147</gpxtpx:hr></gpxtpx:TrackPointExtension></extensions>
      </trkpt>
      <trkpt lat="59.9847399" lon="15.8277142">
        <ele>101.2</ele>
        <time>2013-10-11T18:16:14Z</time>
        <extensions><gpxtpx:TrackPointExtension><gpxtpx:hr>147</gpxtpx:hr></gpxtpx:TrackPointExtension></extensions>
      </trkpt>
      <trkpt lat="59.9847437" lon="15.8277188">
        <ele>101.2</ele>
        <time>2013-10-11T18:16:15Z</time>
        <extensions><gpxtpx:TrackPointExtension><gpxtpx:hr>147</gpxtpx:hr></gpxtpx:TrackPointExtension></extensions>
      </trkpt>
      <trkpt lat="59.9847435" lon="15.8277152">
        <ele>101.2</ele>
        <time>2013-10-11T18:16:16Z</time>
        <extensions><gpxtpx:TrackPointExtension><gpxtpx:hr>147</gpxtpx:hr></gpxtpx:TrackPointExtension></extensions>
      </trkpt>
      <trkpt lat="59.9847418" lon="15.8277085">
        <ele>101.2</ele>
        <time>2013-10-11T18:16:17Z</time>
        <extensions><gpxtpx:TrackPointExtension><gpxtpx:hr>147</gpxtpx:hr></gpxtpx:TrackPointExtension></extensions>
      </trkpt>
      <trkpt lat="59.9847427" lon="15.8276954">
        <ele>101.2</ele>
        <time>2013-10-11T18:16:19Z</time>
        <extensions><gpxtpx:TrackPointExtension><gpxtpx:hr>147</gpxtpx:hr></gpxtpx:TrackPointExtension></extensions>
      </trkpt>
      <trkpt lat="59.9847487" lon="15.8276952">
        <ele>101.2</ele>
        <time>2013-10-11T18:16:20Z</time>
        <extensions><gpxtpx:TrackPointExtension><gpxtpx:hr>147</gpxtpx:hr></gpxtpx:TrackPointExtension></extensions>
      </trkpt>
      <trkpt lat="59.9847586" lon="15.8276952">
        <ele>101.2</ele>
        <time>2013-10-11T18:16:22Z</time>
        <extensions><gpxtpx:TrackPointExtension><gpxtpx:hr>148</gpxtpx:hr></gpxtpx:TrackPointExtension></extensions>
      </trkpt>
      <trkpt lat="59.9847984" lon="15.8276353">
        <ele>101.2</ele>
        <time>2013-10-11T18:16:23Z</time>
        <extensions><gpxtpx:TrackPointExtension><gpxtpx:hr>148</gpxtpx:hr></gpxtpx:TrackPointExtension></extensions>
      </trkpt>
      <trkpt lat="59.9848731" lon="15.8275746">
        <ele>101.2</ele>
        <time>2013-10-11T18:16:26Z</time>
        <extensions><gpxtpx:TrackPointExtension><gpxtpx:hr>149</gpxtpx:hr></gpxtpx:TrackPointExtension></extensions>
      </trkpt>
      <trkpt lat="59.984888" lon="15.8275431">
        <ele>101.2</ele>
        <time>2013-10-11T18:16:28Z</time>
        <extensions><gpxtpx:TrackPointExtension><gpxtpx:hr>149</gpxtpx:hr></gpxtpx:TrackPointExtension></extensions>
      </trkpt>
      <trkpt lat="59.9848963" lon="15.8275194">
        <ele>101.2</ele>
        <time>2013-10-11T18:16:31Z</time>
        <extensions><gpxtpx:TrackPointExtension><gpxtpx:hr>149</gpxtpx:hr></gpxtpx:TrackPointExtension></extensions>
      </trkpt>
      <trkpt lat="59.9848963" lon="15.8275192">
        <ele>101.2</ele>
        <time>2013-10-11T18:16:32Z</time>
        <extensions><gpxtpx:TrackPointExtension><gpxtpx:hr>149</gpxtpx:hr></gpxtpx:TrackPointExtension></extensions>
      </trkpt>
      <trkpt lat="59.9848976" lon="15.8275207">
        <ele>101.2</ele>
        <time>2013-10-11T18:16:33Z</time>
        <extensions><gpxtpx:TrackPointExtension><gpxtpx:hr>149</gpxtpx:hr></gpxtpx:TrackPointExtension></extensions>
      </trkpt>
      <trkpt lat="59.9848968" lon="15.8275196">
        <ele>101.2</ele>
        <time>2013-10-11T18:16:34Z</time>
        <extensions><gpxtpx:TrackPointExtension><gpxtpx:hr>149</gpxtpx:hr></gpxtpx:TrackPointExtension></extensions>
      </trkpt>
      <trkpt lat="59.9848941" lon="15.8275193">
        <ele>101.2</ele>
        <time>2013-10-11T18:16:35Z</time>
        <extensions><gpxtpx:TrackPointExtension><gpxtpx:hr>149</gpxtpx:hr></gpxtpx:TrackPointExtension></extensions>
      </trkpt>
      <trkpt lat="59.9848923" lon="15.8275216">
        <ele>101.2</ele>
        <time>2013-10-11T18:16:36Z</time>
        <extensions><gpxtpx:TrackPointExtension><gpxtpx:hr>149</gpxtpx:hr></gpxtpx:TrackPointExtension></extensions>
      </trkpt>
      <trkpt lat="59.9848917" lon="15.8275224">
        <ele>101.2</ele>
        <time>2013-10-11T18:16:37Z</time>
        <extensions><gpxtpx:TrackPointExtension><gpxtpx:hr>149</gpxtpx:hr></gpxtpx:TrackPointExtension></extensions>
      </trkpt>
      <trkpt lat="59.9848927" lon="15.827518">
        <ele>101.2</ele>
        <time>2013-10-11T18:16:38Z</time>
        <extensions><gpxtpx:TrackPointExtension><gpxtpx:hr>149</gpxtpx:hr></gpxtpx:TrackPointExtension></extensions>
      </trkpt>
      <trkpt lat="59.9848925" lon="15.8275128">
        <ele>101.2</ele>
        <time>2013-10-11T18:16:39Z</time>
        <extensions><gpxtpx:TrackPointExtension><gpxtpx:hr>149</gpxtpx:hr></gpxtpx:TrackPointExtension></extensions>
      </trkpt>
      <trkpt lat="59.9848897" lon="15.8275078">
        <ele>101.2</ele>
        <time>2013-10-11T18:16:40Z</time>
        <extensions><gpxtpx:TrackPointExtension><gpxtpx:hr>150</gpxtpx:hr></gpxtpx:TrackPointExtension></extensions>
      </trkpt>
      <trkpt lat="59.984888" lon="15.8275113">
        <ele>101.2</ele>
        <time>2013-10-11T18:16:41Z</time>
        <extensions><gpxtpx:TrackPointExtension><gpxtpx:hr>150</gpxtpx:hr></gpxtpx:TrackPointExtension></extensions>
      </trkpt>
      <trkpt lat="59.9848867" lon="15.8275204">
        <ele>101.2</ele>
        <time>2013-10-11T18:16:42Z</time>
        <extensions><gpxtpx:TrackPointExtension><gpxtpx:hr>150</gpxtpx:hr></gpxtpx:TrackPointExtension></extensions>
      </trkpt>
      <trkpt lat="59.9848846" lon="15.8275275">
        <ele>101.2</ele>
        <time>2013-10-11T18:16:43Z</time>
        <extensions><gpxtpx:TrackPointExtension><gpxtpx:hr>150</gpxtpx:hr></gpxtpx:TrackPointExtension></extensions>
      </trkpt>
      <trkpt lat="59.9848833" lon="15.8275292">
        <ele>101.2</ele>
        <time>2013-10-11T18:16:44Z</time>
        <extensions><gpxtpx:TrackPointExtension><gpxtpx:hr>150</gpxtpx:hr></gpxtpx:TrackPointExtension></extensions>
      </trkpt>
      <trkpt lat="59.9848643" lon="15.8275023">
        <ele>101.2</ele>
        <time>2013-10-11T18:16:45Z</time>
        <extensions><gpxtpx:TrackPointExtension><gpxtpx:hr>150</gpxtpx:hr></gpxtpx:TrackPointExtension></extensions>
      </trkpt>
      <trkpt lat="59.9848606" lon="15.8275143">
        <ele>101.2</ele>
        <time>2013-10-11T18:16:46Z</time>
        <extensions><gpxtpx:TrackPointExtension><gpxtpx:hr>149</gpxtpx:hr></gpxtpx:TrackPointExtension></extensions>
      </trkpt>
      <trkpt lat="59.9848598" lon="15.8275178">
        <ele>101.2</ele>
        <time>2013-10-11T18:16:47Z</time>
        <extensions><gpxtpx:TrackPointExtension><gpxtpx:hr>150</gpxtpx:hr></gpxtpx:TrackPointExtension></extensions>
      </trkpt>
      <trkpt lat="59.9846928" lon="15.8279099">
        <ele>101.2</ele>
        <time>2013-10-11T18:17:24Z</time>
        <extensions><gpxtpx:TrackPointExtension><gpxtpx:hr>150</gpxtpx:hr></gpxtpx:TrackPointExtension></extensions>
      </trkpt>
      <trkpt lat="59.9847048" lon="15.8279267">
        <ele>101.2</ele>
        <time>2013-10-11T18:17:28Z</time>
        <extensions><gpxtpx:TrackPointExtension><gpxtpx:hr>150</gpxtpx:hr></gpxtpx:TrackPointExtension></extensions>
      </trkpt>
      <trkpt lat="59.9847222" lon="15.8277623">
        <ele>101.2</ele>
        <time>2013-10-11T18:17:29Z</time>
        <extensions><gpxtpx:TrackPointExtension><gpxtpx:hr>150</gpxtpx:hr></gpxtpx:TrackPointExtension></extensions>
      </trkpt>
      <trkpt lat="59.9847158" lon="15.8277951">
        <ele>101.2</ele>
        <time>2013-10-11T18:17:30Z</time>
        <extensions><gpxtpx:TrackPointExtension><gpxtpx:hr>150</gpxtpx:hr></gpxtpx:TrackPointExtension></extensions>
      </trkpt>
      <trkpt lat="59.9847133" lon="15.827805">
        <ele>101.2</ele>
        <time>2013-10-11T18:17:31Z</time>
        <extensions><gpxtpx:TrackPointExtension><gpxtpx:hr>150</gpxtpx:hr></gpxtpx:TrackPointExtension></extensions>
      </trkpt>
      <trkpt lat="59.9847119" lon="15.8278037">
        <ele>101.2</ele>
        <time>2013-10-11T18:17:33Z</time>
        <extensions><gpxtpx:TrackPointExtension><gpxtpx:hr>150</gpxtpx:hr></gpxtpx:TrackPointExtension></extensions>
      </trkpt>
      <trkpt lat="59.9847285" lon="15.8277656">
        <ele>101.2</ele>
        <time>2013-10-11T18:17:34Z</time>
        <extensions><gpxtpx:TrackPointExtension><gpxtpx:hr>149</gpxtpx:hr></gpxtpx:TrackPointExtension></extensions>
      </trkpt>
      <trkpt lat="59.9847342" lon="15.8277423">
        <ele>101.2</ele>
        <time>2013-10-11T18:17:35Z</time>
        <extensions><gpxtpx:TrackPointExtension><gpxtpx:hr>149</gpxtpx:hr></gpxtpx:TrackPointExtension></extensions>
      </trkpt>
      <trkpt lat="59.984742" lon="15.8277255">
        <ele>101.2</ele>
        <time>2013-10-11T18:17:36Z</time>
        <extensions><gpxtpx:TrackPointExtension><gpxtpx:hr>149</gpxtpx:hr></gpxtpx:TrackPointExtension></extensions>
      </trkpt>
      <trkpt lat="59.9847488" lon="15.8277134">
        <ele>101.2</ele>
        <time>2013-10-11T18:17:37Z</time>
        <extensions><gpxtpx:TrackPointExtension><gpxtpx:hr>149</gpxtpx:hr></gpxtpx:TrackPointExtension></extensions>
      </trkpt>
      <trkpt lat="59.9847604" lon="15.827689">
        <ele>101.2</ele>
        <time>2013-10-11T18:17:38Z</time>
        <extensions><gpxtpx:TrackPointExtension><gpxtpx:hr>149</gpxtpx:hr></gpxtpx:TrackPointExtension></extensions>
      </trkpt>
      <trkpt lat="59.9847663" lon="15.8276668">
        <ele>101.2</ele>
        <time>2013-10-11T18:17:39Z</time>
        <extensions><gpxtpx:TrackPointExtension><gpxtpx:hr>149</gpxtpx:hr></gpxtpx:TrackPointExtension></extensions>
      </trkpt>
      <trkpt lat="59.9847672" lon="15.8276551">
        <ele>101.2</ele>
        <time>2013-10-11T18:17:40Z</time>
        <extensions><gpxtpx:TrackPointExtension><gpxtpx:hr>149</gpxtpx:hr></gpxtpx:TrackPointExtension></extensions>
      </trkpt>
      <trkpt lat="59.9847687" lon="15.8276471">
        <ele>101.2</ele>
        <time>2013-10-11T18:17:41Z</time>
        <extensions><gpxtpx:TrackPointExtension><gpxtpx:hr>149</gpxtpx:hr></gpxtpx:TrackPointExtension></extensions>
      </trkpt>
      <trkpt lat="59.9847726" lon="15.8276435">
        <ele>101.2</ele>
        <time>2013-10-11T18:17:42Z</time>
        <extensions><gpxtpx:TrackPointExtension><gpxtpx:hr>149</gpxtpx:hr></gpxtpx:TrackPointExtension></extensions>
      </trkpt>
      <trkpt lat="59.9847814" lon="15.8276424">
        <ele>101.2</ele>
        <time>2013-10-11T18:17:44Z</time>
        <extensions><gpxtpx:TrackPointExtension><gpxtpx:hr>149</gpxtpx:hr></gpxtpx:TrackPointExtension></extensions>
      </trkpt>
      <trkpt lat="59.9847839" lon="15.8276431">
        <ele>101.2</ele>
        <time>2013-10-11T18:17:45Z</time>
        <extensions><gpxtpx:TrackPointExtension><gpxtpx:hr>150</gpxtpx:hr></gpxtpx:TrackPointExtension></extensions>
      </trkpt>
      <trkpt lat="59.9847897" lon="15.827635">
        <ele>101.2</ele>
        <time>2013-10-11T18:17:48Z</time>
        <extensions><gpxtpx:TrackPointExtension><gpxtpx:hr>150</gpxtpx:hr></gpxtpx:TrackPointExtension></extensions>
      </trkpt>
      <trkpt lat="59.9847909" lon="15.8276266">
        <ele>101.2</ele>
        <time>2013-10-11T18:17:49Z</time>
        <extensions><gpxtpx:TrackPointExtension><gpxtpx:hr>150</gpxtpx:hr></gpxtpx:TrackPointExtension></extensions>
      </trkpt>
      <trkpt lat="59.9848031" lon="15.8276123">
        <ele>101.2</ele>
        <time>2013-10-11T18:17:50Z</time>
        <extensions><gpxtpx:TrackPointExtension><gpxtpx:hr>150</gpxtpx:hr></gpxtpx:TrackPointExtension></extensions>
      </trkpt>
      <trkpt lat="59.9848005" lon="15.8275919">
        <ele>101.2</ele>
        <time>2013-10-11T18:17:51Z</time>
        <extensions><gpxtpx:TrackPointExtension><gpxtpx:hr>150</gpxtpx:hr></gpxtpx:TrackPointExtension></extensions>
      </trkpt>
      <trkpt lat="59.9848094" lon="15.8275742">
        <ele>101.2</ele>
        <time>2013-10-11T18:17:53Z</time>
        <extensions><gpxtpx:TrackPointExtension><gpxtpx:hr>149</gpxtpx:hr></gpxtpx:TrackPointExtension></extensions>
      </trkpt>
      <trkpt lat="59.9848192" lon="15.8275659">
        <ele>101.2</ele>
        <time>2013-10-11T18:17:54Z</time>
        <extensions><gpxtpx:TrackPointExtension><gpxtpx:hr>149</gpxtpx:hr></gpxtpx:TrackPointExtension></extensions>
      </trkpt>
      <trkpt lat="59.9848303" lon="15.8275644">
        <ele>101.2</ele>
        <time>2013-10-11T18:17:55Z</time>
        <extensions><gpxtpx:TrackPointExtension><gpxtpx:hr>149</gpxtpx:hr></gpxtpx:TrackPointExtension></extensions>
      </trkpt>
      <trkpt lat="59.9848345" lon="15.8275602">
        <ele>101.2</ele>
        <time>2013-10-11T18:17:56Z</time>
        <extensions><gpxtpx:TrackPointExtension><gpxtpx:hr>148</gpxtpx:hr></gpxtpx:TrackPointExtension></extensions>
      </trkpt>
      <trkpt lat="59.9848383" lon="15.82756">
        <ele>101.2</ele>
        <time>2013-10-11T18:17:57Z</time>
        <extensions><gpxtpx:TrackPointExtension><gpxtpx:hr>148</gpxtpx:hr></gpxtpx:TrackPointExtension></extensions>
      </trkpt>
      <trkpt lat="59.9848424" lon="15.8275514">
        <ele>101.2</ele>
        <time>2013-10-11T18:17:58Z</time>
        <extensions><gpxtpx:TrackPointExtension><gpxtpx:hr>148</gpxtpx:hr></gpxtpx:TrackPointExtension></extensions>
      </trkpt>
      <trkpt lat="59.9848443" lon="15.8275488">
        <ele>101.2</ele>
        <time>2013-10-11T18:17:59Z</time>
        <extensions><gpxtpx:TrackPointExtension><gpxtpx:hr>148</gpxtpx:hr></gpxtpx:TrackPointExtension></extensions>
      </trkpt>
      <trkpt lat="59.9848455" lon="15.8275431">
        <ele>101.2</ele>
        <time>2013-10-11T18:18:00Z</time>
        <extensions><gpxtpx:TrackPointExtension><gpxtpx:hr>148</gpxtpx:hr></gpxtpx:TrackPointExtension></extensions>
      </trkpt>
      <trkpt lat="59.9848444" lon="15.8275389">
        <ele>101.2</ele>
        <time>2013-10-11T18:18:01Z</time>
        <extensions><gpxtpx:TrackPointExtension><gpxtpx:hr>148</gpxtpx:hr></gpxtpx:TrackPointExtension></extensions>
      </trkpt>
      <trkpt lat="59.9848424" lon="15.8275362">
        <ele>101.2</ele>
        <time>2013-10-11T18:18:02Z</time>
        <extensions><gpxtpx:TrackPointExtension><gpxtpx:hr>148</gpxtpx:hr></gpxtpx:TrackPointExtension></extensions>
      </trkpt>
      <trkpt lat="59.9848392" lon="15.8275332">
        <ele>101.2</ele>
        <time>2013-10-11T18:18:03Z</time>
        <extensions><gpxtpx:TrackPointExtension><gpxtpx:hr>148</gpxtpx:hr></gpxtpx:TrackPointExtension></extensions>
      </trkpt>
      <trkpt lat="59.9848352" lon="15.8275303">
        <ele>101.2</ele>
        <time>2013-10-11T18:18:04Z</time>
        <extensions><gpxtpx:TrackPointExtension><gpxtpx:hr>148</gpxtpx:hr></gpxtpx:TrackPointExtension></extensions>
      </trkpt>
      <trkpt lat="59.9848309" lon="15.8275292">
        <ele>101.2</ele>
        <time>2013-10-11T18:18:05Z</time>
        <extensions><gpxtpx:TrackPointExtension><gpxtpx:hr>149</gpxtpx:hr></gpxtpx:TrackPointExtension></extensions>
      </trkpt>
      <trkpt lat="59.9848289" lon="15.8275331">
        <ele>101.2</ele>
        <time>2013-10-11T18:18:06Z</time>
        <extensions><gpxtpx:TrackPointExtension><gpxtpx:hr>149</gpxtpx:hr></gpxtpx:TrackPointExtension></extensions>
      </trkpt>
      <trkpt lat="59.9848277" lon="15.8275385">
        <ele>101.2</ele>
        <time>2013-10-11T18:18:07Z</time>
        <extensions><gpxtpx:TrackPointExtension><gpxtpx:hr>149</gpxtpx:hr></gpxtpx:TrackPointExtension></extensions>
      </trkpt>
      <trkpt lat="59.9848258" lon="15.8275424">
        <ele>101.2</ele>
        <time>2013-10-11T18:18:09Z</time>
        <extensions><gpxtpx:TrackPointExtension><gpxtpx:hr>149</gpxtpx:hr></gpxtpx:TrackPointExtension></extensions>
      </trkpt>
      <trkpt lat="59.9848202" lon="15.8276198">
        <ele>101.2</ele>
        <time>2013-10-11T18:18:10Z</time>
        <extensions><gpxtpx:TrackPointExtension><gpxtpx:hr>149</gpxtpx:hr></gpxtpx:TrackPointExtension></extensions>
      </trkpt>
      <trkpt lat="59.9848191" lon="15.8276121">
        <ele>101.2</ele>
        <time>2013-10-11T18:18:11Z</time>
        <extensions><gpxtpx:TrackPointExtension><gpxtpx:hr>149</gpxtpx:hr></gpxtpx:TrackPointExtension></extensions>
      </trkpt>
      <trkpt lat="59.9848177" lon="15.8276014">
        <ele>101.2</ele>
        <time>2013-10-11T18:18:12Z</time>
        <extensions><gpxtpx:TrackPointExtension><gpxtpx:hr>149</gpxtpx:hr></gpxtpx:TrackPointExtension></extensions>
      </trkpt>
      <trkpt lat="59.984816" lon="15.8275927">
        <ele>101.2</ele>
        <time>2013-10-11T18:18:13Z</time>
        <extensions><gpxtpx:TrackPointExtension><gpxtpx:hr>149</gpxtpx:hr></gpxtpx:TrackPointExtension></extensions>
      </trkpt>
      <trkpt lat="59.9848145" lon="15.8275855">
        <ele>101.2</ele>
        <time>2013-10-11T18:18:14Z</time>
        <extensions><gpxtpx:TrackPointExtension><gpxtpx:hr>149</gpxtpx:hr></gpxtpx:TrackPointExtension></extensions>
      </trkpt>
      <trkpt lat="59.9848134" lon="15.8275822">
        <ele>101.2</ele>
        <time>2013-10-11T18:18:15Z</time>
        <extensions><gpxtpx:TrackPointExtension><gpxtpx:hr>149</gpxtpx:hr></gpxtpx:TrackPointExtension></extensions>
      </trkpt>
      <trkpt lat="59.9848126" lon="15.8275825">
        <ele>101.2</ele>
        <time>2013-10-11T18:18:16Z</time>
        <extensions><gpxtpx:TrackPointExtension><gpxtpx:hr>150</gpxtpx:hr></gpxtpx:TrackPointExtension></extensions>
      </trkpt>
      <trkpt lat="59.984812" lon="15.8275868">
        <ele>101.2</ele>
        <time>2013-10-11T18:18:17Z</time>
        <extensions><gpxtpx:TrackPointExtension><gpxtpx:hr>150</gpxtpx:hr></gpxtpx:TrackPointExtension></extensions>
      </trkpt>
      <trkpt lat="59.9848102" lon="15.827594">
        <ele>101.2</ele>
        <time>2013-10-11T18:18:18Z</time>
        <extensions><gpxtpx:TrackPointExtension><gpxtpx:hr>150</gpxtpx:hr></gpxtpx:TrackPointExtension></extensions>
      </trkpt>
      <trkpt lat="59.9848065" lon="15.8276281">
        <ele>101.2</ele>
        <time>2013-10-11T18:18:19Z</time>
        <extensions><gpxtpx:TrackPointExtension><gpxtpx:hr>150</gpxtpx:hr></gpxtpx:TrackPointExtension></extensions>
      </trkpt>
      <trkpt lat="59.9848026" lon="15.8276353">
        <ele>101.2</ele>
        <time>2013-10-11T18:18:20Z</time>
        <extensions><gpxtpx:TrackPointExtension><gpxtpx:hr>150</gpxtpx:hr></gpxtpx:TrackPointExtension></extensions>
      </trkpt>
      <trkpt lat="59.9847978" lon="15.8276373">
        <ele>101.2</ele>
        <time>2013-10-11T18:18:21Z</time>
        <extensions><gpxtpx:TrackPointExtension><gpxtpx:hr>150</gpxtpx:hr></gpxtpx:TrackPointExtension></extensions>
      </trkpt>
      <trkpt lat="59.9847924" lon="15.8276363">
        <ele>101.2</ele>
        <time>2013-10-11T18:18:22Z</time>
        <extensions><gpxtpx:TrackPointExtension><gpxtpx:hr>150</gpxtpx:hr></gpxtpx:TrackPointExtension></extensions>
      </trkpt>
      <trkpt lat="59.9847696" lon="15.827634">
        <ele>101.2</ele>
        <time>2013-10-11T18:18:23Z</time>
        <extensions><gpxtpx:TrackPointExtension><gpxtpx:hr>150</gpxtpx:hr></gpxtpx:TrackPointExtension></extensions>
      </trkpt>
      <trkpt lat="59.9847638" lon="15.8276385">
        <ele>101.2</ele>
        <time>2013-10-11T18:18:25Z</time>
        <extensions><gpxtpx:TrackPointExtension><gpxtpx:hr>150</gpxtpx:hr></gpxtpx:TrackPointExtension></extensions>
      </trkpt>
      <trkpt lat="59.9847641" lon="15.8276368">
        <ele>101.2</ele>
        <time>2013-10-11T18:18:26Z</time>
        <extensions><gpxtpx:TrackPointExtension><gpxtpx:hr>150</gpxtpx:hr></gpxtpx:TrackPointExtension></extensions>
      </trkpt>
      <trkpt lat="59.9847643" lon="15.8276306">
        <ele>101.2</ele>
        <time>2013-10-11T18:18:27Z</time>
        <extensions><gpxtpx:TrackPointExtension><gpxtpx:hr>151</gpxtpx:hr></gpxtpx:TrackPointExtension></extensions>
      </trkpt>
      <trkpt lat="59.984764" lon="15.8276259">
        <ele>101.2</ele>
        <time>2013-10-11T18:18:28Z</time>
        <extensions><gpxtpx:TrackPointExtension><gpxtpx:hr>151</gpxtpx:hr></gpxtpx:TrackPointExtension></extensions>
      </trkpt>
      <trkpt lat="59.9847669" lon="15.8276235">
        <ele>101.2</ele>
        <time>2013-10-11T18:18:29Z</time>
        <extensions><gpxtpx:TrackPointExtension><gpxtpx:hr>151</gpxtpx:hr></gpxtpx:TrackPointExtension></extensions>
      </trkpt>
      <trkpt lat="59.9847756" lon="15.8276452">
        <ele>101.2</ele>
        <time>2013-10-11T18:18:30Z</time>
        <extensions><gpxtpx:TrackPointExtension><gpxtpx:hr>151</gpxtpx:hr></gpxtpx:TrackPointExtension></extensions>
      </trkpt>
      <trkpt lat="59.9847814" lon="15.8276447">
        <ele>101.2</ele>
        <time>2013-10-11T18:18:31Z</time>
        <extensions><gpxtpx:TrackPointExtension><gpxtpx:hr>151</gpxtpx:hr></gpxtpx:TrackPointExtension></extensions>
      </trkpt>
      <trkpt lat="59.9847853" lon="15.8276377">
        <ele>101.2</ele>
        <time>2013-10-11T18:18:32Z</time>
        <extensions><gpxtpx:TrackPointExtension><gpxtpx:hr>151</gpxtpx:hr></gpxtpx:TrackPointExtension></extensions>
      </trkpt>
      <trkpt lat="59.9847922" lon="15.8276277">
        <ele>101.2</ele>
        <time>2013-10-11T18:18:33Z</time>
        <extensions><gpxtpx:TrackPointExtension><gpxtpx:hr>151</gpxtpx:hr></gpxtpx:TrackPointExtension></extensions>
      </trkpt>
      <trkpt lat="59.9847979" lon="15.8276181">
        <ele>101.2</ele>
        <time>2013-10-11T18:18:34Z</time>
        <extensions><gpxtpx:TrackPointExtension><gpxtpx:hr>151</gpxtpx:hr></gpxtpx:TrackPointExtension></extensions>
      </trkpt>
      <trkpt lat="59.984783" lon="15.8276126">
        <ele>101.2</ele>
        <time>2013-10-11T18:18:35Z</time>
        <extensions><gpxtpx:TrackPointExtension><gpxtpx:hr>150</gpxtpx:hr></gpxtpx:TrackPointExtension></extensions>
      </trkpt>
      <trkpt lat="59.9847747" lon="15.8276061">
        <ele>101.2</ele>
        <time>2013-10-11T18:18:36Z</time>
        <extensions><gpxtpx:TrackPointExtension><gpxtpx:hr>151</gpxtpx:hr></gpxtpx:TrackPointExtension></extensions>
      </trkpt>
      <trkpt lat="59.984773" lon="15.827595">
        <ele>101.2</ele>
        <time>2013-10-11T18:18:37Z</time>
        <extensions><gpxtpx:TrackPointExtension><gpxtpx:hr>150</gpxtpx:hr></gpxtpx:TrackPointExtension></extensions>
      </trkpt>
      <trkpt lat="59.9847721" lon="15.8275847">
        <ele>101.2</ele>
        <time>2013-10-11T18:18:38Z</time>
        <extensions><gpxtpx:TrackPointExtension><gpxtpx:hr>150</gpxtpx:hr></gpxtpx:TrackPointExtension></extensions>
      </trkpt>
      <trkpt lat="59.9847702" lon="15.8275773">
        <ele>101.2</ele>
        <time>2013-10-11T18:18:39Z</time>
        <extensions><gpxtpx:TrackPointExtension><gpxtpx:hr>150</gpxtpx:hr></gpxtpx:TrackPointExtension></extensions>
      </trkpt>
      <trkpt lat="59.9847668" lon="15.8275718">
        <ele>101.2</ele>
        <time>2013-10-11T18:18:40Z</time>
        <extensions><gpxtpx:TrackPointExtension><gpxtpx:hr>149</gpxtpx:hr></gpxtpx:TrackPointExtension></extensions>
      </trkpt>
      <trkpt lat="59.9847626" lon="15.8275701">
        <ele>101.2</ele>
        <time>2013-10-11T18:18:41Z</time>
        <extensions><gpxtpx:TrackPointExtension><gpxtpx:hr>148</gpxtpx:hr></gpxtpx:TrackPointExtension></extensions>
      </trkpt>
      <trkpt lat="59.9847587" lon="15.8276233">
        <ele>101.2</ele>
        <time>2013-10-11T18:18:43Z</time>
        <extensions><gpxtpx:TrackPointExtension><gpxtpx:hr>147</gpxtpx:hr></gpxtpx:TrackPointExtension></extensions>
      </trkpt>
      <trkpt lat="59.9847535" lon="15.8276324">
        <ele>101.2</ele>
        <time>2013-10-11T18:18:44Z</time>
        <extensions><gpxtpx:TrackPointExtension><gpxtpx:hr>147</gpxtpx:hr></gpxtpx:TrackPointExtension></extensions>
      </trkpt>
      <trkpt lat="59.9847487" lon="15.827646">
        <ele>101.2</ele>
        <time>2013-10-11T18:18:45Z</time>
        <extensions><gpxtpx:TrackPointExtension><gpxtpx:hr>146</gpxtpx:hr></gpxtpx:TrackPointExtension></extensions>
      </trkpt>
      <trkpt lat="59.9847415" lon="15.8276487">
        <ele>101.2</ele>
        <time>2013-10-11T18:18:48Z</time>
        <extensions><gpxtpx:TrackPointExtension><gpxtpx:hr>146</gpxtpx:hr></gpxtpx:TrackPointExtension></extensions>
      </trkpt>
      <trkpt lat="59.9847444" lon="15.8276473">
        <ele>101.2</ele>
        <time>2013-10-11T18:18:49Z</time>
        <extensions><gpxtpx:TrackPointExtension><gpxtpx:hr>146</gpxtpx:hr></gpxtpx:TrackPointExtension></extensions>
      </trkpt>
      <trkpt lat="59.9847689" lon="15.8276508">
        <ele>101.2</ele>
        <time>2013-10-11T18:18:50Z</time>
        <extensions><gpxtpx:TrackPointExtension><gpxtpx:hr>146</gpxtpx:hr></gpxtpx:TrackPointExtension></extensions>
      </trkpt>
      <trkpt lat="59.9847854" lon="15.8276533">
        <ele>101.2</ele>
        <time>2013-10-11T18:18:51Z</time>
        <extensions><gpxtpx:TrackPointExtension><gpxtpx:hr>147</gpxtpx:hr></gpxtpx:TrackPointExtension></extensions>
      </trkpt>
      <trkpt lat="59.9847971" lon="15.8276586">
        <ele>101.2</ele>
        <time>2013-10-11T18:18:52Z</time>
        <extensions><gpxtpx:TrackPointExtension><gpxtpx:hr>147</gpxtpx:hr></gpxtpx:TrackPointExtension></extensions>
      </trkpt>
      <trkpt lat="59.9848051" lon="15.8276664">
        <ele>101.2</ele>
        <time>2013-10-11T18:18:53Z</time>
        <extensions><gpxtpx:TrackPointExtension><gpxtpx:hr>147</gpxtpx:hr></gpxtpx:TrackPointExtension></extensions>
      </trkpt>
      <trkpt lat="59.984806" lon="15.8276688">
        <ele>101.2</ele>
        <time>2013-10-11T18:18:54Z</time>
        <extensions><gpxtpx:TrackPointExtension><gpxtpx:hr>147</gpxtpx:hr></gpxtpx:TrackPointExtension></extensions>
      </trkpt>
      <trkpt lat="59.9848036" lon="15.8276743">
        <ele>101.2</ele>
        <time>2013-10-11T18:18:55Z</time>
        <extensions><gpxtpx:TrackPointExtension><gpxtpx:hr>147</gpxtpx:hr></gpxtpx:TrackPointExtension></extensions>
      </trkpt>
      <trkpt lat="59.9848008" lon="15.8276795">
        <ele>101.2</ele>
        <time>2013-10-11T18:18:56Z</time>
        <extensions><gpxtpx:TrackPointExtension><gpxtpx:hr>147</gpxtpx:hr></gpxtpx:TrackPointExtension></extensions>
      </trkpt>
      <trkpt lat="59.9847978" lon="15.8276769">
        <ele>101.2</ele>
        <time>2013-10-11T18:18:57Z</time>
        <extensions><gpxtpx:TrackPointExtension><gpxtpx:hr>148</gpxtpx:hr></gpxtpx:TrackPointExtension></extensions>
      </trkpt>
      <trkpt lat="59.9847962" lon="15.8276751">
        <ele>101.2</ele>
        <time>2013-10-11T18:18:58Z</time>
        <extensions><gpxtpx:TrackPointExtension><gpxtpx:hr>148</gpxtpx:hr></gpxtpx:TrackPointExtension></extensions>
      </trkpt>
      <trkpt lat="59.9847972" lon="15.8276745">
        <ele>101.2</ele>
        <time>2013-10-11T18:18:59Z</time>
        <extensions><gpxtpx:TrackPointExtension><gpxtpx:hr>148</gpxtpx:hr></gpxtpx:TrackPointExtension></extensions>
      </trkpt>
      <trkpt lat="59.9847994" lon="15.8276741">
        <ele>101.2</ele>
        <time>2013-10-11T18:19:00Z</time>
        <extensions><gpxtpx:TrackPointExtension><gpxtpx:hr>148</gpxtpx:hr></gpxtpx:TrackPointExtension></extensions>
      </trkpt>
      <trkpt lat="59.9847993" lon="15.8276783">
        <ele>101.2</ele>
        <time>2013-10-11T18:19:02Z</time>
        <extensions><gpxtpx:TrackPointExtension><gpxtpx:hr>149</gpxtpx:hr></gpxtpx:TrackPointExtension></extensions>
      </trkpt>
      <trkpt lat="59.9848086" lon="15.8277353">
        <ele>101.2</ele>
        <time>2013-10-11T18:19:06Z</time>
        <extensions><gpxtpx:TrackPointExtension><gpxtpx:hr>149</gpxtpx:hr></gpxtpx:TrackPointExtension></extensions>
      </trkpt>
      <trkpt lat="59.9848031" lon="15.8277347">
        <ele>101.2</ele>
        <time>2013-10-11T18:19:07Z</time>
        <extensions><gpxtpx:TrackPointExtension><gpxtpx:hr>149</gpxtpx:hr></gpxtpx:TrackPointExtension></extensions>
      </trkpt>
      <trkpt lat="59.9847994" lon="15.8277328">
        <ele>101.2</ele>
        <time>2013-10-11T18:19:08Z</time>
        <extensions><gpxtpx:TrackPointExtension><gpxtpx:hr>149</gpxtpx:hr></gpxtpx:TrackPointExtension></extensions>
      </trkpt>
      <trkpt lat="59.9848014" lon="15.8277382">
        <ele>101.2</ele>
        <time>2013-10-11T18:19:09Z</time>
        <extensions><gpxtpx:TrackPointExtension><gpxtpx:hr>150</gpxtpx:hr></gpxtpx:TrackPointExtension></extensions>
      </trkpt>
      <trkpt lat="59.9848016" lon="15.8277452">
        <ele>101.2</ele>
        <time>2013-10-11T18:19:10Z</time>
        <extensions><gpxtpx:TrackPointExtension><gpxtpx:hr>149</gpxtpx:hr></gpxtpx:TrackPointExtension></extensions>
      </trkpt>
      <trkpt lat="59.9848015" lon="15.8277522">
        <ele>101.2</ele>
        <time>2013-10-11T18:19:11Z</time>
        <extensions><gpxtpx:TrackPointExtension><gpxtpx:hr>150</gpxtpx:hr></gpxtpx:TrackPointExtension></extensions>
      </trkpt>
      <trkpt lat="59.9848098" lon="15.8277688">
        <ele>101.2</ele>
        <time>2013-10-11T18:19:12Z</time>
        <extensions><gpxtpx:TrackPointExtension><gpxtpx:hr>149</gpxtpx:hr></gpxtpx:TrackPointExtension></extensions>
      </trkpt>
      <trkpt lat="59.9847666" lon="15.8277766">
        <ele>101.2</ele>
        <time>2013-10-11T18:19:16Z</time>
        <extensions><gpxtpx:TrackPointExtension><gpxtpx:hr>149</gpxtpx:hr></gpxtpx:TrackPointExtension></extensions>
      </trkpt>
      <trkpt lat="59.9847723" lon="15.8277726">
        <ele>101.2</ele>
        <time>2013-10-11T18:19:17Z</time>
        <extensions><gpxtpx:TrackPointExtension><gpxtpx:hr>150</gpxtpx:hr></gpxtpx:TrackPointExtension></extensions>
      </trkpt>
      <trkpt lat="59.9847954" lon="15.8277875">
        <ele>101.2</ele>
        <time>2013-10-11T18:19:23Z</time>
        <extensions><gpxtpx:TrackPointExtension><gpxtpx:hr>151</gpxtpx:hr></gpxtpx:TrackPointExtension></extensions>
      </trkpt>
      <trkpt lat="59.9847938" lon="15.8277956">
        <ele>101.2</ele>
        <time>2013-10-11T18:19:24Z</time>
        <extensions><gpxtpx:TrackPointExtension><gpxtpx:hr>151</gpxtpx:hr></gpxtpx:TrackPointExtension></extensions>
      </trkpt>
      <trkpt lat="59.9847896" lon="15.8278012">
        <ele>101.2</ele>
        <time>2013-10-11T18:19:25Z</time>
        <extensions><gpxtpx:TrackPointExtension><gpxtpx:hr>151</gpxtpx:hr></gpxtpx:TrackPointExtension></extensions>
      </trkpt>
      <trkpt lat="59.9847864" lon="15.8278031">
        <ele>101.2</ele>
        <time>2013-10-11T18:19:26Z</time>
        <extensions><gpxtpx:TrackPointExtension><gpxtpx:hr>151</gpxtpx:hr></gpxtpx:TrackPointExtension></extensions>
      </trkpt>
      <trkpt lat="59.9847854" lon="15.8278017">
        <ele>101.2</ele>
        <time>2013-10-11T18:19:27Z</time>
        <extensions><gpxtpx:TrackPointExtension><gpxtpx:hr>151</gpxtpx:hr></gpxtpx:TrackPointExtension></extensions>
      </trkpt>
      <trkpt lat="59.9847886" lon="15.8277975">
        <ele>101.2</ele>
        <time>2013-10-11T18:19:28Z</time>
        <extensions><gpxtpx:TrackPointExtension><gpxtpx:hr>151</gpxtpx:hr></gpxtpx:TrackPointExtension></extensions>
      </trkpt>
      <trkpt lat="59.9847863" lon="15.8277915">
        <ele>101.2</ele>
        <time>2013-10-11T18:19:29Z</time>
        <extensions><gpxtpx:TrackPointExtension><gpxtpx:hr>151</gpxtpx:hr></gpxtpx:TrackPointExtension></extensions>
      </trkpt>
      <trkpt lat="59.9847936" lon="15.8277752">
        <ele>101.2</ele>
        <time>2013-10-11T18:19:30Z</time>
        <extensions><gpxtpx:TrackPointExtension><gpxtpx:hr>151</gpxtpx:hr></gpxtpx:TrackPointExtension></extensions>
      </trkpt>
      <trkpt lat="59.9847984" lon="15.8277607">
        <ele>101.2</ele>
        <time>2013-10-11T18:19:31Z</time>
        <extensions><gpxtpx:TrackPointExtension><gpxtpx:hr>151</gpxtpx:hr></gpxtpx:TrackPointExtension></extensions>
      </trkpt>
      <trkpt lat="59.9848056" lon="15.8277607">
        <ele>101.2</ele>
        <time>2013-10-11T18:19:32Z</time>
        <extensions><gpxtpx:TrackPointExtension><gpxtpx:hr>151</gpxtpx:hr></gpxtpx:TrackPointExtension></extensions>
      </trkpt>
      <trkpt lat="59.9848152" lon="15.8277602">
        <ele>101.2</ele>
        <time>2013-10-11T18:19:33Z</time>
        <extensions><gpxtpx:TrackPointExtension><gpxtpx:hr>151</gpxtpx:hr></gpxtpx:TrackPointExtension></extensions>
      </trkpt>
      <trkpt lat="59.9848157" lon="15.8277723">
        <ele>101.2</ele>
        <time>2013-10-11T18:19:34Z</time>
        <extensions><gpxtpx:TrackPointExtension><gpxtpx:hr>151</gpxtpx:hr></gpxtpx:TrackPointExtension></extensions>
      </trkpt>
      <trkpt lat="59.9848238" lon="15.8277698">
        <ele>101.2</ele>
        <time>2013-10-11T18:19:35Z</time>
        <extensions><gpxtpx:TrackPointExtension><gpxtpx:hr>152</gpxtpx:hr></gpxtpx:TrackPointExtension></extensions>
      </trkpt>
      <trkpt lat="59.9848288" lon="15.827764">
        <ele>101.2</ele>
        <time>2013-10-11T18:19:36Z</time>
        <extensions><gpxtpx:TrackPointExtension><gpxtpx:hr>152</gpxtpx:hr></gpxtpx:TrackPointExtension></extensions>
      </trkpt>
      <trkpt lat="59.9848262" lon="15.8277562">
        <ele>101.2</ele>
        <time>2013-10-11T18:19:38Z</time>
        <extensions><gpxtpx:TrackPointExtension><gpxtpx:hr>152</gpxtpx:hr></gpxtpx:TrackPointExtension></extensions>
      </trkpt>
      <trkpt lat="59.9848186" lon="15.8277576">
        <ele>101.2</ele>
        <time>2013-10-11T18:19:42Z</time>
        <extensions><gpxtpx:TrackPointExtension><gpxtpx:hr>151</gpxtpx:hr></gpxtpx:TrackPointExtension></extensions>
      </trkpt>
      <trkpt lat="59.9848129" lon="15.8277597">
        <ele>101.2</ele>
        <time>2013-10-11T18:19:43Z</time>
        <extensions><gpxtpx:TrackPointExtension><gpxtpx:hr>151</gpxtpx:hr></gpxtpx:TrackPointExtension></extensions>
      </trkpt>
      <trkpt lat="59.984811" lon="15.8277617">
        <ele>101.2</ele>
        <time>2013-10-11T18:19:44Z</time>
        <extensions><gpxtpx:TrackPointExtension><gpxtpx:hr>151</gpxtpx:hr></gpxtpx:TrackPointExtension></extensions>
      </trkpt>
      <trkpt lat="59.9848129" lon="15.8277637">
        <ele>101.2</ele>
        <time>2013-10-11T18:19:45Z</time>
        <extensions><gpxtpx:TrackPointExtension><gpxtpx:hr>151</gpxtpx:hr></gpxtpx:TrackPointExtension></extensions>
      </trkpt>
      <trkpt lat="59.9848138" lon="15.8277689">
        <ele>101.2</ele>
        <time>2013-10-11T18:19:46Z</time>
        <extensions><gpxtpx:TrackPointExtension><gpxtpx:hr>150</gpxtpx:hr></gpxtpx:TrackPointExtension></extensions>
      </trkpt>
      <trkpt lat="59.9847347" lon="15.8278115">
        <ele>101.2</ele>
        <time>2013-10-11T18:19:47Z</time>
        <extensions><gpxtpx:TrackPointExtension><gpxtpx:hr>150</gpxtpx:hr></gpxtpx:TrackPointExtension></extensions>
      </trkpt>
      <trkpt lat="59.9847275" lon="15.8278233">
        <ele>101.2</ele>
        <time>2013-10-11T18:19:48Z</time>
        <extensions><gpxtpx:TrackPointExtension><gpxtpx:hr>151</gpxtpx:hr></gpxtpx:TrackPointExtension></extensions>
      </trkpt>
      <trkpt lat="59.9847448" lon="15.8278062">
        <ele>101.2</ele>
        <time>2013-10-11T18:19:52Z</time>
        <extensions><gpxtpx:TrackPointExtension><gpxtpx:hr>151</gpxtpx:hr></gpxtpx:TrackPointExtension></extensions>
      </trkpt>
      <trkpt lat="59.9847518" lon="15.8278008">
        <ele>101.2</ele>
        <time>2013-10-11T18:19:53Z</time>
        <extensions><gpxtpx:TrackPointExtension><gpxtpx:hr>151</gpxtpx:hr></gpxtpx:TrackPointExtension></extensions>
      </trkpt>
      <trkpt lat="59.9847506" lon="15.8278001">
        <ele>101.2</ele>
        <time>2013-10-11T18:19:54Z</time>
        <extensions><gpxtpx:TrackPointExtension><gpxtpx:hr>151</gpxtpx:hr></gpxtpx:TrackPointExtension></extensions>
      </trkpt>
      <trkpt lat="59.9847451" lon="15.8278042">
        <ele>101.2</ele>
        <time>2013-10-11T18:19:55Z</time>
        <extensions><gpxtpx:TrackPointExtension><gpxtpx:hr>151</gpxtpx:hr></gpxtpx:TrackPointExtension></extensions>
      </trkpt>
      <trkpt lat="59.9847176" lon="15.8277653">
        <ele>101.2</ele>
        <time>2013-10-11T18:19:56Z</time>
        <extensions><gpxtpx:TrackPointExtension><gpxtpx:hr>151</gpxtpx:hr></gpxtpx:TrackPointExtension></extensions>
      </trkpt>
      <trkpt lat="59.9847081" lon="15.8277373">
        <ele>101.2</ele>
        <time>2013-10-11T18:19:57Z</time>
        <extensions><gpxtpx:TrackPointExtension><gpxtpx:hr>152</gpxtpx:hr></gpxtpx:TrackPointExtension></extensions>
      </trkpt>
      <trkpt lat="59.9847043" lon="15.8277213">
        <ele>101.2</ele>
        <time>2013-10-11T18:19:58Z</time>
        <extensions><gpxtpx:TrackPointExtension><gpxtpx:hr>152</gpxtpx:hr></gpxtpx:TrackPointExtension></extensions>
      </trkpt>
      <trkpt lat="59.9847047" lon="15.827713">
        <ele>101.2</ele>
        <time>2013-10-11T18:19:59Z</time>
        <extensions><gpxtpx:TrackPointExtension><gpxtpx:hr>152</gpxtpx:hr></gpxtpx:TrackPointExtension></extensions>
      </trkpt>
      <trkpt lat="59.9847084" lon="15.8277057">
        <ele>101.2</ele>
        <time>2013-10-11T18:20:00Z</time>
        <extensions><gpxtpx:TrackPointExtension><gpxtpx:hr>152</gpxtpx:hr></gpxtpx:TrackPointExtension></extensions>
      </trkpt>
      <trkpt lat="59.984716" lon="15.8276913">
        <ele>101.2</ele>
        <time>2013-10-11T18:20:02Z</time>
        <extensions><gpxtpx:TrackPointExtension><gpxtpx:hr>152</gpxtpx:hr></gpxtpx:TrackPointExtension></extensions>
      </trkpt>
      <trkpt lat="59.9847103" lon="15.8277132">
        <ele>101.2</ele>
        <time>2013-10-11T18:20:03Z</time>
        <extensions><gpxtpx:TrackPointExtension><gpxtpx:hr>152</gpxtpx:hr></gpxtpx:TrackPointExtension></extensions>
      </trkpt>
      <trkpt lat="59.9847184" lon="15.8277226">
        <ele>101.2</ele>
        <time>2013-10-11T18:20:04Z</time>
        <extensions><gpxtpx:TrackPointExtension><gpxtpx:hr>152</gpxtpx:hr></gpxtpx:TrackPointExtension></extensions>
      </trkpt>
      <trkpt lat="59.9847243" lon="15.8277519">
        <ele>101.2</ele>
        <time>2013-10-11T18:20:06Z</time>
        <extensions><gpxtpx:TrackPointExtension><gpxtpx:hr>152</gpxtpx:hr></gpxtpx:TrackPointExtension></extensions>
      </trkpt>
      <trkpt lat="59.9847267" lon="15.8277641">
        <ele>101.2</ele>
        <time>2013-10-11T18:20:07Z</time>
        <extensions><gpxtpx:TrackPointExtension><gpxtpx:hr>152</gpxtpx:hr></gpxtpx:TrackPointExtension></extensions>
      </trkpt>
      <trkpt lat="59.9847285" lon="15.8277766">
        <ele>101.2</ele>
        <time>2013-10-11T18:20:08Z</time>
        <extensions><gpxtpx:TrackPointExtension><gpxtpx:hr>152</gpxtpx:hr></gpxtpx:TrackPointExtension></extensions>
      </trkpt>
      <trkpt lat="59.984736" lon="15.8277854">
        <ele>101.2</ele>
        <time>2013-10-11T18:20:09Z</time>
        <extensions><gpxtpx:TrackPointExtension><gpxtpx:hr>152</gpxtpx:hr></gpxtpx:TrackPointExtension></extensions>
      </trkpt>
      <trkpt lat="59.9847428" lon="15.8277907">
        <ele>101.2</ele>
        <time>2013-10-11T18:20:10Z</time>
        <extensions><gpxtpx:TrackPointExtension><gpxtpx:hr>152</gpxtpx:hr></gpxtpx:TrackPointExtension></extensions>
      </trkpt>
      <trkpt lat="59.9847441" lon="15.8278016">
        <ele>101.2</ele>
        <time>2013-10-11T18:20:12Z</time>
        <extensions><gpxtpx:TrackPointExtension><gpxtpx:hr>152</gpxtpx:hr></gpxtpx:TrackPointExtension></extensions>
      </trkpt>
      <trkpt lat="59.984744" lon="15.8278053">
        <ele>101.2</ele>
        <time>2013-10-11T18:20:13Z</time>
        <extensions><gpxtpx:TrackPointExtension><gpxtpx:hr>152</gpxtpx:hr></gpxtpx:TrackPointExtension></extensions>
      </trkpt>
      <trkpt lat="59.9847445" lon="15.8278074">
        <ele>101.2</ele>
        <time>2013-10-11T18:20:14Z</time>
        <extensions><gpxtpx:TrackPointExtension><gpxtpx:hr>152</gpxtpx:hr></gpxtpx:TrackPointExtension></extensions>
      </trkpt>
      <trkpt lat="59.9847462" lon="15.8278084">
        <ele>101.2</ele>
        <time>2013-10-11T18:20:15Z</time>
        <extensions><gpxtpx:TrackPointExtension><gpxtpx:hr>152</gpxtpx:hr></gpxtpx:TrackPointExtension></extensions>
      </trkpt>
      <trkpt lat="59.9847485" lon="15.8278085">
        <ele>101.2</ele>
        <time>2013-10-11T18:20:16Z</time>
        <extensions><gpxtpx:TrackPointExtension><gpxtpx:hr>152</gpxtpx:hr></gpxtpx:TrackPointExtension></extensions>
      </trkpt>
      <trkpt lat="59.9847238" lon="15.8278116">
        <ele>101.2</ele>
        <time>2013-10-11T18:20:18Z</time>
        <extensions><gpxtpx:TrackPointExtension><gpxtpx:hr>152</gpxtpx:hr></gpxtpx:TrackPointExtension></extensions>
      </trkpt>
      <trkpt lat="59.9847191" lon="15.8278261">
        <ele>101.2</ele>
        <time>2013-10-11T18:20:19Z</time>
        <extensions><gpxtpx:TrackPointExtension><gpxtpx:hr>152</gpxtpx:hr></gpxtpx:TrackPointExtension></extensions>
      </trkpt>
      <trkpt lat="59.9847019" lon="15.8278009">
        <ele>101.2</ele>
        <time>2013-10-11T18:20:20Z</time>
        <extensions><gpxtpx:TrackPointExtension><gpxtpx:hr>152</gpxtpx:hr></gpxtpx:TrackPointExtension></extensions>
      </trkpt>
      <trkpt lat="59.9846876" lon="15.8277777">
        <ele>101.2</ele>
        <time>2013-10-11T18:20:21Z</time>
        <extensions><gpxtpx:TrackPointExtension><gpxtpx:hr>152</gpxtpx:hr></gpxtpx:TrackPointExtension></extensions>
      </trkpt>
      <trkpt lat="59.9846702" lon="15.827765">
        <ele>101.2</ele>
        <time>2013-10-11T18:20:22Z</time>
        <extensions><gpxtpx:TrackPointExtension><gpxtpx:hr>152</gpxtpx:hr></gpxtpx:TrackPointExtension></extensions>
      </trkpt>
      <trkpt lat="59.9846618" lon="15.8277596">
        <ele>101.2</ele>
        <time>2013-10-11T18:20:23Z</time>
        <extensions><gpxtpx:TrackPointExtension><gpxtpx:hr>152</gpxtpx:hr></gpxtpx:TrackPointExtension></extensions>
      </trkpt>
      <trkpt lat="59.9846561" lon="15.827753">
        <ele>101.2</ele>
        <time>2013-10-11T18:20:24Z</time>
        <extensions><gpxtpx:TrackPointExtension><gpxtpx:hr>152</gpxtpx:hr></gpxtpx:TrackPointExtension></extensions>
      </trkpt>
      <trkpt lat="59.9846539" lon="15.8277524">
        <ele>101.2</ele>
        <time>2013-10-11T18:20:25Z</time>
        <extensions><gpxtpx:TrackPointExtension><gpxtpx:hr>152</gpxtpx:hr></gpxtpx:TrackPointExtension></extensions>
      </trkpt>
      <trkpt lat="59.9846356" lon="15.8277822">
        <ele>101.2</ele>
        <time>2013-10-11T18:20:26Z</time>
        <extensions><gpxtpx:TrackPointExtension><gpxtpx:hr>152</gpxtpx:hr></gpxtpx:TrackPointExtension></extensions>
      </trkpt>
      <trkpt lat="59.9846348" lon="15.8277978">
        <ele>101.2</ele>
        <time>2013-10-11T18:20:27Z</time>
        <extensions><gpxtpx:TrackPointExtension><gpxtpx:hr>152</gpxtpx:hr></gpxtpx:TrackPointExtension></extensions>
      </trkpt>
      <trkpt lat="59.9846348" lon="15.827812">
        <ele>101.2</ele>
        <time>2013-10-11T18:20:28Z</time>
        <extensions><gpxtpx:TrackPointExtension><gpxtpx:hr>152</gpxtpx:hr></gpxtpx:TrackPointExtension></extensions>
      </trkpt>
      <trkpt lat="59.9846339" lon="15.8278108">
        <ele>101.2</ele>
        <time>2013-10-11T18:20:29Z</time>
        <extensions><gpxtpx:TrackPointExtension><gpxtpx:hr>152</gpxtpx:hr></gpxtpx:TrackPointExtension></extensions>
      </trkpt>
      <trkpt lat="59.9846334" lon="15.8278099">
        <ele>101.2</ele>
        <time>2013-10-11T18:20:30Z</time>
        <extensions><gpxtpx:TrackPointExtension><gpxtpx:hr>152</gpxtpx:hr></gpxtpx:TrackPointExtension></extensions>
      </trkpt>
      <trkpt lat="59.9846295" lon="15.8278105">
        <ele>101.2</ele>
        <time>2013-10-11T18:20:31Z</time>
        <extensions><gpxtpx:TrackPointExtension><gpxtpx:hr>152</gpxtpx:hr></gpxtpx:TrackPointExtension></extensions>
      </trkpt>
      <trkpt lat="59.9846345" lon="15.8278248">
        <ele>101.2</ele>
        <time>2013-10-11T18:20:32Z</time>
        <extensions><gpxtpx:TrackPointExtension><gpxtpx:hr>153</gpxtpx:hr></gpxtpx:TrackPointExtension></extensions>
      </trkpt>
      <trkpt lat="59.9846694" lon="15.8278778">
        <ele>101.2</ele>
        <time>2013-10-11T18:20:37Z</time>
        <extensions><gpxtpx:TrackPointExtension><gpxtpx:hr>152</gpxtpx:hr></gpxtpx:TrackPointExtension></extensions>
      </trkpt>
      <trkpt lat="59.9846683" lon="15.8278832">
        <ele>101.2</ele>
        <time>2013-10-11T18:20:38Z</time>
        <extensions><gpxtpx:TrackPointExtension><gpxtpx:hr>152</gpxtpx:hr></gpxtpx:TrackPointExtension></extensions>
      </trkpt>
      <trkpt lat="59.984661" lon="15.8278794">
        <ele>101.2</ele>
        <time>2013-10-11T18:20:39Z</time>
        <extensions><gpxtpx:TrackPointExtension><gpxtpx:hr>153</gpxtpx:hr></gpxtpx:TrackPointExtension></extensions>
      </trkpt>
      <trkpt lat="59.9846614" lon="15.8279028">
        <ele>101.2</ele>
        <time>2013-10-11T18:20:40Z</time>
        <extensions><gpxtpx:TrackPointExtension><gpxtpx:hr>152</gpxtpx:hr></gpxtpx:TrackPointExtension></extensions>
      </trkpt>
      <trkpt lat="59.9846585" lon="15.8279353">
        <ele>101.2</ele>
        <time>2013-10-11T18:20:41Z</time>
        <extensions><gpxtpx:TrackPointExtension><gpxtpx:hr>153</gpxtpx:hr></gpxtpx:TrackPointExtension></extensions>
      </trkpt>
      <trkpt lat="59.9846582" lon="15.8279846">
        <ele>101.2</ele>
        <time>2013-10-11T18:20:42Z</time>
        <extensions><gpxtpx:TrackPointExtension><gpxtpx:hr>152</gpxtpx:hr></gpxtpx:TrackPointExtension></extensions>
      </trkpt>
      <trkpt lat="59.9846619" lon="15.8280318">
        <ele>101.2</ele>
        <time>2013-10-11T18:20:43Z</time>
        <extensions><gpxtpx:TrackPointExtension><gpxtpx:hr>153</gpxtpx:hr></gpxtpx:TrackPointExtension></extensions>
      </trkpt>
      <trkpt lat="59.9846677" lon="15.8280713">
        <ele>101.2</ele>
        <time>2013-10-11T18:20:44Z</time>
        <extensions><gpxtpx:TrackPointExtension><gpxtpx:hr>152</gpxtpx:hr></gpxtpx:TrackPointExtension></extensions>
      </trkpt>
      <trkpt lat="59.9846754" lon="15.8281083">
        <ele>101.2</ele>
        <time>2013-10-11T18:20:45Z</time>
        <extensions><gpxtpx:TrackPointExtension><gpxtpx:hr>153</gpxtpx:hr></gpxtpx:TrackPointExtension></extensions>
      </trkpt>
      <trkpt lat="59.9846823" lon="15.828136">
        <ele>101.2</ele>
        <time>2013-10-11T18:20:46Z</time>
        <extensions><gpxtpx:TrackPointExtension><gpxtpx:hr>152</gpxtpx:hr></gpxtpx:TrackPointExtension></extensions>
      </trkpt>
      <trkpt lat="59.9846954" lon="15.828159">
        <ele>101.2</ele>
        <time>2013-10-11T18:20:47Z</time>
        <extensions><gpxtpx:TrackPointExtension><gpxtpx:hr>152</gpxtpx:hr></gpxtpx:TrackPointExtension></extensions>
      </trkpt>
      <trkpt lat="59.9846985" lon="15.828164">
        <ele>101.2</ele>
        <time>2013-10-11T18:20:48Z</time>
        <extensions><gpxtpx:TrackPointExtension><gpxtpx:hr>152</gpxtpx:hr></gpxtpx:TrackPointExtension></extensions>
      </trkpt>
      <trkpt lat="59.9847029" lon="15.8281787">
        <ele>101.2</ele>
        <time>2013-10-11T18:20:49Z</time>
        <extensions><gpxtpx:TrackPointExtension><gpxtpx:hr>152</gpxtpx:hr></gpxtpx:TrackPointExtension></extensions>
      </trkpt>
      <trkpt lat="59.9847068" lon="15.8281968">
        <ele>101.2</ele>
        <time>2013-10-11T18:20:50Z</time>
        <extensions><gpxtpx:TrackPointExtension><gpxtpx:hr>152</gpxtpx:hr></gpxtpx:TrackPointExtension></extensions>
      </trkpt>
      <trkpt lat="59.9847062" lon="15.8281981">
        <ele>101.2</ele>
        <time>2013-10-11T18:20:51Z</time>
        <extensions><gpxtpx:TrackPointExtension><gpxtpx:hr>152</gpxtpx:hr></gpxtpx:TrackPointExtension></extensions>
      </trkpt>
      <trkpt lat="59.9846835" lon="15.828095">
        <ele>101.2</ele>
        <time>2013-10-11T18:20:52Z</time>
        <extensions><gpxtpx:TrackPointExtension><gpxtpx:hr>151</gpxtpx:hr></gpxtpx:TrackPointExtension></extensions>
      </trkpt>
      <trkpt lat="59.9846767" lon="15.8280817">
        <ele>101.2</ele>
        <time>2013-10-11T18:20:53Z</time>
        <extensions><gpxtpx:TrackPointExtension><gpxtpx:hr>152</gpxtpx:hr></gpxtpx:TrackPointExtension></extensions>
      </trkpt>
      <trkpt lat="59.9846731" lon="15.8280726">
        <ele>101.2</ele>
        <time>2013-10-11T18:20:54Z</time>
        <extensions><gpxtpx:TrackPointExtension><gpxtpx:hr>151</gpxtpx:hr></gpxtpx:TrackPointExtension></extensions>
      </trkpt>
      <trkpt lat="59.9846697" lon="15.8280703">
        <ele>101.2</ele>
        <time>2013-10-11T18:20:55Z</time>
        <extensions><gpxtpx:TrackPointExtension><gpxtpx:hr>151</gpxtpx:hr></gpxtpx:TrackPointExtension></extensions>
      </trkpt>
      <trkpt lat="59.9846649" lon="15.8280693">
        <ele>101.2</ele>
        <time>2013-10-11T18:20:56Z</time>
        <extensions><gpxtpx:TrackPointExtension><gpxtpx:hr>151</gpxtpx:hr></gpxtpx:TrackPointExtension></extensions>
      </trkpt>
      <trkpt lat="59.9846605" lon="15.8280647">
        <ele>101.2</ele>
        <time>2013-10-11T18:20:57Z</time>
        <extensions><gpxtpx:TrackPointExtension><gpxtpx:hr>151</gpxtpx:hr></gpxtpx:TrackPointExtension></extensions>
      </trkpt>
      <trkpt lat="59.9846301" lon="15.8279508">
        <ele>101.2</ele>
        <time>2013-10-11T18:20:59Z</time>
        <extensions><gpxtpx:TrackPointExtension><gpxtpx:hr>151</gpxtpx:hr></gpxtpx:TrackPointExtension></extensions>
      </trkpt>
      <trkpt lat="59.9846079" lon="15.8278837">
        <ele>101.2</ele>
        <time>2013-10-11T18:21:01Z</time>
        <extensions><gpxtpx:TrackPointExtension><gpxtpx:hr>151</gpxtpx:hr></gpxtpx:TrackPointExtension></extensions>
      </trkpt>
      <trkpt lat="59.9846049" lon="15.8278545">
        <ele>101.2</ele>
        <time>2013-10-11T18:21:02Z</time>
        <extensions><gpxtpx:TrackPointExtension><gpxtpx:hr>151</gpxtpx:hr></gpxtpx:TrackPointExtension></extensions>
      </trkpt>
      <trkpt lat="59.9846007" lon="15.8278286">
        <ele>101.2</ele>
        <time>2013-10-11T18:21:03Z</time>
        <extensions><gpxtpx:TrackPointExtension><gpxtpx:hr>151</gpxtpx:hr></gpxtpx:TrackPointExtension></extensions>
      </trkpt>
      <trkpt lat="59.9845998" lon="15.8278099">
        <ele>101.2</ele>
        <time>2013-10-11T18:21:04Z</time>
        <extensions><gpxtpx:TrackPointExtension><gpxtpx:hr>151</gpxtpx:hr></gpxtpx:TrackPointExtension></extensions>
      </trkpt>
      <trkpt lat="59.9846" lon="15.8278022">
        <ele>101.2</ele>
        <time>2013-10-11T18:21:05Z</time>
        <extensions><gpxtpx:TrackPointExtension><gpxtpx:hr>152</gpxtpx:hr></gpxtpx:TrackPointExtension></extensions>
      </trkpt>
      <trkpt lat="59.9846003" lon="15.8278032">
        <ele>101.2</ele>
        <time>2013-10-11T18:21:06Z</time>
        <extensions><gpxtpx:TrackPointExtension><gpxtpx:hr>151</gpxtpx:hr></gpxtpx:TrackPointExtension></extensions>
      </trkpt>
      <trkpt lat="59.9845796" lon="15.8277841">
        <ele>101.2</ele>
        <time>2013-10-11T18:21:07Z</time>
        <extensions><gpxtpx:TrackPointExtension><gpxtpx:hr>152</gpxtpx:hr></gpxtpx:TrackPointExtension></extensions>
      </trkpt>
      <trkpt lat="59.984572" lon="15.8277765">
        <ele>101.2</ele>
        <time>2013-10-11T18:21:08Z</time>
        <extensions><gpxtpx:TrackPointExtension><gpxtpx:hr>152</gpxtpx:hr></gpxtpx:TrackPointExtension></extensions>
      </trkpt>
      <trkpt lat="59.9845668" lon="15.8277705">
        <ele>101.2</ele>
        <time>2013-10-11T18:21:09Z</time>
        <extensions><gpxtpx:TrackPointExtension><gpxtpx:hr>152</gpxtpx:hr></gpxtpx:TrackPointExtension></extensions>
      </trkpt>
      <trkpt lat="59.9845887" lon="15.8277976">
        <ele>101.2</ele>
        <time>2013-10-11T18:21:12Z</time>
        <extensions><gpxtpx:TrackPointExtension><gpxtpx:hr>151</gpxtpx:hr></gpxtpx:TrackPointExtension></extensions>
      </trkpt>
      <trkpt lat="59.9845835" lon="15.8278051">
        <ele>101.2</ele>
        <time>2013-10-11T18:21:14Z</time>
        <extensions><gpxtpx:TrackPointExtension><gpxtpx:hr>151</gpxtpx:hr></gpxtpx:TrackPointExtension></extensions>
      </trkpt>
      <trkpt lat="59.9845827" lon="15.8278325">
        <ele>101.2</ele>
        <time>2013-10-11T18:21:17Z</time>
        <extensions><gpxtpx:TrackPointExtension><gpxtpx:hr>152</gpxtpx:hr></gpxtpx:TrackPointExtension></extensions>
      </trkpt>
      <trkpt lat="59.9845881" lon="15.8278415">
        <ele>101.2</ele>
        <time>2013-10-11T18:21:18Z</time>
        <extensions><gpxtpx:TrackPointExtension><gpxtpx:hr>152</gpxtpx:hr></gpxtpx:TrackPointExtension></extensions>
      </trkpt>
      <trkpt lat="59.9846177" lon="15.8278042">
        <ele>101.2</ele>
        <time>2013-10-11T18:21:19Z</time>
        <extensions><gpxtpx:TrackPointExtension><gpxtpx:hr>152</gpxtpx:hr></gpxtpx:TrackPointExtension></extensions>
      </trkpt>
      <trkpt lat="59.9846203" lon="15.8277977">
        <ele>101.2</ele>
        <time>2013-10-11T18:21:20Z</time>
        <extensions><gpxtpx:TrackPointExtension><gpxtpx:hr>152</gpxtpx:hr></gpxtpx:TrackPointExtension></extensions>
      </trkpt>
      <trkpt lat="59.984626" lon="15.8278059">
        <ele>101.2</ele>
        <time>2013-10-11T18:21:21Z</time>
        <extensions><gpxtpx:TrackPointExtension><gpxtpx:hr>152</gpxtpx:hr></gpxtpx:TrackPointExtension></extensions>
      </trkpt>
      <trkpt lat="59.9846296" lon="15.8278091">
        <ele>101.2</ele>
        <time>2013-10-11T18:21:22Z</time>
        <extensions><gpxtpx:TrackPointExtension><gpxtpx:hr>152</gpxtpx:hr></gpxtpx:TrackPointExtension></extensions>
      </trkpt>
      <trkpt lat="59.9846335" lon="15.8278071">
        <ele>101.2</ele>
        <time>2013-10-11T18:21:23Z</time>
        <extensions><gpxtpx:TrackPointExtension><gpxtpx:hr>153</gpxtpx:hr></gpxtpx:TrackPointExtension></extensions>
      </trkpt>
      <trkpt lat="59.9846383" lon="15.8278032">
        <ele>101.2</ele>
        <time>2013-10-11T18:21:24Z</time>
        <extensions><gpxtpx:TrackPointExtension><gpxtpx:hr>152</gpxtpx:hr></gpxtpx:TrackPointExtension></extensions>
      </trkpt>
      <trkpt lat="59.9846423" lon="15.8277962">
        <ele>101.2</ele>
        <time>2013-10-11T18:21:25Z</time>
        <extensions><gpxtpx:TrackPointExtension><gpxtpx:hr>152</gpxtpx:hr></gpxtpx:TrackPointExtension></extensions>
      </trkpt>
      <trkpt lat="59.9846426" lon="15.8277897">
        <ele>101.2</ele>
        <time>2013-10-11T18:21:26Z</time>
        <extensions><gpxtpx:TrackPointExtension><gpxtpx:hr>152</gpxtpx:hr></gpxtpx:TrackPointExtension></extensions>
      </trkpt>
      <trkpt lat="59.9846408" lon="15.8277875">
        <ele>101.2</ele>
        <time>2013-10-11T18:21:27Z</time>
        <extensions><gpxtpx:TrackPointExtension><gpxtpx:hr>152</gpxtpx:hr></gpxtpx:TrackPointExtension></extensions>
      </trkpt>
      <trkpt lat="59.9846393" lon="15.8277881">
        <ele>101.2</ele>
        <time>2013-10-11T18:21:28Z</time>
        <extensions><gpxtpx:TrackPointExtension><gpxtpx:hr>153</gpxtpx:hr></gpxtpx:TrackPointExtension></extensions>
      </trkpt>
      <trkpt lat="59.9846412" lon="15.8277993">
        <ele>101.2</ele>
        <time>2013-10-11T18:21:29Z</time>
        <extensions><gpxtpx:TrackPointExtension><gpxtpx:hr>152</gpxtpx:hr></gpxtpx:TrackPointExtension></extensions>
      </trkpt>
      <trkpt lat="59.984621" lon="15.8277295">
        <ele>101.2</ele>
        <time>2013-10-11T18:21:30Z</time>
        <extensions><gpxtpx:TrackPointExtension><gpxtpx:hr>153</gpxtpx:hr></gpxtpx:TrackPointExtension></extensions>
      </trkpt>
      <trkpt lat="59.9846114" lon="15.8277194">
        <ele>101.2</ele>
        <time>2013-10-11T18:21:31Z</time>
        <extensions><gpxtpx:TrackPointExtension><gpxtpx:hr>152</gpxtpx:hr></gpxtpx:TrackPointExtension></extensions>
      </trkpt>
      <trkpt lat="59.9846032" lon="15.827725">
        <ele>101.2</ele>
        <time>2013-10-11T18:21:36Z</time>
        <extensions><gpxtpx:TrackPointExtension><gpxtpx:hr>153</gpxtpx:hr></gpxtpx:TrackPointExtension></extensions>
      </trkpt>
      <trkpt lat="59.9846074" lon="15.8277198">
        <ele>101.2</ele>
        <time>2013-10-11T18:21:37Z</time>
        <extensions><gpxtpx:TrackPointExtension><gpxtpx:hr>153</gpxtpx:hr></gpxtpx:TrackPointExtension></extensions>
      </trkpt>
      <trkpt lat="59.9846088" lon="15.8277234">
        <ele>101.2</ele>
        <time>2013-10-11T18:21:38Z</time>
        <extensions><gpxtpx:TrackPointExtension><gpxtpx:hr>153</gpxtpx:hr></gpxtpx:TrackPointExtension></extensions>
      </trkpt>
      <trkpt lat="59.9846106" lon="15.8277278">
        <ele>101.2</ele>
        <time>2013-10-11T18:21:39Z</time>
        <extensions><gpxtpx:TrackPointExtension><gpxtpx:hr>153</gpxtpx:hr></gpxtpx:TrackPointExtension></extensions>
      </trkpt>
      <trkpt lat="59.9845653" lon="15.8275872">
        <ele>101.2</ele>
        <time>2013-10-11T18:21:40Z</time>
        <extensions><gpxtpx:TrackPointExtension><gpxtpx:hr>152</gpxtpx:hr></gpxtpx:TrackPointExtension></extensions>
      </trkpt>
      <trkpt lat="59.9845701" lon="15.827578">
        <ele>101.2</ele>
        <time>2013-10-11T18:21:41Z</time>
        <extensions><gpxtpx:TrackPointExtension><gpxtpx:hr>153</gpxtpx:hr></gpxtpx:TrackPointExtension></extensions>
      </trkpt>
      <trkpt lat="59.9845715" lon="15.8275717">
        <ele>101.2</ele>
        <time>2013-10-11T18:21:42Z</time>
        <extensions><gpxtpx:TrackPointExtension><gpxtpx:hr>153</gpxtpx:hr></gpxtpx:TrackPointExtension></extensions>
      </trkpt>
      <trkpt lat="59.9845681" lon="15.8275695">
        <ele>101.2</ele>
        <time>2013-10-11T18:21:43Z</time>
        <extensions><gpxtpx:TrackPointExtension><gpxtpx:hr>153</gpxtpx:hr></gpxtpx:TrackPointExtension></extensions>
      </trkpt>
      <trkpt lat="59.984538" lon="15.8275681">
        <ele>101.2</ele>
        <time>2013-10-11T18:21:44Z</time>
        <extensions><gpxtpx:TrackPointExtension><gpxtpx:hr>152</gpxtpx:hr></gpxtpx:TrackPointExtension></extensions>
      </trkpt>
      <trkpt lat="59.9845261" lon="15.8275704">
        <ele>101.2</ele>
        <time>2013-10-11T18:21:45Z</time>
        <extensions><gpxtpx:TrackPointExtension><gpxtpx:hr>153</gpxtpx:hr></gpxtpx:TrackPointExtension></extensions>
      </trkpt>
      <trkpt lat="59.9845107" lon="15.8275672">
        <ele>101.2</ele>
        <time>2013-10-11T18:21:46Z</time>
        <extensions><gpxtpx:TrackPointExtension><gpxtpx:hr>152</gpxtpx:hr></gpxtpx:TrackPointExtension></extensions>
      </trkpt>
      <trkpt lat="59.9845007" lon="15.8275669">
        <ele>101.2</ele>
        <time>2013-10-11T18:21:47Z</time>
        <extensions><gpxtpx:TrackPointExtension><gpxtpx:hr>153</gpxtpx:hr></gpxtpx:TrackPointExtension></extensions>
      </trkpt>
      <trkpt lat="59.9844913" lon="15.8275685">
        <ele>101.2</ele>
        <time>2013-10-11T18:21:48Z</time>
        <extensions><gpxtpx:TrackPointExtension><gpxtpx:hr>153</gpxtpx:hr></gpxtpx:TrackPointExtension></extensions>
      </trkpt>
      <trkpt lat="59.984491" lon="15.8275822">
        <ele>101.2</ele>
        <time>2013-10-11T18:21:49Z</time>
        <extensions><gpxtpx:TrackPointExtension><gpxtpx:hr>152</gpxtpx:hr></gpxtpx:TrackPointExtension></extensions>
      </trkpt>
      <trkpt lat="59.984486" lon="15.8276001">
        <ele>101.2</ele>
        <time>2013-10-11T18:21:50Z</time>
        <extensions><gpxtpx:TrackPointExtension><gpxtpx:hr>153</gpxtpx:hr></gpxtpx:TrackPointExtension></extensions>
      </trkpt>
      <trkpt lat="59.9844813" lon="15.8276126">
        <ele>101.2</ele>
        <time>2013-10-11T18:21:51Z</time>
        <extensions><gpxtpx:TrackPointExtension><gpxtpx:hr>153</gpxtpx:hr></gpxtpx:TrackPointExtension></extensions>
      </trkpt>
      <trkpt lat="59.9844778" lon="15.8276225">
        <ele>101.2</ele>
        <time>2013-10-11T18:21:52Z</time>
        <extensions><gpxtpx:TrackPointExtension><gpxtpx:hr>153</gpxtpx:hr></gpxtpx:TrackPointExtension></extensions>
      </trkpt>
      <trkpt lat="59.9844603" lon="15.8276265">
        <ele>101.2</ele>
        <time>2013-10-11T18:21:57Z</time>
        <extensions><gpxtpx:TrackPointExtension><gpxtpx:hr>153</gpxtpx:hr></gpxtpx:TrackPointExtension></extensions>
      </trkpt>
      <trkpt lat="59.9844607" lon="15.827624">
        <ele>101.2</ele>
        <time>2013-10-11T18:21:58Z</time>
        <extensions><gpxtpx:TrackPointExtension><gpxtpx:hr>152</gpxtpx:hr></gpxtpx:TrackPointExtension></extensions>
      </trkpt>
      <trkpt lat="59.9844611" lon="15.8276285">
        <ele>101.2</ele>
        <time>2013-10-11T18:21:59Z</time>
        <extensions><gpxtpx:TrackPointExtension><gpxtpx:hr>152</gpxtpx:hr></gpxtpx:TrackPointExtension></extensions>
      </trkpt>
      <trkpt lat="59.9844642" lon="15.827637">
        <ele>101.2</ele>
        <time>2013-10-11T18:22:00Z</time>
        <extensions><gpxtpx:TrackPointExtension><gpxtpx:hr>152</gpxtpx:hr></gpxtpx:TrackPointExtension></extensions>
      </trkpt>
      <trkpt lat="59.9845188" lon="15.8276974">
        <ele>101.2</ele>
        <time>2013-10-11T18:22:01Z</time>
        <extensions><gpxtpx:TrackPointExtension><gpxtpx:hr>153</gpxtpx:hr></gpxtpx:TrackPointExtension></extensions>
      </trkpt>
      <trkpt lat="59.9845357" lon="15.8277074">
        <ele>101.2</ele>
        <time>2013-10-11T18:22:02Z</time>
        <extensions><gpxtpx:TrackPointExtension><gpxtpx:hr>152</gpxtpx:hr></gpxtpx:TrackPointExtension></extensions>
      </trkpt>
      <trkpt lat="59.9845455" lon="15.8277098">
        <ele>101.2</ele>
        <time>2013-10-11T18:22:03Z</time>
        <extensions><gpxtpx:TrackPointExtension><gpxtpx:hr>153</gpxtpx:hr></gpxtpx:TrackPointExtension></extensions>
      </trkpt>
      <trkpt lat="59.9845569" lon="15.8277077">
        <ele>101.2</ele>
        <time>2013-10-11T18:22:04Z</time>
        <extensions><gpxtpx:TrackPointExtension><gpxtpx:hr>152</gpxtpx:hr></gpxtpx:TrackPointExtension></extensions>
      </trkpt>
      <trkpt lat="59.9845736" lon="15.8276982">
        <ele>101.2</ele>
        <time>2013-10-11T18:22:05Z</time>
        <extensions><gpxtpx:TrackPointExtension><gpxtpx:hr>152</gpxtpx:hr></gpxtpx:TrackPointExtension></extensions>
      </trkpt>
      <trkpt lat="59.9845901" lon="15.8276814">
        <ele>101.2</ele>
        <time>2013-10-11T18:22:06Z</time>
        <extensions><gpxtpx:TrackPointExtension><gpxtpx:hr>152</gpxtpx:hr></gpxtpx:TrackPointExtension></extensions>
      </trkpt>
      <trkpt lat="59.9846074" lon="15.8276624">
        <ele>101.2</ele>
        <time>2013-10-11T18:22:07Z</time>
        <extensions><gpxtpx:TrackPointExtension><gpxtpx:hr>152</gpxtpx:hr></gpxtpx:TrackPointExtension></extensions>
      </trkpt>
      <trkpt lat="59.9846221" lon="15.8276464">
        <ele>101.2</ele>
        <time>2013-10-11T18:22:08Z</time>
        <extensions><gpxtpx:TrackPointExtension><gpxtpx:hr>152</gpxtpx:hr></gpxtpx:TrackPointExtension></extensions>
      </trkpt>
      <trkpt lat="59.9846275" lon="15.8276264">
        <ele>101.2</ele>
        <time>2013-10-11T18:22:09Z</time>
        <extensions><gpxtpx:TrackPointExtension><gpxtpx:hr>152</gpxtpx:hr></gpxtpx:TrackPointExtension></extensions>
      </trkpt>
      <trkpt lat="59.9846357" lon="15.8276013">
        <ele>101.2</ele>
        <time>2013-10-11T18:22:10Z</time>
        <extensions><gpxtpx:TrackPointExtension><gpxtpx:hr>152</gpxtpx:hr></gpxtpx:TrackPointExtension></extensions>
      </trkpt>
      <trkpt lat="59.9846511" lon="15.8275607">
        <ele>101.2</ele>
        <time>2013-10-11T18:22:11Z</time>
        <extensions><gpxtpx:TrackPointExtension><gpxtpx:hr>152</gpxtpx:hr></gpxtpx:TrackPointExtension></extensions>
      </trkpt>
      <trkpt lat="59.984663" lon="15.8275419">
        <ele>101.2</ele>
        <time>2013-10-11T18:22:13Z</time>
        <extensions><gpxtpx:TrackPointExtension><gpxtpx:hr>152</gpxtpx:hr></gpxtpx:TrackPointExtension></extensions>
      </trkpt>
      <trkpt lat="59.984663" lon="15.827529">
        <ele>101.2</ele>
        <time>2013-10-11T18:22:14Z</time>
        <extensions><gpxtpx:TrackPointExtension><gpxtpx:hr>152</gpxtpx:hr></gpxtpx:TrackPointExtension></extensions>
      </trkpt>
      <trkpt lat="59.9846657" lon="15.8275141">
        <ele>101.2</ele>
        <time>2013-10-11T18:22:15Z</time>
        <extensions><gpxtpx:TrackPointExtension><gpxtpx:hr>152</gpxtpx:hr></gpxtpx:TrackPointExtension></extensions>
      </trkpt>
      <trkpt lat="59.9846702" lon="15.8275108">
        <ele>101.2</ele>
        <time>2013-10-11T18:22:16Z</time>
        <extensions><gpxtpx:TrackPointExtension><gpxtpx:hr>152</gpxtpx:hr></gpxtpx:TrackPointExtension></extensions>
      </trkpt>
      <trkpt lat="59.9846848" lon="15.8275455">
        <ele>101.2</ele>
        <time>2013-10-11T18:22:17Z</time>
        <extensions><gpxtpx:TrackPointExtension><gpxtpx:hr>152</gpxtpx:hr></gpxtpx:TrackPointExtension></extensions>
      </trkpt>
      <trkpt lat="59.9846927" lon="15.8275522">
        <ele>101.2</ele>
        <time>2013-10-11T18:22:18Z</time>
        <extensions><gpxtpx:TrackPointExtension><gpxtpx:hr>153</gpxtpx:hr></gpxtpx:TrackPointExtension></extensions>
      </trkpt>
      <trkpt lat="59.9846988" lon="15.827562">
        <ele>101.2</ele>
        <time>2013-10-11T18:22:19Z</time>
        <extensions><gpxtpx:TrackPointExtension><gpxtpx:hr>153</gpxtpx:hr></gpxtpx:TrackPointExtension></extensions>
      </trkpt>
      <trkpt lat="59.9846995" lon="15.827565">
        <ele>101.2</ele>
        <time>2013-10-11T18:22:20Z</time>
        <extensions><gpxtpx:TrackPointExtension><gpxtpx:hr>153</gpxtpx:hr></gpxtpx:TrackPointExtension></extensions>
      </trkpt>
      <trkpt lat="59.9847067" lon="15.8275704">
        <ele>101.2</ele>
        <time>2013-10-11T18:22:24Z</time>
        <extensions><gpxtpx:TrackPointExtension><gpxtpx:hr>153</gpxtpx:hr></gpxtpx:TrackPointExtension></extensions>
      </trkpt>
      <trkpt lat="59.9847128" lon="15.8275114">
        <ele>101.2</ele>
        <time>2013-10-11T18:22:25Z</time>
        <extensions><gpxtpx:TrackPointExtension><gpxtpx:hr>153</gpxtpx:hr></gpxtpx:TrackPointExtension></extensions>
      </trkpt>
      <trkpt lat="59.9847243" lon="15.8274796">
        <ele>101.2</ele>
        <time>2013-10-11T18:22:28Z</time>
        <extensions><gpxtpx:TrackPointExtension><gpxtpx:hr>153</gpxtpx:hr></gpxtpx:TrackPointExtension></extensions>
      </trkpt>
      <trkpt lat="59.9847257" lon="15.8274812">
        <ele>101.2</ele>
        <time>2013-10-11T18:22:29Z</time>
        <extensions><gpxtpx:TrackPointExtension><gpxtpx:hr>153</gpxtpx:hr></gpxtpx:TrackPointExtension></extensions>
      </trkpt>
      <trkpt lat="59.9847224" lon="15.8274804">
        <ele>101.2</ele>
        <time>2013-10-11T18:22:30Z</time>
        <extensions><gpxtpx:TrackPointExtension><gpxtpx:hr>154</gpxtpx:hr></gpxtpx:TrackPointExtension></extensions>
      </trkpt>
      <trkpt lat="59.9847211" lon="15.8274614">
        <ele>101.2</ele>
        <time>2013-10-11T18:22:32Z</time>
        <extensions><gpxtpx:TrackPointExtension><gpxtpx:hr>154</gpxtpx:hr></gpxtpx:TrackPointExtension></extensions>
      </trkpt>
      <trkpt lat="59.9847367" lon="15.8274487">
        <ele>101.2</ele>
        <time>2013-10-11T18:22:34Z</time>
        <extensions><gpxtpx:TrackPointExtension><gpxtpx:hr>154</gpxtpx:hr></gpxtpx:TrackPointExtension></extensions>
      </trkpt>
      <trkpt lat="59.9847406" lon="15.8274421">
        <ele>101.2</ele>
        <time>2013-10-11T18:22:35Z</time>
        <extensions><gpxtpx:TrackPointExtension><gpxtpx:hr>154</gpxtpx:hr></gpxtpx:TrackPointExtension></extensions>
      </trkpt>
      <trkpt lat="59.9847414" lon="15.8274311">
        <ele>101.2</ele>
        <time>2013-10-11T18:22:36Z</time>
        <extensions><gpxtpx:TrackPointExtension><gpxtpx:hr>154</gpxtpx:hr></gpxtpx:TrackPointExtension></extensions>
      </trkpt>
      <trkpt lat="59.9847523" lon="15.8274058">
        <ele>101.2</ele>
        <time>2013-10-11T18:22:37Z</time>
        <extensions><gpxtpx:TrackPointExtension><gpxtpx:hr>154</gpxtpx:hr></gpxtpx:TrackPointExtension></extensions>
      </trkpt>
      <trkpt lat="59.9847649" lon="15.827388">
        <ele>101.2</ele>
        <time>2013-10-11T18:22:38Z</time>
        <extensions><gpxtpx:TrackPointExtension><gpxtpx:hr>154</gpxtpx:hr></gpxtpx:TrackPointExtension></extensions>
      </trkpt>
      <trkpt lat="59.9847759" lon="15.8273665">
        <ele>101.2</ele>
        <time>2013-10-11T18:22:39Z</time>
        <extensions><gpxtpx:TrackPointExtension><gpxtpx:hr>154</gpxtpx:hr></gpxtpx:TrackPointExtension></extensions>
      </trkpt>
      <trkpt lat="59.984791" lon="15.8273465">
        <ele>101.2</ele>
        <time>2013-10-11T18:22:40Z</time>
        <extensions><gpxtpx:TrackPointExtension><gpxtpx:hr>154</gpxtpx:hr></gpxtpx:TrackPointExtension></extensions>
      </trkpt>
      <trkpt lat="59.9848097" lon="15.827348">
        <ele>101.2</ele>
        <time>2013-10-11T18:22:41Z</time>
        <extensions><gpxtpx:TrackPointExtension><gpxtpx:hr>154</gpxtpx:hr></gpxtpx:TrackPointExtension></extensions>
      </trkpt>
      <trkpt lat="59.9848244" lon="15.8273503">
        <ele>101.2</ele>
        <time>2013-10-11T18:22:42Z</time>
        <extensions><gpxtpx:TrackPointExtension><gpxtpx:hr>153</gpxtpx:hr></gpxtpx:TrackPointExtension></extensions>
      </trkpt>
      <trkpt lat="59.9848362" lon="15.8273518">
        <ele>101.2</ele>
        <time>2013-10-11T18:22:43Z</time>
        <extensions><gpxtpx:TrackPointExtension><gpxtpx:hr>154</gpxtpx:hr></gpxtpx:TrackPointExtension></extensions>
      </trkpt>
      <trkpt lat="59.9848486" lon="15.8273381">
        <ele>101.2</ele>
        <time>2013-10-11T18:22:44Z</time>
        <extensions><gpxtpx:TrackPointExtension><gpxtpx:hr>153</gpxtpx:hr></gpxtpx:TrackPointExtension></extensions>
      </trkpt>
      <trkpt lat="59.9848532" lon="15.827329">
        <ele>101.2</ele>
        <time>2013-10-11T18:22:45Z</time>
        <extensions><gpxtpx:TrackPointExtension><gpxtpx:hr>154</gpxtpx:hr></gpxtpx:TrackPointExtension></extensions>
      </trkpt>
      <trkpt lat="59.9848772" lon="15.8273365">
        <ele>101.2</ele>
        <time>2013-10-11T18:22:48Z</time>
        <extensions><gpxtpx:TrackPointExtension><gpxtpx:hr>154</gpxtpx:hr></gpxtpx:TrackPointExtension></extensions>
      </trkpt>
      <trkpt lat="59.9848822" lon="15.8273125">
        <ele>101.2</ele>
        <time>2013-10-11T18:22:50Z</time>
        <extensions><gpxtpx:TrackPointExtension><gpxtpx:hr>154</gpxtpx:hr></gpxtpx:TrackPointExtension></extensions>
      </trkpt>
      <trkpt lat="59.9848743" lon="15.8273033">
        <ele>101.2</ele>
        <time>2013-10-11T18:22:51Z</time>
        <extensions><gpxtpx:TrackPointExtension><gpxtpx:hr>154</gpxtpx:hr></gpxtpx:TrackPointExtension></extensions>
      </trkpt>
      <trkpt lat="59.9848725" lon="15.827281">
        <ele>101.2</ele>
        <time>2013-10-11T18:22:53Z</time>
        <extensions><gpxtpx:TrackPointExtension><gpxtpx:hr>155</gpxtpx:hr></gpxtpx:TrackPointExtension></extensions>
      </trkpt>
      <trkpt lat="59.9848668" lon="15.8272822">
        <ele>101.2</ele>
        <time>2013-10-11T18:22:54Z</time>
        <extensions><gpxtpx:TrackPointExtension><gpxtpx:hr>155</gpxtpx:hr></gpxtpx:TrackPointExtension></extensions>
      </trkpt>
      <trkpt lat="59.9848714" lon="15.8272982">
        <ele>101.2</ele>
        <time>2013-10-11T18:22:55Z</time>
        <extensions><gpxtpx:TrackPointExtension><gpxtpx:hr>154</gpxtpx:hr></gpxtpx:TrackPointExtension></extensions>
      </trkpt>
      <trkpt lat="59.9848701" lon="15.8273168">
        <ele>101.2</ele>
        <time>2013-10-11T18:22:56Z</time>
        <extensions><gpxtpx:TrackPointExtension><gpxtpx:hr>155</gpxtpx:hr></gpxtpx:TrackPointExtension></extensions>
      </trkpt>
      <trkpt lat="59.9848839" lon="15.8273353">
        <ele>101.2</ele>
        <time>2013-10-11T18:22:57Z</time>
        <extensions><gpxtpx:TrackPointExtension><gpxtpx:hr>154</gpxtpx:hr></gpxtpx:TrackPointExtension></extensions>
      </trkpt>
      <trkpt lat="59.9848973" lon="15.8273468">
        <ele>101.2</ele>
        <time>2013-10-11T18:22:58Z</time>
        <extensions><gpxtpx:TrackPointExtension><gpxtpx:hr>154</gpxtpx:hr></gpxtpx:TrackPointExtension></extensions>
      </trkpt>
      <trkpt lat="59.9849082" lon="15.8273592">
        <ele>101.2</ele>
        <time>2013-10-11T18:22:59Z</time>
        <extensions><gpxtpx:TrackPointExtension><gpxtpx:hr>154</gpxtpx:hr></gpxtpx:TrackPointExtension></extensions>
      </trkpt>
      <trkpt lat="59.9849153" lon="15.8273686">
        <ele>101.2</ele>
        <time>2013-10-11T18:23:00Z</time>
        <extensions><gpxtpx:TrackPointExtension><gpxtpx:hr>154</gpxtpx:hr></gpxtpx:TrackPointExtension></extensions>
      </trkpt>
      <trkpt lat="59.9849216" lon="15.8273764">
        <ele>101.2</ele>
        <time>2013-10-11T18:23:01Z</time>
        <extensions><gpxtpx:TrackPointExtension><gpxtpx:hr>154</gpxtpx:hr></gpxtpx:TrackPointExtension></extensions>
      </trkpt>
      <trkpt lat="59.9849258" lon="15.8273768">
        <ele>101.2</ele>
        <time>2013-10-11T18:23:02Z</time>
        <extensions><gpxtpx:TrackPointExtension><gpxtpx:hr>153</gpxtpx:hr></gpxtpx:TrackPointExtension></extensions>
      </trkpt>
      <trkpt lat="59.9849306" lon="15.8273699">
        <ele>101.2</ele>
        <time>2013-10-11T18:23:03Z</time>
        <extensions><gpxtpx:TrackPointExtension><gpxtpx:hr>153</gpxtpx:hr></gpxtpx:TrackPointExtension></extensions>
      </trkpt>
      <trkpt lat="59.9849414" lon="15.8273668">
        <ele>101.2</ele>
        <time>2013-10-11T18:23:05Z</time>
        <extensions><gpxtpx:TrackPointExtension><gpxtpx:hr>153</gpxtpx:hr></gpxtpx:TrackPointExtension></extensions>
      </trkpt>
      <trkpt lat="59.9849472" lon="15.8273716">
        <ele>101.2</ele>
        <time>2013-10-11T18:23:06Z</time>
        <extensions><gpxtpx:TrackPointExtension><gpxtpx:hr>153</gpxtpx:hr></gpxtpx:TrackPointExtension></extensions>
      </trkpt>
      <trkpt lat="59.984946" lon="15.8273359">
        <ele>101.2</ele>
        <time>2013-10-11T18:23:07Z</time>
        <extensions><gpxtpx:TrackPointExtension><gpxtpx:hr>153</gpxtpx:hr></gpxtpx:TrackPointExtension></extensions>
      </trkpt>
      <trkpt lat="59.9849543" lon="15.8273344">
        <ele>101.2</ele>
        <time>2013-10-11T18:23:08Z</time>
        <extensions><gpxtpx:TrackPointExtension><gpxtpx:hr>153</gpxtpx:hr></gpxtpx:TrackPointExtension></extensions>
      </trkpt>
      <trkpt lat="59.9849424" lon="15.8273487">
        <ele>101.2</ele>
        <time>2013-10-11T18:23:09Z</time>
        <extensions><gpxtpx:TrackPointExtension><gpxtpx:hr>153</gpxtpx:hr></gpxtpx:TrackPointExtension></extensions>
      </trkpt>
      <trkpt lat="59.9849414" lon="15.8273468">
        <ele>101.2</ele>
        <time>2013-10-11T18:23:10Z</time>
        <extensions><gpxtpx:TrackPointExtension><gpxtpx:hr>153</gpxtpx:hr></gpxtpx:TrackPointExtension></extensions>
      </trkpt>
      <trkpt lat="59.9849429" lon="15.8273292">
        <ele>101.2</ele>
        <time>2013-10-11T18:23:12Z</time>
        <extensions><gpxtpx:TrackPointExtension><gpxtpx:hr>153</gpxtpx:hr></gpxtpx:TrackPointExtension></extensions>
      </trkpt>
      <trkpt lat="59.9849513" lon="15.8273261">
        <ele>101.2</ele>
        <time>2013-10-11T18:23:13Z</time>
        <extensions><gpxtpx:TrackPointExtension><gpxtpx:hr>154</gpxtpx:hr></gpxtpx:TrackPointExtension></extensions>
      </trkpt>
      <trkpt lat="59.9849567" lon="15.8273245">
        <ele>101.2</ele>
        <time>2013-10-11T18:23:14Z</time>
        <extensions><gpxtpx:TrackPointExtension><gpxtpx:hr>153</gpxtpx:hr></gpxtpx:TrackPointExtension></extensions>
      </trkpt>
      <trkpt lat="59.9849586" lon="15.8273199">
        <ele>101.2</ele>
        <time>2013-10-11T18:23:15Z</time>
        <extensions><gpxtpx:TrackPointExtension><gpxtpx:hr>154</gpxtpx:hr></gpxtpx:TrackPointExtension></extensions>
      </trkpt>
      <trkpt lat="59.9849572" lon="15.8273224">
        <ele>101.2</ele>
        <time>2013-10-11T18:23:17Z</time>
        <extensions><gpxtpx:TrackPointExtension><gpxtpx:hr>154</gpxtpx:hr></gpxtpx:TrackPointExtension></extensions>
      </trkpt>
      <trkpt lat="59.9848834" lon="15.8273543">
        <ele>101.2</ele>
        <time>2013-10-11T18:23:18Z</time>
        <extensions><gpxtpx:TrackPointExtension><gpxtpx:hr>153</gpxtpx:hr></gpxtpx:TrackPointExtension></extensions>
      </trkpt>
      <trkpt lat="59.9848808" lon="15.8273554">
        <ele>101.2</ele>
        <time>2013-10-11T18:23:19Z</time>
        <extensions><gpxtpx:TrackPointExtension><gpxtpx:hr>154</gpxtpx:hr></gpxtpx:TrackPointExtension></extensions>
      </trkpt>
      <trkpt lat="59.9848805" lon="15.8273554">
        <ele>101.2</ele>
        <time>2013-10-11T18:23:20Z</time>
        <extensions><gpxtpx:TrackPointExtension><gpxtpx:hr>153</gpxtpx:hr></gpxtpx:TrackPointExtension></extensions>
      </trkpt>
      <trkpt lat="59.984864" lon="15.8273821">
        <ele>101.2</ele>
        <time>2013-10-11T18:23:21Z</time>
        <extensions><gpxtpx:TrackPointExtension><gpxtpx:hr>154</gpxtpx:hr></gpxtpx:TrackPointExtension></extensions>
      </trkpt>
      <trkpt lat="59.9848591" lon="15.8273908">
        <ele>101.2</ele>
        <time>2013-10-11T18:23:25Z</time>
        <extensions><gpxtpx:TrackPointExtension><gpxtpx:hr>154</gpxtpx:hr></gpxtpx:TrackPointExtension></extensions>
      </trkpt>
      <trkpt lat="59.9848585" lon="15.8273993">
        <ele>101.2</ele>
        <time>2013-10-11T18:23:26Z</time>
        <extensions><gpxtpx:TrackPointExtension><gpxtpx:hr>153</gpxtpx:hr></gpxtpx:TrackPointExtension></extensions>
      </trkpt>
      <trkpt lat="59.984855" lon="15.8274054">
        <ele>101.2</ele>
        <time>2013-10-11T18:23:27Z</time>
        <extensions><gpxtpx:TrackPointExtension><gpxtpx:hr>153</gpxtpx:hr></gpxtpx:TrackPointExtension></extensions>
      </trkpt>
      <trkpt lat="59.9848575" lon="15.8273925">
        <ele>101.2</ele>
        <time>2013-10-11T18:23:33Z</time>
        <extensions><gpxtpx:TrackPointExtension><gpxtpx:hr>153</gpxtpx:hr></gpxtpx:TrackPointExtension></extensions>
      </trkpt>
      <trkpt lat="59.9848556" lon="15.8273923">
        <ele>101.2</ele>
        <time>2013-10-11T18:23:34Z</time>
        <extensions><gpxtpx:TrackPointExtension><gpxtpx:hr>153</gpxtpx:hr></gpxtpx:TrackPointExtension></extensions>
      </trkpt>
      <trkpt lat="59.9848706" lon="15.8273655">
        <ele>101.2</ele>
        <time>2013-10-11T18:23:35Z</time>
        <extensions><gpxtpx:TrackPointExtension><gpxtpx:hr>153</gpxtpx:hr></gpxtpx:TrackPointExtension></extensions>
      </trkpt>
      <trkpt lat="59.9848785" lon="15.8273494">
        <ele>101.2</ele>
        <time>2013-10-11T18:23:37Z</time>
        <extensions><gpxtpx:TrackPointExtension><gpxtpx:hr>152</gpxtpx:hr></gpxtpx:TrackPointExtension></extensions>
      </trkpt>
      <trkpt lat="59.984887" lon="15.8273634">
        <ele>101.2</ele>
        <time>2013-10-11T18:23:38Z</time>
        <extensions><gpxtpx:TrackPointExtension><gpxtpx:hr>152</gpxtpx:hr></gpxtpx:TrackPointExtension></extensions>
      </trkpt>
      <trkpt lat="59.9848901" lon="15.8273606">
        <ele>101.2</ele>
        <time>2013-10-11T18:23:40Z</time>
        <extensions><gpxtpx:TrackPointExtension><gpxtpx:hr>151</gpxtpx:hr></gpxtpx:TrackPointExtension></extensions>
      </trkpt>
      <trkpt lat="59.9848734" lon="15.8273776">
        <ele>101.2</ele>
        <time>2013-10-11T18:23:41Z</time>
        <extensions><gpxtpx:TrackPointExtension><gpxtpx:hr>150</gpxtpx:hr></gpxtpx:TrackPointExtension></extensions>
      </trkpt>
      <trkpt lat="59.9848736" lon="15.8273983">
        <ele>101.2</ele>
        <time>2013-10-11T18:23:42Z</time>
        <extensions><gpxtpx:TrackPointExtension><gpxtpx:hr>150</gpxtpx:hr></gpxtpx:TrackPointExtension></extensions>
      </trkpt>
      <trkpt lat="59.9848975" lon="15.8274059">
        <ele>101.2</ele>
        <time>2013-10-11T18:23:44Z</time>
        <extensions><gpxtpx:TrackPointExtension><gpxtpx:hr>148</gpxtpx:hr></gpxtpx:TrackPointExtension></extensions>
      </trkpt>
      <trkpt lat="59.9849256" lon="15.8273763">
        <ele>101.2</ele>
        <time>2013-10-11T18:23:46Z</time>
        <extensions><gpxtpx:TrackPointExtension><gpxtpx:hr>148</gpxtpx:hr></gpxtpx:TrackPointExtension></extensions>
      </trkpt>
      <trkpt lat="59.9849388" lon="15.8273655">
        <ele>101.2</ele>
        <time>2013-10-11T18:23:48Z</time>
        <extensions><gpxtpx:TrackPointExtension><gpxtpx:hr>147</gpxtpx:hr></gpxtpx:TrackPointExtension></extensions>
      </trkpt>
      <trkpt lat="59.9849047" lon="15.8273893">
        <ele>101.2</ele>
        <time>2013-10-11T18:23:49Z</time>
        <extensions><gpxtpx:TrackPointExtension><gpxtpx:hr>147</gpxtpx:hr></gpxtpx:TrackPointExtension></extensions>
      </trkpt>
      <trkpt lat="59.9848952" lon="15.8273883">
        <ele>101.2</ele>
        <time>2013-10-11T18:23:50Z</time>
        <extensions><gpxtpx:TrackPointExtension><gpxtpx:hr>147</gpxtpx:hr></gpxtpx:TrackPointExtension></extensions>
      </trkpt>
      <trkpt lat="59.9848655" lon="15.8274657">
        <ele>101.2</ele>
        <time>2013-10-11T18:23:53Z</time>
        <extensions><gpxtpx:TrackPointExtension><gpxtpx:hr>147</gpxtpx:hr></gpxtpx:TrackPointExtension></extensions>
      </trkpt>
      <trkpt lat="59.9848624" lon="15.8274826">
        <ele>101.2</ele>
        <time>2013-10-11T18:23:54Z</time>
        <extensions><gpxtpx:TrackPointExtension><gpxtpx:hr>147</gpxtpx:hr></gpxtpx:TrackPointExtension></extensions>
      </trkpt>
      <trkpt lat="59.9848605" lon="15.8274893">
        <ele>101.2</ele>
        <time>2013-10-11T18:23:55Z</time>
        <extensions><gpxtpx:TrackPointExtension><gpxtpx:hr>147</gpxtpx:hr></gpxtpx:TrackPointExtension></extensions>
      </trkpt>
      <trkpt lat="59.9848601" lon="15.8274964">
        <ele>101.2</ele>
        <time>2013-10-11T18:23:56Z</time>
        <extensions><gpxtpx:TrackPointExtension><gpxtpx:hr>147</gpxtpx:hr></gpxtpx:TrackPointExtension></extensions>
      </trkpt>
      <trkpt lat="59.9848663" lon="15.8275041">
        <ele>101.2</ele>
        <time>2013-10-11T18:23:58Z</time>
        <extensions><gpxtpx:TrackPointExtension><gpxtpx:hr>147</gpxtpx:hr></gpxtpx:TrackPointExtension></extensions>
      </trkpt>
      <trkpt lat="59.9848671" lon="15.827463">
        <ele>101.2</ele>
        <time>2013-10-11T18:23:59Z</time>
        <extensions><gpxtpx:TrackPointExtension><gpxtpx:hr>147</gpxtpx:hr></gpxtpx:TrackPointExtension></extensions>
      </trkpt>
      <trkpt lat="59.9848783" lon="15.8274468">
        <ele>101.2</ele>
        <time>2013-10-11T18:24:00Z</time>
        <extensions><gpxtpx:TrackPointExtension><gpxtpx:hr>146</gpxtpx:hr></gpxtpx:TrackPointExtension></extensions>
      </trkpt>
      <trkpt lat="59.9848878" lon="15.827422">
        <ele>101.2</ele>
        <time>2013-10-11T18:24:01Z</time>
        <extensions><gpxtpx:TrackPointExtension><gpxtpx:hr>146</gpxtpx:hr></gpxtpx:TrackPointExtension></extensions>
      </trkpt>
      <trkpt lat="59.9848944" lon="15.8274104">
        <ele>101.2</ele>
        <time>2013-10-11T18:24:02Z</time>
        <extensions><gpxtpx:TrackPointExtension><gpxtpx:hr>146</gpxtpx:hr></gpxtpx:TrackPointExtension></extensions>
      </trkpt>
      <trkpt lat="59.9849073" lon="15.8273997">
        <ele>101.2</ele>
        <time>2013-10-11T18:24:04Z</time>
        <extensions><gpxtpx:TrackPointExtension><gpxtpx:hr>146</gpxtpx:hr></gpxtpx:TrackPointExtension></extensions>
      </trkpt>
      <trkpt lat="59.9849105" lon="15.8273971">
        <ele>101.2</ele>
        <time>2013-10-11T18:24:05Z</time>
        <extensions><gpxtpx:TrackPointExtension><gpxtpx:hr>146</gpxtpx:hr></gpxtpx:TrackPointExtension></extensions>
      </trkpt>
      <trkpt lat="59.9849136" lon="15.8273853">
        <ele>101.2</ele>
        <time>2013-10-11T18:24:09Z</time>
        <extensions><gpxtpx:TrackPointExtension><gpxtpx:hr>147</gpxtpx:hr></gpxtpx:TrackPointExtension></extensions>
      </trkpt>
      <trkpt lat="59.9849136" lon="15.8273816">
        <ele>101.2</ele>
        <time>2013-10-11T18:24:10Z</time>
        <extensions><gpxtpx:TrackPointExtension><gpxtpx:hr>147</gpxtpx:hr></gpxtpx:TrackPointExtension></extensions>
      </trkpt>
      <trkpt lat="59.9849139" lon="15.8273774">
        <ele>101.2</ele>
        <time>2013-10-11T18:24:11Z</time>
        <extensions><gpxtpx:TrackPointExtension><gpxtpx:hr>147</gpxtpx:hr></gpxtpx:TrackPointExtension></extensions>
      </trkpt>
      <trkpt lat="59.9849118" lon="15.8273712">
        <ele>101.2</ele>
        <time>2013-10-11T18:24:12Z</time>
        <extensions><gpxtpx:TrackPointExtension><gpxtpx:hr>147</gpxtpx:hr></gpxtpx:TrackPointExtension></extensions>
      </trkpt>
      <trkpt lat="59.9849357" lon="15.8273012">
        <ele>101.2</ele>
        <time>2013-10-11T18:24:14Z</time>
        <extensions><gpxtpx:TrackPointExtension><gpxtpx:hr>147</gpxtpx:hr></gpxtpx:TrackPointExtension></extensions>
      </trkpt>
      <trkpt lat="59.9849294" lon="15.8273272">
        <ele>101.2</ele>
        <time>2013-10-11T18:24:15Z</time>
        <extensions><gpxtpx:TrackPointExtension><gpxtpx:hr>147</gpxtpx:hr></gpxtpx:TrackPointExtension></extensions>
      </trkpt>
      <trkpt lat="59.9849278" lon="15.8273534">
        <ele>101.2</ele>
        <time>2013-10-11T18:24:16Z</time>
        <extensions><gpxtpx:TrackPointExtension><gpxtpx:hr>147</gpxtpx:hr></gpxtpx:TrackPointExtension></extensions>
      </trkpt>
      <trkpt lat="59.9849338" lon="15.8273719">
        <ele>101.2</ele>
        <time>2013-10-11T18:24:17Z</time>
        <extensions><gpxtpx:TrackPointExtension><gpxtpx:hr>147</gpxtpx:hr></gpxtpx:TrackPointExtension></extensions>
      </trkpt>
      <trkpt lat="59.9849349" lon="15.8273779">
        <ele>101.2</ele>
        <time>2013-10-11T18:24:18Z</time>
        <extensions><gpxtpx:TrackPointExtension><gpxtpx:hr>146</gpxtpx:hr></gpxtpx:TrackPointExtension></extensions>
      </trkpt>
      <trkpt lat="59.9849295" lon="15.8273681">
        <ele>101.2</ele>
        <time>2013-10-11T18:24:19Z</time>
        <extensions><gpxtpx:TrackPointExtension><gpxtpx:hr>147</gpxtpx:hr></gpxtpx:TrackPointExtension></extensions>
      </trkpt>
      <trkpt lat="59.9849341" lon="15.8273539">
        <ele>101.2</ele>
        <time>2013-10-11T18:24:20Z</time>
        <extensions><gpxtpx:TrackPointExtension><gpxtpx:hr>147</gpxtpx:hr></gpxtpx:TrackPointExtension></extensions>
      </trkpt>
      <trkpt lat="59.9849115" lon="15.8273722">
        <ele>101.2</ele>
        <time>2013-10-11T18:24:22Z</time>
        <extensions><gpxtpx:TrackPointExtension><gpxtpx:hr>147</gpxtpx:hr></gpxtpx:TrackPointExtension></extensions>
      </trkpt>
      <trkpt lat="59.9849196" lon="15.8273722">
        <ele>101.2</ele>
        <time>2013-10-11T18:24:25Z</time>
        <extensions><gpxtpx:TrackPointExtension><gpxtpx:hr>148</gpxtpx:hr></gpxtpx:TrackPointExtension></extensions>
      </trkpt>
      <trkpt lat="59.9849165" lon="15.827379">
        <ele>101.2</ele>
        <time>2013-10-11T18:24:26Z</time>
        <extensions><gpxtpx:TrackPointExtension><gpxtpx:hr>148</gpxtpx:hr></gpxtpx:TrackPointExtension></extensions>
      </trkpt>
      <trkpt lat="59.9849086" lon="15.8273901">
        <ele>101.2</ele>
        <time>2013-10-11T18:24:28Z</time>
        <extensions><gpxtpx:TrackPointExtension><gpxtpx:hr>149</gpxtpx:hr></gpxtpx:TrackPointExtension></extensions>
      </trkpt>
      <trkpt lat="59.9849068" lon="15.8273913">
        <ele>101.2</ele>
        <time>2013-10-11T18:24:29Z</time>
        <extensions><gpxtpx:TrackPointExtension><gpxtpx:hr>149</gpxtpx:hr></gpxtpx:TrackPointExtension></extensions>
      </trkpt>
      <trkpt lat="59.9848367" lon="15.8274432">
        <ele>101.2</ele>
        <time>2013-10-11T18:24:30Z</time>
        <extensions><gpxtpx:TrackPointExtension><gpxtpx:hr>149</gpxtpx:hr></gpxtpx:TrackPointExtension></extensions>
      </trkpt>
      <trkpt lat="59.9848391" lon="15.8274371">
        <ele>101.2</ele>
        <time>2013-10-11T18:24:31Z</time>
        <extensions><gpxtpx:TrackPointExtension><gpxtpx:hr>149</gpxtpx:hr></gpxtpx:TrackPointExtension></extensions>
      </trkpt>
      <trkpt lat="59.9848427" lon="15.8274328">
        <ele>101.2</ele>
        <time>2013-10-11T18:24:32Z</time>
        <extensions><gpxtpx:TrackPointExtension><gpxtpx:hr>149</gpxtpx:hr></gpxtpx:TrackPointExtension></extensions>
      </trkpt>
      <trkpt lat="59.9848502" lon="15.8274319">
        <ele>101.2</ele>
        <time>2013-10-11T18:24:33Z</time>
        <extensions><gpxtpx:TrackPointExtension><gpxtpx:hr>149</gpxtpx:hr></gpxtpx:TrackPointExtension></extensions>
      </trkpt>
      <trkpt lat="59.9848528" lon="15.8274307">
        <ele>101.2</ele>
        <time>2013-10-11T18:24:34Z</time>
        <extensions><gpxtpx:TrackPointExtension><gpxtpx:hr>149</gpxtpx:hr></gpxtpx:TrackPointExtension></extensions>
      </trkpt>
      <trkpt lat="59.9848543" lon="15.827432">
        <ele>101.2</ele>
        <time>2013-10-11T18:24:35Z</time>
        <extensions><gpxtpx:TrackPointExtension><gpxtpx:hr>150</gpxtpx:hr></gpxtpx:TrackPointExtension></extensions>
      </trkpt>
      <trkpt lat="59.9848437" lon="15.8274594">
        <ele>101.2</ele>
        <time>2013-10-11T18:24:36Z</time>
        <extensions><gpxtpx:TrackPointExtension><gpxtpx:hr>150</gpxtpx:hr></gpxtpx:TrackPointExtension></extensions>
      </trkpt>
      <trkpt lat="59.9848512" lon="15.8274641">
        <ele>101.2</ele>
        <time>2013-10-11T18:24:37Z</time>
        <extensions><gpxtpx:TrackPointExtension><gpxtpx:hr>150</gpxtpx:hr></gpxtpx:TrackPointExtension></extensions>
      </trkpt>
      <trkpt lat="59.9848632" lon="15.8274652">
        <ele>101.2</ele>
        <time>2013-10-11T18:24:40Z</time>
        <extensions><gpxtpx:TrackPointExtension><gpxtpx:hr>150</gpxtpx:hr></gpxtpx:TrackPointExtension></extensions>
      </trkpt>
      <trkpt lat="59.984831" lon="15.8274427">
        <ele>101.2</ele>
        <time>2013-10-11T18:24:41Z</time>
        <extensions><gpxtpx:TrackPointExtension><gpxtpx:hr>150</gpxtpx:hr></gpxtpx:TrackPointExtension></extensions>
      </trkpt>
      <trkpt lat="59.9848303" lon="15.8274339">
        <ele>101.2</ele>
        <time>2013-10-11T18:24:42Z</time>
        <extensions><gpxtpx:TrackPointExtension><gpxtpx:hr>150</gpxtpx:hr></gpxtpx:TrackPointExtension></extensions>
      </trkpt>
      <trkpt lat="59.9848176" lon="15.8274282">
        <ele>101.2</ele>
        <time>2013-10-11T18:24:43Z</time>
        <extensions><gpxtpx:TrackPointExtension><gpxtpx:hr>150</gpxtpx:hr></gpxtpx:TrackPointExtension></extensions>
      </trkpt>
      <trkpt lat="59.9848098" lon="15.8274151">
        <ele>101.2</ele>
        <time>2013-10-11T18:24:44Z</time>
        <extensions><gpxtpx:TrackPointExtension><gpxtpx:hr>150</gpxtpx:hr></gpxtpx:TrackPointExtension></extensions>
      </trkpt>
      <trkpt lat="59.9848073" lon="15.8273998">
        <ele>101.2</ele>
        <time>2013-10-11T18:24:45Z</time>
        <extensions><gpxtpx:TrackPointExtension><gpxtpx:hr>150</gpxtpx:hr></gpxtpx:TrackPointExtension></extensions>
      </trkpt>
      <trkpt lat="59.984804" lon="15.82739">
        <ele>101.2</ele>
        <time>2013-10-11T18:24:47Z</time>
        <extensions><gpxtpx:TrackPointExtension><gpxtpx:hr>151</gpxtpx:hr></gpxtpx:TrackPointExtension></extensions>
      </trkpt>
      <trkpt lat="59.9848" lon="15.8273882">
        <ele>101.2</ele>
        <time>2013-10-11T18:24:48Z</time>
        <extensions><gpxtpx:TrackPointExtension><gpxtpx:hr>151</gpxtpx:hr></gpxtpx:TrackPointExtension></extensions>
      </trkpt>
      <trkpt lat="59.9847607" lon="15.8274423">
        <ele>101.2</ele>
        <time>2013-10-11T18:24:49Z</time>
        <extensions><gpxtpx:TrackPointExtension><gpxtpx:hr>152</gpxtpx:hr></gpxtpx:TrackPointExtension></extensions>
      </trkpt>
      <trkpt lat="59.9847498" lon="15.8274589">
        <ele>101.2</ele>
        <time>2013-10-11T18:24:50Z</time>
        <extensions><gpxtpx:TrackPointExtension><gpxtpx:hr>152</gpxtpx:hr></gpxtpx:TrackPointExtension></extensions>
      </trkpt>
      <trkpt lat="59.9847424" lon="15.8274828">
        <ele>101.2</ele>
        <time>2013-10-11T18:24:51Z</time>
        <extensions><gpxtpx:TrackPointExtension><gpxtpx:hr>153</gpxtpx:hr></gpxtpx:TrackPointExtension></extensions>
      </trkpt>
      <trkpt lat="59.9847364" lon="15.827509">
        <ele>101.2</ele>
        <time>2013-10-11T18:24:52Z</time>
        <extensions><gpxtpx:TrackPointExtension><gpxtpx:hr>153</gpxtpx:hr></gpxtpx:TrackPointExtension></extensions>
      </trkpt>
      <trkpt lat="59.9847182" lon="15.8275147">
        <ele>101.2</ele>
        <time>2013-10-11T18:24:53Z</time>
        <extensions><gpxtpx:TrackPointExtension><gpxtpx:hr>154</gpxtpx:hr></gpxtpx:TrackPointExtension></extensions>
      </trkpt>
      <trkpt lat="59.9846963" lon="15.8275254">
        <ele>101.2</ele>
        <time>2013-10-11T18:24:54Z</time>
        <extensions><gpxtpx:TrackPointExtension><gpxtpx:hr>154</gpxtpx:hr></gpxtpx:TrackPointExtension></extensions>
      </trkpt>
      <trkpt lat="59.984681" lon="15.82753">
        <ele>101.2</ele>
        <time>2013-10-11T18:24:55Z</time>
        <extensions><gpxtpx:TrackPointExtension><gpxtpx:hr>154</gpxtpx:hr></gpxtpx:TrackPointExtension></extensions>
      </trkpt>
      <trkpt lat="59.9846606" lon="15.8275451">
        <ele>101.2</ele>
        <time>2013-10-11T18:24:57Z</time>
        <extensions><gpxtpx:TrackPointExtension><gpxtpx:hr>155</gpxtpx:hr></gpxtpx:TrackPointExtension></extensions>
      </trkpt>
      <trkpt lat="59.9846716" lon="15.8275166">
        <ele>101.2</ele>
        <time>2013-10-11T18:24:58Z</time>
        <extensions><gpxtpx:TrackPointExtension><gpxtpx:hr>155</gpxtpx:hr></gpxtpx:TrackPointExtension></extensions>
      </trkpt>
      <trkpt lat="59.9846633" lon="15.8274938">
        <ele>101.2</ele>
        <time>2013-10-11T18:24:59Z</time>
        <extensions><gpxtpx:TrackPointExtension><gpxtpx:hr>155</gpxtpx:hr></gpxtpx:TrackPointExtension></extensions>
      </trkpt>
      <trkpt lat="59.9846879" lon="15.8274302">
        <ele>101.2</ele>
        <time>2013-10-11T18:25:03Z</time>
        <extensions><gpxtpx:TrackPointExtension><gpxtpx:hr>155</gpxtpx:hr></gpxtpx:TrackPointExtension></extensions>
      </trkpt>
      <trkpt lat="59.9846973" lon="15.8274161">
        <ele>101.2</ele>
        <time>2013-10-11T18:25:04Z</time>
        <extensions><gpxtpx:TrackPointExtension><gpxtpx:hr>155</gpxtpx:hr></gpxtpx:TrackPointExtension></extensions>
      </trkpt>
      <trkpt lat="59.984687" lon="15.8274153">
        <ele>101.2</ele>
        <time>2013-10-11T18:25:05Z</time>
        <extensions><gpxtpx:TrackPointExtension><gpxtpx:hr>155</gpxtpx:hr></gpxtpx:TrackPointExtension></extensions>
      </trkpt>
      <trkpt lat="59.984679" lon="15.8273973">
        <ele>101.2</ele>
        <time>2013-10-11T18:25:06Z</time>
        <extensions><gpxtpx:TrackPointExtension><gpxtpx:hr>155</gpxtpx:hr></gpxtpx:TrackPointExtension></extensions>
      </trkpt>
      <trkpt lat="59.9846804" lon="15.8273733">
        <ele>101.2</ele>
        <time>2013-10-11T18:25:07Z</time>
        <extensions><gpxtpx:TrackPointExtension><gpxtpx:hr>155</gpxtpx:hr></gpxtpx:TrackPointExtension></extensions>
      </trkpt>
      <trkpt lat="59.9846774" lon="15.8273461">
        <ele>101.2</ele>
        <time>2013-10-11T18:25:08Z</time>
        <extensions><gpxtpx:TrackPointExtension><gpxtpx:hr>155</gpxtpx:hr></gpxtpx:TrackPointExtension></extensions>
      </trkpt>
      <trkpt lat="59.9846909" lon="15.827329">
        <ele>101.2</ele>
        <time>2013-10-11T18:25:09Z</time>
        <extensions><gpxtpx:TrackPointExtension><gpxtpx:hr>155</gpxtpx:hr></gpxtpx:TrackPointExtension></extensions>
      </trkpt>
      <trkpt lat="59.9847015" lon="15.8272699">
        <ele>101.2</ele>
        <time>2013-10-11T18:25:11Z</time>
        <extensions><gpxtpx:TrackPointExtension><gpxtpx:hr>155</gpxtpx:hr></gpxtpx:TrackPointExtension></extensions>
      </trkpt>
      <trkpt lat="59.9847053" lon="15.8272661">
        <ele>101.2</ele>
        <time>2013-10-11T18:25:12Z</time>
        <extensions><gpxtpx:TrackPointExtension><gpxtpx:hr>155</gpxtpx:hr></gpxtpx:TrackPointExtension></extensions>
      </trkpt>
      <trkpt lat="59.9847104" lon="15.8272562">
        <ele>101.2</ele>
        <time>2013-10-11T18:25:13Z</time>
        <extensions><gpxtpx:TrackPointExtension><gpxtpx:hr>155</gpxtpx:hr></gpxtpx:TrackPointExtension></extensions>
      </trkpt>
      <trkpt lat="59.9847149" lon="15.8272588">
        <ele>101.2</ele>
        <time>2013-10-11T18:25:14Z</time>
        <extensions><gpxtpx:TrackPointExtension><gpxtpx:hr>155</gpxtpx:hr></gpxtpx:TrackPointExtension></extensions>
      </trkpt>
      <trkpt lat="59.9847197" lon="15.8272676">
        <ele>101.2</ele>
        <time>2013-10-11T18:25:15Z</time>
        <extensions><gpxtpx:TrackPointExtension><gpxtpx:hr>155</gpxtpx:hr></gpxtpx:TrackPointExtension></extensions>
      </trkpt>
      <trkpt lat="59.9847214" lon="15.8272735">
        <ele>101.2</ele>
        <time>2013-10-11T18:25:16Z</time>
        <extensions><gpxtpx:TrackPointExtension><gpxtpx:hr>155</gpxtpx:hr></gpxtpx:TrackPointExtension></extensions>
      </trkpt>
      <trkpt lat="59.9847267" lon="15.8272685">
        <ele>101.2</ele>
        <time>2013-10-11T18:25:17Z</time>
        <extensions><gpxtpx:TrackPointExtension><gpxtpx:hr>154</gpxtpx:hr></gpxtpx:TrackPointExtension></extensions>
      </trkpt>
      <trkpt lat="59.9847289" lon="15.8272654">
        <ele>101.2</ele>
        <time>2013-10-11T18:25:18Z</time>
        <extensions><gpxtpx:TrackPointExtension><gpxtpx:hr>155</gpxtpx:hr></gpxtpx:TrackPointExtension></extensions>
      </trkpt>
      <trkpt lat="59.9847298" lon="15.8272737">
        <ele>101.2</ele>
        <time>2013-10-11T18:25:20Z</time>
        <extensions><gpxtpx:TrackPointExtension><gpxtpx:hr>154</gpxtpx:hr></gpxtpx:TrackPointExtension></extensions>
      </trkpt>
      <trkpt lat="59.984728" lon="15.8272867">
        <ele>101.2</ele>
        <time>2013-10-11T18:25:21Z</time>
        <extensions><gpxtpx:TrackPointExtension><gpxtpx:hr>155</gpxtpx:hr></gpxtpx:TrackPointExtension></extensions>
      </trkpt>
      <trkpt lat="59.9847232" lon="15.8273047">
        <ele>101.2</ele>
        <time>2013-10-11T18:25:23Z</time>
        <extensions><gpxtpx:TrackPointExtension><gpxtpx:hr>154</gpxtpx:hr></gpxtpx:TrackPointExtension></extensions>
      </trkpt>
      <trkpt lat="59.9847238" lon="15.8272724">
        <ele>101.2</ele>
        <time>2013-10-11T18:25:26Z</time>
        <extensions><gpxtpx:TrackPointExtension><gpxtpx:hr>155</gpxtpx:hr></gpxtpx:TrackPointExtension></extensions>
      </trkpt>
      <trkpt lat="59.9847116" lon="15.8273714">
        <ele>101.2</ele>
        <time>2013-10-11T18:25:27Z</time>
        <extensions><gpxtpx:TrackPointExtension><gpxtpx:hr>154</gpxtpx:hr></gpxtpx:TrackPointExtension></extensions>
      </trkpt>
      <trkpt lat="59.9847189" lon="15.8273582">
        <ele>101.2</ele>
        <time>2013-10-11T18:25:28Z</time>
        <extensions><gpxtpx:TrackPointExtension><gpxtpx:hr>154</gpxtpx:hr></gpxtpx:TrackPointExtension></extensions>
      </trkpt>
      <trkpt lat="59.9847249" lon="15.8273595">
        <ele>101.2</ele>
        <time>2013-10-11T18:25:29Z</time>
        <extensions><gpxtpx:TrackPointExtension><gpxtpx:hr>154</gpxtpx:hr></gpxtpx:TrackPointExtension></extensions>
      </trkpt>
      <trkpt lat="59.984729" lon="15.8273674">
        <ele>101.2</ele>
        <time>2013-10-11T18:25:30Z</time>
        <extensions><gpxtpx:TrackPointExtension><gpxtpx:hr>154</gpxtpx:hr></gpxtpx:TrackPointExtension></extensions>
      </trkpt>
      <trkpt lat="59.9847302" lon="15.8273751">
        <ele>101.2</ele>
        <time>2013-10-11T18:25:31Z</time>
        <extensions><gpxtpx:TrackPointExtension><gpxtpx:hr>154</gpxtpx:hr></gpxtpx:TrackPointExtension></extensions>
      </trkpt>
      <trkpt lat="59.9847279" lon="15.8273793">
        <ele>101.2</ele>
        <time>2013-10-11T18:25:32Z</time>
        <extensions><gpxtpx:TrackPointExtension><gpxtpx:hr>154</gpxtpx:hr></gpxtpx:TrackPointExtension></extensions>
      </trkpt>
      <trkpt lat="59.9847216" lon="15.8273943">
        <ele>101.2</ele>
        <time>2013-10-11T18:25:34Z</time>
        <extensions><gpxtpx:TrackPointExtension><gpxtpx:hr>155</gpxtpx:hr></gpxtpx:TrackPointExtension></extensions>
      </trkpt>
      <trkpt lat="59.9847218" lon="15.8274051">
        <ele>101.2</ele>
        <time>2013-10-11T18:25:35Z</time>
        <extensions><gpxtpx:TrackPointExtension><gpxtpx:hr>155</gpxtpx:hr></gpxtpx:TrackPointExtension></extensions>
      </trkpt>
      <trkpt lat="59.9847236" lon="15.8274113">
        <ele>101.2</ele>
        <time>2013-10-11T18:25:36Z</time>
        <extensions><gpxtpx:TrackPointExtension><gpxtpx:hr>154</gpxtpx:hr></gpxtpx:TrackPointExtension></extensions>
      </trkpt>
      <trkpt lat="59.9847259" lon="15.8274155">
        <ele>101.2</ele>
        <time>2013-10-11T18:25:37Z</time>
        <extensions><gpxtpx:TrackPointExtension><gpxtpx:hr>155</gpxtpx:hr></gpxtpx:TrackPointExtension></extensions>
      </trkpt>
      <trkpt lat="59.9847312" lon="15.8274201">
        <ele>101.2</ele>
        <time>2013-10-11T18:25:38Z</time>
        <extensions><gpxtpx:TrackPointExtension><gpxtpx:hr>155</gpxtpx:hr></gpxtpx:TrackPointExtension></extensions>
      </trkpt>
      <trkpt lat="59.9847361" lon="15.8274188">
        <ele>101.2</ele>
        <time>2013-10-11T18:25:39Z</time>
        <extensions><gpxtpx:TrackPointExtension><gpxtpx:hr>155</gpxtpx:hr></gpxtpx:TrackPointExtension></extensions>
      </trkpt>
      <trkpt lat="59.9847193" lon="15.8275326">
        <ele>101.2</ele>
        <time>2013-10-11T18:25:40Z</time>
        <extensions><gpxtpx:TrackPointExtension><gpxtpx:hr>155</gpxtpx:hr></gpxtpx:TrackPointExtension></extensions>
      </trkpt>
      <trkpt lat="59.9847248" lon="15.8275313">
        <ele>101.2</ele>
        <time>2013-10-11T18:25:41Z</time>
        <extensions><gpxtpx:TrackPointExtension><gpxtpx:hr>155</gpxtpx:hr></gpxtpx:TrackPointExtension></extensions>
      </trkpt>
      <trkpt lat="59.984734" lon="15.8275187">
        <ele>101.2</ele>
        <time>2013-10-11T18:25:46Z</time>
        <extensions><gpxtpx:TrackPointExtension><gpxtpx:hr>155</gpxtpx:hr></gpxtpx:TrackPointExtension></extensions>
      </trkpt>
      <trkpt lat="59.9847291" lon="15.8275262">
        <ele>101.2</ele>
        <time>2013-10-11T18:25:47Z</time>
        <extensions><gpxtpx:TrackPointExtension><gpxtpx:hr>155</gpxtpx:hr></gpxtpx:TrackPointExtension></extensions>
      </trkpt>
      <trkpt lat="59.9847222" lon="15.8275478">
        <ele>101.2</ele>
        <time>2013-10-11T18:25:49Z</time>
        <extensions><gpxtpx:TrackPointExtension><gpxtpx:hr>156</gpxtpx:hr></gpxtpx:TrackPointExtension></extensions>
      </trkpt>
      <trkpt lat="59.9847202" lon="15.827547">
        <ele>101.2</ele>
        <time>2013-10-11T18:25:50Z</time>
        <extensions><gpxtpx:TrackPointExtension><gpxtpx:hr>156</gpxtpx:hr></gpxtpx:TrackPointExtension></extensions>
      </trkpt>
      <trkpt lat="59.9846943" lon="15.8276447">
        <ele>101.2</ele>
        <time>2013-10-11T18:25:51Z</time>
        <extensions><gpxtpx:TrackPointExtension><gpxtpx:hr>156</gpxtpx:hr></gpxtpx:TrackPointExtension></extensions>
      </trkpt>
      <trkpt lat="59.9846864" lon="15.8276407">
        <ele>101.2</ele>
        <time>2013-10-11T18:25:52Z</time>
        <extensions><gpxtpx:TrackPointExtension><gpxtpx:hr>156</gpxtpx:hr></gpxtpx:TrackPointExtension></extensions>
      </trkpt>
      <trkpt lat="59.9846722" lon="15.8276312">
        <ele>101.2</ele>
        <time>2013-10-11T18:25:54Z</time>
        <extensions><gpxtpx:TrackPointExtension><gpxtpx:hr>156</gpxtpx:hr></gpxtpx:TrackPointExtension></extensions>
      </trkpt>
      <trkpt lat="59.9846698" lon="15.8276424">
        <ele>101.2</ele>
        <time>2013-10-11T18:25:55Z</time>
        <extensions><gpxtpx:TrackPointExtension><gpxtpx:hr>157</gpxtpx:hr></gpxtpx:TrackPointExtension></extensions>
      </trkpt>
      <trkpt lat="59.9846793" lon="15.8277178">
        <ele>101.2</ele>
        <time>2013-10-11T18:25:56Z</time>
        <extensions><gpxtpx:TrackPointExtension><gpxtpx:hr>157</gpxtpx:hr></gpxtpx:TrackPointExtension></extensions>
      </trkpt>
      <trkpt lat="59.9846848" lon="15.8277288">
        <ele>101.2</ele>
        <time>2013-10-11T18:25:57Z</time>
        <extensions><gpxtpx:TrackPointExtension><gpxtpx:hr>157</gpxtpx:hr></gpxtpx:TrackPointExtension></extensions>
      </trkpt>
      <trkpt lat="59.9846815" lon="15.8277538">
        <ele>101.2</ele>
        <time>2013-10-11T18:25:58Z</time>
        <extensions><gpxtpx:TrackPointExtension><gpxtpx:hr>157</gpxtpx:hr></gpxtpx:TrackPointExtension></extensions>
      </trkpt>
      <trkpt lat="59.9846813" lon="15.8277633">
        <ele>101.2</ele>
        <time>2013-10-11T18:25:59Z</time>
        <extensions><gpxtpx:TrackPointExtension><gpxtpx:hr>157</gpxtpx:hr></gpxtpx:TrackPointExtension></extensions>
      </trkpt>
      <trkpt lat="59.9846803" lon="15.8277612">
        <ele>101.2</ele>
        <time>2013-10-11T18:26:00Z</time>
        <extensions><gpxtpx:TrackPointExtension><gpxtpx:hr>157</gpxtpx:hr></gpxtpx:TrackPointExtension></extensions>
      </trkpt>
      <trkpt lat="59.9846696" lon="15.8277412">
        <ele>101.2</ele>
        <time>2013-10-11T18:26:05Z</time>
        <extensions><gpxtpx:TrackPointExtension><gpxtpx:hr>157</gpxtpx:hr></gpxtpx:TrackPointExtension></extensions>
      </trkpt>
      <trkpt lat="59.9846714" lon="15.8277446">
        <ele>101.2</ele>
        <time>2013-10-11T18:26:06Z</time>
        <extensions><gpxtpx:TrackPointExtension><gpxtpx:hr>157</gpxtpx:hr></gpxtpx:TrackPointExtension></extensions>
      </trkpt>
      <trkpt lat="59.9846716" lon="15.8277439">
        <ele>101.2</ele>
        <time>2013-10-11T18:26:07Z</time>
        <extensions><gpxtpx:TrackPointExtension><gpxtpx:hr>158</gpxtpx:hr></gpxtpx:TrackPointExtension></extensions>
      </trkpt>
      <trkpt lat="59.9846722" lon="15.8277488">
        <ele>101.2</ele>
        <time>2013-10-11T18:26:08Z</time>
        <extensions><gpxtpx:TrackPointExtension><gpxtpx:hr>157</gpxtpx:hr></gpxtpx:TrackPointExtension></extensions>
      </trkpt>
      <trkpt lat="59.9846736" lon="15.8277469">
        <ele>101.2</ele>
        <time>2013-10-11T18:26:09Z</time>
        <extensions><gpxtpx:TrackPointExtension><gpxtpx:hr>158</gpxtpx:hr></gpxtpx:TrackPointExtension></extensions>
      </trkpt>
      <trkpt lat="59.9846686" lon="15.827741">
        <ele>101.2</ele>
        <time>2013-10-11T18:26:12Z</time>
        <extensions><gpxtpx:TrackPointExtension><gpxtpx:hr>157</gpxtpx:hr></gpxtpx:TrackPointExtension></extensions>
      </trkpt>
      <trkpt lat="59.984663" lon="15.8277464">
        <ele>101.2</ele>
        <time>2013-10-11T18:26:17Z</time>
        <extensions><gpxtpx:TrackPointExtension><gpxtpx:hr>158</gpxtpx:hr></gpxtpx:TrackPointExtension></extensions>
      </trkpt>
      <trkpt lat="59.9846891" lon="15.8277322">
        <ele>101.2</ele>
        <time>2013-10-11T18:26:18Z</time>
        <extensions><gpxtpx:TrackPointExtension><gpxtpx:hr>158</gpxtpx:hr></gpxtpx:TrackPointExtension></extensions>
      </trkpt>
      <trkpt lat="59.984707" lon="15.8277343">
        <ele>101.2</ele>
        <time>2013-10-11T18:26:20Z</time>
        <extensions><gpxtpx:TrackPointExtension><gpxtpx:hr>158</gpxtpx:hr></gpxtpx:TrackPointExtension></extensions>
      </trkpt>
      <trkpt lat="59.9847073" lon="15.8277732">
        <ele>101.2</ele>
        <time>2013-10-11T18:26:21Z</time>
        <extensions><gpxtpx:TrackPointExtension><gpxtpx:hr>158</gpxtpx:hr></gpxtpx:TrackPointExtension></extensions>
      </trkpt>
      <trkpt lat="59.9847176" lon="15.827801">
        <ele>101.2</ele>
        <time>2013-10-11T18:26:23Z</time>
        <extensions><gpxtpx:TrackPointExtension><gpxtpx:hr>158</gpxtpx:hr></gpxtpx:TrackPointExtension></extensions>
      </trkpt>
      <trkpt lat="59.9847178" lon="15.8278078">
        <ele>101.2</ele>
        <time>2013-10-11T18:26:24Z</time>
        <extensions><gpxtpx:TrackPointExtension><gpxtpx:hr>158</gpxtpx:hr></gpxtpx:TrackPointExtension></extensions>
      </trkpt>
      <trkpt lat="59.9847181" lon="15.8278114">
        <ele>101.2</ele>
        <time>2013-10-11T18:26:25Z</time>
        <extensions><gpxtpx:TrackPointExtension><gpxtpx:hr>159</gpxtpx:hr></gpxtpx:TrackPointExtension></extensions>
      </trkpt>
      <trkpt lat="59.9847196" lon="15.8278146">
        <ele>101.2</ele>
        <time>2013-10-11T18:26:26Z</time>
        <extensions><gpxtpx:TrackPointExtension><gpxtpx:hr>159</gpxtpx:hr></gpxtpx:TrackPointExtension></extensions>
      </trkpt>
      <trkpt lat="59.9847135" lon="15.8278234">
        <ele>101.2</ele>
        <time>2013-10-11T18:26:27Z</time>
        <extensions><gpxtpx:TrackPointExtension><gpxtpx:hr>159</gpxtpx:hr></gpxtpx:TrackPointExtension></extensions>
      </trkpt>
      <trkpt lat="59.9847213" lon="15.8278264">
        <ele>101.2</ele>
        <time>2013-10-11T18:26:28Z</time>
        <extensions><gpxtpx:TrackPointExtension><gpxtpx:hr>159</gpxtpx:hr></gpxtpx:TrackPointExtension></extensions>
      </trkpt>
      <trkpt lat="59.9847244" lon="15.8278253">
        <ele>101.2</ele>
        <time>2013-10-11T18:26:29Z</time>
        <extensions><gpxtpx:TrackPointExtension><gpxtpx:hr>158</gpxtpx:hr></gpxtpx:TrackPointExtension></extensions>
      </trkpt>
      <trkpt lat="59.9847273" lon="15.8278214">
        <ele>101.2</ele>
        <time>2013-10-11T18:26:30Z</time>
        <extensions><gpxtpx:TrackPointExtension><gpxtpx:hr>159</gpxtpx:hr></gpxtpx:TrackPointExtension></extensions>
      </trkpt>
      <trkpt lat="59.9847275" lon="15.8278187">
        <ele>101.2</ele>
        <time>2013-10-11T18:26:31Z</time>
        <extensions><gpxtpx:TrackPointExtension><gpxtpx:hr>158</gpxtpx:hr></gpxtpx:TrackPointExtension></extensions>
      </trkpt>
      <trkpt lat="59.9847287" lon="15.8278156">
        <ele>101.2</ele>
        <time>2013-10-11T18:26:32Z</time>
        <extensions><gpxtpx:TrackPointExtension><gpxtpx:hr>158</gpxtpx:hr></gpxtpx:TrackPointExtension></extensions>
      </trkpt>
      <trkpt lat="59.9847002" lon="15.8277964">
        <ele>101.2</ele>
        <time>2013-10-11T18:26:36Z</time>
        <extensions><gpxtpx:TrackPointExtension><gpxtpx:hr>158</gpxtpx:hr></gpxtpx:TrackPointExtension></extensions>
      </trkpt>
      <trkpt lat="59.9847024" lon="15.8277866">
        <ele>101.2</ele>
        <time>2013-10-11T18:26:37Z</time>
        <extensions><gpxtpx:TrackPointExtension><gpxtpx:hr>158</gpxtpx:hr></gpxtpx:TrackPointExtension></extensions>
      </trkpt>
      <trkpt lat="59.9847052" lon="15.8277962">
        <ele>101.2</ele>
        <time>2013-10-11T18:26:42Z</time>
        <extensions><gpxtpx:TrackPointExtension><gpxtpx:hr>159</gpxtpx:hr></gpxtpx:TrackPointExtension></extensions>
      </trkpt>
      <trkpt lat="59.9847059" lon="15.8277945">
        <ele>101.2</ele>
        <time>2013-10-11T18:26:43Z</time>
        <extensions><gpxtpx:TrackPointExtension><gpxtpx:hr>158</gpxtpx:hr></gpxtpx:TrackPointExtension></extensions>
      </trkpt>
      <trkpt lat="59.9847062" lon="15.8277944">
        <ele>101.2</ele>
        <time>2013-10-11T18:26:44Z</time>
        <extensions><gpxtpx:TrackPointExtension><gpxtpx:hr>159</gpxtpx:hr></gpxtpx:TrackPointExtension></extensions>
      </trkpt>
      <trkpt lat="59.9847077" lon="15.8277939">
        <ele>101.2</ele>
        <time>2013-10-11T18:26:45Z</time>
        <extensions><gpxtpx:TrackPointExtension><gpxtpx:hr>158</gpxtpx:hr></gpxtpx:TrackPointExtension></extensions>
      </trkpt>
      <trkpt lat="59.9847088" lon="15.8277953">
        <ele>101.2</ele>
        <time>2013-10-11T18:26:46Z</time>
        <extensions><gpxtpx:TrackPointExtension><gpxtpx:hr>158</gpxtpx:hr></gpxtpx:TrackPointExtension></extensions>
      </trkpt>
      <trkpt lat="59.9847095" lon="15.8278011">
        <ele>101.2</ele>
        <time>2013-10-11T18:26:47Z</time>
        <extensions><gpxtpx:TrackPointExtension><gpxtpx:hr>159</gpxtpx:hr></gpxtpx:TrackPointExtension></extensions>
      </trkpt>
      <trkpt lat="59.9847101" lon="15.8278072">
        <ele>101.2</ele>
        <time>2013-10-11T18:26:48Z</time>
        <extensions><gpxtpx:TrackPointExtension><gpxtpx:hr>159</gpxtpx:hr></gpxtpx:TrackPointExtension></extensions>
      </trkpt>
      <trkpt lat="59.9846853" lon="15.8277589">
        <ele>101.2</ele>
        <time>2013-10-11T18:26:49Z</time>
        <extensions><gpxtpx:TrackPointExtension><gpxtpx:hr>159</gpxtpx:hr></gpxtpx:TrackPointExtension></extensions>
      </trkpt>
      <trkpt lat="59.9846907" lon="15.827755">
        <ele>101.2</ele>
        <time>2013-10-11T18:26:50Z</time>
        <extensions><gpxtpx:TrackPointExtension><gpxtpx:hr>159</gpxtpx:hr></gpxtpx:TrackPointExtension></extensions>
      </trkpt>
      <trkpt lat="59.9846915" lon="15.8277517">
        <ele>101.2</ele>
        <time>2013-10-11T18:26:51Z</time>
        <extensions><gpxtpx:TrackPointExtension><gpxtpx:hr>159</gpxtpx:hr></gpxtpx:TrackPointExtension></extensions>
      </trkpt>
      <trkpt lat="59.9846898" lon="15.8277473">
        <ele>101.2</ele>
        <time>2013-10-11T18:26:52Z</time>
        <extensions><gpxtpx:TrackPointExtension><gpxtpx:hr>159</gpxtpx:hr></gpxtpx:TrackPointExtension></extensions>
      </trkpt>
      <trkpt lat="59.9846921" lon="15.8277407">
        <ele>101.2</ele>
        <time>2013-10-11T18:26:54Z</time>
        <extensions><gpxtpx:TrackPointExtension><gpxtpx:hr>159</gpxtpx:hr></gpxtpx:TrackPointExtension></extensions>
      </trkpt>
      <trkpt lat="59.9846783" lon="15.8277246">
        <ele>101.2</ele>
        <time>2013-10-11T18:26:55Z</time>
        <extensions><gpxtpx:TrackPointExtension><gpxtpx:hr>159</gpxtpx:hr></gpxtpx:TrackPointExtension></extensions>
      </trkpt>
      <trkpt lat="59.9846786" lon="15.8277353">
        <ele>101.2</ele>
        <time>2013-10-11T18:26:56Z</time>
        <extensions><gpxtpx:TrackPointExtension><gpxtpx:hr>159</gpxtpx:hr></gpxtpx:TrackPointExtension></extensions>
      </trkpt>
      <trkpt lat="59.9846778" lon="15.8277161">
        <ele>101.2</ele>
        <time>2013-10-11T18:26:57Z</time>
        <extensions><gpxtpx:TrackPointExtension><gpxtpx:hr>159</gpxtpx:hr></gpxtpx:TrackPointExtension></extensions>
      </trkpt>
      <trkpt lat="59.9846695" lon="15.8277087">
        <ele>101.2</ele>
        <time>2013-10-11T18:27:01Z</time>
        <extensions><gpxtpx:TrackPointExtension><gpxtpx:hr>158</gpxtpx:hr></gpxtpx:TrackPointExtension></extensions>
      </trkpt>
      <trkpt lat="59.9846647" lon="15.8277096">
        <ele>101.2</ele>
        <time>2013-10-11T18:27:02Z</time>
        <extensions><gpxtpx:TrackPointExtension><gpxtpx:hr>159</gpxtpx:hr></gpxtpx:TrackPointExtension></extensions>
      </trkpt>
      <trkpt lat="59.9846667" lon="15.8277194">
        <ele>101.2</ele>
        <time>2013-10-11T18:27:03Z</time>
        <extensions><gpxtpx:TrackPointExtension><gpxtpx:hr>158</gpxtpx:hr></gpxtpx:TrackPointExtension></extensions>
      </trkpt>
      <trkpt lat="59.9846722" lon="15.8277458">
        <ele>101.2</ele>
        <time>2013-10-11T18:27:06Z</time>
        <extensions><gpxtpx:TrackPointExtension><gpxtpx:hr>158</gpxtpx:hr></gpxtpx:TrackPointExtension></extensions>
      </trkpt>
      <trkpt lat="59.984674" lon="15.8277568">
        <ele>101.2</ele>
        <time>2013-10-11T18:27:07Z</time>
        <extensions><gpxtpx:TrackPointExtension><gpxtpx:hr>158</gpxtpx:hr></gpxtpx:TrackPointExtension></extensions>
      </trkpt>
      <trkpt lat="59.9846768" lon="15.8277614">
        <ele>101.2</ele>
        <time>2013-10-11T18:27:08Z</time>
        <extensions><gpxtpx:TrackPointExtension><gpxtpx:hr>158</gpxtpx:hr></gpxtpx:TrackPointExtension></extensions>
      </trkpt>
      <trkpt lat="59.9846808" lon="15.8277559">
        <ele>101.2</ele>
        <time>2013-10-11T18:27:09Z</time>
        <extensions><gpxtpx:TrackPointExtension><gpxtpx:hr>159</gpxtpx:hr></gpxtpx:TrackPointExtension></extensions>
      </trkpt>
      <trkpt lat="59.9846826" lon="15.8277474">
        <ele>101.2</ele>
        <time>2013-10-11T18:27:10Z</time>
        <extensions><gpxtpx:TrackPointExtension><gpxtpx:hr>158</gpxtpx:hr></gpxtpx:TrackPointExtension></extensions>
      </trkpt>
      <trkpt lat="59.9846851" lon="15.8277417">
        <ele>101.2</ele>
        <time>2013-10-11T18:27:11Z</time>
        <extensions><gpxtpx:TrackPointExtension><gpxtpx:hr>159</gpxtpx:hr></gpxtpx:TrackPointExtension></extensions>
      </trkpt>
      <trkpt lat="59.9846869" lon="15.8277395">
        <ele>101.2</ele>
        <time>2013-10-11T18:27:12Z</time>
        <extensions><gpxtpx:TrackPointExtension><gpxtpx:hr>158</gpxtpx:hr></gpxtpx:TrackPointExtension></extensions>
      </trkpt>
      <trkpt lat="59.9846903" lon="15.8277416">
        <ele>101.2</ele>
        <time>2013-10-11T18:27:13Z</time>
        <extensions><gpxtpx:TrackPointExtension><gpxtpx:hr>159</gpxtpx:hr></gpxtpx:TrackPointExtension></extensions>
      </trkpt>
      <trkpt lat="59.9846914" lon="15.827739">
        <ele>101.2</ele>
        <time>2013-10-11T18:27:14Z</time>
        <extensions><gpxtpx:TrackPointExtension><gpxtpx:hr>158</gpxtpx:hr></gpxtpx:TrackPointExtension></extensions>
      </trkpt>
      <trkpt lat="59.9846922" lon="15.8277327">
        <ele>101.2</ele>
        <time>2013-10-11T18:27:15Z</time>
        <extensions><gpxtpx:TrackPointExtension><gpxtpx:hr>159</gpxtpx:hr></gpxtpx:TrackPointExtension></extensions>
      </trkpt>
      <trkpt lat="59.9846933" lon="15.8277256">
        <ele>101.2</ele>
        <time>2013-10-11T18:27:16Z</time>
        <extensions><gpxtpx:TrackPointExtension><gpxtpx:hr>158</gpxtpx:hr></gpxtpx:TrackPointExtension></extensions>
      </trkpt>
      <trkpt lat="59.9846927" lon="15.8277386">
        <ele>101.2</ele>
        <time>2013-10-11T18:27:18Z</time>
        <extensions><gpxtpx:TrackPointExtension><gpxtpx:hr>159</gpxtpx:hr></gpxtpx:TrackPointExtension></extensions>
      </trkpt>
      <trkpt lat="59.9846959" lon="15.8277532">
        <ele>101.2</ele>
        <time>2013-10-11T18:27:20Z</time>
        <extensions><gpxtpx:TrackPointExtension><gpxtpx:hr>159</gpxtpx:hr></gpxtpx:TrackPointExtension></extensions>
      </trkpt>
      <trkpt lat="59.9846777" lon="15.8277646">
        <ele>101.2</ele>
        <time>2013-10-11T18:27:21Z</time>
        <extensions><gpxtpx:TrackPointExtension><gpxtpx:hr>159</gpxtpx:hr></gpxtpx:TrackPointExtension></extensions>
      </trkpt>
      <trkpt lat="59.9846717" lon="15.8277801">
        <ele>101.2</ele>
        <time>2013-10-11T18:27:22Z</time>
        <extensions><gpxtpx:TrackPointExtension><gpxtpx:hr>159</gpxtpx:hr></gpxtpx:TrackPointExtension></extensions>
      </trkpt>
      <trkpt lat="59.9846667" lon="15.827795">
        <ele>101.2</ele>
        <time>2013-10-11T18:27:23Z</time>
        <extensions><gpxtpx:TrackPointExtension><gpxtpx:hr>159</gpxtpx:hr></gpxtpx:TrackPointExtension></extensions>
      </trkpt>
      <trkpt lat="59.9846607" lon="15.8278003">
        <ele>101.2</ele>
        <time>2013-10-11T18:27:24Z</time>
        <extensions><gpxtpx:TrackPointExtension><gpxtpx:hr>160</gpxtpx:hr></gpxtpx:TrackPointExtension></extensions>
      </trkpt>
      <trkpt lat="59.9846571" lon="15.8278098">
        <ele>101.2</ele>
        <time>2013-10-11T18:27:25Z</time>
        <extensions><gpxtpx:TrackPointExtension><gpxtpx:hr>159</gpxtpx:hr></gpxtpx:TrackPointExtension></extensions>
      </trkpt>
      <trkpt lat="59.9846623" lon="15.8278033">
        <ele>101.2</ele>
        <time>2013-10-11T18:27:28Z</time>
        <extensions><gpxtpx:TrackPointExtension><gpxtpx:hr>159</gpxtpx:hr></gpxtpx:TrackPointExtension></extensions>
      </trkpt>
      <trkpt lat="59.9846822" lon="15.8277474">
        <ele>101.2</ele>
        <time>2013-10-11T18:27:29Z</time>
        <extensions><gpxtpx:TrackPointExtension><gpxtpx:hr>160</gpxtpx:hr></gpxtpx:TrackPointExtension></extensions>
      </trkpt>
      <trkpt lat="59.9847043" lon="15.8276613">
        <ele>101.2</ele>
        <time>2013-10-11T18:27:33Z</time>
        <extensions><gpxtpx:TrackPointExtension><gpxtpx:hr>160</gpxtpx:hr></gpxtpx:TrackPointExtension></extensions>
      </trkpt>
      <trkpt lat="59.9847419" lon="15.8275115">
        <ele>101.2</ele>
        <time>2013-10-11T18:27:39Z</time>
        <extensions><gpxtpx:TrackPointExtension><gpxtpx:hr>161</gpxtpx:hr></gpxtpx:TrackPointExtension></extensions>
      </trkpt>
      <trkpt lat="59.9847447" lon="15.8274984">
        <ele>101.2</ele>
        <time>2013-10-11T18:27:40Z</time>
        <extensions><gpxtpx:TrackPointExtension><gpxtpx:hr>161</gpxtpx:hr></gpxtpx:TrackPointExtension></extensions>
      </trkpt>
      <trkpt lat="59.984743" lon="15.8274872">
        <ele>101.2</ele>
        <time>2013-10-11T18:27:41Z</time>
        <extensions><gpxtpx:TrackPointExtension><gpxtpx:hr>161</gpxtpx:hr></gpxtpx:TrackPointExtension></extensions>
      </trkpt>
      <trkpt lat="59.984743" lon="15.8274753">
        <ele>101.2</ele>
        <time>2013-10-11T18:27:42Z</time>
        <extensions><gpxtpx:TrackPointExtension><gpxtpx:hr>160</gpxtpx:hr></gpxtpx:TrackPointExtension></extensions>
      </trkpt>
      <trkpt lat="59.9847427" lon="15.8274713">
        <ele>101.2</ele>
        <time>2013-10-11T18:27:43Z</time>
        <extensions><gpxtpx:TrackPointExtension><gpxtpx:hr>161</gpxtpx:hr></gpxtpx:TrackPointExtension></extensions>
      </trkpt>
      <trkpt lat="59.9847426" lon="15.8274712">
        <ele>101.2</ele>
        <time>2013-10-11T18:27:44Z</time>
        <extensions><gpxtpx:TrackPointExtension><gpxtpx:hr>160</gpxtpx:hr></gpxtpx:TrackPointExtension></extensions>
      </trkpt>
      <trkpt lat="59.9847445" lon="15.8274738">
        <ele>101.2</ele>
        <time>2013-10-11T18:27:45Z</time>
        <extensions><gpxtpx:TrackPointExtension><gpxtpx:hr>161</gpxtpx:hr></gpxtpx:TrackPointExtension></extensions>
      </trkpt>
      <trkpt lat="59.9847435" lon="15.8274786">
        <ele>101.2</ele>
        <time>2013-10-11T18:27:46Z</time>
        <extensions><gpxtpx:TrackPointExtension><gpxtpx:hr>160</gpxtpx:hr></gpxtpx:TrackPointExtension></extensions>
      </trkpt>
      <trkpt lat="59.9847433" lon="15.827485">
        <ele>101.2</ele>
        <time>2013-10-11T18:27:47Z</time>
        <extensions><gpxtpx:TrackPointExtension><gpxtpx:hr>160</gpxtpx:hr></gpxtpx:TrackPointExtension></extensions>
      </trkpt>
      <trkpt lat="59.9847433" lon="15.8274914">
        <ele>101.2</ele>
        <time>2013-10-11T18:27:48Z</time>
        <extensions><gpxtpx:TrackPointExtension><gpxtpx:hr>160</gpxtpx:hr></gpxtpx:TrackPointExtension></extensions>
      </trkpt>
      <trkpt lat="59.9847412" lon="15.8274916">
        <ele>101.2</ele>
        <time>2013-10-11T18:27:49Z</time>
        <extensions><gpxtpx:TrackPointExtension><gpxtpx:hr>160</gpxtpx:hr></gpxtpx:TrackPointExtension></extensions>
      </trkpt>
      <trkpt lat="59.9847424" lon="15.8274887">
        <ele>101.2</ele>
        <time>2013-10-11T18:27:50Z</time>
        <extensions><gpxtpx:TrackPointExtension><gpxtpx:hr>160</gpxtpx:hr></gpxtpx:TrackPointExtension></extensions>
      </trkpt>
      <trkpt lat="59.9847374" lon="15.8275087">
        <ele>101.2</ele>
        <time>2013-10-11T18:27:52Z</time>
        <extensions><gpxtpx:TrackPointExtension><gpxtpx:hr>160</gpxtpx:hr></gpxtpx:TrackPointExtension></extensions>
      </trkpt>
      <trkpt lat="59.9847553" lon="15.8274885">
        <ele>101.2</ele>
        <time>2013-10-11T18:27:56Z</time>
        <extensions><gpxtpx:TrackPointExtension><gpxtpx:hr>160</gpxtpx:hr></gpxtpx:TrackPointExtension></extensions>
      </trkpt>
      <trkpt lat="59.984721" lon="15.8275647">
        <ele>101.2</ele>
        <time>2013-10-11T18:27:58Z</time>
        <extensions><gpxtpx:TrackPointExtension><gpxtpx:hr>160</gpxtpx:hr></gpxtpx:TrackPointExtension></extensions>
      </trkpt>
      <trkpt lat="59.9847129" lon="15.8275771">
        <ele>101.2</ele>
        <time>2013-10-11T18:27:59Z</time>
        <extensions><gpxtpx:TrackPointExtension><gpxtpx:hr>160</gpxtpx:hr></gpxtpx:TrackPointExtension></extensions>
      </trkpt>
      <trkpt lat="59.9847068" lon="15.8275851">
        <ele>101.2</ele>
        <time>2013-10-11T18:28:00Z</time>
        <extensions><gpxtpx:TrackPointExtension><gpxtpx:hr>160</gpxtpx:hr></gpxtpx:TrackPointExtension></extensions>
      </trkpt>
      <trkpt lat="59.9847062" lon="15.8275844">
        <ele>101.2</ele>
        <time>2013-10-11T18:28:01Z</time>
        <extensions><gpxtpx:TrackPointExtension><gpxtpx:hr>160</gpxtpx:hr></gpxtpx:TrackPointExtension></extensions>
      </trkpt>
      <trkpt lat="59.9847036" lon="15.8275823">
        <ele>101.2</ele>
        <time>2013-10-11T18:28:02Z</time>
        <extensions><gpxtpx:TrackPointExtension><gpxtpx:hr>160</gpxtpx:hr></gpxtpx:TrackPointExtension></extensions>
      </trkpt>
      <trkpt lat="59.9847036" lon="15.8275789">
        <ele>101.2</ele>
        <time>2013-10-11T18:28:03Z</time>
        <extensions><gpxtpx:TrackPointExtension><gpxtpx:hr>160</gpxtpx:hr></gpxtpx:TrackPointExtension></extensions>
      </trkpt>
      <trkpt lat="59.9847064" lon="15.8275742">
        <ele>101.2</ele>
        <time>2013-10-11T18:28:04Z</time>
        <extensions><gpxtpx:TrackPointExtension><gpxtpx:hr>160</gpxtpx:hr></gpxtpx:TrackPointExtension></extensions>
      </trkpt>
      <trkpt lat="59.9847103" lon="15.8275739">
        <ele>101.2</ele>
        <time>2013-10-11T18:28:05Z</time>
        <extensions><gpxtpx:TrackPointExtension><gpxtpx:hr>160</gpxtpx:hr></gpxtpx:TrackPointExtension></extensions>
      </trkpt>
      <trkpt lat="59.9847129" lon="15.8275749">
        <ele>101.2</ele>
        <time>2013-10-11T18:28:06Z</time>
        <extensions><gpxtpx:TrackPointExtension><gpxtpx:hr>159</gpxtpx:hr></gpxtpx:TrackPointExtension></extensions>
      </trkpt>
      <trkpt lat="59.9847133" lon="15.827611">
        <ele>101.2</ele>
        <time>2013-10-11T18:28:07Z</time>
        <extensions><gpxtpx:TrackPointExtension><gpxtpx:hr>160</gpxtpx:hr></gpxtpx:TrackPointExtension></extensions>
      </trkpt>
      <trkpt lat="59.9847093" lon="15.8276277">
        <ele>101.2</ele>
        <time>2013-10-11T18:28:08Z</time>
        <extensions><gpxtpx:TrackPointExtension><gpxtpx:hr>160</gpxtpx:hr></gpxtpx:TrackPointExtension></extensions>
      </trkpt>
      <trkpt lat="59.9847091" lon="15.8276361">
        <ele>101.2</ele>
        <time>2013-10-11T18:28:09Z</time>
        <extensions><gpxtpx:TrackPointExtension><gpxtpx:hr>160</gpxtpx:hr></gpxtpx:TrackPointExtension></extensions>
      </trkpt>
      <trkpt lat="59.9847007" lon="15.8276334">
        <ele>101.2</ele>
        <time>2013-10-11T18:28:10Z</time>
        <extensions><gpxtpx:TrackPointExtension><gpxtpx:hr>160</gpxtpx:hr></gpxtpx:TrackPointExtension></extensions>
      </trkpt>
      <trkpt lat="59.9846932" lon="15.8276397">
        <ele>101.2</ele>
        <time>2013-10-11T18:28:11Z</time>
        <extensions><gpxtpx:TrackPointExtension><gpxtpx:hr>160</gpxtpx:hr></gpxtpx:TrackPointExtension></extensions>
      </trkpt>
      <trkpt lat="59.9846875" lon="15.8276461">
        <ele>101.2</ele>
        <time>2013-10-11T18:28:12Z</time>
        <extensions><gpxtpx:TrackPointExtension><gpxtpx:hr>160</gpxtpx:hr></gpxtpx:TrackPointExtension></extensions>
      </trkpt>
      <trkpt lat="59.9846872" lon="15.8276485">
        <ele>104.2</ele>
        <time>2013-10-11T18:28:13Z</time>
        <extensions><gpxtpx:TrackPointExtension><gpxtpx:hr>161</gpxtpx:hr></gpxtpx:TrackPointExtension></extensions>
      </trkpt>
      <trkpt lat="59.9846787" lon="15.8276723">
        <ele>104.2</ele>
        <time>2013-10-11T18:28:17Z</time>
        <extensions><gpxtpx:TrackPointExtension><gpxtpx:hr>161</gpxtpx:hr></gpxtpx:TrackPointExtension></extensions>
      </trkpt>
      <trkpt lat="59.9846756" lon="15.8276711">
        <ele>104.2</ele>
        <time>2013-10-11T18:28:18Z</time>
        <extensions><gpxtpx:TrackPointExtension><gpxtpx:hr>161</gpxtpx:hr></gpxtpx:TrackPointExtension></extensions>
      </trkpt>
      <trkpt lat="59.9846777" lon="15.8276728">
        <ele>104.2</ele>
        <time>2013-10-11T18:28:19Z</time>
        <extensions><gpxtpx:TrackPointExtension><gpxtpx:hr>161</gpxtpx:hr></gpxtpx:TrackPointExtension></extensions>
      </trkpt>
      <trkpt lat="59.9846801" lon="15.8276759">
        <ele>104.2</ele>
        <time>2013-10-11T18:28:20Z</time>
        <extensions><gpxtpx:TrackPointExtension><gpxtpx:hr>160</gpxtpx:hr></gpxtpx:TrackPointExtension></extensions>
      </trkpt>
      <trkpt lat="59.9846809" lon="15.8276843">
        <ele>104.2</ele>
        <time>2013-10-11T18:28:21Z</time>
        <extensions><gpxtpx:TrackPointExtension><gpxtpx:hr>160</gpxtpx:hr></gpxtpx:TrackPointExtension></extensions>
      </trkpt>
      <trkpt lat="59.9846832" lon="15.827687">
        <ele>104.2</ele>
        <time>2013-10-11T18:28:22Z</time>
        <extensions><gpxtpx:TrackPointExtension><gpxtpx:hr>160</gpxtpx:hr></gpxtpx:TrackPointExtension></extensions>
      </trkpt>
      <trkpt lat="59.9846857" lon="15.8276863">
        <ele>104.2</ele>
        <time>2013-10-11T18:28:23Z</time>
        <extensions><gpxtpx:TrackPointExtension><gpxtpx:hr>160</gpxtpx:hr></gpxtpx:TrackPointExtension></extensions>
      </trkpt>
      <trkpt lat="59.9846851" lon="15.8276898">
        <ele>104.2</ele>
        <time>2013-10-11T18:28:24Z</time>
        <extensions><gpxtpx:TrackPointExtension><gpxtpx:hr>160</gpxtpx:hr></gpxtpx:TrackPointExtension></extensions>
      </trkpt>
      <trkpt lat="59.9846844" lon="15.8276996">
        <ele>104.2</ele>
        <time>2013-10-11T18:28:25Z</time>
        <extensions><gpxtpx:TrackPointExtension><gpxtpx:hr>160</gpxtpx:hr></gpxtpx:TrackPointExtension></extensions>
      </trkpt>
      <trkpt lat="59.9846748" lon="15.8277202">
        <ele>104.2</ele>
        <time>2013-10-11T18:28:26Z</time>
        <extensions><gpxtpx:TrackPointExtension><gpxtpx:hr>159</gpxtpx:hr></gpxtpx:TrackPointExtension></extensions>
      </trkpt>
      <trkpt lat="59.9846733" lon="15.8277351">
        <ele>104.2</ele>
        <time>2013-10-11T18:28:27Z</time>
        <extensions><gpxtpx:TrackPointExtension><gpxtpx:hr>159</gpxtpx:hr></gpxtpx:TrackPointExtension></extensions>
      </trkpt>
      <trkpt lat="59.9846723" lon="15.8277566">
        <ele>104.2</ele>
        <time>2013-10-11T18:28:28Z</time>
        <extensions><gpxtpx:TrackPointExtension><gpxtpx:hr>160</gpxtpx:hr></gpxtpx:TrackPointExtension></extensions>
      </trkpt>
      <trkpt lat="59.984673" lon="15.8277684">
        <ele>104.2</ele>
        <time>2013-10-11T18:28:29Z</time>
        <extensions><gpxtpx:TrackPointExtension><gpxtpx:hr>160</gpxtpx:hr></gpxtpx:TrackPointExtension></extensions>
      </trkpt>
      <trkpt lat="59.9846764" lon="15.8277775">
        <ele>104.2</ele>
        <time>2013-10-11T18:28:30Z</time>
        <extensions><gpxtpx:TrackPointExtension><gpxtpx:hr>159</gpxtpx:hr></gpxtpx:TrackPointExtension></extensions>
      </trkpt>
      <trkpt lat="59.9846787" lon="15.8277861">
        <ele>104.2</ele>
        <time>2013-10-11T18:28:31Z</time>
        <extensions><gpxtpx:TrackPointExtension><gpxtpx:hr>159</gpxtpx:hr></gpxtpx:TrackPointExtension></extensions>
      </trkpt>
      <trkpt lat="59.9846795" lon="15.8277886">
        <ele>104.2</ele>
        <time>2013-10-11T18:28:32Z</time>
        <extensions><gpxtpx:TrackPointExtension><gpxtpx:hr>159</gpxtpx:hr></gpxtpx:TrackPointExtension></extensions>
      </trkpt>
      <trkpt lat="59.9846731" lon="15.8277888">
        <ele>104.2</ele>
        <time>2013-10-11T18:28:34Z</time>
        <extensions><gpxtpx:TrackPointExtension><gpxtpx:hr>158</gpxtpx:hr></gpxtpx:TrackPointExtension></extensions>
      </trkpt>
      <trkpt lat="59.984668" lon="15.8277778">
        <ele>104.2</ele>
        <time>2013-10-11T18:28:36Z</time>
        <extensions><gpxtpx:TrackPointExtension><gpxtpx:hr>159</gpxtpx:hr></gpxtpx:TrackPointExtension></extensions>
      </trkpt>
      <trkpt lat="59.9846721" lon="15.8277685">
        <ele>104.2</ele>
        <time>2013-10-11T18:28:37Z</time>
        <extensions><gpxtpx:TrackPointExtension><gpxtpx:hr>158</gpxtpx:hr></gpxtpx:TrackPointExtension></extensions>
      </trkpt>
      <trkpt lat="59.9846772" lon="15.827768">
        <ele>104.2</ele>
        <time>2013-10-11T18:28:38Z</time>
        <extensions><gpxtpx:TrackPointExtension><gpxtpx:hr>158</gpxtpx:hr></gpxtpx:TrackPointExtension></extensions>
      </trkpt>
      <trkpt lat="59.9846763" lon="15.8277737">
        <ele>104.2</ele>
        <time>2013-10-11T18:28:39Z</time>
        <extensions><gpxtpx:TrackPointExtension><gpxtpx:hr>159</gpxtpx:hr></gpxtpx:TrackPointExtension></extensions>
      </trkpt>
      <trkpt lat="59.9846701" lon="15.8277755">
        <ele>104.2</ele>
        <time>2013-10-11T18:28:40Z</time>
        <extensions><gpxtpx:TrackPointExtension><gpxtpx:hr>158</gpxtpx:hr></gpxtpx:TrackPointExtension></extensions>
      </trkpt>
      <trkpt lat="59.9846641" lon="15.827772">
        <ele>104.2</ele>
        <time>2013-10-11T18:28:41Z</time>
        <extensions><gpxtpx:TrackPointExtension><gpxtpx:hr>159</gpxtpx:hr></gpxtpx:TrackPointExtension></extensions>
      </trkpt>
      <trkpt lat="59.9846565" lon="15.827769">
        <ele>104.2</ele>
        <time>2013-10-11T18:28:43Z</time>
        <extensions><gpxtpx:TrackPointExtension><gpxtpx:hr>159</gpxtpx:hr></gpxtpx:TrackPointExtension></extensions>
      </trkpt>
      <trkpt lat="59.9846561" lon="15.8277685">
        <ele>104.2</ele>
        <time>2013-10-11T18:28:44Z</time>
        <extensions><gpxtpx:TrackPointExtension><gpxtpx:hr>159</gpxtpx:hr></gpxtpx:TrackPointExtension></extensions>
      </trkpt>
      <trkpt lat="59.9846596" lon="15.8277602">
        <ele>104.2</ele>
        <time>2013-10-11T18:28:45Z</time>
        <extensions><gpxtpx:TrackPointExtension><gpxtpx:hr>159</gpxtpx:hr></gpxtpx:TrackPointExtension></extensions>
      </trkpt>
      <trkpt lat="59.98468" lon="15.8276154">
        <ele>104.2</ele>
        <time>2013-10-11T18:28:46Z</time>
        <extensions><gpxtpx:TrackPointExtension><gpxtpx:hr>159</gpxtpx:hr></gpxtpx:TrackPointExtension></extensions>
      </trkpt>
      <trkpt lat="59.9846803" lon="15.827578">
        <ele>104.2</ele>
        <time>2013-10-11T18:28:48Z</time>
        <extensions><gpxtpx:TrackPointExtension><gpxtpx:hr>159</gpxtpx:hr></gpxtpx:TrackPointExtension></extensions>
      </trkpt>
      <trkpt lat="59.9846798" lon="15.8275704">
        <ele>104.2</ele>
        <time>2013-10-11T18:28:49Z</time>
        <extensions><gpxtpx:TrackPointExtension><gpxtpx:hr>159</gpxtpx:hr></gpxtpx:TrackPointExtension></extensions>
      </trkpt>
      <trkpt lat="59.9846798" lon="15.8275627">
        <ele>104.2</ele>
        <time>2013-10-11T18:28:51Z</time>
        <extensions><gpxtpx:TrackPointExtension><gpxtpx:hr>159</gpxtpx:hr></gpxtpx:TrackPointExtension></extensions>
      </trkpt>
      <trkpt lat="59.9847036" lon="15.8275149">
        <ele>104.2</ele>
        <time>2013-10-11T18:28:54Z</time>
        <extensions><gpxtpx:TrackPointExtension><gpxtpx:hr>159</gpxtpx:hr></gpxtpx:TrackPointExtension></extensions>
      </trkpt>
      <trkpt lat="59.9847106" lon="15.8275069">
        <ele>104.2</ele>
        <time>2013-10-11T18:28:55Z</time>
        <extensions><gpxtpx:TrackPointExtension><gpxtpx:hr>159</gpxtpx:hr></gpxtpx:TrackPointExtension></extensions>
      </trkpt>
      <trkpt lat="59.9847179" lon="15.8274861">
        <ele>104.2</ele>
        <time>2013-10-11T18:28:56Z</time>
        <extensions><gpxtpx:TrackPointExtension><gpxtpx:hr>159</gpxtpx:hr></gpxtpx:TrackPointExtension></extensions>
      </trkpt>
      <trkpt lat="59.9847238" lon="15.8274674">
        <ele>104.2</ele>
        <time>2013-10-11T18:28:57Z</time>
        <extensions><gpxtpx:TrackPointExtension><gpxtpx:hr>160</gpxtpx:hr></gpxtpx:TrackPointExtension></extensions>
      </trkpt>
      <trkpt lat="59.9847287" lon="15.8274563">
        <ele>104.2</ele>
        <time>2013-10-11T18:28:59Z</time>
        <extensions><gpxtpx:TrackPointExtension><gpxtpx:hr>160</gpxtpx:hr></gpxtpx:TrackPointExtension></extensions>
      </trkpt>
      <trkpt lat="59.9847321" lon="15.8274464">
        <ele>104.2</ele>
        <time>2013-10-11T18:29:00Z</time>
        <extensions><gpxtpx:TrackPointExtension><gpxtpx:hr>159</gpxtpx:hr></gpxtpx:TrackPointExtension></extensions>
      </trkpt>
      <trkpt lat="59.9847311" lon="15.8274442">
        <ele>104.2</ele>
        <time>2013-10-11T18:29:01Z</time>
        <extensions><gpxtpx:TrackPointExtension><gpxtpx:hr>159</gpxtpx:hr></gpxtpx:TrackPointExtension></extensions>
      </trkpt>
      <trkpt lat="59.9847301" lon="15.8274414">
        <ele>104.2</ele>
        <time>2013-10-11T18:29:02Z</time>
        <extensions><gpxtpx:TrackPointExtension><gpxtpx:hr>159</gpxtpx:hr></gpxtpx:TrackPointExtension></extensions>
      </trkpt>
      <trkpt lat="59.9847321" lon="15.8274433">
        <ele>104.2</ele>
        <time>2013-10-11T18:29:03Z</time>
        <extensions><gpxtpx:TrackPointExtension><gpxtpx:hr>160</gpxtpx:hr></gpxtpx:TrackPointExtension></extensions>
      </trkpt>
      <trkpt lat="59.984735" lon="15.8274433">
        <ele>104.2</ele>
        <time>2013-10-11T18:29:04Z</time>
        <extensions><gpxtpx:TrackPointExtension><gpxtpx:hr>159</gpxtpx:hr></gpxtpx:TrackPointExtension></extensions>
      </trkpt>
      <trkpt lat="59.9847407" lon="15.8274218">
        <ele>104.2</ele>
        <time>2013-10-11T18:29:05Z</time>
        <extensions><gpxtpx:TrackPointExtension><gpxtpx:hr>159</gpxtpx:hr></gpxtpx:TrackPointExtension></extensions>
      </trkpt>
      <trkpt lat="59.9847489" lon="15.8274108">
        <ele>104.2</ele>
        <time>2013-10-11T18:29:06Z</time>
        <extensions><gpxtpx:TrackPointExtension><gpxtpx:hr>159</gpxtpx:hr></gpxtpx:TrackPointExtension></extensions>
      </trkpt>
      <trkpt lat="59.984749" lon="15.8273938">
        <ele>104.2</ele>
        <time>2013-10-11T18:29:09Z</time>
        <extensions><gpxtpx:TrackPointExtension><gpxtpx:hr>159</gpxtpx:hr></gpxtpx:TrackPointExtension></extensions>
      </trkpt>
      <trkpt lat="59.9847406" lon="15.8274119">
        <ele>104.2</ele>
        <time>2013-10-11T18:29:10Z</time>
        <extensions><gpxtpx:TrackPointExtension><gpxtpx:hr>160</gpxtpx:hr></gpxtpx:TrackPointExtension></extensions>
      </trkpt>
      <trkpt lat="59.9847357" lon="15.8274154">
        <ele>104.2</ele>
        <time>2013-10-11T18:29:13Z</time>
        <extensions><gpxtpx:TrackPointExtension><gpxtpx:hr>160</gpxtpx:hr></gpxtpx:TrackPointExtension></extensions>
      </trkpt>
      <trkpt lat="59.9847423" lon="15.8274201">
        <ele>104.2</ele>
        <time>2013-10-11T18:29:19Z</time>
        <extensions><gpxtpx:TrackPointExtension><gpxtpx:hr>160</gpxtpx:hr></gpxtpx:TrackPointExtension></extensions>
      </trkpt>
      <trkpt lat="59.9847444" lon="15.8274213">
        <ele>104.2</ele>
        <time>2013-10-11T18:29:20Z</time>
        <extensions><gpxtpx:TrackPointExtension><gpxtpx:hr>160</gpxtpx:hr></gpxtpx:TrackPointExtension></extensions>
      </trkpt>
      <trkpt lat="59.9847456" lon="15.8274227">
        <ele>104.2</ele>
        <time>2013-10-11T18:29:21Z</time>
        <extensions><gpxtpx:TrackPointExtension><gpxtpx:hr>160</gpxtpx:hr></gpxtpx:TrackPointExtension></extensions>
      </trkpt>
      <trkpt lat="59.9847456" lon="15.8274263">
        <ele>104.2</ele>
        <time>2013-10-11T18:29:22Z</time>
        <extensions><gpxtpx:TrackPointExtension><gpxtpx:hr>160</gpxtpx:hr></gpxtpx:TrackPointExtension></extensions>
      </trkpt>
      <trkpt lat="59.9847461" lon="15.8274322">
        <ele>104.2</ele>
        <time>2013-10-11T18:29:23Z</time>
        <extensions><gpxtpx:TrackPointExtension><gpxtpx:hr>160</gpxtpx:hr></gpxtpx:TrackPointExtension></extensions>
      </trkpt>
      <trkpt lat="59.9847464" lon="15.8274357">
        <ele>104.2</ele>
        <time>2013-10-11T18:29:24Z</time>
        <extensions><gpxtpx:TrackPointExtension><gpxtpx:hr>159</gpxtpx:hr></gpxtpx:TrackPointExtension></extensions>
      </trkpt>
      <trkpt lat="59.9847477" lon="15.8274886">
        <ele>104.2</ele>
        <time>2013-10-11T18:29:25Z</time>
        <extensions><gpxtpx:TrackPointExtension><gpxtpx:hr>159</gpxtpx:hr></gpxtpx:TrackPointExtension></extensions>
      </trkpt>
      <trkpt lat="59.9847464" lon="15.8274901">
        <ele>104.2</ele>
        <time>2013-10-11T18:29:26Z</time>
        <extensions><gpxtpx:TrackPointExtension><gpxtpx:hr>159</gpxtpx:hr></gpxtpx:TrackPointExtension></extensions>
      </trkpt>
      <trkpt lat="59.9847452" lon="15.82749">
        <ele>104.2</ele>
        <time>2013-10-11T18:29:27Z</time>
        <extensions><gpxtpx:TrackPointExtension><gpxtpx:hr>159</gpxtpx:hr></gpxtpx:TrackPointExtension></extensions>
      </trkpt>
      <trkpt lat="59.9847443" lon="15.8274867">
        <ele>104.2</ele>
        <time>2013-10-11T18:29:29Z</time>
        <extensions><gpxtpx:TrackPointExtension><gpxtpx:hr>159</gpxtpx:hr></gpxtpx:TrackPointExtension></extensions>
      </trkpt>
      <trkpt lat="59.984745" lon="15.827488">
        <ele>104.2</ele>
        <time>2013-10-11T18:29:30Z</time>
        <extensions><gpxtpx:TrackPointExtension><gpxtpx:hr>159</gpxtpx:hr></gpxtpx:TrackPointExtension></extensions>
      </trkpt>
      <trkpt lat="59.9847468" lon="15.827482">
        <ele>104.2</ele>
        <time>2013-10-11T18:29:32Z</time>
        <extensions><gpxtpx:TrackPointExtension><gpxtpx:hr>159</gpxtpx:hr></gpxtpx:TrackPointExtension></extensions>
      </trkpt>
      <trkpt lat="59.9847506" lon="15.8274859">
        <ele>104.2</ele>
        <time>2013-10-11T18:29:36Z</time>
        <extensions><gpxtpx:TrackPointExtension><gpxtpx:hr>159</gpxtpx:hr></gpxtpx:TrackPointExtension></extensions>
      </trkpt>
      <trkpt lat="59.9847497" lon="15.8274882">
        <ele>104.2</ele>
        <time>2013-10-11T18:29:37Z</time>
        <extensions><gpxtpx:TrackPointExtension><gpxtpx:hr>160</gpxtpx:hr></gpxtpx:TrackPointExtension></extensions>
      </trkpt>
      <trkpt lat="59.9847499" lon="15.8274874">
        <ele>104.2</ele>
        <time>2013-10-11T18:29:38Z</time>
        <extensions><gpxtpx:TrackPointExtension><gpxtpx:hr>160</gpxtpx:hr></gpxtpx:TrackPointExtension></extensions>
      </trkpt>
      <trkpt lat="59.9847517" lon="15.8274854">
        <ele>104.2</ele>
        <time>2013-10-11T18:29:39Z</time>
        <extensions><gpxtpx:TrackPointExtension><gpxtpx:hr>160</gpxtpx:hr></gpxtpx:TrackPointExtension></extensions>
      </trkpt>
      <trkpt lat="59.9847357" lon="15.8275272">
        <ele>104.2</ele>
        <time>2013-10-11T18:29:40Z</time>
        <extensions><gpxtpx:TrackPointExtension><gpxtpx:hr>160</gpxtpx:hr></gpxtpx:TrackPointExtension></extensions>
      </trkpt>
      <trkpt lat="59.9847333" lon="15.8275171">
        <ele>104.2</ele>
        <time>2013-10-11T18:29:41Z</time>
        <extensions><gpxtpx:TrackPointExtension><gpxtpx:hr>160</gpxtpx:hr></gpxtpx:TrackPointExtension></extensions>
      </trkpt>
      <trkpt lat="59.9847307" lon="15.8275228">
        <ele>104.2</ele>
        <time>2013-10-11T18:29:42Z</time>
        <extensions><gpxtpx:TrackPointExtension><gpxtpx:hr>160</gpxtpx:hr></gpxtpx:TrackPointExtension></extensions>
      </trkpt>
      <trkpt lat="59.9847279" lon="15.8275266">
        <ele>104.2</ele>
        <time>2013-10-11T18:29:43Z</time>
        <extensions><gpxtpx:TrackPointExtension><gpxtpx:hr>160</gpxtpx:hr></gpxtpx:TrackPointExtension></extensions>
      </trkpt>
      <trkpt lat="59.9847252" lon="15.8275297">
        <ele>104.2</ele>
        <time>2013-10-11T18:29:44Z</time>
        <extensions><gpxtpx:TrackPointExtension><gpxtpx:hr>160</gpxtpx:hr></gpxtpx:TrackPointExtension></extensions>
      </trkpt>
      <trkpt lat="59.9847238" lon="15.8275322">
        <ele>104.2</ele>
        <time>2013-10-11T18:29:45Z</time>
        <extensions><gpxtpx:TrackPointExtension><gpxtpx:hr>161</gpxtpx:hr></gpxtpx:TrackPointExtension></extensions>
      </trkpt>
      <trkpt lat="59.9847222" lon="15.8275335">
        <ele>104.2</ele>
        <time>2013-10-11T18:29:46Z</time>
        <extensions><gpxtpx:TrackPointExtension><gpxtpx:hr>160</gpxtpx:hr></gpxtpx:TrackPointExtension></extensions>
      </trkpt>
      <trkpt lat="59.9847215" lon="15.8275375">
        <ele>104.2</ele>
        <time>2013-10-11T18:29:47Z</time>
        <extensions><gpxtpx:TrackPointExtension><gpxtpx:hr>161</gpxtpx:hr></gpxtpx:TrackPointExtension></extensions>
      </trkpt>
      <trkpt lat="59.9847192" lon="15.8275438">
        <ele>104.2</ele>
        <time>2013-10-11T18:29:48Z</time>
        <extensions><gpxtpx:TrackPointExtension><gpxtpx:hr>160</gpxtpx:hr></gpxtpx:TrackPointExtension></extensions>
      </trkpt>
      <trkpt lat="59.9847165" lon="15.8275513">
        <ele>104.2</ele>
        <time>2013-10-11T18:29:49Z</time>
        <extensions><gpxtpx:TrackPointExtension><gpxtpx:hr>161</gpxtpx:hr></gpxtpx:TrackPointExtension></extensions>
      </trkpt>
      <trkpt lat="59.9847166" lon="15.8275514">
        <ele>104.2</ele>
        <time>2013-10-11T18:29:50Z</time>
        <extensions><gpxtpx:TrackPointExtension><gpxtpx:hr>160</gpxtpx:hr></gpxtpx:TrackPointExtension></extensions>
      </trkpt>
      <trkpt lat="59.9847204" lon="15.8275484">
        <ele>104.2</ele>
        <time>2013-10-11T18:29:51Z</time>
        <extensions><gpxtpx:TrackPointExtension><gpxtpx:hr>161</gpxtpx:hr></gpxtpx:TrackPointExtension></extensions>
      </trkpt>
      <trkpt lat="59.9847169" lon="15.8275822">
        <ele>104.2</ele>
        <time>2013-10-11T18:29:52Z</time>
        <extensions><gpxtpx:TrackPointExtension><gpxtpx:hr>161</gpxtpx:hr></gpxtpx:TrackPointExtension></extensions>
      </trkpt>
      <trkpt lat="59.984716" lon="15.8275778">
        <ele>104.2</ele>
        <time>2013-10-11T18:29:56Z</time>
        <extensions><gpxtpx:TrackPointExtension><gpxtpx:hr>161</gpxtpx:hr></gpxtpx:TrackPointExtension></extensions>
      </trkpt>
      <trkpt lat="59.9847014" lon="15.8276192">
        <ele>104.2</ele>
        <time>2013-10-11T18:29:57Z</time>
        <extensions><gpxtpx:TrackPointExtension><gpxtpx:hr>160</gpxtpx:hr></gpxtpx:TrackPointExtension></extensions>
      </trkpt>
      <trkpt lat="59.9846971" lon="15.8276373">
        <ele>104.2</ele>
        <time>2013-10-11T18:29:58Z</time>
        <extensions><gpxtpx:TrackPointExtension><gpxtpx:hr>160</gpxtpx:hr></gpxtpx:TrackPointExtension></extensions>
      </trkpt>
      <trkpt lat="59.9846946" lon="15.8276465">
        <ele>104.2</ele>
        <time>2013-10-11T18:29:59Z</time>
        <extensions><gpxtpx:TrackPointExtension><gpxtpx:hr>161</gpxtpx:hr></gpxtpx:TrackPointExtension></extensions>
      </trkpt>
      <trkpt lat="59.9846904" lon="15.8276577">
        <ele>104.2</ele>
        <time>2013-10-11T18:30:00Z</time>
        <extensions><gpxtpx:TrackPointExtension><gpxtpx:hr>160</gpxtpx:hr></gpxtpx:TrackPointExtension></extensions>
      </trkpt>
      <trkpt lat="59.9846864" lon="15.8276706">
        <ele>104.2</ele>
        <time>2013-10-11T18:30:01Z</time>
        <extensions><gpxtpx:TrackPointExtension><gpxtpx:hr>161</gpxtpx:hr></gpxtpx:TrackPointExtension></extensions>
      </trkpt>
      <trkpt lat="59.9846879" lon="15.8276672">
        <ele>104.2</ele>
        <time>2013-10-11T18:30:02Z</time>
        <extensions><gpxtpx:TrackPointExtension><gpxtpx:hr>161</gpxtpx:hr></gpxtpx:TrackPointExtension></extensions>
      </trkpt>
      <trkpt lat="59.984687" lon="15.8276712">
        <ele>104.2</ele>
        <time>2013-10-11T18:30:03Z</time>
        <extensions><gpxtpx:TrackPointExtension><gpxtpx:hr>161</gpxtpx:hr></gpxtpx:TrackPointExtension></extensions>
      </trkpt>
      <trkpt lat="59.9846871" lon="15.8276685">
        <ele>104.2</ele>
        <time>2013-10-11T18:30:04Z</time>
        <extensions><gpxtpx:TrackPointExtension><gpxtpx:hr>161</gpxtpx:hr></gpxtpx:TrackPointExtension></extensions>
      </trkpt>
      <trkpt lat="59.9846857" lon="15.8276778">
        <ele>104.2</ele>
        <time>2013-10-11T18:30:05Z</time>
        <extensions><gpxtpx:TrackPointExtension><gpxtpx:hr>160</gpxtpx:hr></gpxtpx:TrackPointExtension></extensions>
      </trkpt>
      <trkpt lat="59.9846834" lon="15.8276898">
        <ele>104.2</ele>
        <time>2013-10-11T18:30:08Z</time>
        <extensions><gpxtpx:TrackPointExtension><gpxtpx:hr>160</gpxtpx:hr></gpxtpx:TrackPointExtension></extensions>
      </trkpt>
      <trkpt lat="59.9846843" lon="15.8276884">
        <ele>104.2</ele>
        <time>2013-10-11T18:30:09Z</time>
        <extensions><gpxtpx:TrackPointExtension><gpxtpx:hr>159</gpxtpx:hr></gpxtpx:TrackPointExtension></extensions>
      </trkpt>
      <trkpt lat="59.9846847" lon="15.8276897">
        <ele>104.2</ele>
        <time>2013-10-11T18:30:10Z</time>
        <extensions><gpxtpx:TrackPointExtension><gpxtpx:hr>159</gpxtpx:hr></gpxtpx:TrackPointExtension></extensions>
      </trkpt>
      <trkpt lat="59.9846844" lon="15.8276929">
        <ele>104.2</ele>
        <time>2013-10-11T18:30:11Z</time>
        <extensions><gpxtpx:TrackPointExtension><gpxtpx:hr>159</gpxtpx:hr></gpxtpx:TrackPointExtension></extensions>
      </trkpt>
      <trkpt lat="59.9846885" lon="15.8276903">
        <ele>104.2</ele>
        <time>2013-10-11T18:30:15Z</time>
        <extensions><gpxtpx:TrackPointExtension><gpxtpx:hr>158</gpxtpx:hr></gpxtpx:TrackPointExtension></extensions>
      </trkpt>
      <trkpt lat="59.984697" lon="15.8276402">
        <ele>104.2</ele>
        <time>2013-10-11T18:30:16Z</time>
        <extensions><gpxtpx:TrackPointExtension><gpxtpx:hr>158</gpxtpx:hr></gpxtpx:TrackPointExtension></extensions>
      </trkpt>
      <trkpt lat="59.9847001" lon="15.8276292">
        <ele>104.2</ele>
        <time>2013-10-11T18:30:17Z</time>
        <extensions><gpxtpx:TrackPointExtension><gpxtpx:hr>159</gpxtpx:hr></gpxtpx:TrackPointExtension></extensions>
      </trkpt>
      <trkpt lat="59.9847013" lon="15.827623">
        <ele>104.2</ele>
        <time>2013-10-11T18:30:18Z</time>
        <extensions><gpxtpx:TrackPointExtension><gpxtpx:hr>158</gpxtpx:hr></gpxtpx:TrackPointExtension></extensions>
      </trkpt>
      <trkpt lat="59.9847013" lon="15.8276209">
        <ele>104.2</ele>
        <time>2013-10-11T18:30:19Z</time>
        <extensions><gpxtpx:TrackPointExtension><gpxtpx:hr>158</gpxtpx:hr></gpxtpx:TrackPointExtension></extensions>
      </trkpt>
      <trkpt lat="59.9847032" lon="15.82762">
        <ele>104.2</ele>
        <time>2013-10-11T18:30:25Z</time>
        <extensions><gpxtpx:TrackPointExtension><gpxtpx:hr>158</gpxtpx:hr></gpxtpx:TrackPointExtension></extensions>
      </trkpt>
      <trkpt lat="59.9846968" lon="15.8276012">
        <ele>104.2</ele>
        <time>2013-10-11T18:30:27Z</time>
        <extensions><gpxtpx:TrackPointExtension><gpxtpx:hr>159</gpxtpx:hr></gpxtpx:TrackPointExtension></extensions>
      </trkpt>
      <trkpt lat="59.9846946" lon="15.8275785">
        <ele>105.2</ele>
        <time>2013-10-11T18:30:31Z</time>
        <extensions><gpxtpx:TrackPointExtension><gpxtpx:hr>159</gpxtpx:hr></gpxtpx:TrackPointExtension></extensions>
      </trkpt>
      <trkpt lat="59.9847047" lon="15.8275963">
        <ele>105.2</ele>
        <time>2013-10-11T18:30:33Z</time>
        <extensions><gpxtpx:TrackPointExtension><gpxtpx:hr>159</gpxtpx:hr></gpxtpx:TrackPointExtension></extensions>
      </trkpt>
      <trkpt lat="59.9847005" lon="15.8276198">
        <ele>105.2</ele>
        <time>2013-10-11T18:30:35Z</time>
        <extensions><gpxtpx:TrackPointExtension><gpxtpx:hr>159</gpxtpx:hr></gpxtpx:TrackPointExtension></extensions>
      </trkpt>
      <trkpt lat="59.9846994" lon="15.8276227">
        <ele>105.2</ele>
        <time>2013-10-11T18:30:36Z</time>
        <extensions><gpxtpx:TrackPointExtension><gpxtpx:hr>158</gpxtpx:hr></gpxtpx:TrackPointExtension></extensions>
      </trkpt>
      <trkpt lat="59.9846998" lon="15.8276194">
        <ele>105.2</ele>
        <time>2013-10-11T18:30:37Z</time>
        <extensions><gpxtpx:TrackPointExtension><gpxtpx:hr>158</gpxtpx:hr></gpxtpx:TrackPointExtension></extensions>
      </trkpt>
      <trkpt lat="59.9847005" lon="15.8276148">
        <ele>105.2</ele>
        <time>2013-10-11T18:30:38Z</time>
        <extensions><gpxtpx:TrackPointExtension><gpxtpx:hr>159</gpxtpx:hr></gpxtpx:TrackPointExtension></extensions>
      </trkpt>
      <trkpt lat="59.9847015" lon="15.8276113">
        <ele>105.2</ele>
        <time>2013-10-11T18:30:39Z</time>
        <extensions><gpxtpx:TrackPointExtension><gpxtpx:hr>158</gpxtpx:hr></gpxtpx:TrackPointExtension></extensions>
      </trkpt>
      <trkpt lat="59.9847006" lon="15.82761">
        <ele>105.2</ele>
        <time>2013-10-11T18:30:40Z</time>
        <extensions><gpxtpx:TrackPointExtension><gpxtpx:hr>158</gpxtpx:hr></gpxtpx:TrackPointExtension></extensions>
      </trkpt>
      <trkpt lat="59.9846977" lon="15.8276105">
        <ele>105.2</ele>
        <time>2013-10-11T18:30:41Z</time>
        <extensions><gpxtpx:TrackPointExtension><gpxtpx:hr>158</gpxtpx:hr></gpxtpx:TrackPointExtension></extensions>
      </trkpt>
      <trkpt lat="59.9846974" lon="15.827608">
        <ele>105.2</ele>
        <time>2013-10-11T18:30:42Z</time>
        <extensions><gpxtpx:TrackPointExtension><gpxtpx:hr>158</gpxtpx:hr></gpxtpx:TrackPointExtension></extensions>
      </trkpt>
      <trkpt lat="59.9846974" lon="15.8276003">
        <ele>105.2</ele>
        <time>2013-10-11T18:30:43Z</time>
        <extensions><gpxtpx:TrackPointExtension><gpxtpx:hr>158</gpxtpx:hr></gpxtpx:TrackPointExtension></extensions>
      </trkpt>
      <trkpt lat="59.9846979" lon="15.8275918">
        <ele>105.2</ele>
        <time>2013-10-11T18:30:44Z</time>
        <extensions><gpxtpx:TrackPointExtension><gpxtpx:hr>158</gpxtpx:hr></gpxtpx:TrackPointExtension></extensions>
      </trkpt>
      <trkpt lat="59.9847009" lon="15.8275912">
        <ele>105.2</ele>
        <time>2013-10-11T18:30:49Z</time>
        <extensions><gpxtpx:TrackPointExtension><gpxtpx:hr>158</gpxtpx:hr></gpxtpx:TrackPointExtension></extensions>
      </trkpt>
      <trkpt lat="59.984701" lon="15.8275926">
        <ele>105.2</ele>
        <time>2013-10-11T18:30:50Z</time>
        <extensions><gpxtpx:TrackPointExtension><gpxtpx:hr>158</gpxtpx:hr></gpxtpx:TrackPointExtension></extensions>
      </trkpt>
      <trkpt lat="59.9846788" lon="15.8276065">
        <ele>105.2</ele>
        <time>2013-10-11T18:30:52Z</time>
        <extensions><gpxtpx:TrackPointExtension><gpxtpx:hr>158</gpxtpx:hr></gpxtpx:TrackPointExtension></extensions>
      </trkpt>
      <trkpt lat="59.9846741" lon="15.8276187">
        <ele>105.2</ele>
        <time>2013-10-11T18:30:54Z</time>
        <extensions><gpxtpx:TrackPointExtension><gpxtpx:hr>159</gpxtpx:hr></gpxtpx:TrackPointExtension></extensions>
      </trkpt>
      <trkpt lat="59.9846709" lon="15.8276229">
        <ele>105.2</ele>
        <time>2013-10-11T18:30:55Z</time>
        <extensions><gpxtpx:TrackPointExtension><gpxtpx:hr>159</gpxtpx:hr></gpxtpx:TrackPointExtension></extensions>
      </trkpt>
      <trkpt lat="59.9846684" lon="15.8276273">
        <ele>105.2</ele>
        <time>2013-10-11T18:30:56Z</time>
        <extensions><gpxtpx:TrackPointExtension><gpxtpx:hr>159</gpxtpx:hr></gpxtpx:TrackPointExtension></extensions>
      </trkpt>
      <trkpt lat="59.9846677" lon="15.8276297">
        <ele>105.2</ele>
        <time>2013-10-11T18:30:57Z</time>
        <extensions><gpxtpx:TrackPointExtension><gpxtpx:hr>159</gpxtpx:hr></gpxtpx:TrackPointExtension></extensions>
      </trkpt>
      <trkpt lat="59.9846685" lon="15.8276293">
        <ele>105.2</ele>
        <time>2013-10-11T18:30:58Z</time>
        <extensions><gpxtpx:TrackPointExtension><gpxtpx:hr>160</gpxtpx:hr></gpxtpx:TrackPointExtension></extensions>
      </trkpt>
      <trkpt lat="59.9846725" lon="15.8276176">
        <ele>105.2</ele>
        <time>2013-10-11T18:30:59Z</time>
        <extensions><gpxtpx:TrackPointExtension><gpxtpx:hr>159</gpxtpx:hr></gpxtpx:TrackPointExtension></extensions>
      </trkpt>
      <trkpt lat="59.9846683" lon="15.8276306">
        <ele>105.2</ele>
        <time>2013-10-11T18:31:00Z</time>
        <extensions><gpxtpx:TrackPointExtension><gpxtpx:hr>160</gpxtpx:hr></gpxtpx:TrackPointExtension></extensions>
      </trkpt>
      <trkpt lat="59.9846661" lon="15.8276437">
        <ele>105.2</ele>
        <time>2013-10-11T18:31:01Z</time>
        <extensions><gpxtpx:TrackPointExtension><gpxtpx:hr>160</gpxtpx:hr></gpxtpx:TrackPointExtension></extensions>
      </trkpt>
      <trkpt lat="59.9846646" lon="15.8276657">
        <ele>105.2</ele>
        <time>2013-10-11T18:31:02Z</time>
        <extensions><gpxtpx:TrackPointExtension><gpxtpx:hr>160</gpxtpx:hr></gpxtpx:TrackPointExtension></extensions>
      </trkpt>
      <trkpt lat="59.9846608" lon="15.8276775">
        <ele>105.2</ele>
        <time>2013-10-11T18:31:03Z</time>
        <extensions><gpxtpx:TrackPointExtension><gpxtpx:hr>160</gpxtpx:hr></gpxtpx:TrackPointExtension></extensions>
      </trkpt>
      <trkpt lat="59.9846519" lon="15.8276863">
        <ele>105.2</ele>
        <time>2013-10-11T18:31:04Z</time>
        <extensions><gpxtpx:TrackPointExtension><gpxtpx:hr>160</gpxtpx:hr></gpxtpx:TrackPointExtension></extensions>
      </trkpt>
      <trkpt lat="59.9846435" lon="15.8276982">
        <ele>105.2</ele>
        <time>2013-10-11T18:31:05Z</time>
        <extensions><gpxtpx:TrackPointExtension><gpxtpx:hr>160</gpxtpx:hr></gpxtpx:TrackPointExtension></extensions>
      </trkpt>
      <trkpt lat="59.9846267" lon="15.8277534">
        <ele>105.2</ele>
        <time>2013-10-11T18:31:08Z</time>
        <extensions><gpxtpx:TrackPointExtension><gpxtpx:hr>160</gpxtpx:hr></gpxtpx:TrackPointExtension></extensions>
      </trkpt>
      <trkpt lat="59.9846211" lon="15.8277636">
        <ele>105.2</ele>
        <time>2013-10-11T18:31:09Z</time>
        <extensions><gpxtpx:TrackPointExtension><gpxtpx:hr>159</gpxtpx:hr></gpxtpx:TrackPointExtension></extensions>
      </trkpt>
      <trkpt lat="59.9845729" lon="15.8278358">
        <ele>105.2</ele>
        <time>2013-10-11T18:31:14Z</time>
        <extensions><gpxtpx:TrackPointExtension><gpxtpx:hr>160</gpxtpx:hr></gpxtpx:TrackPointExtension></extensions>
      </trkpt>
      <trkpt lat="59.9845742" lon="15.8278505">
        <ele>105.2</ele>
        <time>2013-10-11T18:31:15Z</time>
        <extensions><gpxtpx:TrackPointExtension><gpxtpx:hr>160</gpxtpx:hr></gpxtpx:TrackPointExtension></extensions>
      </trkpt>
      <trkpt lat="59.9845694" lon="15.8278618">
        <ele>105.2</ele>
        <time>2013-10-11T18:31:16Z</time>
        <extensions><gpxtpx:TrackPointExtension><gpxtpx:hr>160</gpxtpx:hr></gpxtpx:TrackPointExtension></extensions>
      </trkpt>
      <trkpt lat="59.9845684" lon="15.8278707">
        <ele>105.2</ele>
        <time>2013-10-11T18:31:17Z</time>
        <extensions><gpxtpx:TrackPointExtension><gpxtpx:hr>160</gpxtpx:hr></gpxtpx:TrackPointExtension></extensions>
      </trkpt>
      <trkpt lat="59.9845663" lon="15.8278871">
        <ele>105.2</ele>
        <time>2013-10-11T18:31:18Z</time>
        <extensions><gpxtpx:TrackPointExtension><gpxtpx:hr>160</gpxtpx:hr></gpxtpx:TrackPointExtension></extensions>
      </trkpt>
      <trkpt lat="59.9845611" lon="15.8279016">
        <ele>105.2</ele>
        <time>2013-10-11T18:31:19Z</time>
        <extensions><gpxtpx:TrackPointExtension><gpxtpx:hr>160</gpxtpx:hr></gpxtpx:TrackPointExtension></extensions>
      </trkpt>
      <trkpt lat="59.9845582" lon="15.8279058">
        <ele>105.2</ele>
        <time>2013-10-11T18:31:20Z</time>
        <extensions><gpxtpx:TrackPointExtension><gpxtpx:hr>160</gpxtpx:hr></gpxtpx:TrackPointExtension></extensions>
      </trkpt>
      <trkpt lat="59.984556" lon="15.8279099">
        <ele>105.2</ele>
        <time>2013-10-11T18:31:21Z</time>
        <extensions><gpxtpx:TrackPointExtension><gpxtpx:hr>160</gpxtpx:hr></gpxtpx:TrackPointExtension></extensions>
      </trkpt>
      <trkpt lat="59.9845482" lon="15.8279073">
        <ele>105.2</ele>
        <time>2013-10-11T18:31:23Z</time>
        <extensions><gpxtpx:TrackPointExtension><gpxtpx:hr>161</gpxtpx:hr></gpxtpx:TrackPointExtension></extensions>
      </trkpt>
      <trkpt lat="59.9845487" lon="15.8279049">
        <ele>105.2</ele>
        <time>2013-10-11T18:31:24Z</time>
        <extensions><gpxtpx:TrackPointExtension><gpxtpx:hr>161</gpxtpx:hr></gpxtpx:TrackPointExtension></extensions>
      </trkpt>
      <trkpt lat="59.9845515" lon="15.8279026">
        <ele>105.2</ele>
        <time>2013-10-11T18:31:25Z</time>
        <extensions><gpxtpx:TrackPointExtension><gpxtpx:hr>160</gpxtpx:hr></gpxtpx:TrackPointExtension></extensions>
      </trkpt>
      <trkpt lat="59.9846103" lon="15.8277926">
        <ele>105.2</ele>
        <time>2013-10-11T18:31:26Z</time>
        <extensions><gpxtpx:TrackPointExtension><gpxtpx:hr>160</gpxtpx:hr></gpxtpx:TrackPointExtension></extensions>
      </trkpt>
      <trkpt lat="59.9846164" lon="15.8277822">
        <ele>105.2</ele>
        <time>2013-10-11T18:31:27Z</time>
        <extensions><gpxtpx:TrackPointExtension><gpxtpx:hr>160</gpxtpx:hr></gpxtpx:TrackPointExtension></extensions>
      </trkpt>
      <trkpt lat="59.984621" lon="15.8277729">
        <ele>105.2</ele>
        <time>2013-10-11T18:31:28Z</time>
        <extensions><gpxtpx:TrackPointExtension><gpxtpx:hr>160</gpxtpx:hr></gpxtpx:TrackPointExtension></extensions>
      </trkpt>
      <trkpt lat="59.9846343" lon="15.8277467">
        <ele>105.2</ele>
        <time>2013-10-11T18:31:29Z</time>
        <extensions><gpxtpx:TrackPointExtension><gpxtpx:hr>160</gpxtpx:hr></gpxtpx:TrackPointExtension></extensions>
      </trkpt>
      <trkpt lat="59.9846409" lon="15.8277386">
        <ele>105.2</ele>
        <time>2013-10-11T18:31:30Z</time>
        <extensions><gpxtpx:TrackPointExtension><gpxtpx:hr>160</gpxtpx:hr></gpxtpx:TrackPointExtension></extensions>
      </trkpt>
      <trkpt lat="59.9846443" lon="15.8276974">
        <ele>105.2</ele>
        <time>2013-10-11T18:31:31Z</time>
        <extensions><gpxtpx:TrackPointExtension><gpxtpx:hr>160</gpxtpx:hr></gpxtpx:TrackPointExtension></extensions>
      </trkpt>
      <trkpt lat="59.9846433" lon="15.8276845">
        <ele>105.2</ele>
        <time>2013-10-11T18:31:32Z</time>
        <extensions><gpxtpx:TrackPointExtension><gpxtpx:hr>160</gpxtpx:hr></gpxtpx:TrackPointExtension></extensions>
      </trkpt>
      <trkpt lat="59.9846413" lon="15.827679">
        <ele>105.2</ele>
        <time>2013-10-11T18:31:33Z</time>
        <extensions><gpxtpx:TrackPointExtension><gpxtpx:hr>161</gpxtpx:hr></gpxtpx:TrackPointExtension></extensions>
      </trkpt>
      <trkpt lat="59.9846564" lon="15.8276417">
        <ele>105.2</ele>
        <time>2013-10-11T18:31:35Z</time>
        <extensions><gpxtpx:TrackPointExtension><gpxtpx:hr>160</gpxtpx:hr></gpxtpx:TrackPointExtension></extensions>
      </trkpt>
      <trkpt lat="59.9846657" lon="15.8276122">
        <ele>105.2</ele>
        <time>2013-10-11T18:31:36Z</time>
        <extensions><gpxtpx:TrackPointExtension><gpxtpx:hr>160</gpxtpx:hr></gpxtpx:TrackPointExtension></extensions>
      </trkpt>
      <trkpt lat="59.9846787" lon="15.8275838">
        <ele>105.2</ele>
        <time>2013-10-11T18:31:37Z</time>
        <extensions><gpxtpx:TrackPointExtension><gpxtpx:hr>160</gpxtpx:hr></gpxtpx:TrackPointExtension></extensions>
      </trkpt>
      <trkpt lat="59.9846938" lon="15.8275406">
        <ele>105.2</ele>
        <time>2013-10-11T18:31:38Z</time>
        <extensions><gpxtpx:TrackPointExtension><gpxtpx:hr>160</gpxtpx:hr></gpxtpx:TrackPointExtension></extensions>
      </trkpt>
      <trkpt lat="59.9847113" lon="15.827497">
        <ele>105.2</ele>
        <time>2013-10-11T18:31:40Z</time>
        <extensions><gpxtpx:TrackPointExtension><gpxtpx:hr>160</gpxtpx:hr></gpxtpx:TrackPointExtension></extensions>
      </trkpt>
      <trkpt lat="59.9847252" lon="15.827476">
        <ele>105.2</ele>
        <time>2013-10-11T18:31:41Z</time>
        <extensions><gpxtpx:TrackPointExtension><gpxtpx:hr>160</gpxtpx:hr></gpxtpx:TrackPointExtension></extensions>
      </trkpt>
      <trkpt lat="59.9847382" lon="15.8274563">
        <ele>105.2</ele>
        <time>2013-10-11T18:31:42Z</time>
        <extensions><gpxtpx:TrackPointExtension><gpxtpx:hr>160</gpxtpx:hr></gpxtpx:TrackPointExtension></extensions>
      </trkpt>
      <trkpt lat="59.9847451" lon="15.8274483">
        <ele>105.2</ele>
        <time>2013-10-11T18:31:43Z</time>
        <extensions><gpxtpx:TrackPointExtension><gpxtpx:hr>160</gpxtpx:hr></gpxtpx:TrackPointExtension></extensions>
      </trkpt>
      <trkpt lat="59.9847629" lon="15.8274015">
        <ele>105.2</ele>
        <time>2013-10-11T18:31:46Z</time>
        <extensions><gpxtpx:TrackPointExtension><gpxtpx:hr>161</gpxtpx:hr></gpxtpx:TrackPointExtension></extensions>
      </trkpt>
      <trkpt lat="59.9847544" lon="15.8273674">
        <ele>105.2</ele>
        <time>2013-10-11T18:31:47Z</time>
        <extensions><gpxtpx:TrackPointExtension><gpxtpx:hr>161</gpxtpx:hr></gpxtpx:TrackPointExtension></extensions>
      </trkpt>
      <trkpt lat="59.9847493" lon="15.8273259">
        <ele>105.2</ele>
        <time>2013-10-11T18:31:51Z</time>
        <extensions><gpxtpx:TrackPointExtension><gpxtpx:hr>161</gpxtpx:hr></gpxtpx:TrackPointExtension></extensions>
      </trkpt>
      <trkpt lat="59.9847512" lon="15.8273267">
        <ele>105.2</ele>
        <time>2013-10-11T18:31:52Z</time>
        <extensions><gpxtpx:TrackPointExtension><gpxtpx:hr>161</gpxtpx:hr></gpxtpx:TrackPointExtension></extensions>
      </trkpt>
      <trkpt lat="59.9847525" lon="15.827325">
        <ele>105.2</ele>
        <time>2013-10-11T18:31:53Z</time>
        <extensions><gpxtpx:TrackPointExtension><gpxtpx:hr>160</gpxtpx:hr></gpxtpx:TrackPointExtension></extensions>
      </trkpt>
      <trkpt lat="59.9847502" lon="15.8273173">
        <ele>105.2</ele>
        <time>2013-10-11T18:31:54Z</time>
        <extensions><gpxtpx:TrackPointExtension><gpxtpx:hr>161</gpxtpx:hr></gpxtpx:TrackPointExtension></extensions>
      </trkpt>
      <trkpt lat="59.9847461" lon="15.8273079">
        <ele>105.2</ele>
        <time>2013-10-11T18:31:55Z</time>
        <extensions><gpxtpx:TrackPointExtension><gpxtpx:hr>160</gpxtpx:hr></gpxtpx:TrackPointExtension></extensions>
      </trkpt>
      <trkpt lat="59.984743" lon="15.8272986">
        <ele>105.2</ele>
        <time>2013-10-11T18:31:56Z</time>
        <extensions><gpxtpx:TrackPointExtension><gpxtpx:hr>160</gpxtpx:hr></gpxtpx:TrackPointExtension></extensions>
      </trkpt>
      <trkpt lat="59.9847428" lon="15.8272908">
        <ele>105.2</ele>
        <time>2013-10-11T18:31:57Z</time>
        <extensions><gpxtpx:TrackPointExtension><gpxtpx:hr>160</gpxtpx:hr></gpxtpx:TrackPointExtension></extensions>
      </trkpt>
      <trkpt lat="59.9847415" lon="15.827282">
        <ele>105.2</ele>
        <time>2013-10-11T18:31:58Z</time>
        <extensions><gpxtpx:TrackPointExtension><gpxtpx:hr>160</gpxtpx:hr></gpxtpx:TrackPointExtension></extensions>
      </trkpt>
      <trkpt lat="59.9847397" lon="15.8272714">
        <ele>105.2</ele>
        <time>2013-10-11T18:31:59Z</time>
        <extensions><gpxtpx:TrackPointExtension><gpxtpx:hr>160</gpxtpx:hr></gpxtpx:TrackPointExtension></extensions>
      </trkpt>
      <trkpt lat="59.9847569" lon="15.8272066">
        <ele>105.2</ele>
        <time>2013-10-11T18:32:01Z</time>
        <extensions><gpxtpx:TrackPointExtension><gpxtpx:hr>160</gpxtpx:hr></gpxtpx:TrackPointExtension></extensions>
      </trkpt>
      <trkpt lat="59.9847839" lon="15.827148">
        <ele>105.2</ele>
        <time>2013-10-11T18:32:05Z</time>
        <extensions><gpxtpx:TrackPointExtension><gpxtpx:hr>161</gpxtpx:hr></gpxtpx:TrackPointExtension></extensions>
      </trkpt>
      <trkpt lat="59.9847943" lon="15.8271198">
        <ele>105.2</ele>
        <time>2013-10-11T18:32:07Z</time>
        <extensions><gpxtpx:TrackPointExtension><gpxtpx:hr>161</gpxtpx:hr></gpxtpx:TrackPointExtension></extensions>
      </trkpt>
      <trkpt lat="59.9847993" lon="15.8271116">
        <ele>105.2</ele>
        <time>2013-10-11T18:32:09Z</time>
        <extensions><gpxtpx:TrackPointExtension><gpxtpx:hr>161</gpxtpx:hr></gpxtpx:TrackPointExtension></extensions>
      </trkpt>
      <trkpt lat="59.9848016" lon="15.8271065">
        <ele>105.2</ele>
        <time>2013-10-11T18:32:10Z</time>
        <extensions><gpxtpx:TrackPointExtension><gpxtpx:hr>160</gpxtpx:hr></gpxtpx:TrackPointExtension></extensions>
      </trkpt>
      <trkpt lat="59.984801" lon="15.8271024">
        <ele>105.2</ele>
        <time>2013-10-11T18:32:11Z</time>
        <extensions><gpxtpx:TrackPointExtension><gpxtpx:hr>161</gpxtpx:hr></gpxtpx:TrackPointExtension></extensions>
      </trkpt>
      <trkpt lat="59.9847533" lon="15.8271457">
        <ele>105.2</ele>
        <time>2013-10-11T18:32:12Z</time>
        <extensions><gpxtpx:TrackPointExtension><gpxtpx:hr>160</gpxtpx:hr></gpxtpx:TrackPointExtension></extensions>
      </trkpt>
      <trkpt lat="59.9847399" lon="15.8271474">
        <ele>105.2</ele>
        <time>2013-10-11T18:32:13Z</time>
        <extensions><gpxtpx:TrackPointExtension><gpxtpx:hr>161</gpxtpx:hr></gpxtpx:TrackPointExtension></extensions>
      </trkpt>
      <trkpt lat="59.9847226" lon="15.8271442">
        <ele>105.2</ele>
        <time>2013-10-11T18:32:14Z</time>
        <extensions><gpxtpx:TrackPointExtension><gpxtpx:hr>161</gpxtpx:hr></gpxtpx:TrackPointExtension></extensions>
      </trkpt>
      <trkpt lat="59.9847058" lon="15.8271416">
        <ele>105.2</ele>
        <time>2013-10-11T18:32:15Z</time>
        <extensions><gpxtpx:TrackPointExtension><gpxtpx:hr>161</gpxtpx:hr></gpxtpx:TrackPointExtension></extensions>
      </trkpt>
      <trkpt lat="59.9846912" lon="15.8271384">
        <ele>105.2</ele>
        <time>2013-10-11T18:32:16Z</time>
        <extensions><gpxtpx:TrackPointExtension><gpxtpx:hr>160</gpxtpx:hr></gpxtpx:TrackPointExtension></extensions>
      </trkpt>
      <trkpt lat="59.9846789" lon="15.8271362">
        <ele>105.2</ele>
        <time>2013-10-11T18:32:17Z</time>
        <extensions><gpxtpx:TrackPointExtension><gpxtpx:hr>160</gpxtpx:hr></gpxtpx:TrackPointExtension></extensions>
      </trkpt>
      <trkpt lat="59.9846657" lon="15.8271263">
        <ele>105.2</ele>
        <time>2013-10-11T18:32:18Z</time>
        <extensions><gpxtpx:TrackPointExtension><gpxtpx:hr>161</gpxtpx:hr></gpxtpx:TrackPointExtension></extensions>
      </trkpt>
      <trkpt lat="59.9846534" lon="15.8271337">
        <ele>105.2</ele>
        <time>2013-10-11T18:32:19Z</time>
        <extensions><gpxtpx:TrackPointExtension><gpxtpx:hr>160</gpxtpx:hr></gpxtpx:TrackPointExtension></extensions>
      </trkpt>
      <trkpt lat="59.9846488" lon="15.8271297">
        <ele>105.2</ele>
        <time>2013-10-11T18:32:20Z</time>
        <extensions><gpxtpx:TrackPointExtension><gpxtpx:hr>160</gpxtpx:hr></gpxtpx:TrackPointExtension></extensions>
      </trkpt>
      <trkpt lat="59.9846456" lon="15.8271288">
        <ele>106.2</ele>
        <time>2013-10-11T18:32:21Z</time>
        <extensions><gpxtpx:TrackPointExtension><gpxtpx:hr>160</gpxtpx:hr></gpxtpx:TrackPointExtension></extensions>
      </trkpt>
      <trkpt lat="59.9846443" lon="15.8271246">
        <ele>106.2</ele>
        <time>2013-10-11T18:32:22Z</time>
        <extensions><gpxtpx:TrackPointExtension><gpxtpx:hr>160</gpxtpx:hr></gpxtpx:TrackPointExtension></extensions>
      </trkpt>
      <trkpt lat="59.984645" lon="15.8271215">
        <ele>106.2</ele>
        <time>2013-10-11T18:32:23Z</time>
        <extensions><gpxtpx:TrackPointExtension><gpxtpx:hr>159</gpxtpx:hr></gpxtpx:TrackPointExtension></extensions>
      </trkpt>
      <trkpt lat="59.984644" lon="15.8271229">
        <ele>106.2</ele>
        <time>2013-10-11T18:32:24Z</time>
        <extensions><gpxtpx:TrackPointExtension><gpxtpx:hr>159</gpxtpx:hr></gpxtpx:TrackPointExtension></extensions>
      </trkpt>
      <trkpt lat="59.9846399" lon="15.8271318">
        <ele>106.2</ele>
        <time>2013-10-11T18:32:26Z</time>
        <extensions><gpxtpx:TrackPointExtension><gpxtpx:hr>159</gpxtpx:hr></gpxtpx:TrackPointExtension></extensions>
      </trkpt>
      <trkpt lat="59.9846426" lon="15.8271309">
        <ele>106.2</ele>
        <time>2013-10-11T18:32:28Z</time>
        <extensions><gpxtpx:TrackPointExtension><gpxtpx:hr>159</gpxtpx:hr></gpxtpx:TrackPointExtension></extensions>
      </trkpt>
      <trkpt lat="59.9846498" lon="15.8271355">
        <ele>106.2</ele>
        <time>2013-10-11T18:32:31Z</time>
        <extensions><gpxtpx:TrackPointExtension><gpxtpx:hr>160</gpxtpx:hr></gpxtpx:TrackPointExtension></extensions>
      </trkpt>
      <trkpt lat="59.9846528" lon="15.8271412">
        <ele>106.2</ele>
        <time>2013-10-11T18:32:32Z</time>
        <extensions><gpxtpx:TrackPointExtension><gpxtpx:hr>160</gpxtpx:hr></gpxtpx:TrackPointExtension></extensions>
      </trkpt>
      <trkpt lat="59.9846378" lon="15.8272566">
        <ele>106.2</ele>
        <time>2013-10-11T18:32:33Z</time>
        <extensions><gpxtpx:TrackPointExtension><gpxtpx:hr>160</gpxtpx:hr></gpxtpx:TrackPointExtension></extensions>
      </trkpt>
      <trkpt lat="59.984644" lon="15.8272819">
        <ele>106.2</ele>
        <time>2013-10-11T18:32:34Z</time>
        <extensions><gpxtpx:TrackPointExtension><gpxtpx:hr>160</gpxtpx:hr></gpxtpx:TrackPointExtension></extensions>
      </trkpt>
      <trkpt lat="59.9846447" lon="15.8273157">
        <ele>106.2</ele>
        <time>2013-10-11T18:32:35Z</time>
        <extensions><gpxtpx:TrackPointExtension><gpxtpx:hr>160</gpxtpx:hr></gpxtpx:TrackPointExtension></extensions>
      </trkpt>
      <trkpt lat="59.9846423" lon="15.8273504">
        <ele>106.2</ele>
        <time>2013-10-11T18:32:36Z</time>
        <extensions><gpxtpx:TrackPointExtension><gpxtpx:hr>160</gpxtpx:hr></gpxtpx:TrackPointExtension></extensions>
      </trkpt>
      <trkpt lat="59.9846397" lon="15.8273771">
        <ele>106.2</ele>
        <time>2013-10-11T18:32:37Z</time>
        <extensions><gpxtpx:TrackPointExtension><gpxtpx:hr>160</gpxtpx:hr></gpxtpx:TrackPointExtension></extensions>
      </trkpt>
      <trkpt lat="59.9846378" lon="15.8274131">
        <ele>106.2</ele>
        <time>2013-10-11T18:32:38Z</time>
        <extensions><gpxtpx:TrackPointExtension><gpxtpx:hr>160</gpxtpx:hr></gpxtpx:TrackPointExtension></extensions>
      </trkpt>
      <trkpt lat="59.9846392" lon="15.8274403">
        <ele>106.2</ele>
        <time>2013-10-11T18:32:39Z</time>
        <extensions><gpxtpx:TrackPointExtension><gpxtpx:hr>160</gpxtpx:hr></gpxtpx:TrackPointExtension></extensions>
      </trkpt>
      <trkpt lat="59.984641" lon="15.8274621">
        <ele>106.2</ele>
        <time>2013-10-11T18:32:40Z</time>
        <extensions><gpxtpx:TrackPointExtension><gpxtpx:hr>159</gpxtpx:hr></gpxtpx:TrackPointExtension></extensions>
      </trkpt>
      <trkpt lat="59.9846413" lon="15.8274831">
        <ele>106.4</ele>
        <time>2013-10-11T18:32:41Z</time>
        <extensions><gpxtpx:TrackPointExtension><gpxtpx:hr>160</gpxtpx:hr></gpxtpx:TrackPointExtension></extensions>
      </trkpt>
      <trkpt lat="59.984648" lon="15.8274903">
        <ele>106.2</ele>
        <time>2013-10-11T18:32:42Z</time>
        <extensions><gpxtpx:TrackPointExtension><gpxtpx:hr>160</gpxtpx:hr></gpxtpx:TrackPointExtension></extensions>
      </trkpt>
      <trkpt lat="59.9846501" lon="15.8275051">
        <ele>106.2</ele>
        <time>2013-10-11T18:32:43Z</time>
        <extensions><gpxtpx:TrackPointExtension><gpxtpx:hr>160</gpxtpx:hr></gpxtpx:TrackPointExtension></extensions>
      </trkpt>
      <trkpt lat="59.9846538" lon="15.8275214">
        <ele>106.2</ele>
        <time>2013-10-11T18:32:44Z</time>
        <extensions><gpxtpx:TrackPointExtension><gpxtpx:hr>160</gpxtpx:hr></gpxtpx:TrackPointExtension></extensions>
      </trkpt>
      <trkpt lat="59.9846553" lon="15.8275333">
        <ele>106.2</ele>
        <time>2013-10-11T18:32:45Z</time>
        <extensions><gpxtpx:TrackPointExtension><gpxtpx:hr>160</gpxtpx:hr></gpxtpx:TrackPointExtension></extensions>
      </trkpt>
      <trkpt lat="59.9846711" lon="15.8275368">
        <ele>106.2</ele>
        <time>2013-10-11T18:32:48Z</time>
        <extensions><gpxtpx:TrackPointExtension><gpxtpx:hr>160</gpxtpx:hr></gpxtpx:TrackPointExtension></extensions>
      </trkpt>
      <trkpt lat="59.9846701" lon="15.8275256">
        <ele>106.2</ele>
        <time>2013-10-11T18:32:49Z</time>
        <extensions><gpxtpx:TrackPointExtension><gpxtpx:hr>160</gpxtpx:hr></gpxtpx:TrackPointExtension></extensions>
      </trkpt>
      <trkpt lat="59.9846767" lon="15.8275035">
        <ele>106.2</ele>
        <time>2013-10-11T18:32:50Z</time>
        <extensions><gpxtpx:TrackPointExtension><gpxtpx:hr>160</gpxtpx:hr></gpxtpx:TrackPointExtension></extensions>
      </trkpt>
      <trkpt lat="59.9846766" lon="15.8274804">
        <ele>106.2</ele>
        <time>2013-10-11T18:32:51Z</time>
        <extensions><gpxtpx:TrackPointExtension><gpxtpx:hr>160</gpxtpx:hr></gpxtpx:TrackPointExtension></extensions>
      </trkpt>
      <trkpt lat="59.984678" lon="15.8274538">
        <ele>106.2</ele>
        <time>2013-10-11T18:32:52Z</time>
        <extensions><gpxtpx:TrackPointExtension><gpxtpx:hr>160</gpxtpx:hr></gpxtpx:TrackPointExtension></extensions>
      </trkpt>
      <trkpt lat="59.9846575" lon="15.8273373">
        <ele>106.2</ele>
        <time>2013-10-11T18:32:57Z</time>
        <extensions><gpxtpx:TrackPointExtension><gpxtpx:hr>161</gpxtpx:hr></gpxtpx:TrackPointExtension></extensions>
      </trkpt>
      <trkpt lat="59.984652" lon="15.8273276">
        <ele>106.2</ele>
        <time>2013-10-11T18:32:58Z</time>
        <extensions><gpxtpx:TrackPointExtension><gpxtpx:hr>161</gpxtpx:hr></gpxtpx:TrackPointExtension></extensions>
      </trkpt>
      <trkpt lat="59.9846441" lon="15.8273457">
        <ele>106.2</ele>
        <time>2013-10-11T18:33:02Z</time>
        <extensions><gpxtpx:TrackPointExtension><gpxtpx:hr>161</gpxtpx:hr></gpxtpx:TrackPointExtension></extensions>
      </trkpt>
      <trkpt lat="59.9846528" lon="15.8273697">
        <ele>106.2</ele>
        <time>2013-10-11T18:33:03Z</time>
        <extensions><gpxtpx:TrackPointExtension><gpxtpx:hr>162</gpxtpx:hr></gpxtpx:TrackPointExtension></extensions>
      </trkpt>
      <trkpt lat="59.984662" lon="15.8273969">
        <ele>106.2</ele>
        <time>2013-10-11T18:33:06Z</time>
        <extensions><gpxtpx:TrackPointExtension><gpxtpx:hr>162</gpxtpx:hr></gpxtpx:TrackPointExtension></extensions>
      </trkpt>
      <trkpt lat="59.9846602" lon="15.8274163">
        <ele>106.2</ele>
        <time>2013-10-11T18:33:07Z</time>
        <extensions><gpxtpx:TrackPointExtension><gpxtpx:hr>162</gpxtpx:hr></gpxtpx:TrackPointExtension></extensions>
      </trkpt>
      <trkpt lat="59.9846511" lon="15.8274227">
        <ele>106.2</ele>
        <time>2013-10-11T18:33:08Z</time>
        <extensions><gpxtpx:TrackPointExtension><gpxtpx:hr>162</gpxtpx:hr></gpxtpx:TrackPointExtension></extensions>
      </trkpt>
      <trkpt lat="59.9846349" lon="15.8274012">
        <ele>106.2</ele>
        <time>2013-10-11T18:33:09Z</time>
        <extensions><gpxtpx:TrackPointExtension><gpxtpx:hr>162</gpxtpx:hr></gpxtpx:TrackPointExtension></extensions>
      </trkpt>
      <trkpt lat="59.9846257" lon="15.8273966">
        <ele>106.2</ele>
        <time>2013-10-11T18:33:10Z</time>
        <extensions><gpxtpx:TrackPointExtension><gpxtpx:hr>162</gpxtpx:hr></gpxtpx:TrackPointExtension></extensions>
      </trkpt>
      <trkpt lat="59.9846458" lon="15.8274175">
        <ele>106.2</ele>
        <time>2013-10-11T18:33:19Z</time>
        <extensions><gpxtpx:TrackPointExtension><gpxtpx:hr>161</gpxtpx:hr></gpxtpx:TrackPointExtension></extensions>
      </trkpt>
      <trkpt lat="59.9846547" lon="15.8274522">
        <ele>106.2</ele>
        <time>2013-10-11T18:33:21Z</time>
        <extensions><gpxtpx:TrackPointExtension><gpxtpx:hr>162</gpxtpx:hr></gpxtpx:TrackPointExtension></extensions>
      </trkpt>
      <trkpt lat="59.9846585" lon="15.8274771">
        <ele>106.2</ele>
        <time>2013-10-11T18:33:22Z</time>
        <extensions><gpxtpx:TrackPointExtension><gpxtpx:hr>161</gpxtpx:hr></gpxtpx:TrackPointExtension></extensions>
      </trkpt>
      <trkpt lat="59.9846627" lon="15.8275127">
        <ele>106.2</ele>
        <time>2013-10-11T18:33:25Z</time>
        <extensions><gpxtpx:TrackPointExtension><gpxtpx:hr>162</gpxtpx:hr></gpxtpx:TrackPointExtension></extensions>
      </trkpt>
      <trkpt lat="59.984668" lon="15.827525">
        <ele>106.2</ele>
        <time>2013-10-11T18:33:26Z</time>
        <extensions><gpxtpx:TrackPointExtension><gpxtpx:hr>161</gpxtpx:hr></gpxtpx:TrackPointExtension></extensions>
      </trkpt>
      <trkpt lat="59.9846734" lon="15.8275095">
        <ele>106.2</ele>
        <time>2013-10-11T18:33:28Z</time>
        <extensions><gpxtpx:TrackPointExtension><gpxtpx:hr>161</gpxtpx:hr></gpxtpx:TrackPointExtension></extensions>
      </trkpt>
      <trkpt lat="59.9846747" lon="15.8274955">
        <ele>106.2</ele>
        <time>2013-10-11T18:33:29Z</time>
        <extensions><gpxtpx:TrackPointExtension><gpxtpx:hr>161</gpxtpx:hr></gpxtpx:TrackPointExtension></extensions>
      </trkpt>
      <trkpt lat="59.9846775" lon="15.8274884">
        <ele>106.2</ele>
        <time>2013-10-11T18:33:30Z</time>
        <extensions><gpxtpx:TrackPointExtension><gpxtpx:hr>161</gpxtpx:hr></gpxtpx:TrackPointExtension></extensions>
      </trkpt>
      <trkpt lat="59.9846797" lon="15.8274902">
        <ele>106.2</ele>
        <time>2013-10-11T18:33:31Z</time>
        <extensions><gpxtpx:TrackPointExtension><gpxtpx:hr>161</gpxtpx:hr></gpxtpx:TrackPointExtension></extensions>
      </trkpt>
      <trkpt lat="59.9846812" lon="15.8274944">
        <ele>106.2</ele>
        <time>2013-10-11T18:33:32Z</time>
        <extensions><gpxtpx:TrackPointExtension><gpxtpx:hr>160</gpxtpx:hr></gpxtpx:TrackPointExtension></extensions>
      </trkpt>
      <trkpt lat="59.9846835" lon="15.8275001">
        <ele>106.2</ele>
        <time>2013-10-11T18:33:33Z</time>
        <extensions><gpxtpx:TrackPointExtension><gpxtpx:hr>160</gpxtpx:hr></gpxtpx:TrackPointExtension></extensions>
      </trkpt>
      <trkpt lat="59.9846432" lon="15.8273781">
        <ele>106.2</ele>
        <time>2013-10-11T18:33:34Z</time>
        <extensions><gpxtpx:TrackPointExtension><gpxtpx:hr>160</gpxtpx:hr></gpxtpx:TrackPointExtension></extensions>
      </trkpt>
      <trkpt lat="59.9846492" lon="15.8273859">
        <ele>106.2</ele>
        <time>2013-10-11T18:33:35Z</time>
        <extensions><gpxtpx:TrackPointExtension><gpxtpx:hr>160</gpxtpx:hr></gpxtpx:TrackPointExtension></extensions>
      </trkpt>
      <trkpt lat="59.9846503" lon="15.8273889">
        <ele>106.2</ele>
        <time>2013-10-11T18:33:36Z</time>
        <extensions><gpxtpx:TrackPointExtension><gpxtpx:hr>160</gpxtpx:hr></gpxtpx:TrackPointExtension></extensions>
      </trkpt>
      <trkpt lat="59.9846502" lon="15.8273886">
        <ele>106.2</ele>
        <time>2013-10-11T18:33:37Z</time>
        <extensions><gpxtpx:TrackPointExtension><gpxtpx:hr>160</gpxtpx:hr></gpxtpx:TrackPointExtension></extensions>
      </trkpt>
      <trkpt lat="59.9846522" lon="15.8273849">
        <ele>106.2</ele>
        <time>2013-10-11T18:33:38Z</time>
        <extensions><gpxtpx:TrackPointExtension><gpxtpx:hr>160</gpxtpx:hr></gpxtpx:TrackPointExtension></extensions>
      </trkpt>
      <trkpt lat="59.9846551" lon="15.8273777">
        <ele>106.2</ele>
        <time>2013-10-11T18:33:39Z</time>
        <extensions><gpxtpx:TrackPointExtension><gpxtpx:hr>161</gpxtpx:hr></gpxtpx:TrackPointExtension></extensions>
      </trkpt>
      <trkpt lat="59.9846565" lon="15.8273686">
        <ele>106.2</ele>
        <time>2013-10-11T18:33:40Z</time>
        <extensions><gpxtpx:TrackPointExtension><gpxtpx:hr>161</gpxtpx:hr></gpxtpx:TrackPointExtension></extensions>
      </trkpt>
      <trkpt lat="59.984658" lon="15.8273609">
        <ele>106.2</ele>
        <time>2013-10-11T18:33:41Z</time>
        <extensions><gpxtpx:TrackPointExtension><gpxtpx:hr>161</gpxtpx:hr></gpxtpx:TrackPointExtension></extensions>
      </trkpt>
      <trkpt lat="59.9846377" lon="15.8272747">
        <ele>106.2</ele>
        <time>2013-10-11T18:33:45Z</time>
        <extensions><gpxtpx:TrackPointExtension><gpxtpx:hr>161</gpxtpx:hr></gpxtpx:TrackPointExtension></extensions>
      </trkpt>
      <trkpt lat="59.9846432" lon="15.8272608">
        <ele>106.2</ele>
        <time>2013-10-11T18:33:46Z</time>
        <extensions><gpxtpx:TrackPointExtension><gpxtpx:hr>161</gpxtpx:hr></gpxtpx:TrackPointExtension></extensions>
      </trkpt>
      <trkpt lat="59.9846462" lon="15.8272562">
        <ele>106.2</ele>
        <time>2013-10-11T18:33:47Z</time>
        <extensions><gpxtpx:TrackPointExtension><gpxtpx:hr>161</gpxtpx:hr></gpxtpx:TrackPointExtension></extensions>
      </trkpt>
      <trkpt lat="59.9846447" lon="15.8272583">
        <ele>106.2</ele>
        <time>2013-10-11T18:33:48Z</time>
        <extensions><gpxtpx:TrackPointExtension><gpxtpx:hr>161</gpxtpx:hr></gpxtpx:TrackPointExtension></extensions>
      </trkpt>
      <trkpt lat="59.984642" lon="15.8272661">
        <ele>106.2</ele>
        <time>2013-10-11T18:33:49Z</time>
        <extensions><gpxtpx:TrackPointExtension><gpxtpx:hr>161</gpxtpx:hr></gpxtpx:TrackPointExtension></extensions>
      </trkpt>
      <trkpt lat="59.984637" lon="15.8272772">
        <ele>106.2</ele>
        <time>2013-10-11T18:33:50Z</time>
        <extensions><gpxtpx:TrackPointExtension><gpxtpx:hr>162</gpxtpx:hr></gpxtpx:TrackPointExtension></extensions>
      </trkpt>
      <trkpt lat="59.9845961" lon="15.8272603">
        <ele>106.2</ele>
        <time>2013-10-11T18:33:51Z</time>
        <extensions><gpxtpx:TrackPointExtension><gpxtpx:hr>161</gpxtpx:hr></gpxtpx:TrackPointExtension></extensions>
      </trkpt>
      <trkpt lat="59.98458" lon="15.8272494">
        <ele>106.2</ele>
        <time>2013-10-11T18:33:52Z</time>
        <extensions><gpxtpx:TrackPointExtension><gpxtpx:hr>162</gpxtpx:hr></gpxtpx:TrackPointExtension></extensions>
      </trkpt>
      <trkpt lat="59.9845627" lon="15.8272412">
        <ele>106.2</ele>
        <time>2013-10-11T18:33:53Z</time>
        <extensions><gpxtpx:TrackPointExtension><gpxtpx:hr>162</gpxtpx:hr></gpxtpx:TrackPointExtension></extensions>
      </trkpt>
      <trkpt lat="59.9845404" lon="15.8272286">
        <ele>107.4</ele>
        <time>2013-10-11T18:33:54Z</time>
        <extensions><gpxtpx:TrackPointExtension><gpxtpx:hr>162</gpxtpx:hr></gpxtpx:TrackPointExtension></extensions>
      </trkpt>
      <trkpt lat="59.9845251" lon="15.827222">
        <ele>107.4</ele>
        <time>2013-10-11T18:33:55Z</time>
        <extensions><gpxtpx:TrackPointExtension><gpxtpx:hr>162</gpxtpx:hr></gpxtpx:TrackPointExtension></extensions>
      </trkpt>
      <trkpt lat="59.9845105" lon="15.8272139">
        <ele>107.2</ele>
        <time>2013-10-11T18:33:56Z</time>
        <extensions><gpxtpx:TrackPointExtension><gpxtpx:hr>162</gpxtpx:hr></gpxtpx:TrackPointExtension></extensions>
      </trkpt>
      <trkpt lat="59.9845001" lon="15.8272014">
        <ele>107.4</ele>
        <time>2013-10-11T18:33:57Z</time>
        <extensions><gpxtpx:TrackPointExtension><gpxtpx:hr>162</gpxtpx:hr></gpxtpx:TrackPointExtension></extensions>
      </trkpt>
      <trkpt lat="59.9844863" lon="15.8271779">
        <ele>107.4</ele>
        <time>2013-10-11T18:33:58Z</time>
        <extensions><gpxtpx:TrackPointExtension><gpxtpx:hr>162</gpxtpx:hr></gpxtpx:TrackPointExtension></extensions>
      </trkpt>
      <trkpt lat="59.9844739" lon="15.8271479">
        <ele>107.4</ele>
        <time>2013-10-11T18:33:59Z</time>
        <extensions><gpxtpx:TrackPointExtension><gpxtpx:hr>162</gpxtpx:hr></gpxtpx:TrackPointExtension></extensions>
      </trkpt>
      <trkpt lat="59.9844646" lon="15.8271405">
        <ele>107.4</ele>
        <time>2013-10-11T18:34:00Z</time>
        <extensions><gpxtpx:TrackPointExtension><gpxtpx:hr>162</gpxtpx:hr></gpxtpx:TrackPointExtension></extensions>
      </trkpt>
      <trkpt lat="59.9844557" lon="15.8271318">
        <ele>107.4</ele>
        <time>2013-10-11T18:34:01Z</time>
        <extensions><gpxtpx:TrackPointExtension><gpxtpx:hr>162</gpxtpx:hr></gpxtpx:TrackPointExtension></extensions>
      </trkpt>
      <trkpt lat="59.9844622" lon="15.8271233">
        <ele>107.4</ele>
        <time>2013-10-11T18:34:03Z</time>
        <extensions><gpxtpx:TrackPointExtension><gpxtpx:hr>162</gpxtpx:hr></gpxtpx:TrackPointExtension></extensions>
      </trkpt>
      <trkpt lat="59.9844882" lon="15.8271389">
        <ele>107.4</ele>
        <time>2013-10-11T18:34:04Z</time>
        <extensions><gpxtpx:TrackPointExtension><gpxtpx:hr>162</gpxtpx:hr></gpxtpx:TrackPointExtension></extensions>
      </trkpt>
      <trkpt lat="59.9844985" lon="15.8271379">
        <ele>107.4</ele>
        <time>2013-10-11T18:34:05Z</time>
        <extensions><gpxtpx:TrackPointExtension><gpxtpx:hr>162</gpxtpx:hr></gpxtpx:TrackPointExtension></extensions>
      </trkpt>
      <trkpt lat="59.9845105" lon="15.8271594">
        <ele>107.4</ele>
        <time>2013-10-11T18:34:06Z</time>
        <extensions><gpxtpx:TrackPointExtension><gpxtpx:hr>162</gpxtpx:hr></gpxtpx:TrackPointExtension></extensions>
      </trkpt>
      <trkpt lat="59.9845115" lon="15.8271768">
        <ele>107.4</ele>
        <time>2013-10-11T18:34:07Z</time>
        <extensions><gpxtpx:TrackPointExtension><gpxtpx:hr>163</gpxtpx:hr></gpxtpx:TrackPointExtension></extensions>
      </trkpt>
      <trkpt lat="59.9845446" lon="15.8272589">
        <ele>107.4</ele>
        <time>2013-10-11T18:34:12Z</time>
        <extensions><gpxtpx:TrackPointExtension><gpxtpx:hr>163</gpxtpx:hr></gpxtpx:TrackPointExtension></extensions>
      </trkpt>
      <trkpt lat="59.9845844" lon="15.8273251">
        <ele>107.4</ele>
        <time>2013-10-11T18:34:15Z</time>
        <extensions><gpxtpx:TrackPointExtension><gpxtpx:hr>163</gpxtpx:hr></gpxtpx:TrackPointExtension></extensions>
      </trkpt>
      <trkpt lat="59.9845798" lon="15.8273282">
        <ele>107.4</ele>
        <time>2013-10-11T18:34:17Z</time>
        <extensions><gpxtpx:TrackPointExtension><gpxtpx:hr>163</gpxtpx:hr></gpxtpx:TrackPointExtension></extensions>
      </trkpt>
      <trkpt lat="59.9846287" lon="15.8274241">
        <ele>107.4</ele>
        <time>2013-10-11T18:34:22Z</time>
        <extensions><gpxtpx:TrackPointExtension><gpxtpx:hr>163</gpxtpx:hr></gpxtpx:TrackPointExtension></extensions>
      </trkpt>
      <trkpt lat="59.9846265" lon="15.8274287">
        <ele>107.4</ele>
        <time>2013-10-11T18:34:23Z</time>
        <extensions><gpxtpx:TrackPointExtension><gpxtpx:hr>163</gpxtpx:hr></gpxtpx:TrackPointExtension></extensions>
      </trkpt>
      <trkpt lat="59.9846255" lon="15.8274301">
        <ele>107.4</ele>
        <time>2013-10-11T18:34:24Z</time>
        <extensions><gpxtpx:TrackPointExtension><gpxtpx:hr>164</gpxtpx:hr></gpxtpx:TrackPointExtension></extensions>
      </trkpt>
      <trkpt lat="59.9846569" lon="15.8274717">
        <ele>107.4</ele>
        <time>2013-10-11T18:34:25Z</time>
        <extensions><gpxtpx:TrackPointExtension><gpxtpx:hr>163</gpxtpx:hr></gpxtpx:TrackPointExtension></extensions>
      </trkpt>
      <trkpt lat="59.9846606" lon="15.8275027">
        <ele>107.4</ele>
        <time>2013-10-11T18:34:26Z</time>
        <extensions><gpxtpx:TrackPointExtension><gpxtpx:hr>164</gpxtpx:hr></gpxtpx:TrackPointExtension></extensions>
      </trkpt>
      <trkpt lat="59.9846579" lon="15.8275365">
        <ele>107.4</ele>
        <time>2013-10-11T18:34:27Z</time>
        <extensions><gpxtpx:TrackPointExtension><gpxtpx:hr>164</gpxtpx:hr></gpxtpx:TrackPointExtension></extensions>
      </trkpt>
      <trkpt lat="59.9846539" lon="15.8275619">
        <ele>107.4</ele>
        <time>2013-10-11T18:34:28Z</time>
        <extensions><gpxtpx:TrackPointExtension><gpxtpx:hr>164</gpxtpx:hr></gpxtpx:TrackPointExtension></extensions>
      </trkpt>
      <trkpt lat="59.9846455" lon="15.8275894">
        <ele>107.4</ele>
        <time>2013-10-11T18:34:29Z</time>
        <extensions><gpxtpx:TrackPointExtension><gpxtpx:hr>164</gpxtpx:hr></gpxtpx:TrackPointExtension></extensions>
      </trkpt>
      <trkpt lat="59.9846563" lon="15.8275794">
        <ele>107.4</ele>
        <time>2013-10-11T18:34:30Z</time>
        <extensions><gpxtpx:TrackPointExtension><gpxtpx:hr>163</gpxtpx:hr></gpxtpx:TrackPointExtension></extensions>
      </trkpt>
      <trkpt lat="59.9846534" lon="15.827584">
        <ele>107.4</ele>
        <time>2013-10-11T18:34:31Z</time>
        <extensions><gpxtpx:TrackPointExtension><gpxtpx:hr>164</gpxtpx:hr></gpxtpx:TrackPointExtension></extensions>
      </trkpt>
      <trkpt lat="59.9846699" lon="15.8275436">
        <ele>107.4</ele>
        <time>2013-10-11T18:34:32Z</time>
        <extensions><gpxtpx:TrackPointExtension><gpxtpx:hr>164</gpxtpx:hr></gpxtpx:TrackPointExtension></extensions>
      </trkpt>
      <trkpt lat="59.9846795" lon="15.8275334">
        <ele>107.4</ele>
        <time>2013-10-11T18:34:33Z</time>
        <extensions><gpxtpx:TrackPointExtension><gpxtpx:hr>164</gpxtpx:hr></gpxtpx:TrackPointExtension></extensions>
      </trkpt>
      <trkpt lat="59.9847006" lon="15.8275082">
        <ele>107.4</ele>
        <time>2013-10-11T18:34:36Z</time>
        <extensions><gpxtpx:TrackPointExtension><gpxtpx:hr>164</gpxtpx:hr></gpxtpx:TrackPointExtension></extensions>
      </trkpt>
      <trkpt lat="59.9846989" lon="15.8275251">
        <ele>107.4</ele>
        <time>2013-10-11T18:34:37Z</time>
        <extensions><gpxtpx:TrackPointExtension><gpxtpx:hr>164</gpxtpx:hr></gpxtpx:TrackPointExtension></extensions>
      </trkpt>
      <trkpt lat="59.9847052" lon="15.8275412">
        <ele>107.4</ele>
        <time>2013-10-11T18:34:39Z</time>
        <extensions><gpxtpx:TrackPointExtension><gpxtpx:hr>164</gpxtpx:hr></gpxtpx:TrackPointExtension></extensions>
      </trkpt>
      <trkpt lat="59.9846893" lon="15.827567">
        <ele>107.2</ele>
        <time>2013-10-11T18:34:41Z</time>
        <extensions><gpxtpx:TrackPointExtension><gpxtpx:hr>164</gpxtpx:hr></gpxtpx:TrackPointExtension></extensions>
      </trkpt>
      <trkpt lat="59.9846922" lon="15.8275654">
        <ele>107.4</ele>
        <time>2013-10-11T18:34:42Z</time>
        <extensions><gpxtpx:TrackPointExtension><gpxtpx:hr>165</gpxtpx:hr></gpxtpx:TrackPointExtension></extensions>
      </trkpt>
      <trkpt lat="59.9847006" lon="15.8275758">
        <ele>107.4</ele>
        <time>2013-10-11T18:34:43Z</time>
        <extensions><gpxtpx:TrackPointExtension><gpxtpx:hr>164</gpxtpx:hr></gpxtpx:TrackPointExtension></extensions>
      </trkpt>
      <trkpt lat="59.9847137" lon="15.8275816">
        <ele>107.4</ele>
        <time>2013-10-11T18:34:44Z</time>
        <extensions><gpxtpx:TrackPointExtension><gpxtpx:hr>164</gpxtpx:hr></gpxtpx:TrackPointExtension></extensions>
      </trkpt>
      <trkpt lat="59.9847257" lon="15.8275955">
        <ele>107.4</ele>
        <time>2013-10-11T18:34:45Z</time>
        <extensions><gpxtpx:TrackPointExtension><gpxtpx:hr>165</gpxtpx:hr></gpxtpx:TrackPointExtension></extensions>
      </trkpt>
      <trkpt lat="59.9847396" lon="15.8275978">
        <ele>107.4</ele>
        <time>2013-10-11T18:34:46Z</time>
        <extensions><gpxtpx:TrackPointExtension><gpxtpx:hr>164</gpxtpx:hr></gpxtpx:TrackPointExtension></extensions>
      </trkpt>
      <trkpt lat="59.9847426" lon="15.8275929">
        <ele>107.4</ele>
        <time>2013-10-11T18:34:47Z</time>
        <extensions><gpxtpx:TrackPointExtension><gpxtpx:hr>164</gpxtpx:hr></gpxtpx:TrackPointExtension></extensions>
      </trkpt>
      <trkpt lat="59.9847492" lon="15.8275799">
        <ele>107.4</ele>
        <time>2013-10-11T18:34:48Z</time>
        <extensions><gpxtpx:TrackPointExtension><gpxtpx:hr>164</gpxtpx:hr></gpxtpx:TrackPointExtension></extensions>
      </trkpt>
      <trkpt lat="59.9847566" lon="15.8275603">
        <ele>107.4</ele>
        <time>2013-10-11T18:34:49Z</time>
        <extensions><gpxtpx:TrackPointExtension><gpxtpx:hr>164</gpxtpx:hr></gpxtpx:TrackPointExtension></extensions>
      </trkpt>
      <trkpt lat="59.9847585" lon="15.8275573">
        <ele>107.4</ele>
        <time>2013-10-11T18:34:50Z</time>
        <extensions><gpxtpx:TrackPointExtension><gpxtpx:hr>164</gpxtpx:hr></gpxtpx:TrackPointExtension></extensions>
      </trkpt>
      <trkpt lat="59.9847621" lon="15.8275485">
        <ele>107.4</ele>
        <time>2013-10-11T18:34:51Z</time>
        <extensions><gpxtpx:TrackPointExtension><gpxtpx:hr>164</gpxtpx:hr></gpxtpx:TrackPointExtension></extensions>
      </trkpt>
      <trkpt lat="59.9847632" lon="15.8275443">
        <ele>107.4</ele>
        <time>2013-10-11T18:34:52Z</time>
        <extensions><gpxtpx:TrackPointExtension><gpxtpx:hr>164</gpxtpx:hr></gpxtpx:TrackPointExtension></extensions>
      </trkpt>
      <trkpt lat="59.9847657" lon="15.8275404">
        <ele>107.4</ele>
        <time>2013-10-11T18:34:53Z</time>
        <extensions><gpxtpx:TrackPointExtension><gpxtpx:hr>164</gpxtpx:hr></gpxtpx:TrackPointExtension></extensions>
      </trkpt>
      <trkpt lat="59.9847666" lon="15.8275358">
        <ele>107.4</ele>
        <time>2013-10-11T18:34:54Z</time>
        <extensions><gpxtpx:TrackPointExtension><gpxtpx:hr>165</gpxtpx:hr></gpxtpx:TrackPointExtension></extensions>
      </trkpt>
      <trkpt lat="59.9847689" lon="15.827529">
        <ele>107.4</ele>
        <time>2013-10-11T18:34:55Z</time>
        <extensions><gpxtpx:TrackPointExtension><gpxtpx:hr>164</gpxtpx:hr></gpxtpx:TrackPointExtension></extensions>
      </trkpt>
      <trkpt lat="59.9847725" lon="15.8275235">
        <ele>107.4</ele>
        <time>2013-10-11T18:34:56Z</time>
        <extensions><gpxtpx:TrackPointExtension><gpxtpx:hr>164</gpxtpx:hr></gpxtpx:TrackPointExtension></extensions>
      </trkpt>
      <trkpt lat="59.9847756" lon="15.8275182">
        <ele>107.4</ele>
        <time>2013-10-11T18:34:57Z</time>
        <extensions><gpxtpx:TrackPointExtension><gpxtpx:hr>164</gpxtpx:hr></gpxtpx:TrackPointExtension></extensions>
      </trkpt>
      <trkpt lat="59.9847707" lon="15.8275122">
        <ele>107.4</ele>
        <time>2013-10-11T18:34:59Z</time>
        <extensions><gpxtpx:TrackPointExtension><gpxtpx:hr>164</gpxtpx:hr></gpxtpx:TrackPointExtension></extensions>
      </trkpt>
      <trkpt lat="59.9847701" lon="15.827524">
        <ele>107.4</ele>
        <time>2013-10-11T18:35:01Z</time>
        <extensions><gpxtpx:TrackPointExtension><gpxtpx:hr>164</gpxtpx:hr></gpxtpx:TrackPointExtension></extensions>
      </trkpt>
      <trkpt lat="59.9847355" lon="15.8275725">
        <ele>107.4</ele>
        <time>2013-10-11T18:35:02Z</time>
        <extensions><gpxtpx:TrackPointExtension><gpxtpx:hr>164</gpxtpx:hr></gpxtpx:TrackPointExtension></extensions>
      </trkpt>
      <trkpt lat="59.9847367" lon="15.8275854">
        <ele>107.4</ele>
        <time>2013-10-11T18:35:03Z</time>
        <extensions><gpxtpx:TrackPointExtension><gpxtpx:hr>163</gpxtpx:hr></gpxtpx:TrackPointExtension></extensions>
      </trkpt>
      <trkpt lat="59.9847389" lon="15.8275863">
        <ele>107.4</ele>
        <time>2013-10-11T18:35:04Z</time>
        <extensions><gpxtpx:TrackPointExtension><gpxtpx:hr>164</gpxtpx:hr></gpxtpx:TrackPointExtension></extensions>
      </trkpt>
      <trkpt lat="59.9847341" lon="15.8275627">
        <ele>107.4</ele>
        <time>2013-10-11T18:35:05Z</time>
        <extensions><gpxtpx:TrackPointExtension><gpxtpx:hr>164</gpxtpx:hr></gpxtpx:TrackPointExtension></extensions>
      </trkpt>
      <trkpt lat="59.9847342" lon="15.8275421">
        <ele>107.4</ele>
        <time>2013-10-11T18:35:06Z</time>
        <extensions><gpxtpx:TrackPointExtension><gpxtpx:hr>163</gpxtpx:hr></gpxtpx:TrackPointExtension></extensions>
      </trkpt>
      <trkpt lat="59.9847359" lon="15.8275303">
        <ele>107.4</ele>
        <time>2013-10-11T18:35:07Z</time>
        <extensions><gpxtpx:TrackPointExtension><gpxtpx:hr>164</gpxtpx:hr></gpxtpx:TrackPointExtension></extensions>
      </trkpt>
      <trkpt lat="59.9847387" lon="15.8275217">
        <ele>107.4</ele>
        <time>2013-10-11T18:35:08Z</time>
        <extensions><gpxtpx:TrackPointExtension><gpxtpx:hr>164</gpxtpx:hr></gpxtpx:TrackPointExtension></extensions>
      </trkpt>
      <trkpt lat="59.9847403" lon="15.8275139">
        <ele>107.4</ele>
        <time>2013-10-11T18:35:09Z</time>
        <extensions><gpxtpx:TrackPointExtension><gpxtpx:hr>163</gpxtpx:hr></gpxtpx:TrackPointExtension></extensions>
      </trkpt>
      <trkpt lat="59.984726" lon="15.8275131">
        <ele>107.4</ele>
        <time>2013-10-11T18:35:10Z</time>
        <extensions><gpxtpx:TrackPointExtension><gpxtpx:hr>163</gpxtpx:hr></gpxtpx:TrackPointExtension></extensions>
      </trkpt>
      <trkpt lat="59.9847164" lon="15.8275117">
        <ele>108.4</ele>
        <time>2013-10-11T18:35:12Z</time>
        <extensions><gpxtpx:TrackPointExtension><gpxtpx:hr>164</gpxtpx:hr></gpxtpx:TrackPointExtension></extensions>
      </trkpt>
      <trkpt lat="59.9847156" lon="15.8275097">
        <ele>108.4</ele>
        <time>2013-10-11T18:35:13Z</time>
        <extensions><gpxtpx:TrackPointExtension><gpxtpx:hr>163</gpxtpx:hr></gpxtpx:TrackPointExtension></extensions>
      </trkpt>
      <trkpt lat="59.9847145" lon="15.8275074">
        <ele>108.4</ele>
        <time>2013-10-11T18:35:14Z</time>
        <extensions><gpxtpx:TrackPointExtension><gpxtpx:hr>164</gpxtpx:hr></gpxtpx:TrackPointExtension></extensions>
      </trkpt>
      <trkpt lat="59.9847134" lon="15.8275058">
        <ele>108.4</ele>
        <time>2013-10-11T18:35:15Z</time>
        <extensions><gpxtpx:TrackPointExtension><gpxtpx:hr>164</gpxtpx:hr></gpxtpx:TrackPointExtension></extensions>
      </trkpt>
      <trkpt lat="59.9847114" lon="15.8275058">
        <ele>108.4</ele>
        <time>2013-10-11T18:35:16Z</time>
        <extensions><gpxtpx:TrackPointExtension><gpxtpx:hr>164</gpxtpx:hr></gpxtpx:TrackPointExtension></extensions>
      </trkpt>
      <trkpt lat="59.9847074" lon="15.8275054">
        <ele>108.4</ele>
        <time>2013-10-11T18:35:17Z</time>
        <extensions><gpxtpx:TrackPointExtension><gpxtpx:hr>164</gpxtpx:hr></gpxtpx:TrackPointExtension></extensions>
      </trkpt>
      <trkpt lat="59.9846983" lon="15.8275128">
        <ele>108.4</ele>
        <time>2013-10-11T18:35:18Z</time>
        <extensions><gpxtpx:TrackPointExtension><gpxtpx:hr>164</gpxtpx:hr></gpxtpx:TrackPointExtension></extensions>
      </trkpt>
      <trkpt lat="59.9846676" lon="15.8275002">
        <ele>108.4</ele>
        <time>2013-10-11T18:35:20Z</time>
        <extensions><gpxtpx:TrackPointExtension><gpxtpx:hr>164</gpxtpx:hr></gpxtpx:TrackPointExtension></extensions>
      </trkpt>
      <trkpt lat="59.9846597" lon="15.8274912">
        <ele>108.4</ele>
        <time>2013-10-11T18:35:21Z</time>
        <extensions><gpxtpx:TrackPointExtension><gpxtpx:hr>164</gpxtpx:hr></gpxtpx:TrackPointExtension></extensions>
      </trkpt>
      <trkpt lat="59.9846558" lon="15.8274841">
        <ele>108.4</ele>
        <time>2013-10-11T18:35:22Z</time>
        <extensions><gpxtpx:TrackPointExtension><gpxtpx:hr>164</gpxtpx:hr></gpxtpx:TrackPointExtension></extensions>
      </trkpt>
      <trkpt lat="59.9846542" lon="15.8274796">
        <ele>108.4</ele>
        <time>2013-10-11T18:35:23Z</time>
        <extensions><gpxtpx:TrackPointExtension><gpxtpx:hr>164</gpxtpx:hr></gpxtpx:TrackPointExtension></extensions>
      </trkpt>
      <trkpt lat="59.9846544" lon="15.8274786">
        <ele>108.4</ele>
        <time>2013-10-11T18:35:24Z</time>
        <extensions><gpxtpx:TrackPointExtension><gpxtpx:hr>164</gpxtpx:hr></gpxtpx:TrackPointExtension></extensions>
      </trkpt>
      <trkpt lat="59.9846543" lon="15.827482">
        <ele>108.4</ele>
        <time>2013-10-11T18:35:25Z</time>
        <extensions><gpxtpx:TrackPointExtension><gpxtpx:hr>164</gpxtpx:hr></gpxtpx:TrackPointExtension></extensions>
      </trkpt>
      <trkpt lat="59.9846533" lon="15.8274879">
        <ele>108.4</ele>
        <time>2013-10-11T18:35:26Z</time>
        <extensions><gpxtpx:TrackPointExtension><gpxtpx:hr>164</gpxtpx:hr></gpxtpx:TrackPointExtension></extensions>
      </trkpt>
      <trkpt lat="59.9846629" lon="15.8275245">
        <ele>108.4</ele>
        <time>2013-10-11T18:35:28Z</time>
        <extensions><gpxtpx:TrackPointExtension><gpxtpx:hr>163</gpxtpx:hr></gpxtpx:TrackPointExtension></extensions>
      </trkpt>
      <trkpt lat="59.9846604" lon="15.8275357">
        <ele>108.4</ele>
        <time>2013-10-11T18:35:29Z</time>
        <extensions><gpxtpx:TrackPointExtension><gpxtpx:hr>164</gpxtpx:hr></gpxtpx:TrackPointExtension></extensions>
      </trkpt>
      <trkpt lat="59.9846625" lon="15.8275512">
        <ele>108.4</ele>
        <time>2013-10-11T18:35:30Z</time>
        <extensions><gpxtpx:TrackPointExtension><gpxtpx:hr>164</gpxtpx:hr></gpxtpx:TrackPointExtension></extensions>
      </trkpt>
      <trkpt lat="59.9846536" lon="15.8275134">
        <ele>108.4</ele>
        <time>2013-10-11T18:35:33Z</time>
        <extensions><gpxtpx:TrackPointExtension><gpxtpx:hr>164</gpxtpx:hr></gpxtpx:TrackPointExtension></extensions>
      </trkpt>
      <trkpt lat="59.9846431" lon="15.8274844">
        <ele>108.4</ele>
        <time>2013-10-11T18:35:34Z</time>
        <extensions><gpxtpx:TrackPointExtension><gpxtpx:hr>164</gpxtpx:hr></gpxtpx:TrackPointExtension></extensions>
      </trkpt>
      <trkpt lat="59.9846139" lon="15.8274435">
        <ele>108.4</ele>
        <time>2013-10-11T18:35:38Z</time>
        <extensions><gpxtpx:TrackPointExtension><gpxtpx:hr>165</gpxtpx:hr></gpxtpx:TrackPointExtension></extensions>
      </trkpt>
      <trkpt lat="59.9846078" lon="15.8274438">
        <ele>108.4</ele>
        <time>2013-10-11T18:35:39Z</time>
        <extensions><gpxtpx:TrackPointExtension><gpxtpx:hr>164</gpxtpx:hr></gpxtpx:TrackPointExtension></extensions>
      </trkpt>
      <trkpt lat="59.9846053" lon="15.8274476">
        <ele>108.4</ele>
        <time>2013-10-11T18:35:40Z</time>
        <extensions><gpxtpx:TrackPointExtension><gpxtpx:hr>164</gpxtpx:hr></gpxtpx:TrackPointExtension></extensions>
      </trkpt>
      <trkpt lat="59.9846061" lon="15.8274538">
        <ele>108.4</ele>
        <time>2013-10-11T18:35:41Z</time>
        <extensions><gpxtpx:TrackPointExtension><gpxtpx:hr>164</gpxtpx:hr></gpxtpx:TrackPointExtension></extensions>
      </trkpt>
      <trkpt lat="59.9846109" lon="15.8274599">
        <ele>108.4</ele>
        <time>2013-10-11T18:35:42Z</time>
        <extensions><gpxtpx:TrackPointExtension><gpxtpx:hr>164</gpxtpx:hr></gpxtpx:TrackPointExtension></extensions>
      </trkpt>
      <trkpt lat="59.9846128" lon="15.8274629">
        <ele>108.4</ele>
        <time>2013-10-11T18:35:43Z</time>
        <extensions><gpxtpx:TrackPointExtension><gpxtpx:hr>164</gpxtpx:hr></gpxtpx:TrackPointExtension></extensions>
      </trkpt>
      <trkpt lat="59.9846167" lon="15.8274599">
        <ele>108.4</ele>
        <time>2013-10-11T18:35:44Z</time>
        <extensions><gpxtpx:TrackPointExtension><gpxtpx:hr>164</gpxtpx:hr></gpxtpx:TrackPointExtension></extensions>
      </trkpt>
      <trkpt lat="59.9846238" lon="15.8274575">
        <ele>108.4</ele>
        <time>2013-10-11T18:35:45Z</time>
        <extensions><gpxtpx:TrackPointExtension><gpxtpx:hr>164</gpxtpx:hr></gpxtpx:TrackPointExtension></extensions>
      </trkpt>
      <trkpt lat="59.9846274" lon="15.8274545">
        <ele>108.4</ele>
        <time>2013-10-11T18:35:46Z</time>
        <extensions><gpxtpx:TrackPointExtension><gpxtpx:hr>163</gpxtpx:hr></gpxtpx:TrackPointExtension></extensions>
      </trkpt>
      <trkpt lat="59.9846294" lon="15.8274576">
        <ele>108.4</ele>
        <time>2013-10-11T18:35:47Z</time>
        <extensions><gpxtpx:TrackPointExtension><gpxtpx:hr>163</gpxtpx:hr></gpxtpx:TrackPointExtension></extensions>
      </trkpt>
      <trkpt lat="59.9846312" lon="15.8274693">
        <ele>108.4</ele>
        <time>2013-10-11T18:35:48Z</time>
        <extensions><gpxtpx:TrackPointExtension><gpxtpx:hr>164</gpxtpx:hr></gpxtpx:TrackPointExtension></extensions>
      </trkpt>
      <trkpt lat="59.9846329" lon="15.8274828">
        <ele>108.4</ele>
        <time>2013-10-11T18:35:49Z</time>
        <extensions><gpxtpx:TrackPointExtension><gpxtpx:hr>163</gpxtpx:hr></gpxtpx:TrackPointExtension></extensions>
      </trkpt>
      <trkpt lat="59.9845881" lon="15.8274882">
        <ele>108.4</ele>
        <time>2013-10-11T18:35:50Z</time>
        <extensions><gpxtpx:TrackPointExtension><gpxtpx:hr>164</gpxtpx:hr></gpxtpx:TrackPointExtension></extensions>
      </trkpt>
      <trkpt lat="59.9845653" lon="15.8274904">
        <ele>108.4</ele>
        <time>2013-10-11T18:35:52Z</time>
        <extensions><gpxtpx:TrackPointExtension><gpxtpx:hr>164</gpxtpx:hr></gpxtpx:TrackPointExtension></extensions>
      </trkpt>
      <trkpt lat="59.9845748" lon="15.8274512">
        <ele>108.4</ele>
        <time>2013-10-11T18:35:57Z</time>
        <extensions><gpxtpx:TrackPointExtension><gpxtpx:hr>164</gpxtpx:hr></gpxtpx:TrackPointExtension></extensions>
      </trkpt>
      <trkpt lat="59.9846124" lon="15.827526">
        <ele>108.4</ele>
        <time>2013-10-11T18:35:59Z</time>
        <extensions><gpxtpx:TrackPointExtension><gpxtpx:hr>165</gpxtpx:hr></gpxtpx:TrackPointExtension></extensions>
      </trkpt>
      <trkpt lat="59.9846233" lon="15.8275545">
        <ele>108.4</ele>
        <time>2013-10-11T18:36:00Z</time>
        <extensions><gpxtpx:TrackPointExtension><gpxtpx:hr>165</gpxtpx:hr></gpxtpx:TrackPointExtension></extensions>
      </trkpt>
      <trkpt lat="59.9846331" lon="15.8275795">
        <ele>108.4</ele>
        <time>2013-10-11T18:36:01Z</time>
        <extensions><gpxtpx:TrackPointExtension><gpxtpx:hr>164</gpxtpx:hr></gpxtpx:TrackPointExtension></extensions>
      </trkpt>
      <trkpt lat="59.9846321" lon="15.8275941">
        <ele>108.4</ele>
        <time>2013-10-11T18:36:02Z</time>
        <extensions><gpxtpx:TrackPointExtension><gpxtpx:hr>165</gpxtpx:hr></gpxtpx:TrackPointExtension></extensions>
      </trkpt>
      <trkpt lat="59.9846311" lon="15.827604">
        <ele>108.4</ele>
        <time>2013-10-11T18:36:03Z</time>
        <extensions><gpxtpx:TrackPointExtension><gpxtpx:hr>165</gpxtpx:hr></gpxtpx:TrackPointExtension></extensions>
      </trkpt>
      <trkpt lat="59.9846312" lon="15.8276084">
        <ele>108.4</ele>
        <time>2013-10-11T18:36:04Z</time>
        <extensions><gpxtpx:TrackPointExtension><gpxtpx:hr>165</gpxtpx:hr></gpxtpx:TrackPointExtension></extensions>
      </trkpt>
      <trkpt lat="59.9846311" lon="15.8276081">
        <ele>108.4</ele>
        <time>2013-10-11T18:36:05Z</time>
        <extensions><gpxtpx:TrackPointExtension><gpxtpx:hr>165</gpxtpx:hr></gpxtpx:TrackPointExtension></extensions>
      </trkpt>
      <trkpt lat="59.9846311" lon="15.8276069">
        <ele>108.4</ele>
        <time>2013-10-11T18:36:06Z</time>
        <extensions><gpxtpx:TrackPointExtension><gpxtpx:hr>165</gpxtpx:hr></gpxtpx:TrackPointExtension></extensions>
      </trkpt>
      <trkpt lat="59.9846302" lon="15.8276035">
        <ele>108.4</ele>
        <time>2013-10-11T18:36:07Z</time>
        <extensions><gpxtpx:TrackPointExtension><gpxtpx:hr>165</gpxtpx:hr></gpxtpx:TrackPointExtension></extensions>
      </trkpt>
      <trkpt lat="59.9846291" lon="15.8275994">
        <ele>108.4</ele>
        <time>2013-10-11T18:36:08Z</time>
        <extensions><gpxtpx:TrackPointExtension><gpxtpx:hr>165</gpxtpx:hr></gpxtpx:TrackPointExtension></extensions>
      </trkpt>
      <trkpt lat="59.9846287" lon="15.8275913">
        <ele>108.4</ele>
        <time>2013-10-11T18:36:09Z</time>
        <extensions><gpxtpx:TrackPointExtension><gpxtpx:hr>165</gpxtpx:hr></gpxtpx:TrackPointExtension></extensions>
      </trkpt>
      <trkpt lat="59.9846246" lon="15.8275971">
        <ele>108.4</ele>
        <time>2013-10-11T18:36:10Z</time>
        <extensions><gpxtpx:TrackPointExtension><gpxtpx:hr>165</gpxtpx:hr></gpxtpx:TrackPointExtension></extensions>
      </trkpt>
      <trkpt lat="59.9846197" lon="15.827602">
        <ele>108.4</ele>
        <time>2013-10-11T18:36:11Z</time>
        <extensions><gpxtpx:TrackPointExtension><gpxtpx:hr>165</gpxtpx:hr></gpxtpx:TrackPointExtension></extensions>
      </trkpt>
      <trkpt lat="59.9846153" lon="15.8276066">
        <ele>108.4</ele>
        <time>2013-10-11T18:36:12Z</time>
        <extensions><gpxtpx:TrackPointExtension><gpxtpx:hr>166</gpxtpx:hr></gpxtpx:TrackPointExtension></extensions>
      </trkpt>
      <trkpt lat="59.9846032" lon="15.8275623">
        <ele>108.4</ele>
        <time>2013-10-11T18:36:13Z</time>
        <extensions><gpxtpx:TrackPointExtension><gpxtpx:hr>165</gpxtpx:hr></gpxtpx:TrackPointExtension></extensions>
      </trkpt>
      <trkpt lat="59.9846" lon="15.827568">
        <ele>108.4</ele>
        <time>2013-10-11T18:36:14Z</time>
        <extensions><gpxtpx:TrackPointExtension><gpxtpx:hr>166</gpxtpx:hr></gpxtpx:TrackPointExtension></extensions>
      </trkpt>
      <trkpt lat="59.9845966" lon="15.8275826">
        <ele>108.4</ele>
        <time>2013-10-11T18:36:16Z</time>
        <extensions><gpxtpx:TrackPointExtension><gpxtpx:hr>166</gpxtpx:hr></gpxtpx:TrackPointExtension></extensions>
      </trkpt>
      <trkpt lat="59.9845965" lon="15.8275784">
        <ele>108.4</ele>
        <time>2013-10-11T18:36:17Z</time>
        <extensions><gpxtpx:TrackPointExtension><gpxtpx:hr>166</gpxtpx:hr></gpxtpx:TrackPointExtension></extensions>
      </trkpt>
      <trkpt lat="59.9845947" lon="15.8275728">
        <ele>108.4</ele>
        <time>2013-10-11T18:36:20Z</time>
        <extensions><gpxtpx:TrackPointExtension><gpxtpx:hr>166</gpxtpx:hr></gpxtpx:TrackPointExtension></extensions>
      </trkpt>
      <trkpt lat="59.9845937" lon="15.8275661">
        <ele>108.4</ele>
        <time>2013-10-11T18:36:21Z</time>
        <extensions><gpxtpx:TrackPointExtension><gpxtpx:hr>166</gpxtpx:hr></gpxtpx:TrackPointExtension></extensions>
      </trkpt>
      <trkpt lat="59.9845927" lon="15.8275545">
        <ele>108.4</ele>
        <time>2013-10-11T18:36:23Z</time>
        <extensions><gpxtpx:TrackPointExtension><gpxtpx:hr>167</gpxtpx:hr></gpxtpx:TrackPointExtension></extensions>
      </trkpt>
      <trkpt lat="59.9846057" lon="15.8275183">
        <ele>108.4</ele>
        <time>2013-10-11T18:36:24Z</time>
        <extensions><gpxtpx:TrackPointExtension><gpxtpx:hr>167</gpxtpx:hr></gpxtpx:TrackPointExtension></extensions>
      </trkpt>
      <trkpt lat="59.9846078" lon="15.8274964">
        <ele>108.4</ele>
        <time>2013-10-11T18:36:25Z</time>
        <extensions><gpxtpx:TrackPointExtension><gpxtpx:hr>167</gpxtpx:hr></gpxtpx:TrackPointExtension></extensions>
      </trkpt>
      <trkpt lat="59.9846041" lon="15.8274686">
        <ele>108.4</ele>
        <time>2013-10-11T18:36:26Z</time>
        <extensions><gpxtpx:TrackPointExtension><gpxtpx:hr>167</gpxtpx:hr></gpxtpx:TrackPointExtension></extensions>
      </trkpt>
      <trkpt lat="59.9846099" lon="15.8274395">
        <ele>108.4</ele>
        <time>2013-10-11T18:36:28Z</time>
        <extensions><gpxtpx:TrackPointExtension><gpxtpx:hr>167</gpxtpx:hr></gpxtpx:TrackPointExtension></extensions>
      </trkpt>
      <trkpt lat="59.9846164" lon="15.8274308">
        <ele>108.4</ele>
        <time>2013-10-11T18:36:29Z</time>
        <extensions><gpxtpx:TrackPointExtension><gpxtpx:hr>167</gpxtpx:hr></gpxtpx:TrackPointExtension></extensions>
      </trkpt>
      <trkpt lat="59.9846156" lon="15.827437">
        <ele>108.4</ele>
        <time>2013-10-11T18:36:30Z</time>
        <extensions><gpxtpx:TrackPointExtension><gpxtpx:hr>167</gpxtpx:hr></gpxtpx:TrackPointExtension></extensions>
      </trkpt>
      <trkpt lat="59.9846156" lon="15.8274418">
        <ele>108.4</ele>
        <time>2013-10-11T18:36:31Z</time>
        <extensions><gpxtpx:TrackPointExtension><gpxtpx:hr>168</gpxtpx:hr></gpxtpx:TrackPointExtension></extensions>
      </trkpt>
      <trkpt lat="59.984614" lon="15.8274437">
        <ele>108.4</ele>
        <time>2013-10-11T18:36:32Z</time>
        <extensions><gpxtpx:TrackPointExtension><gpxtpx:hr>168</gpxtpx:hr></gpxtpx:TrackPointExtension></extensions>
      </trkpt>
      <trkpt lat="59.9846102" lon="15.8274426">
        <ele>108.4</ele>
        <time>2013-10-11T18:36:33Z</time>
        <extensions><gpxtpx:TrackPointExtension><gpxtpx:hr>168</gpxtpx:hr></gpxtpx:TrackPointExtension></extensions>
      </trkpt>
      <trkpt lat="59.9845986" lon="15.8274617">
        <ele>109.4</ele>
        <time>2013-10-11T18:36:36Z</time>
        <extensions><gpxtpx:TrackPointExtension><gpxtpx:hr>169</gpxtpx:hr></gpxtpx:TrackPointExtension></extensions>
      </trkpt>
      <trkpt lat="59.9845896" lon="15.8274546">
        <ele>109.4</ele>
        <time>2013-10-11T18:36:37Z</time>
        <extensions><gpxtpx:TrackPointExtension><gpxtpx:hr>168</gpxtpx:hr></gpxtpx:TrackPointExtension></extensions>
      </trkpt>
      <trkpt lat="59.9845783" lon="15.827442">
        <ele>109.4</ele>
        <time>2013-10-11T18:36:38Z</time>
        <extensions><gpxtpx:TrackPointExtension><gpxtpx:hr>169</gpxtpx:hr></gpxtpx:TrackPointExtension></extensions>
      </trkpt>
      <trkpt lat="59.9845707" lon="15.8274395">
        <ele>109.4</ele>
        <time>2013-10-11T18:36:39Z</time>
        <extensions><gpxtpx:TrackPointExtension><gpxtpx:hr>169</gpxtpx:hr></gpxtpx:TrackPointExtension></extensions>
      </trkpt>
      <trkpt lat="59.9845638" lon="15.8274374">
        <ele>109.4</ele>
        <time>2013-10-11T18:36:40Z</time>
        <extensions><gpxtpx:TrackPointExtension><gpxtpx:hr>169</gpxtpx:hr></gpxtpx:TrackPointExtension></extensions>
      </trkpt>
      <trkpt lat="59.9845556" lon="15.827424">
        <ele>109.4</ele>
        <time>2013-10-11T18:36:43Z</time>
        <extensions><gpxtpx:TrackPointExtension><gpxtpx:hr>169</gpxtpx:hr></gpxtpx:TrackPointExtension></extensions>
      </trkpt>
      <trkpt lat="59.9846373" lon="15.8275203">
        <ele>109.4</ele>
        <time>2013-10-11T18:36:48Z</time>
        <extensions><gpxtpx:TrackPointExtension><gpxtpx:hr>169</gpxtpx:hr></gpxtpx:TrackPointExtension></extensions>
      </trkpt>
      <trkpt lat="59.9846699" lon="15.8275566">
        <ele>109.4</ele>
        <time>2013-10-11T18:36:51Z</time>
        <extensions><gpxtpx:TrackPointExtension><gpxtpx:hr>169</gpxtpx:hr></gpxtpx:TrackPointExtension></extensions>
      </trkpt>
      <trkpt lat="59.9846995" lon="15.827612">
        <ele>109.4</ele>
        <time>2013-10-11T18:36:54Z</time>
        <extensions><gpxtpx:TrackPointExtension><gpxtpx:hr>169</gpxtpx:hr></gpxtpx:TrackPointExtension></extensions>
      </trkpt>
      <trkpt lat="59.9847197" lon="15.82765">
        <ele>109.4</ele>
        <time>2013-10-11T18:36:56Z</time>
        <extensions><gpxtpx:TrackPointExtension><gpxtpx:hr>169</gpxtpx:hr></gpxtpx:TrackPointExtension></extensions>
      </trkpt>
      <trkpt lat="59.9847213" lon="15.8276584">
        <ele>109.4</ele>
        <time>2013-10-11T18:36:57Z</time>
        <extensions><gpxtpx:TrackPointExtension><gpxtpx:hr>169</gpxtpx:hr></gpxtpx:TrackPointExtension></extensions>
      </trkpt>
      <trkpt lat="59.9847259" lon="15.8276696">
        <ele>109.4</ele>
        <time>2013-10-11T18:36:58Z</time>
        <extensions><gpxtpx:TrackPointExtension><gpxtpx:hr>169</gpxtpx:hr></gpxtpx:TrackPointExtension></extensions>
      </trkpt>
      <trkpt lat="59.9847308" lon="15.8276794">
        <ele>109.4</ele>
        <time>2013-10-11T18:36:59Z</time>
        <extensions><gpxtpx:TrackPointExtension><gpxtpx:hr>169</gpxtpx:hr></gpxtpx:TrackPointExtension></extensions>
      </trkpt>
      <trkpt lat="59.9847357" lon="15.8276889">
        <ele>109.4</ele>
        <time>2013-10-11T18:37:00Z</time>
        <extensions><gpxtpx:TrackPointExtension><gpxtpx:hr>169</gpxtpx:hr></gpxtpx:TrackPointExtension></extensions>
      </trkpt>
      <trkpt lat="59.9847393" lon="15.827698">
        <ele>109.4</ele>
        <time>2013-10-11T18:37:01Z</time>
        <extensions><gpxtpx:TrackPointExtension><gpxtpx:hr>169</gpxtpx:hr></gpxtpx:TrackPointExtension></extensions>
      </trkpt>
      <trkpt lat="59.9847414" lon="15.827706">
        <ele>109.4</ele>
        <time>2013-10-11T18:37:02Z</time>
        <extensions><gpxtpx:TrackPointExtension><gpxtpx:hr>168</gpxtpx:hr></gpxtpx:TrackPointExtension></extensions>
      </trkpt>
      <trkpt lat="59.9847455" lon="15.8277099">
        <ele>109.4</ele>
        <time>2013-10-11T18:37:03Z</time>
        <extensions><gpxtpx:TrackPointExtension><gpxtpx:hr>169</gpxtpx:hr></gpxtpx:TrackPointExtension></extensions>
      </trkpt>
      <trkpt lat="59.9847451" lon="15.8277202">
        <ele>109.4</ele>
        <time>2013-10-11T18:37:08Z</time>
        <extensions><gpxtpx:TrackPointExtension><gpxtpx:hr>169</gpxtpx:hr></gpxtpx:TrackPointExtension></extensions>
      </trkpt>
      <trkpt lat="59.9846856" lon="15.8276208">
        <ele>109.4</ele>
        <time>2013-10-11T18:37:11Z</time>
        <extensions><gpxtpx:TrackPointExtension><gpxtpx:hr>169</gpxtpx:hr></gpxtpx:TrackPointExtension></extensions>
      </trkpt>
      <trkpt lat="59.9846901" lon="15.8276114">
        <ele>109.4</ele>
        <time>2013-10-11T18:37:13Z</time>
        <extensions><gpxtpx:TrackPointExtension><gpxtpx:hr>169</gpxtpx:hr></gpxtpx:TrackPointExtension></extensions>
      </trkpt>
      <trkpt lat="59.9846946" lon="15.827615">
        <ele>109.4</ele>
        <time>2013-10-11T18:37:16Z</time>
        <extensions><gpxtpx:TrackPointExtension><gpxtpx:hr>169</gpxtpx:hr></gpxtpx:TrackPointExtension></extensions>
      </trkpt>
      <trkpt lat="59.9846945" lon="15.8276067">
        <ele>109.4</ele>
        <time>2013-10-11T18:37:17Z</time>
        <extensions><gpxtpx:TrackPointExtension><gpxtpx:hr>169</gpxtpx:hr></gpxtpx:TrackPointExtension></extensions>
      </trkpt>
      <trkpt lat="59.9846975" lon="15.8276033">
        <ele>109.4</ele>
        <time>2013-10-11T18:37:18Z</time>
        <extensions><gpxtpx:TrackPointExtension><gpxtpx:hr>169</gpxtpx:hr></gpxtpx:TrackPointExtension></extensions>
      </trkpt>
      <trkpt lat="59.9846989" lon="15.8276008">
        <ele>109.4</ele>
        <time>2013-10-11T18:37:19Z</time>
        <extensions><gpxtpx:TrackPointExtension><gpxtpx:hr>169</gpxtpx:hr></gpxtpx:TrackPointExtension></extensions>
      </trkpt>
      <trkpt lat="59.9846974" lon="15.8275954">
        <ele>109.4</ele>
        <time>2013-10-11T18:37:20Z</time>
        <extensions><gpxtpx:TrackPointExtension><gpxtpx:hr>169</gpxtpx:hr></gpxtpx:TrackPointExtension></extensions>
      </trkpt>
      <trkpt lat="59.9846961" lon="15.8275885">
        <ele>109.4</ele>
        <time>2013-10-11T18:37:21Z</time>
        <extensions><gpxtpx:TrackPointExtension><gpxtpx:hr>169</gpxtpx:hr></gpxtpx:TrackPointExtension></extensions>
      </trkpt>
      <trkpt lat="59.9846958" lon="15.8275855">
        <ele>109.4</ele>
        <time>2013-10-11T18:37:22Z</time>
        <extensions><gpxtpx:TrackPointExtension><gpxtpx:hr>170</gpxtpx:hr></gpxtpx:TrackPointExtension></extensions>
      </trkpt>
      <trkpt lat="59.9846956" lon="15.8275877">
        <ele>109.4</ele>
        <time>2013-10-11T18:37:23Z</time>
        <extensions><gpxtpx:TrackPointExtension><gpxtpx:hr>170</gpxtpx:hr></gpxtpx:TrackPointExtension></extensions>
      </trkpt>
      <trkpt lat="59.9846962" lon="15.8275879">
        <ele>109.4</ele>
        <time>2013-10-11T18:37:24Z</time>
        <extensions><gpxtpx:TrackPointExtension><gpxtpx:hr>170</gpxtpx:hr></gpxtpx:TrackPointExtension></extensions>
      </trkpt>
      <trkpt lat="59.9846968" lon="15.8275804">
        <ele>109.4</ele>
        <time>2013-10-11T18:37:25Z</time>
        <extensions><gpxtpx:TrackPointExtension><gpxtpx:hr>169</gpxtpx:hr></gpxtpx:TrackPointExtension></extensions>
      </trkpt>
      <trkpt lat="59.9846971" lon="15.827567">
        <ele>109.4</ele>
        <time>2013-10-11T18:37:26Z</time>
        <extensions><gpxtpx:TrackPointExtension><gpxtpx:hr>170</gpxtpx:hr></gpxtpx:TrackPointExtension></extensions>
      </trkpt>
      <trkpt lat="59.9846956" lon="15.8275572">
        <ele>109.4</ele>
        <time>2013-10-11T18:37:27Z</time>
        <extensions><gpxtpx:TrackPointExtension><gpxtpx:hr>170</gpxtpx:hr></gpxtpx:TrackPointExtension></extensions>
      </trkpt>
      <trkpt lat="59.9846938" lon="15.8275503">
        <ele>109.4</ele>
        <time>2013-10-11T18:37:28Z</time>
        <extensions><gpxtpx:TrackPointExtension><gpxtpx:hr>169</gpxtpx:hr></gpxtpx:TrackPointExtension></extensions>
      </trkpt>
      <trkpt lat="59.9846922" lon="15.827545">
        <ele>109.4</ele>
        <time>2013-10-11T18:37:29Z</time>
        <extensions><gpxtpx:TrackPointExtension><gpxtpx:hr>169</gpxtpx:hr></gpxtpx:TrackPointExtension></extensions>
      </trkpt>
      <trkpt lat="59.9846937" lon="15.8275547">
        <ele>109.4</ele>
        <time>2013-10-11T18:37:30Z</time>
        <extensions><gpxtpx:TrackPointExtension><gpxtpx:hr>169</gpxtpx:hr></gpxtpx:TrackPointExtension></extensions>
      </trkpt>
      <trkpt lat="59.9846909" lon="15.827569">
        <ele>109.4</ele>
        <time>2013-10-11T18:37:33Z</time>
        <extensions><gpxtpx:TrackPointExtension><gpxtpx:hr>168</gpxtpx:hr></gpxtpx:TrackPointExtension></extensions>
      </trkpt>
      <trkpt lat="59.9846894" lon="15.827568">
        <ele>109.4</ele>
        <time>2013-10-11T18:37:34Z</time>
        <extensions><gpxtpx:TrackPointExtension><gpxtpx:hr>168</gpxtpx:hr></gpxtpx:TrackPointExtension></extensions>
      </trkpt>
      <trkpt lat="59.9846984" lon="15.8276093">
        <ele>109.4</ele>
        <time>2013-10-11T18:37:35Z</time>
        <extensions><gpxtpx:TrackPointExtension><gpxtpx:hr>168</gpxtpx:hr></gpxtpx:TrackPointExtension></extensions>
      </trkpt>
      <trkpt lat="59.9846935" lon="15.8276238">
        <ele>109.4</ele>
        <time>2013-10-11T18:37:37Z</time>
        <extensions><gpxtpx:TrackPointExtension><gpxtpx:hr>168</gpxtpx:hr></gpxtpx:TrackPointExtension></extensions>
      </trkpt>
      <trkpt lat="59.9846906" lon="15.8276176">
        <ele>109.4</ele>
        <time>2013-10-11T18:37:38Z</time>
        <extensions><gpxtpx:TrackPointExtension><gpxtpx:hr>168</gpxtpx:hr></gpxtpx:TrackPointExtension></extensions>
      </trkpt>
      <trkpt lat="59.9846857" lon="15.8276153">
        <ele>109.4</ele>
        <time>2013-10-11T18:37:39Z</time>
        <extensions><gpxtpx:TrackPointExtension><gpxtpx:hr>168</gpxtpx:hr></gpxtpx:TrackPointExtension></extensions>
      </trkpt>
      <trkpt lat="59.9846829" lon="15.8276159">
        <ele>109.4</ele>
        <time>2013-10-11T18:37:40Z</time>
        <extensions><gpxtpx:TrackPointExtension><gpxtpx:hr>169</gpxtpx:hr></gpxtpx:TrackPointExtension></extensions>
      </trkpt>
      <trkpt lat="59.9846812" lon="15.827619">
        <ele>109.4</ele>
        <time>2013-10-11T18:37:41Z</time>
        <extensions><gpxtpx:TrackPointExtension><gpxtpx:hr>168</gpxtpx:hr></gpxtpx:TrackPointExtension></extensions>
      </trkpt>
      <trkpt lat="59.9846774" lon="15.8276281">
        <ele>109.4</ele>
        <time>2013-10-11T18:37:42Z</time>
        <extensions><gpxtpx:TrackPointExtension><gpxtpx:hr>168</gpxtpx:hr></gpxtpx:TrackPointExtension></extensions>
      </trkpt>
      <trkpt lat="59.9846779" lon="15.8276424">
        <ele>109.4</ele>
        <time>2013-10-11T18:37:43Z</time>
        <extensions><gpxtpx:TrackPointExtension><gpxtpx:hr>168</gpxtpx:hr></gpxtpx:TrackPointExtension></extensions>
      </trkpt>
      <trkpt lat="59.9846767" lon="15.8276529">
        <ele>109.4</ele>
        <time>2013-10-11T18:37:44Z</time>
        <extensions><gpxtpx:TrackPointExtension><gpxtpx:hr>168</gpxtpx:hr></gpxtpx:TrackPointExtension></extensions>
      </trkpt>
      <trkpt lat="59.9846748" lon="15.8276566">
        <ele>109.4</ele>
        <time>2013-10-11T18:37:45Z</time>
        <extensions><gpxtpx:TrackPointExtension><gpxtpx:hr>168</gpxtpx:hr></gpxtpx:TrackPointExtension></extensions>
      </trkpt>
      <trkpt lat="59.9846744" lon="15.8276603">
        <ele>109.4</ele>
        <time>2013-10-11T18:37:46Z</time>
        <extensions><gpxtpx:TrackPointExtension><gpxtpx:hr>168</gpxtpx:hr></gpxtpx:TrackPointExtension></extensions>
      </trkpt>
      <trkpt lat="59.9846751" lon="15.8276664">
        <ele>109.4</ele>
        <time>2013-10-11T18:37:47Z</time>
        <extensions><gpxtpx:TrackPointExtension><gpxtpx:hr>169</gpxtpx:hr></gpxtpx:TrackPointExtension></extensions>
      </trkpt>
      <trkpt lat="59.9846729" lon="15.8276692">
        <ele>109.4</ele>
        <time>2013-10-11T18:37:48Z</time>
        <extensions><gpxtpx:TrackPointExtension><gpxtpx:hr>169</gpxtpx:hr></gpxtpx:TrackPointExtension></extensions>
      </trkpt>
      <trkpt lat="59.9846739" lon="15.8276683">
        <ele>109.4</ele>
        <time>2013-10-11T18:37:49Z</time>
        <extensions><gpxtpx:TrackPointExtension><gpxtpx:hr>168</gpxtpx:hr></gpxtpx:TrackPointExtension></extensions>
      </trkpt>
      <trkpt lat="59.9846768" lon="15.8276638">
        <ele>109.4</ele>
        <time>2013-10-11T18:37:50Z</time>
        <extensions><gpxtpx:TrackPointExtension><gpxtpx:hr>168</gpxtpx:hr></gpxtpx:TrackPointExtension></extensions>
      </trkpt>
      <trkpt lat="59.9846797" lon="15.8276598">
        <ele>109.4</ele>
        <time>2013-10-11T18:37:51Z</time>
        <extensions><gpxtpx:TrackPointExtension><gpxtpx:hr>169</gpxtpx:hr></gpxtpx:TrackPointExtension></extensions>
      </trkpt>
      <trkpt lat="59.9846946" lon="15.8276058">
        <ele>109.4</ele>
        <time>2013-10-11T18:37:52Z</time>
        <extensions><gpxtpx:TrackPointExtension><gpxtpx:hr>169</gpxtpx:hr></gpxtpx:TrackPointExtension></extensions>
      </trkpt>
      <trkpt lat="59.9846979" lon="15.8276023">
        <ele>109.4</ele>
        <time>2013-10-11T18:37:53Z</time>
        <extensions><gpxtpx:TrackPointExtension><gpxtpx:hr>169</gpxtpx:hr></gpxtpx:TrackPointExtension></extensions>
      </trkpt>
      <trkpt lat="59.984702" lon="15.8275824">
        <ele>109.4</ele>
        <time>2013-10-11T18:37:54Z</time>
        <extensions><gpxtpx:TrackPointExtension><gpxtpx:hr>169</gpxtpx:hr></gpxtpx:TrackPointExtension></extensions>
      </trkpt>
      <trkpt lat="59.9847083" lon="15.8275629">
        <ele>109.4</ele>
        <time>2013-10-11T18:37:55Z</time>
        <extensions><gpxtpx:TrackPointExtension><gpxtpx:hr>169</gpxtpx:hr></gpxtpx:TrackPointExtension></extensions>
      </trkpt>
      <trkpt lat="59.9847111" lon="15.8275473">
        <ele>109.4</ele>
        <time>2013-10-11T18:37:56Z</time>
        <extensions><gpxtpx:TrackPointExtension><gpxtpx:hr>169</gpxtpx:hr></gpxtpx:TrackPointExtension></extensions>
      </trkpt>
      <trkpt lat="59.9847186" lon="15.8275343">
        <ele>109.4</ele>
        <time>2013-10-11T18:37:57Z</time>
        <extensions><gpxtpx:TrackPointExtension><gpxtpx:hr>169</gpxtpx:hr></gpxtpx:TrackPointExtension></extensions>
      </trkpt>
      <trkpt lat="59.9847235" lon="15.8275283">
        <ele>109.4</ele>
        <time>2013-10-11T18:37:58Z</time>
        <extensions><gpxtpx:TrackPointExtension><gpxtpx:hr>170</gpxtpx:hr></gpxtpx:TrackPointExtension></extensions>
      </trkpt>
      <trkpt lat="59.9847343" lon="15.8275015">
        <ele>109.4</ele>
        <time>2013-10-11T18:38:01Z</time>
        <extensions><gpxtpx:TrackPointExtension><gpxtpx:hr>170</gpxtpx:hr></gpxtpx:TrackPointExtension></extensions>
      </trkpt>
      <trkpt lat="59.9847385" lon="15.8275048">
        <ele>109.4</ele>
        <time>2013-10-11T18:38:02Z</time>
        <extensions><gpxtpx:TrackPointExtension><gpxtpx:hr>170</gpxtpx:hr></gpxtpx:TrackPointExtension></extensions>
      </trkpt>
      <trkpt lat="59.9847393" lon="15.8275039">
        <ele>109.4</ele>
        <time>2013-10-11T18:38:03Z</time>
        <extensions><gpxtpx:TrackPointExtension><gpxtpx:hr>170</gpxtpx:hr></gpxtpx:TrackPointExtension></extensions>
      </trkpt>
      <trkpt lat="59.9847376" lon="15.8274967">
        <ele>109.4</ele>
        <time>2013-10-11T18:38:04Z</time>
        <extensions><gpxtpx:TrackPointExtension><gpxtpx:hr>170</gpxtpx:hr></gpxtpx:TrackPointExtension></extensions>
      </trkpt>
      <trkpt lat="59.984724" lon="15.8275109">
        <ele>109.4</ele>
        <time>2013-10-11T18:38:06Z</time>
        <extensions><gpxtpx:TrackPointExtension><gpxtpx:hr>170</gpxtpx:hr></gpxtpx:TrackPointExtension></extensions>
      </trkpt>
      <trkpt lat="59.9847214" lon="15.8275208">
        <ele>109.4</ele>
        <time>2013-10-11T18:38:08Z</time>
        <extensions><gpxtpx:TrackPointExtension><gpxtpx:hr>170</gpxtpx:hr></gpxtpx:TrackPointExtension></extensions>
      </trkpt>
      <trkpt lat="59.9847363" lon="15.827496">
        <ele>109.4</ele>
        <time>2013-10-11T18:38:09Z</time>
        <extensions><gpxtpx:TrackPointExtension><gpxtpx:hr>170</gpxtpx:hr></gpxtpx:TrackPointExtension></extensions>
      </trkpt>
      <trkpt lat="59.9847445" lon="15.8274825">
        <ele>109.4</ele>
        <time>2013-10-11T18:38:11Z</time>
        <extensions><gpxtpx:TrackPointExtension><gpxtpx:hr>170</gpxtpx:hr></gpxtpx:TrackPointExtension></extensions>
      </trkpt>
      <trkpt lat="59.9847458" lon="15.8274832">
        <ele>109.4</ele>
        <time>2013-10-11T18:38:12Z</time>
        <extensions><gpxtpx:TrackPointExtension><gpxtpx:hr>170</gpxtpx:hr></gpxtpx:TrackPointExtension></extensions>
      </trkpt>
      <trkpt lat="59.9847433" lon="15.8274856">
        <ele>109.4</ele>
        <time>2013-10-11T18:38:13Z</time>
        <extensions><gpxtpx:TrackPointExtension><gpxtpx:hr>170</gpxtpx:hr></gpxtpx:TrackPointExtension></extensions>
      </trkpt>
    </trkseg>
  </trk>
</gpx>